# Wetter Temperatur Luftdruck Luftfeuchtigkeit Sichtweite Windgeschwindigkeit Windrichtung Zeit
1 Clouds 7 1002 76 10000 12.45 271 14:22 01.02.2023
2 Clouds 6 1002 83 10000 12.65 268 13:19 01.02.2023
3 Clouds 5 1003 86 10000 11.79 270 12:27 01.02.2023
4 Clouds 5 1003 86 10000 11.79 270 11:52 01.02.2023
5 Clouds 6 1003 90 10000 11.42 272 08:42 01.02.2023
6 Rain 4 1004 81 10000 16.94 272 00:34 01.02.2023
7 Rain 5 1004 80 10000 16.77 280 21:28 31.01.2023
8 Rain 5 1003 77 10000 16.92 280 19:32 31.01.2023
9 Clouds 5 1002 82 10000 14.87 266 18:29 31.01.2023
10 Clouds 7 1004 95 10000 13.57 261 15:36 31.01.2023
11 Clouds 7 1004 94 10000 13.79 256 15:18 31.01.2023
12 Clouds 4 1005 96 5545 12.73 237 13:51 31.01.2023
13 Rain 3 1009 97 100 11.21 236 11:43 31.01.2023
14 Rain 5 1011 90 10000 10.71 255 10:27 31.01.2023
15 Clouds 5 1011 90 10000 10.71 255 09:51 31.01.2023
16 Clouds 4 1011 87 10000 10.89 265 08:59 31.01.2023
17 Clouds 4 1011 87 10000 10.89 265 08:34 31.01.2023
18 Clouds 4 1012 77 10000 11.55 289 05:32 31.01.2023
19 Clear 4 1009 74 10000 13.24 305 23:54 30.01.2023
20 Clear 4 1008 74 10000 14.33 306 22:50 30.01.2023
21 Clear 4 1007 74 10000 14.86 303 22:22 30.01.2023
22 Clear 4 1006 74 10000 15.34 304 20:47 30.01.2023
23 Clear 4 1004 74 10000 15.75 305 19:53 30.01.2023
24 Clouds 5 1001 72 10000 15.88 303 17:30 30.01.2023
25 Clouds 5 999 74 10000 16.34 297 16:26 30.01.2023
26 Clouds 5 998 79 10000 13.94 277 14:27 30.01.2023
27 Clouds 5 998 81 10000 14.73 271 12:26 30.01.2023
28 Clouds 5 999 79 10000 13.86 272 10:55 30.01.2023
29 Clouds 6 999 81 10000 13.57 271 09:54 30.01.2023
30 Clouds 5 999 81 10000 13.49 274 08:48 30.01.2023
31 Clouds 6 1000 82 10000 12.5 276 06:46 30.01.2023
32 Rain 4 1003 88 10000 16.7 244 01:38 30.01.2023
33 Rain 4 1006 89 10000 15.57 239 23:35 29.01.2023
34 Clouds 4 1008 88 10000 15.25 238 22:37 29.01.2023
35 Clouds 4 1009 88 10000 14.87 237 21:35 29.01.2023
36 Clouds 4 1010 89 10000 14.46 235 20:36 29.01.2023
37 Clouds 5 1011 91 10000 13.74 237 19:34 29.01.2023
38 Clouds 5 1012 91 10000 12.93 239 18:44 29.01.2023
39 Clouds 5 1013 92 10000 12.87 242 17:35 29.01.2023
40 Rain 4 1015 90 10000 13.4 248 16:21 29.01.2023
41 Clouds 4 1016 92 10000 12.65 245 14:48 29.01.2023
42 Clouds 6 1016 92 10000 12.08 250 13:30 29.01.2023
43 Clouds 4 1017 93 10000 12.2 251 12:42 29.01.2023
44 Clouds 4 1019 94 10000 10.86 249 12:22 29.01.2023
45 Clouds 4 1019 94 10000 10.86 249 11:48 29.01.2023
46 Clouds 4 1019 92 10000 11.47 254 11:26 29.01.2023
47 Clouds 4 1020 95 10000 10.78 256 09:37 29.01.2023
48 Clouds 5 1020 90 10000 9.69 257 07:19 29.01.2023
49 Clouds 4 1022 92 10000 9.06 263 03:39 29.01.2023
50 Clouds 3 1023 92 10000 9.31 251 23:27 28.01.2023
51 Clouds 3 1024 89 10000 9.46 252 20:38 28.01.2023
52 Clouds 3 1024 86 10000 9.42 251 19:52 28.01.2023
53 Clouds 3 1024 81 10000 8.38 251 18:33 28.01.2023
54 Clouds 3 1025 76 10000 8.08 247 17:20 28.01.2023
55 Clouds 2 1026 74 10000 8.24 266 16:25 28.01.2023
56 Clouds 2 1026 74 10000 8.24 266 15:49 28.01.2023
57 Clouds 2 1025 75 10000 8.16 262 14:53 28.01.2023
58 Clouds 2 1025 76 10000 7.75 260 13:30 28.01.2023
59 Clouds 2 1026 76 10000 6.64 272 11:55 28.01.2023
60 Clouds 2 1027 76 10000 5.9 274 10:34 28.01.2023
61 Clouds 2 1027 78 10000 4.76 271 08:53 28.01.2023
62 Clouds 2 1028 70 10000 1.16 25 01:48 28.01.2023
63 Clouds 2 1028 71 10000 2.09 63 00:27 28.01.2023
64 Clouds 2 1029 72 10000 3.43 66 21:54 27.01.2023
65 Clouds 3 1028 71 10000 5.42 55 18:57 27.01.2023
66 Clouds 3 1028 72 10000 5.78 54 17:58 27.01.2023
67 Clouds 3 1028 75 10000 5.99 53 17:20 27.01.2023
68 Clouds 3 1028 75 10000 5.99 53 16:35 27.01.2023
69 Clouds 3 1028 74 10000 6.37 56 15:25 27.01.2023
70 Clouds 3 1028 74 10000 6.65 59 14:26 27.01.2023
71 Clouds 3 1028 74 10000 6.65 59 13:33 27.01.2023
72 Clear 3 1028 74 10000 8.35 57 09:30 27.01.2023
73 Clouds 3 1027 77 10000 9.11 51 06:51 27.01.2023
74 Clouds 3 1024 96 4368 11.5 50 00:28 27.01.2023
75 Clouds 4 1023 95 10000 8.58 40 21:57 26.01.2023
76 Clouds 4 1022 91 10000 7.27 34 20:55 26.01.2023
77 Clouds 4 1022 88 10000 6.22 34 19:59 26.01.2023
78 Clouds 3 1021 88 10000 5.62 29 17:57 26.01.2023
79 Clouds 3 1021 89 10000 5.6 13 16:54 26.01.2023
80 Clouds 3 1020 92 10000 3.54 344 16:21 26.01.2023
81 Clouds 3 1020 92 10000 3.54 344 15:43 26.01.2023
82 Clouds 3 1020 94 10000 3.47 288 15:24 26.01.2023
83 Clouds 3 1020 94 10000 4.04 265 13:54 26.01.2023
84 Clouds 2 1020 93 10000 4.11 248 12:31 26.01.2023
85 Clouds 3 1021 93 10000 4.67 247 10:56 26.01.2023
86 Clouds 2 1021 91 10000 5.31 253 10:26 26.01.2023
87 Clouds 2 1021 91 10000 5.31 253 09:42 26.01.2023
88 Clouds 2 1022 90 10000 5.39 244 08:25 26.01.2023
89 Clouds 1 1023 85 10000 6.2 240 23:58 25.01.2023
90 Clouds 1 1023 85 10000 6.2 240 23:37 25.01.2023
91 Clouds 2 1024 82 10000 6.74 250 21:54 25.01.2023
92 Clouds 1 1024 83 10000 7.06 250 21:20 25.01.2023
93 Clouds 2 1025 82 10000 5.92 237 18:31 25.01.2023
94 Clouds 2 1026 81 10000 5.94 239 17:30 25.01.2023
95 Clouds 2 1027 82 10000 6.43 241 15:40 25.01.2023
96 Clouds 2 1030 81 10000 7.51 243 12:54 25.01.2023
97 Clouds 1 1032 86 10000 7.19 241 10:51 25.01.2023
98 Clouds 1 1032 87 10000 6.89 240 09:44 25.01.2023
99 Clouds 1 1034 86 10000 6.41 241 07:18 25.01.2023
100 Clouds 2 1037 83 10000 5.93 240 01:29 25.01.2023
101 Clouds 2 1038 82 10000 4.97 247 00:23 25.01.2023
102 Clouds 2 1038 81 10000 4.51 239 21:33 24.01.2023
103 Clear 2 1038 78 10000 4.03 248 20:19 24.01.2023
104 Clouds 2 1038 77 10000 3.79 252 18:43 24.01.2023
105 Clouds 2 1039 76 10000 3.59 260 17:30 24.01.2023
106 Clouds 2 1039 74 10000 3.18 252 16:53 24.01.2023
107 Clouds 2 1039 73 10000 3 259 15:50 24.01.2023
108 Clouds 2 1039 71 10000 2.77 255 13:41 24.01.2023
109 Clouds 3 1040 69 10000 2.43 239 11:30 24.01.2023
110 Clouds 3 1040 68 10000 1.28 260 08:38 24.01.2023
111 Clouds 3 1040 69 10000 1.53 234 08:18 24.01.2023
112 Clouds 3 1040 69 10000 1.53 234 07:47 24.01.2023
113 Clouds 3 1039 69 10000 1.1 176 02:40 24.01.2023
114 Clouds 3 1040 68 10000 0.45 48 00:37 24.01.2023
115 Clouds 3 1040 72 10000 2.4 120 22:28 23.01.2023
116 Clouds 3 1040 72 10000 2.04 76 20:26 23.01.2023
117 Clouds 3 1040 69 10000 1.77 80 19:21 23.01.2023
118 Clouds 3 1039 69 10000 2.41 90 17:19 23.01.2023
119 Clouds 3 1039 68 10000 2.75 76 15:32 23.01.2023
120 Clouds 3 1039 71 10000 2.99 72 13:56 23.01.2023
121 Clouds 3 1039 74 10000 2.69 89 12:55 23.01.2023
122 Clouds 3 1040 77 10000 2.33 97 11:57 23.01.2023
123 Clouds 3 1040 79 10000 2.69 118 11:28 23.01.2023
124 Clouds 3 1038 85 10000 3.21 116 08:25 23.01.2023
125 Clouds 3 1036 79 10000 4.7 96 00:27 23.01.2023
126 Clouds 3 1035 78 10000 6.09 96 22:20 22.01.2023
127 Clouds 3 1035 80 10000 6.12 90 21:19 22.01.2023
128 Clouds 3 1035 85 10000 6 82 20:22 22.01.2023
129 Clouds 3 1035 85 10000 6 82 19:45 22.01.2023
130 Clouds 3 1035 86 10000 6.74 77 18:49 22.01.2023
131 Clouds 3 1034 85 10000 7.2 75 17:56 22.01.2023
132 Clouds 3 1034 84 10000 7.66 72 17:25 22.01.2023
133 Clouds 3 1034 83 10000 7.96 70 15:34 22.01.2023
134 Clouds 4 1033 81 10000 8.15 71 14:54 22.01.2023
135 Clouds 4 1033 81 10000 8.35 70 13:39 22.01.2023
136 Clouds 4 1033 82 10000 8.44 73 12:34 22.01.2023
137 Clouds 4 1033 80 10000 8.74 77 11:35 22.01.2023
138 Clouds 4 1033 79 10000 9.78 75 09:35 22.01.2023
139 Clouds 4 1032 81 10000 10.42 66 06:40 22.01.2023
140 Clouds 4 1031 81 10000 12.14 60 02:37 22.01.2023
141 Clouds 4 1032 81 10000 12.37 54 23:33 21.01.2023
142 Clouds 4 1031 81 10000 12.49 51 22:34 21.01.2023
143 Clouds 3 1031 79 10000 12.54 40 19:48 21.01.2023
144 Clouds 4 1031 77 10000 11.95 37 17:51 21.01.2023
145 Clouds 4 1031 77 10000 10.51 39 14:42 21.01.2023
146 Clouds 4 1031 78 10000 9.91 41 12:58 21.01.2023
147 Clouds 4 1031 78 10000 9.91 41 12:36 21.01.2023
148 Clouds 4 1031 78 10000 9.91 41 12:36 21.01.2023
149 Clouds 4 1031 73 10000 8.3 48 11:27 21.01.2023
150 Clouds 4 1031 71 10000 7.66 53 09:35 21.01.2023
151 Clouds 3 1028 78 10000 3.26 80 04:41 21.01.2023
152 Clouds 3 1024 72 10000 0.96 169 22:31 20.01.2023
153 Clouds 3 1024 72 10000 0.96 169 22:31 20.01.2023
154 Clouds 3 1023 75 10000 1.7 208 21:58 20.01.2023
155 Clouds 3 1023 75 10000 1.7 208 21:33 20.01.2023
156 Clouds 2 1022 81 10000 3.93 204 19:55 20.01.2023
157 Clouds 3 1020 79 10000 4.71 227 17:54 20.01.2023
158 Clouds 3 1017 79 10000 4.09 237 14:47 20.01.2023
159 Clouds 3 1016 81 10000 4.61 244 13:51 20.01.2023
160 Clouds 2 1014 87 10000 7.34 230 10:48 20.01.2023
161 Clouds 1 1012 89 10000 7.04 213 08:59 20.01.2023
162 Clouds 1 1010 87 10000 5.76 216 06:40 20.01.2023
163 Clouds 2 1007 88 10000 6.75 217 02:32 20.01.2023
164 Clouds 2 1005 96 4466 7.46 218 22:37 19.01.2023
165 Clouds 2 1004 96 1534 7.51 209 21:47 19.01.2023
166 Clouds 2 1003 87 10000 7.73 210 19:38 19.01.2023
167 Clouds 3 1003 83 10000 8.54 200 18:56 19.01.2023
168 Clouds 3 1001 77 10000 10.88 208 14:26 19.01.2023
169 Clouds 2 1000 78 10000 11.29 196 10:44 19.01.2023
170 Clouds 1 1000 81 10000 10.86 197 08:58 19.01.2023
171 Clouds 2 999 75 10000 6.84 209 22:42 18.01.2023
172 Clouds 2 998 73 10000 5.86 218 20:36 18.01.2023
173 Clouds 2 998 73 10000 5.48 224 20:18 18.01.2023
174 Clouds 2 998 73 10000 5.48 224 19:35 18.01.2023
175 Clouds 3 997 74 10000 4.44 224 17:32 18.01.2023
176 Clouds 3 995 71 10000 4.71 239 14:21 18.01.2023
177 Clouds 3 994 71 10000 4.73 233 12:50 18.01.2023
178 Clouds 2 994 74 10000 6.42 208 10:29 18.01.2023
179 Clouds 1 992 77 10000 7.15 202 07:36 18.01.2023
180 Clear 2 989 82 10000 8.79 216 01:25 18.01.2023
181 Clear 2 988 81 10000 9.02 221 22:30 17.01.2023
182 Clear 3 986 77 10000 11.1 223 20:27 17.01.2023
183 Clouds 3 985 76 10000 10.9 226 19:18 17.01.2023
184 Clouds 4 984 73 10000 11.28 228 17:53 17.01.2023
185 Clouds 4 983 74 10000 11.94 243 15:38 17.01.2023
186 Clouds 4 981 77 10000 12.65 233 14:52 17.01.2023
187 Rain 4 980 78 10000 14.15 245 13:34 17.01.2023
188 Clouds 3 978 97 75 12.11 236 11:51 17.01.2023
189 Clouds 3 978 97 221 8.78 180 10:49 17.01.2023
190 Clouds 4 978 92 10000 9.45 184 09:31 17.01.2023
191 Rain 3 978 95 5939 9.69 165 07:52 17.01.2023
192 Clouds 3 979 81 10000 11.06 147 03:54 17.01.2023
193 Clouds 5 981 77 10000 12.16 140 00:57 17.01.2023
194 Clouds 5 983 76 10000 11.27 142 22:59 16.01.2023
195 Clouds 4 984 78 10000 11.52 145 21:47 16.01.2023
196 Clouds 5 985 79 10000 11.45 147 20:23 16.01.2023
197 Clouds 5 986 78 10000 11.38 147 19:30 16.01.2023
198 Clouds 5 986 80 10000 11.35 144 18:52 16.01.2023
199 Clouds 5 987 81 10000 10.82 142 18:20 16.01.2023
200 Clouds 5 987 81 10000 10.82 142 17:34 16.01.2023
201 Clouds 4 990 84 10000 7.59 154 14:37 16.01.2023
202 Clouds 4 990 84 10000 7.83 163 13:38 16.01.2023
203 Clouds 4 994 86 10000 7.42 186 10:28 16.01.2023
204 Clouds 4 994 86 10000 7.42 186 09:53 16.01.2023
205 Clouds 6 994 78 10000 15.7 240 23:22 15.01.2023
206 Clouds 6 993 81 10000 16.69 239 21:42 15.01.2023
207 Clouds 5 993 86 10000 16.68 234 20:40 15.01.2023
208 Clouds 6 992 87 10000 17.6 232 19:49 15.01.2023
209 Clouds 6 991 75 10000 17.97 221 17:46 15.01.2023
210 Clouds 6 992 73 10000 16.1 223 15:44 15.01.2023
211 Clouds 6 993 76 10000 13.85 226 12:34 15.01.2023
212 Clouds 6 993 76 10000 12.49 227 11:36 15.01.2023
213 Clouds 6 993 79 10000 12.41 232 10:28 15.01.2023
214 Clouds 6 993 79 10000 12.41 232 09:35 15.01.2023
215 Clouds 8 992 93 9596 12.7 260 01:48 15.01.2023
216 Rain 9 992 91 8606 14.04 204 23:20 14.01.2023
217 Clouds 8 993 89 10000 14.74 194 22:00 14.01.2023
218 Clouds 8 993 89 10000 14.74 194 21:36 14.01.2023
219 Clouds 8 993 89 10000 14.74 194 21:36 14.01.2023
220 Rain 8 994 91 7792 14.94 185 21:18 14.01.2023
221 Rain 7 994 91 7792 14.94 185 20:39 14.01.2023
222 Rain 7 998 92 10000 13.04 179 18:40 14.01.2023
223 Rain 7 1000 90 10000 12.06 177 17:35 14.01.2023
224 Clouds 6 1004 77 10000 9.44 184 15:29 14.01.2023
225 Clouds 6 1006 79 10000 8.42 192 14:25 14.01.2023
226 Clouds 6 1006 79 10000 8.42 192 13:42 14.01.2023
227 Clouds 6 1008 83 10000 9.05 219 11:51 14.01.2023
228 Clouds 6 1009 85 10000 9.49 224 10:47 14.01.2023
229 Clouds 6 1008 81 10000 10.66 249 08:19 14.01.2023
230 Clouds 7 1002 86 10000 15.51 245 23:39 13.01.2023
231 Clouds 6 1002 88 10000 15.26 237 22:53 13.01.2023
232 Clouds 6 1002 88 10000 15.26 237 22:34 13.01.2023
233 Clouds 7 1001 84 10000 14.34 236 21:46 13.01.2023
234 Clouds 7 1000 81 10000 13.68 232 19:49 13.01.2023
235 Rain 6 1000 88 10000 13.22 226 18:47 13.01.2023
236 Clouds 7 1000 84 10000 12.74 221 16:57 13.01.2023
237 Clouds 7 999 80 10000 12.58 222 14:40 13.01.2023
238 Clouds 7 1000 77 10000 10.77 222 12:21 13.01.2023
239 Clouds 7 1000 79 10000 10.89 222 10:32 13.01.2023
240 Clouds 7 1000 81 10000 10.13 219 09:54 13.01.2023
241 Clouds 7 1000 81 10000 10.13 219 09:34 13.01.2023
242 Clouds 7 1000 83 10000 9.34 221 08:47 13.01.2023
243 Clouds 10 999 84 10000 8.14 230 06:55 13.01.2023
244 Rain 7 999 87 10000 8.07 240 05:44 13.01.2023
245 Rain 8 998 94 10000 10.5 216 00:45 13.01.2023
246 Rain 8 999 94 10000 8.94 206 22:45 12.01.2023
247 Rain 8 999 94 10000 8.94 206 22:45 12.01.2023
248 Clouds 7 1000 92 10000 4.72 214 20:56 12.01.2023
249 Clouds 7 1000 92 10000 4.72 214 20:30 12.01.2023
250 Clouds 7 1000 88 10000 10.48 246 17:59 12.01.2023
251 Clouds 8 999 87 10000 13.34 247 16:48 12.01.2023
252 Clouds 8 998 87 10000 14.44 220 14:54 12.01.2023
253 Clouds 8 998 85 10000 15.19 218 14:25 12.01.2023
254 Clouds 8 998 85 10000 15.19 218 13:33 12.01.2023
255 Rain 6 1001 92 8650 9.75 185 11:22 12.01.2023
256 Rain 7 1002 90 10000 10.83 196 10:24 12.01.2023
257 Clouds 6 1004 87 10000 9.55 217 06:45 12.01.2023
258 Clouds 6 1007 89 10000 9.77 210 00:31 12.01.2023
259 Clouds 6 1008 89 10000 9.39 213 23:48 11.01.2023
260 Clouds 6 1008 89 10000 9.39 213 23:48 11.01.2023
261 Clouds 6 1008 89 10000 9.39 213 23:30 11.01.2023
262 Clouds 6 1008 89 10000 9.39 213 23:30 11.01.2023
263 Clouds 6 1008 88 10000 8.74 222 22:55 11.01.2023
264 Clouds 6 1008 90 10000 7.83 234 21:20 11.01.2023
265 Clouds 6 1007 89 10000 6.37 245 18:50 11.01.2023
266 Clouds 7 1007 90 10000 7.01 244 17:30 11.01.2023
267 Rain 7 1006 96 10000 6.42 239 15:38 11.01.2023
268 Clouds 7 1006 94 10000 8.04 222 13:56 11.01.2023
269 Clouds 7 1005 95 10000 9.9 207 12:27 11.01.2023
270 Clouds 7 1005 94 10000 10.6 208 11:24 11.01.2023
271 Rain 6 1005 91 10000 12.32 197 08:50 11.01.2023
272 Clouds 6 1005 90 10000 13.04 189 07:29 11.01.2023
273 Clouds 5 1006 89 10000 13.49 189 06:23 11.01.2023
274 Clouds 5 1012 86 10000 9.62 178 23:45 10.01.2023
275 Clouds 6 1014 82 10000 7.49 187 22:19 10.01.2023
276 Clouds 5 1014 85 10000 7.59 194 21:20 10.01.2023
277 Clouds 6 1015 87 10000 7.53 198 19:55 10.01.2023
278 Clouds 6 1015 87 10000 6.51 206 19:27 10.01.2023
279 Clouds 6 1015 87 10000 6.51 206 18:37 10.01.2023
280 Clouds 5 1016 89 10000 7.24 228 17:26 10.01.2023
281 Clear 5 1015 88 10000 6.48 222 15:47 10.01.2023
282 Clear 6 1015 85 10000 6.42 228 15:21 10.01.2023
283 Clear 6 1015 86 10000 6.51 235 13:33 10.01.2023
284 Rain 5 1014 93 10000 7.9 248 10:38 10.01.2023
285 Clouds 5 1012 94 10000 7.8 250 08:44 10.01.2023
286 Clouds 5 1011 93 10000 7.97 249 07:59 10.01.2023
287 Clouds 6 1010 93 10000 6.81 246 07:25 10.01.2023
288 Clouds 6 1007 89 10000 4.06 239 03:33 10.01.2023
289 Clouds 5 1003 92 10000 3.75 241 22:50 09.01.2023
290 Clouds 5 1002 92 10000 4.46 236 21:20 09.01.2023
291 Clouds 5 1002 92 10000 4.46 236 20:32 09.01.2023
292 Clouds 5 1000 93 10000 5.35 230 18:42 09.01.2023
293 Clouds 5 999 93 10000 5.37 234 17:51 09.01.2023
294 Clouds 6 999 92 10000 5.82 236 16:47 09.01.2023
295 Clouds 6 998 92 10000 6.2 248 16:29 09.01.2023
296 Clouds 6 997 92 10000 5.8 228 15:22 09.01.2023
297 Clouds 6 997 92 10000 5.8 228 14:43 09.01.2023
298 Clouds 5 996 94 10000 5.3 207 12:54 09.01.2023
299 Rain 5 996 94 10000 5.74 209 12:22 09.01.2023
300 Rain 5 996 94 10000 6.5 194 11:20 09.01.2023
301 Rain 5 996 94 10000 6.14 147 08:28 09.01.2023
302 Clouds 5 996 94 10000 5.81 149 06:31 09.01.2023
303 Clouds 5 998 96 10000 5.53 168 02:53 09.01.2023
304 Clouds 6 1000 95 10000 6.01 171 22:31 08.01.2023
305 Clouds 6 1001 94 10000 5.77 185 21:23 08.01.2023
306 Clouds 6 1001 94 10000 5.77 185 21:23 08.01.2023
307 Clouds 6 1001 94 10000 5.77 185 20:57 08.01.2023
308 Clouds 7 1002 94 10000 6.71 196 19:19 08.01.2023
309 Clouds 7 1002 96 10000 6.42 195 17:39 08.01.2023
310 Clouds 6 1002 96 10000 6.78 191 17:18 08.01.2023
311 Clouds 7 1002 96 10000 6.28 188 15:38 08.01.2023
312 Clouds 7 1002 96 10000 6.28 188 15:38 08.01.2023
313 Clouds 7 1003 95 10000 6.01 191 14:18 08.01.2023
314 Clouds 7 1003 95 10000 6.01 191 13:32 08.01.2023
315 Rain 6 1003 96 10000 6.4 191 12:59 08.01.2023
316 Rain 6 1004 97 7487 6.84 194 11:23 08.01.2023
317 Rain 6 1004 95 10000 6.6 181 09:37 08.01.2023
318 Clouds 6 1004 91 10000 6.73 179 08:27 08.01.2023
319 Clouds 6 1007 88 10000 8 171 02:43 08.01.2023
320 Clouds 6 1009 90 10000 7.24 162 22:55 07.01.2023
321 Clouds 6 1009 90 10000 7.24 162 22:34 07.01.2023
322 Clouds 6 1010 91 10000 6.8 171 21:51 07.01.2023
323 Clouds 6 1010 93 10000 6.58 171 20:59 07.01.2023
324 Clouds 6 1011 94 10000 6.22 174 20:25 07.01.2023
325 Clouds 7 1011 93 10000 5.73 177 19:23 07.01.2023
326 Clouds 7 1011 93 10000 5.75 178 18:18 07.01.2023
327 Clouds 7 1011 93 10000 5.75 178 17:40 07.01.2023
328 Clouds 7 1012 94 10000 5.69 182 16:41 07.01.2023
329 Clouds 7 1012 95 10000 5.62 183 16:20 07.01.2023
330 Clouds 7 1012 95 10000 5.62 183 15:38 07.01.2023
331 Clouds 7 1013 97 10000 5.4 187 15:18 07.01.2023
332 Clouds 6 1013 98 10000 5.54 190 13:59 07.01.2023
333 Clouds 6 1013 98 10000 5.54 190 13:41 07.01.2023
334 Clouds 6 1013 97 10000 5.57 182 12:50 07.01.2023
335 Rain 6 1014 97 10000 5.54 182 12:21 07.01.2023
336 Clouds 6 1015 97 10000 5.39 187 10:28 07.01.2023
337 Clouds 5 1015 96 10000 5 193 09:22 07.01.2023
338 Clouds 5 1015 95 10000 5.18 196 07:59 07.01.2023
339 Clouds 5 1015 96 10000 5.18 199 07:40 07.01.2023
340 Clouds 5 1015 94 10000 4.34 197 06:21 07.01.2023
341 Clouds 6 1016 87 10000 7.07 252 23:24 06.01.2023
342 Clouds 6 1015 87 10000 7.7 253 22:21 06.01.2023
343 Clouds 6 1015 87 10000 7.7 253 21:50 06.01.2023
344 Clouds 6 1015 88 10000 8.77 254 20:38 06.01.2023
345 Clouds 6 1014 91 10000 8.29 256 19:55 06.01.2023
346 Clouds 6 1014 91 10000 8.29 256 19:37 06.01.2023
347 Clouds 6 1014 91 10000 8.57 260 19:19 06.01.2023
348 Clouds 6 1013 91 10000 9.45 261 17:55 06.01.2023
349 Clouds 6 1013 90 10000 9.68 262 16:53 06.01.2023
350 Clouds 6 1012 89 10000 9.11 265 16:23 06.01.2023
351 Clouds 6 1012 89 10000 9.11 265 15:52 06.01.2023
352 Clouds 6 1011 89 10000 8.79 271 15:29 06.01.2023
353 Clouds 10 1010 94 10000 10.94 246 13:42 06.01.2023
354 Rain 5 1011 96 7361 10.74 171 11:52 06.01.2023
355 Rain 4 1012 94 6129 11.01 164 10:34 06.01.2023
356 Rain 3 1014 94 6079 12.14 145 08:50 06.01.2023
357 Rain 4 1018 84 10000 8.78 137 05:23 06.01.2023
358 Clouds 4 1020 88 10000 3.41 126 22:57 05.01.2023
359 Clouds 4 1020 88 10000 3.41 126 22:30 05.01.2023
360 Clouds 3 1019 89 10000 2.9 92 20:57 05.01.2023
361 Clouds 6 1017 96 1591 4.22 35 17:31 05.01.2023
362 Clouds 6 1016 95 10000 4.92 13 16:50 05.01.2023
363 Clouds 4 1014 92 10000 7.9 332 15:58 05.01.2023
364 Clouds 4 1014 92 10000 7.9 332 15:58 05.01.2023
365 Clouds 4 1014 92 10000 7.9 332 15:34 05.01.2023
366 Clouds 4 1011 87 10000 13.15 308 13:36 05.01.2023
367 Clouds 4 1009 86 10000 14.33 303 12:41 05.01.2023
368 Clouds 6 1008 85 10000 14.71 302 11:36 05.01.2023
369 Clouds 4 1005 81 10000 15.53 299 09:43 05.01.2023
370 Clouds 8 1002 87 10000 15.7 283 08:22 05.01.2023
371 Clouds 7 1001 83 10000 17.4 270 06:50 05.01.2023
372 Clouds 9 1001 85 10000 15.32 270 02:56 05.01.2023
373 Clouds 7 1002 90 10000 12.32 254 22:27 04.01.2023
374 Clouds 11 1002 90 10000 12.32 254 21:32 04.01.2023
375 Clouds 11 1002 94 10000 12.46 254 20:23 04.01.2023
376 Clouds 11 1002 94 10000 12.46 254 19:47 04.01.2023
377 Clouds 11 1002 92 10000 11.23 255 19:29 04.01.2023
378 Rain 11 1003 95 10000 10.64 245 18:18 04.01.2023
379 Clouds 12 1003 94 10000 10.87 253 16:31 04.01.2023
380 Rain 9 1004 93 10000 13.36 243 14:52 04.01.2023
381 Rain 8 1004 94 9754 13.55 235 13:31 04.01.2023
382 Rain 6 1008 91 10000 12.35 199 11:26 04.01.2023
383 Rain 6 1008 91 10000 12.35 199 10:59 04.01.2023
384 Rain 6 1008 91 10000 12.35 199 10:40 04.01.2023
385 Rain 6 1009 93 7550 12.04 191 10:21 04.01.2023
386 Clouds 6 1016 84 10000 10.28 176 05:40 04.01.2023
387 Clouds 4 1022 90 10000 7.6 168 01:42 04.01.2023
388 Clouds 4 1025 85 10000 6.6 176 23:45 03.01.2023
389 Clouds 3 1025 85 10000 5.28 183 23:26 03.01.2023
390 Clouds 3 1025 86 10000 4.97 197 21:43 03.01.2023
391 Clear 4 1026 86 10000 5.15 211 20:51 03.01.2023
392 Clear 4 1026 88 10000 5.81 227 18:40 03.01.2023
393 Clear 5 1026 87 10000 6.49 245 16:43 03.01.2023
394 Clear 5 1025 87 10000 7.37 253 15:41 03.01.2023
395 Clear 5 1025 87 10000 8.22 256 13:50 03.01.2023
396 Clear 5 1025 86 10000 9.17 260 13:29 03.01.2023
397 Clear 5 1025 86 10000 9.17 260 12:57 03.01.2023
398 Clear 5 1025 86 10000 9.17 260 12:57 03.01.2023
399 Clear 5 1025 87 10000 9.63 259 12:29 03.01.2023
400 Clear 5 1024 87 10000 10.25 255 10:25 03.01.2023
401 Clouds 5 1021 82 10000 11.35 263 06:20 03.01.2023
402 Clouds 6 1020 88 10000 11.43 265 03:54 03.01.2023
403 Clouds 6 1020 88 10000 11.43 265 03:34 03.01.2023
404 Clouds 9 1018 79 10000 12.45 266 23:36 02.01.2023
405 Clouds 9 1017 82 10000 12.25 262 22:41 02.01.2023
406 Clouds 9 1016 89 10000 11.15 251 21:34 02.01.2023
407 Clouds 6 1015 92 10000 9.28 247 20:38 02.01.2023
408 Clouds 10 1014 92 10000 9.97 256 19:26 02.01.2023
409 Clouds 6 1013 92 10000 8.24 286 16:54 02.01.2023
410 Rain 9 1009 93 8840 10.32 244 14:31 02.01.2023
411 Clouds 9 1009 91 10000 9.17 223 12:57 02.01.2023
412 Rain 9 1009 90 10000 9.4 223 11:40 02.01.2023
413 Rain 10 1009 92 10000 9.88 218 09:48 02.01.2023
414 Rain 8 1009 95 10000 7.68 186 07:30 02.01.2023
415 Clouds 8 1015 92 10000 5.14 188 00:39 02.01.2023
416 Clouds 8 1015 91 10000 6.07 220 21:55 01.01.2023
417 Clouds 8 1015 90 10000 6.84 225 21:22 01.01.2023
418 Clouds 8 1015 90 10000 6.84 225 20:42 01.01.2023
419 Clouds 8 1015 88 10000 6.76 230 19:35 01.01.2023
420 Clouds 8 1014 85 10000 8.47 240 17:53 01.01.2023
421 Clouds 8 1014 85 10000 8.83 246 17:20 01.01.2023
422 Clouds 8 1014 85 10000 8.83 246 16:31 01.01.2023
423 Clouds 8 1012 84 10000 10.84 252 14:37 01.01.2023
424 Clouds 9 1010 84 10000 12.87 251 13:21 01.01.2023
425 Clouds 9 1010 84 10000 12.87 251 12:32 01.01.2023
426 Clouds 10 1010 81 10000 13.6 244 11:36 01.01.2023
427 Clouds 15 1008 80 10000 12.77 236 09:53 01.01.2023
428 Clouds 10 1006 83 10000 12.5 236 08:46 01.01.2023
429 Clouds 10 1006 80 10000 12.7 242 08:18 01.01.2023
430 Clouds 10 1006 80 10000 12.7 242 08:18 01.01.2023
431 Clouds 10 1006 80 10000 12.7 242 08:18 01.01.2023
432 Rain 10 1006 75 10000 13.47 237 06:54 01.01.2023
433 Clouds 11 1004 80 10000 11.65 230 00:44 01.01.2023
434 Rain 10 1004 86 10000 9.79 236 23:41 31.12.2022
435 Rain 9 1004 94 8396 9 241 22:32 31.12.2022
436 Rain 9 1004 97 6639 8.55 234 21:34 31.12.2022
437 Rain 9 1003 96 10000 9.43 234 20:43 31.12.2022
438 Rain 9 1004 94 10000 10.85 241 19:32 31.12.2022
439 Rain 9 1003 94 10000 9.42 231 18:40 31.12.2022
440 Rain 9 1003 93 10000 10.05 231 18:18 31.12.2022
441 Clouds 9 1003 93 10000 10.05 231 17:43 31.12.2022
442 Clouds 10 1003 89 10000 12.01 238 16:40 31.12.2022
443 Clouds 10 1002 92 10000 9.9 229 16:19 31.12.2022
444 Clouds 9 1002 96 10000 7.68 214 14:36 31.12.2022
445 Rain 8 1003 97 10000 5.7 210 13:33 31.12.2022
446 Clouds 8 1003 98 10000 5.5 215 12:39 31.12.2022
447 Clouds 8 1003 98 10000 5.07 204 12:19 31.12.2022
448 Clouds 8 1003 98 10000 5.07 204 11:50 31.12.2022
449 Clouds 8 1004 98 10000 5.61 201 10:34 31.12.2022
450 Clouds 8 1003 97 10000 6.44 209 09:53 31.12.2022
451 Rain 8 1004 94 10000 8.63 222 09:18 31.12.2022
452 Rain 8 1004 96 10000 7.84 213 07:22 31.12.2022
453 Clouds 8 1001 85 10000 13.41 214 00:35 31.12.2022
454 Clouds 8 1000 84 10000 15.03 206 23:45 30.12.2022
455 Rain 8 1000 87 10000 14.94 188 22:45 30.12.2022
456 Rain 8 1001 74 10000 14.83 186 21:43 30.12.2022
457 Rain 8 1002 73 10000 13.66 183 21:23 30.12.2022
458 Clouds 6 1004 80 10000 11.63 174 18:58 30.12.2022
459 Clouds 6 1005 82 10000 10.55 173 17:42 30.12.2022
460 Clouds 6 1007 82 10000 9.79 176 17:23 30.12.2022
461 Clouds 6 1007 81 10000 8.59 183 15:56 30.12.2022
462 Clouds 6 1008 81 10000 8.27 195 14:35 30.12.2022
463 Clouds 6 1009 82 10000 10.04 232 10:24 30.12.2022
464 Clouds 6 1008 82 10000 12.34 240 08:19 30.12.2022
465 Clouds 6 1005 84 10000 11.75 239 02:59 30.12.2022
466 Clouds 7 1004 84 10000 11.66 241 01:53 30.12.2022
467 Clouds 7 1003 87 10000 9.69 226 22:50 29.12.2022
468 Clouds 7 1003 86 10000 9.67 226 21:31 29.12.2022
469 Clouds 7 1003 86 10000 9.39 230 20:54 29.12.2022
470 Clouds 7 1002 85 10000 10.87 238 20:25 29.12.2022
471 Clouds 8 1000 87 10000 10.76 228 18:26 29.12.2022
472 Rain 8 1000 87 10000 10.76 228 17:32 29.12.2022
473 Clouds 8 1000 82 10000 11.45 225 16:55 29.12.2022
474 Clouds 7 1000 86 10000 11.22 238 16:21 29.12.2022
475 Clouds 8 999 79 10000 10.08 233 15:29 29.12.2022
476 Clear 8 999 81 10000 10.65 237 13:33 29.12.2022
477 Clouds 8 999 91 10000 10.69 206 11:29 29.12.2022
478 Clouds 8 998 87 10000 11.11 200 07:45 29.12.2022
479 Rain 7 1003 89 10000 10.65 205 00:22 29.12.2022
480 Rain 7 1004 91 10000 9.87 210 23:27 28.12.2022
481 Rain 7 1004 94 8075 10.2 210 21:21 28.12.2022
482 Rain 7 1004 94 8075 10.2 210 20:50 28.12.2022
483 Clouds 7 1006 93 10000 8.92 206 19:25 28.12.2022
484 Clouds 7 1006 90 10000 9.36 230 16:56 28.12.2022
485 Clouds 6 1007 92 10000 10.57 233 15:25 28.12.2022
486 Clouds 6 1007 90 10000 11.66 225 12:56 28.12.2022
487 Rain 6 1007 88 10000 12.24 223 12:23 28.12.2022
488 Clouds 6 1008 89 10000 12.34 214 11:21 28.12.2022
489 Rain 5 1009 96 4509 11.79 203 09:18 28.12.2022
490 Rain 4 1011 83 10000 10.42 200 07:27 28.12.2022
491 Rain 4 1011 83 10000 10.42 200 06:43 28.12.2022
492 Clouds 3 1018 92 10000 8.16 211 00:24 28.12.2022
493 Clouds 4 1019 89 10000 9.29 233 20:31 27.12.2022
494 Clouds 4 1019 87 10000 10.09 240 19:40 27.12.2022
495 Clouds 5 1019 83 10000 11.11 250 17:47 27.12.2022
496 Clouds 5 1018 80 10000 11.02 254 16:43 27.12.2022
497 Clouds 5 1018 81 10000 11.18 259 15:31 27.12.2022
498 Clouds 5 1017 85 10000 12.57 264 12:36 27.12.2022
499 Clouds 5 1016 83 10000 12.84 266 11:30 27.12.2022
500 Clouds 5 1016 83 10000 12.84 266 11:30 27.12.2022
501 Clouds 5 1015 83 10000 13.44 252 09:47 27.12.2022
502 Clouds 4 1014 86 10000 14.32 251 09:23 27.12.2022
503 Clouds 4 1014 85 10000 14.5 248 08:21 27.12.2022
504 Rain 4 1013 87 10000 13.06 242 04:32 27.12.2022
505 Clouds 5 1011 82 10000 12.15 260 22:48 26.12.2022
506 Clouds 5 1010 79 10000 12.19 276 21:25 26.12.2022
507 Clouds 5 1010 79 10000 12.19 276 20:42 26.12.2022
508 Clouds 7 1008 79 10000 16.38 280 18:44 26.12.2022
509 Clouds 7 1006 87 10000 17.09 267 17:52 26.12.2022
510 Clouds 7 1006 91 10000 8.78 236 16:22 26.12.2022
511 Clouds 7 1006 92 10000 9.46 243 14:34 26.12.2022
512 Clouds 6 1007 97 10000 7.01 232 12:51 26.12.2022
513 Clouds 5 1007 98 4777 6.37 268 08:27 26.12.2022
514 Rain 5 1006 97 6586 9.29 129 00:25 26.12.2022
515 Rain 5 1006 97 6586 9.29 129 23:38 25.12.2022
516 Rain 5 1007 98 3645 9.56 122 22:38 25.12.2022
517 Rain 5 1008 97 3763 8.62 124 21:49 25.12.2022
518 Rain 5 1012 93 10000 7.72 134 18:51 25.12.2022
519 Clouds 5 1013 93 10000 7.15 141 17:52 25.12.2022
520 Clouds 5 1013 93 10000 7.15 141 17:34 25.12.2022
521 Clouds 5 1015 93 10000 6.28 146 15:50 25.12.2022
522 Clouds 5 1017 91 10000 5.33 166 12:59 25.12.2022
523 Clouds 5 1017 93 10000 5.25 176 09:31 25.12.2022
524 Clouds 4 1014 94 10000 4.19 170 00:28 25.12.2022
525 Clouds 3 1014 95 10000 4.34 151 22:29 24.12.2022
526 Clouds 3 1013 96 6396 4.9 145 19:51 24.12.2022
527 Clouds 3 1013 90 10000 3.69 158 16:51 24.12.2022
528 Rain 3 1012 81 10000 4.11 136 14:55 24.12.2022
529 Rain 4 1011 80 10000 4.19 135 13:35 24.12.2022
530 Clouds 4 1011 81 10000 4.7 133 11:44 24.12.2022
531 Clouds 4 1010 83 10000 4.92 125 10:23 24.12.2022
532 Clouds 4 1010 83 10000 4.92 125 09:37 24.12.2022
533 Clouds 3 1008 80 10000 4.8 113 07:37 24.12.2022
534 Clouds 3 1006 77 10000 4.12 93 02:51 24.12.2022
535 Clouds 3 1005 78 10000 5.01 72 00:18 24.12.2022
536 Clouds 3 1005 78 10000 4.34 70 22:30 23.12.2022
537 Clouds 4 1005 77 10000 4.06 58 21:30 23.12.2022
538 Clouds 4 1005 77 10000 4.06 58 21:30 23.12.2022
539 Clouds 4 1005 77 10000 3.27 32 19:40 23.12.2022
540 Clouds 4 1004 78 10000 3.35 23 19:22 23.12.2022
541 Clouds 4 1004 78 10000 3.35 23 18:53 23.12.2022
542 Clear 4 1005 79 10000 3.34 338 18:21 23.12.2022
543 Clear 4 1005 79 10000 3.34 338 17:41 23.12.2022
544 Clear 4 1004 85 10000 3.95 338 15:45 23.12.2022
545 Clouds 5 1003 91 10000 5.66 284 12:31 23.12.2022
546 Clouds 5 1002 96 10000 6.67 264 09:53 23.12.2022
547 Clouds 5 1002 96 10000 6.67 264 09:34 23.12.2022
548 Clouds 5 1001 95 10000 6.69 235 07:29 23.12.2022
549 Clouds 5 1001 94 10000 7.23 253 06:49 23.12.2022
550 Clouds 5 1002 92 10000 8.6 235 23:36 22.12.2022
551 Clouds 6 1002 91 10000 9.37 237 23:18 22.12.2022
552 Clouds 6 1002 91 10000 9.31 236 21:55 22.12.2022
553 Clouds 5 1002 94 10000 8.75 242 19:47 22.12.2022
554 Clouds 5 1002 94 10000 9.21 248 19:18 22.12.2022
555 Clouds 5 1001 96 10000 8.69 256 17:59 22.12.2022
556 Clouds 5 1001 98 10000 7.17 252 16:52 22.12.2022
557 Clouds 6 1001 98 10000 5.75 250 15:38 22.12.2022
558 Clouds 6 1001 98 10000 5.23 258 15:18 22.12.2022
559 Clouds 6 1000 98 10000 4.59 247 14:27 22.12.2022
560 Rain 6 1001 98 10000 5.04 231 13:20 22.12.2022
561 Clouds 6 1001 98 10000 4.21 224 11:42 22.12.2022
562 Clouds 5 1001 98 10000 4.44 206 10:31 22.12.2022
563 Clouds 5 1002 97 10000 5.25 198 09:24 22.12.2022
564 Clouds 5 1002 97 10000 5.25 198 08:52 22.12.2022
565 Clouds 5 1002 97 10000 5.16 197 07:52 22.12.2022
566 Clouds 5 1004 95 10000 5.5 211 04:19 22.12.2022
567 Clouds 5 1005 93 10000 6.7 217 00:46 22.12.2022
568 Clouds 6 1007 86 10000 6.76 233 22:29 21.12.2022
569 Clouds 6 1007 86 10000 6.76 233 21:49 21.12.2022
570 Clouds 6 1007 90 10000 8.09 235 21:19 21.12.2022
571 Clouds 6 1007 90 10000 8.09 235 20:40 21.12.2022
572 Clouds 5 1007 93 10000 7.27 230 19:56 21.12.2022
573 Clouds 5 1007 93 10000 7.27 230 19:37 21.12.2022
574 Clouds 5 1007 95 10000 6.73 227 19:18 21.12.2022
575 Clouds 5 1007 95 10000 6.73 227 18:38 21.12.2022
576 Clouds 5 1008 95 10000 4.43 230 16:19 21.12.2022
577 Clouds 5 1008 98 7278 4.89 246 14:24 21.12.2022
578 Clouds 4 1009 98 3104 5.52 250 12:18 21.12.2022
579 Clouds 4 1009 98 294 5.6 253 11:21 21.12.2022
580 Clouds 4 1009 98 294 5.6 253 10:30 21.12.2022
581 Clouds 5 1009 99 296 4.56 253 08:49 21.12.2022
582 Clouds 6 1008 99 156 4.51 251 06:35 21.12.2022
583 Clouds 6 1009 96 10000 6.67 218 00:27 21.12.2022
584 Clouds 6 1009 94 10000 7.62 210 21:48 20.12.2022
585 Clouds 6 1009 95 10000 7.49 212 20:58 20.12.2022
586 Clouds 6 1009 95 10000 8.66 213 19:59 20.12.2022
587 Rain 6 1009 94 10000 8.37 207 18:48 20.12.2022
588 Rain 6 1009 92 10000 8.17 203 18:23 20.12.2022
589 Rain 6 1009 92 10000 8.17 203 17:50 20.12.2022
590 Clouds 6 1009 91 10000 8.3 201 17:25 20.12.2022
591 Rain 6 1010 91 10000 8.7 199 16:19 20.12.2022
592 Clouds 6 1010 91 10000 8.75 204 14:56 20.12.2022
593 Clouds 6 1010 91 10000 8.75 204 14:36 20.12.2022
594 Clouds 6 1010 91 10000 8.75 204 14:36 20.12.2022
595 Clouds 6 1010 93 10000 8.43 202 13:49 20.12.2022
596 Clouds 6 1011 96 10000 8.05 201 12:37 20.12.2022
597 Clouds 6 1011 97 10000 7.98 204 11:55 20.12.2022
598 Clouds 6 1012 93 10000 7.84 210 10:29 20.12.2022
599 Rain 5 1012 94 10000 7.63 207 07:31 20.12.2022
600 Clouds 5 1013 90 10000 10.36 222 00:20 20.12.2022
601 Rain 5 1013 94 10000 10.37 218 22:36 19.12.2022
602 Rain 5 1014 95 10000 10.46 214 21:30 19.12.2022
603 Rain 4 1013 97 9267 9.95 202 19:42 19.12.2022
604 Rain 3 1014 97 6754 9.9 202 18:59 19.12.2022
605 Clouds 3 1014 97 10000 10.3 202 17:58 19.12.2022
606 Rain 2 1015 95 10000 10.54 194 16:29 19.12.2022
607 Snow 1 1017 84 10000 11.72 184 13:22 19.12.2022
608 Snow 0 1018 82 10000 10.95 182 11:46 19.12.2022
609 Clouds -2 1022 72 10000 9.91 172 08:27 19.12.2022
610 Clouds -2 1022 73 10000 10.01 171 07:22 19.12.2022
611 Clouds -4 1027 72 10000 10.35 162 00:56 19.12.2022
612 Clouds -5 1029 76 10000 9.13 165 21:50 18.12.2022
613 Clouds -5 1029 76 10000 9.13 165 21:31 18.12.2022
614 Clouds -5 1029 76 10000 9.13 165 21:31 18.12.2022
615 Clouds -5 1030 74 10000 8.76 171 20:57 18.12.2022
616 Clouds -6 1030 73 10000 8.79 173 19:45 18.12.2022
617 Clouds -6 1030 74 10000 8.68 175 19:23 18.12.2022
618 Clouds -2 1031 74 10000 8.22 180 17:52 18.12.2022
619 Clouds -2 1032 76 10000 8.11 188 16:26 18.12.2022
620 Clouds -2 1032 76 10000 8.11 188 15:39 18.12.2022
621 Clouds -2 1031 77 10000 8.44 193 15:18 18.12.2022
622 Clouds -1 1032 76 10000 8.2 202 13:35 18.12.2022
623 Clouds -1 1031 77 10000 8.31 200 12:51 18.12.2022
624 Clouds -2 1032 78 10000 8.64 209 11:54 18.12.2022
625 Clouds -2 1032 80 10000 8.58 209 10:19 18.12.2022
626 Clouds -2 1032 80 10000 8.58 209 10:19 18.12.2022
627 Clouds -2 1031 80 10000 8.79 208 08:47 18.12.2022
628 Clouds -2 1030 85 10000 8.71 208 07:20 18.12.2022
629 Clouds -2 1030 86 10000 8.56 212 06:20 18.12.2022
630 Clouds -2 1030 85 10000 8.19 214 02:59 18.12.2022
631 Clouds -1 1029 85 10000 7.46 218 23:40 17.12.2022
632 Clouds -2 1029 88 10000 7.18 221 21:40 17.12.2022
633 Clouds -2 1027 96 5286 5.84 221 18:54 17.12.2022
634 Clear -2 1027 89 10000 5.65 219 16:41 17.12.2022
635 Clear -1 1026 83 10000 5.43 223 14:23 17.12.2022
636 Clouds 0 1025 84 10000 5.44 232 11:36 17.12.2022
637 Clouds 0 1025 83 10000 5.23 233 10:46 17.12.2022
638 Clouds 0 1025 82 10000 4.64 236 09:46 17.12.2022
639 Clouds 1 1023 75 10000 3.66 241 07:28 17.12.2022
640 Clouds 0 1023 81 10000 4.12 233 06:45 17.12.2022
641 Clouds 1 1021 69 10000 0.64 138 23:57 16.12.2022
642 Clouds 1 1020 71 10000 1.31 91 21:22 16.12.2022
643 Clouds 2 1019 70 10000 1.54 85 19:57 16.12.2022
644 Clouds 1 1017 80 10000 1.25 134 16:40 16.12.2022
645 Clouds 2 1016 78 10000 1.62 131 14:48 16.12.2022
646 Clouds 2 1016 77 10000 1.66 145 13:48 16.12.2022
647 Clouds 3 1015 69 10000 3.9 104 11:59 16.12.2022
648 Clouds 3 1015 67 10000 5.06 74 10:22 16.12.2022
649 Clouds 2 1014 69 10000 4.61 66 09:25 16.12.2022
650 Clouds 2 1013 72 10000 4.11 66 08:25 16.12.2022
651 Clouds 2 1013 78 10000 4.42 85 07:53 16.12.2022
652 Clouds -1 1011 88 10000 1.35 174 23:31 15.12.2022
653 Clouds 0 1010 86 10000 2.26 188 22:29 15.12.2022
654 Clouds 0 1010 85 10000 3.08 186 20:40 15.12.2022
655 Clouds 0 1009 86 10000 2.89 175 19:37 15.12.2022
656 Clouds 0 1008 83 10000 1.47 208 18:25 15.12.2022
657 Clouds 0 1008 84 10000 1.88 223 17:26 15.12.2022
658 Clouds 0 1007 84 10000 2.85 234 15:36 15.12.2022
659 Clouds 0 1007 85 10000 3.68 239 13:52 15.12.2022
660 Clouds 0 1006 85 10000 4.82 241 12:41 15.12.2022
661 Clouds -2 1005 84 10000 5.88 229 09:42 15.12.2022
662 Clouds -2 1005 81 10000 6.22 224 08:54 15.12.2022
663 Clouds -3 1003 79 10000 7.32 206 06:26 15.12.2022
664 Clouds -3 1003 81 10000 7.18 205 05:18 15.12.2022
665 Clouds -3 1004 75 10000 6.5 209 21:25 14.12.2022
666 Clouds -3 1004 75 10000 6.5 209 20:59 14.12.2022
667 Clouds -3 1004 75 10000 6.5 209 20:31 14.12.2022
668 Clouds -2 1003 74 10000 6.51 200 18:31 14.12.2022
669 Clouds -2 1003 71 10000 6.12 208 16:58 14.12.2022
670 Clouds -1 1004 70 10000 6.42 213 15:40 14.12.2022
671 Clear -1 1004 70 10000 7.44 210 14:22 14.12.2022
672 Clear -1 1005 72 10000 8 208 12:21 14.12.2022
673 Clear -2 1005 73 10000 8.33 207 10:39 14.12.2022
674 Clouds -2 1005 76 10000 8.74 209 09:25 14.12.2022
675 Clouds -2 1007 84 10000 8.93 213 00:51 14.12.2022
676 Clouds -2 1009 84 10000 8.59 212 21:51 13.12.2022
677 Clouds -2 1010 83 10000 8.36 212 21:27 13.12.2022
678 Clouds -2 1010 83 10000 8.36 212 20:46 13.12.2022
679 Clouds -1 1010 81 10000 7.41 218 18:40 13.12.2022
680 Clouds 1 1010 70 10000 5.21 260 16:22 13.12.2022
681 Clouds 1 1010 68 10000 5.41 272 14:53 13.12.2022
682 Clouds 1 1010 65 10000 5.58 291 12:44 13.12.2022
683 Clouds 1 1011 64 10000 6.31 305 10:39 13.12.2022
684 Clouds 1 1011 64 10000 6.86 310 09:46 13.12.2022
685 Clouds 1 1010 64 10000 7.18 316 07:52 13.12.2022
686 Clouds 1 1011 69 10000 8.9 327 22:24 12.12.2022
687 Clouds 1 1011 69 10000 8.9 327 21:46 12.12.2022
688 Clouds 1 1011 69 10000 7.88 327 19:33 12.12.2022
689 Clouds 2 1011 69 10000 7.94 334 17:39 12.12.2022
690 Clouds 2 1011 72 10000 7.5 345 15:29 12.12.2022
691 Clouds 1 1010 76 10000 7.06 352 12:50 12.12.2022
692 Clouds 1 1011 67 10000 7.72 0 09:20 12.12.2022
693 Clouds 1 1011 67 10000 7.72 0 09:20 12.12.2022
694 Clouds 1 1011 67 10000 7.72 0 08:54 12.12.2022
695 Clouds 2 1010 71 10000 6.87 4 03:53 12.12.2022
696 Snow 1 1010 95 169 4.29 75 00:18 12.12.2022
697 Clouds 2 1010 86 930 2.63 88 22:18 11.12.2022
698 Clouds 2 1010 90 8256 3.65 34 20:34 11.12.2022
699 Clouds 3 1010 81 8267 7.48 25 19:38 11.12.2022
700 Clouds 3 1010 77 10000 7.1 26 18:30 11.12.2022
701 Clouds 3 1010 74 10000 7.12 29 17:33 11.12.2022
702 Clouds 3 1010 75 10000 7.64 25 16:53 11.12.2022
703 Clouds 3 1010 75 10000 7.79 24 16:20 11.12.2022
704 Clouds 3 1010 75 10000 7.79 24 15:43 11.12.2022
705 Clouds 3 1010 70 10000 5.25 38 13:35 11.12.2022
706 Clouds 3 1010 74 10000 5.01 51 12:41 11.12.2022
707 Rain 2 1011 82 3977 4.82 46 10:19 11.12.2022
708 Snow 1 1012 90 5548 3.96 287 00:57 11.12.2022
709 Snow 1 1012 89 6365 3.58 280 00:22 11.12.2022
710 Snow 1 1012 86 10000 3.4 273 22:35 10.12.2022
711 Clouds -5 1012 85 10000 3.23 263 21:52 10.12.2022
712 Clouds -5 1012 86 10000 3.01 252 20:57 10.12.2022
713 Clouds -5 1012 85 10000 2.39 247 20:19 10.12.2022
714 Clouds 1 1012 73 10000 0.65 128 17:50 10.12.2022
715 Clouds 1 1012 73 10000 0.24 95 16:38 10.12.2022
716 Clouds 0 1012 74 10000 0.2 228 15:41 10.12.2022
717 Clouds 0 1012 75 10000 1.38 233 15:21 10.12.2022
718 Clouds 0 1012 77 10000 2.31 234 13:38 10.12.2022
719 Clouds 0 1012 77 10000 2.55 211 12:21 10.12.2022
720 Clouds -1 1012 75 10000 2.32 194 10:52 10.12.2022
721 Clouds -1 1012 74 10000 1.85 174 09:44 10.12.2022
722 Clouds -1 1011 73 10000 1.69 123 07:22 10.12.2022
723 Clouds -1 1011 73 10000 1.69 123 06:51 10.12.2022
724 Clouds 0 1010 79 10000 1.52 216 23:38 09.12.2022
725 Clouds -1 1010 81 10000 2.44 208 22:42 09.12.2022
726 Clouds -1 1009 84 10000 3.06 197 21:34 09.12.2022
727 Clouds -1 1009 83 10000 3.11 194 20:59 09.12.2022
728 Clouds -1 1009 85 10000 3.43 196 19:46 09.12.2022
729 Clouds -1 1008 88 10000 3.25 196 17:56 09.12.2022
730 Clouds -1 1008 88 10000 3.12 198 17:18 09.12.2022
731 Clouds -1 1008 89 10000 2.88 205 16:26 09.12.2022
732 Clouds -1 1008 90 10000 3.36 218 15:29 09.12.2022
733 Clouds -1 1007 88 10000 5.1 214 12:50 09.12.2022
734 Clouds -1 1008 92 10000 6.03 202 10:50 09.12.2022
735 Clouds -1 1008 93 10000 6.19 193 10:22 09.12.2022
736 Clouds -2 1007 82 10000 4.25 200 05:38 09.12.2022
737 Clouds -2 1007 79 10000 3.74 192 03:18 09.12.2022
738 Clouds 1 1007 76 10000 3.67 192 23:20 08.12.2022
739 Clouds 2 1007 71 10000 3.06 182 20:56 08.12.2022
740 Clouds 2 1006 66 10000 2.74 144 18:57 08.12.2022
741 Clouds 2 1006 69 10000 1.25 92 16:38 08.12.2022
742 Clouds 2 1005 72 10000 1.34 97 14:30 08.12.2022
743 Clouds 1 1005 74 10000 2.04 103 13:29 08.12.2022
744 Clouds 1 1005 75 10000 2.36 73 10:37 08.12.2022
745 Clouds 1 1005 80 10000 3.04 81 09:31 08.12.2022
746 Snow 0 1005 90 4773 1.05 106 07:18 08.12.2022
747 Clouds 3 1006 63 10000 8.22 306 22:44 07.12.2022
748 Clouds 3 1006 64 10000 8.94 314 22:18 07.12.2022
749 Clouds 3 1006 64 10000 8.94 314 21:47 07.12.2022
750 Clouds 3 1006 65 10000 9.53 318 20:32 07.12.2022
751 Clouds 3 1005 77 1883 7.91 322 18:23 07.12.2022
752 Clouds 4 1005 66 10000 7.8 306 15:43 07.12.2022
753 Clouds 5 1005 70 10000 9.01 299 13:28 07.12.2022
754 Clouds 4 1006 75 9147 8.69 292 10:54 07.12.2022
755 Rain 4 1006 77 3168 8.46 289 09:59 07.12.2022
756 Rain 4 1006 77 3168 8.46 289 09:30 07.12.2022
757 Clouds 4 1007 75 8773 7.29 294 07:41 07.12.2022
758 Clouds 3 1007 92 4666 4.58 303 05:25 07.12.2022
759 Clouds 4 1010 73 10000 6.69 274 01:22 07.12.2022
760 Clouds 5 1011 62 10000 6.28 297 21:50 06.12.2022
761 Clouds 4 1012 77 10000 6.52 315 19:35 06.12.2022
762 Clouds 5 1012 83 10000 6.67 334 17:19 06.12.2022
763 Clouds 5 1012 83 10000 6.67 334 16:30 06.12.2022
764 Clouds 5 1012 79 10000 6 337 15:37 06.12.2022
765 Clouds 5 1013 78 10000 5.77 341 14:40 06.12.2022
766 Clouds 5 1013 79 10000 5.54 347 14:19 06.12.2022
767 Clouds 5 1013 86 10000 5.41 351 12:41 06.12.2022
768 Clouds 4 1013 90 10000 5.74 355 11:59 06.12.2022
769 Rain 4 1014 95 8678 3.18 1 07:51 06.12.2022
770 Clouds 3 1016 96 4647 1.26 321 03:26 06.12.2022
771 Clouds 3 1017 97 160 1.04 289 00:50 06.12.2022
772 Rain 3 1018 97 157 0.86 100 22:22 05.12.2022
773 Rain 3 1018 96 155 1.53 104 20:55 05.12.2022
774 Rain 3 1018 97 136 2.01 111 20:23 05.12.2022
775 Rain 3 1018 97 136 2.01 111 19:42 05.12.2022
776 Rain 4 1018 96 3488 4.58 99 16:56 05.12.2022
777 Rain 5 1019 87 10000 5.24 84 15:49 05.12.2022
778 Rain 5 1019 86 10000 5.39 84 15:18 05.12.2022
779 Clouds 5 1020 85 10000 6.19 91 12:59 05.12.2022
780 Clouds 5 1020 85 10000 6.19 91 12:38 05.12.2022
781 Clouds 5 1020 85 10000 6.5 93 11:46 05.12.2022
782 Rain 4 1021 87 10000 6.76 92 10:53 05.12.2022
783 Clouds 6 1022 86 10000 9.05 86 00:19 05.12.2022
784 Clouds 6 1022 85 10000 8.8 84 22:44 04.12.2022
785 Clouds 6 1022 85 10000 8.66 86 22:20 04.12.2022
786 Clouds 6 1022 85 10000 8.66 86 21:41 04.12.2022
787 Clouds 6 1022 87 10000 8.71 87 20:30 04.12.2022
788 Clouds 6 1022 87 10000 8.87 85 19:27 04.12.2022
789 Clouds 6 1022 87 10000 8.87 85 18:40 04.12.2022
790 Clouds 6 1022 87 10000 8.91 84 17:23 04.12.2022
791 Clouds 6 1022 87 10000 8.91 84 16:54 04.12.2022
792 Clouds 6 1022 87 10000 8.91 84 16:36 04.12.2022
793 Clouds 6 1022 86 10000 8.53 83 16:18 04.12.2022
794 Clouds 6 1022 88 10000 8.69 83 14:43 04.12.2022
795 Clouds 6 1022 88 10000 8.77 82 13:30 04.12.2022
796 Clouds 6 1023 88 10000 8.53 81 12:43 04.12.2022
797 Clouds 5 1023 87 10000 8.25 84 11:58 04.12.2022
798 Clouds 5 1023 87 10000 8.24 86 09:33 04.12.2022
799 Clouds 4 1023 85 10000 7.79 91 07:31 04.12.2022
800 Clouds 2 1024 80 10000 6.02 111 00:55 04.12.2022
801 Clouds 2 1024 83 10000 6.01 116 23:43 03.12.2022
802 Clouds 2 1024 84 10000 6.57 112 22:19 03.12.2022
803 Clouds 2 1024 86 10000 6.87 114 21:21 03.12.2022
804 Clouds 2 1024 88 9488 7.29 111 20:23 03.12.2022
805 Clouds 2 1024 91 4532 7.92 103 18:39 03.12.2022
806 Clouds 3 1024 75 10000 8.53 99 16:45 03.12.2022
807 Clouds 3 1025 68 10000 8.07 105 14:28 03.12.2022
808 Clouds 4 1025 75 10000 8.51 104 12:55 03.12.2022
809 Clouds 4 1026 79 10000 8.56 100 12:24 03.12.2022
810 Clouds 4 1026 80 10000 8.21 101 10:26 03.12.2022
811 Clouds 4 1027 80 10000 7.73 104 07:58 03.12.2022
812 Clouds 4 1028 82 10000 6.94 103 01:31 03.12.2022
813 Clouds 5 1029 81 10000 6.18 97 22:58 02.12.2022
814 Clouds 5 1029 78 10000 6.83 104 20:59 02.12.2022
815 Clouds 6 1029 75 10000 7.89 91 19:28 02.12.2022
816 Clouds 6 1029 77 10000 6.48 76 15:59 02.12.2022
817 Clouds 5 1029 77 10000 5.53 79 14:45 02.12.2022
818 Clouds 5 1029 76 10000 5.13 88 14:26 02.12.2022
819 Clouds 5 1029 76 10000 5.13 88 13:36 02.12.2022
820 Clouds 4 1030 77 10000 5.15 99 11:43 02.12.2022
821 Clouds 4 1029 75 10000 5.35 107 09:46 02.12.2022
822 Clouds 4 1029 75 10000 5.35 107 09:46 02.12.2022
823 Clouds 4 1029 75 10000 5.35 107 09:46 02.12.2022
824 Clouds 5 1029 72 10000 6.65 103 07:25 02.12.2022
825 Clouds 4 1029 74 10000 6.09 101 05:21 02.12.2022
826 Clouds 4 1030 81 10000 3.7 104 22:30 01.12.2022
827 Clouds 4 1030 85 10000 3.86 105 21:39 01.12.2022
828 Clouds 3 1030 89 10000 4.37 106 20:30 01.12.2022
829 Clouds 4 1029 81 10000 4.58 97 18:56 01.12.2022
830 Clouds 4 1030 83 10000 5.27 95 16:22 01.12.2022
831 Clouds 4 1030 84 10000 4.1 94 13:41 01.12.2022
832 Clouds 3 1030 91 9569 4.28 106 10:42 01.12.2022
833 Clouds 3 1030 91 9569 4.28 106 10:42 01.12.2022
834 Clouds 3 1030 91 10000 4.37 112 09:54 01.12.2022
835 Clouds 3 1030 91 10000 4.37 112 09:36 01.12.2022
836 Clouds 4 1030 77 10000 4.93 107 05:45 01.12.2022
837 Rain 4 1030 79 10000 4.63 124 22:40 30.11.2022
838 Clouds 4 1029 79 10000 4.83 121 21:20 30.11.2022
839 Clouds 4 1029 79 10000 4.83 121 20:55 30.11.2022
840 Clouds 5 1029 79 10000 4.95 119 20:23 30.11.2022
841 Clouds 5 1028 85 10000 5.81 112 18:36 30.11.2022
842 Clouds 5 1028 86 10000 5.81 111 17:40 30.11.2022
843 Clouds 5 1027 81 10000 5.68 107 16:26 30.11.2022
844 Clouds 5 1027 78 10000 5.41 110 14:45 30.11.2022
845 Clouds 6 1027 76 10000 5.31 113 14:25 30.11.2022
846 Clouds 6 1027 75 10000 6.16 113 11:58 30.11.2022
847 Clouds 5 1026 79 10000 6.44 122 09:21 30.11.2022
848 Clouds 5 1026 79 10000 6.44 122 09:21 30.11.2022
849 Clouds 5 1026 78 10000 6.73 120 07:59 30.11.2022
850 Clouds 5 1025 81 10000 6.62 112 05:22 30.11.2022
851 Clouds 5 1024 79 10000 6.33 115 23:26 29.11.2022
852 Clouds 5 1024 79 10000 6.15 117 21:50 29.11.2022
853 Clouds 5 1023 78 10000 6.38 119 20:52 29.11.2022
854 Clouds 5 1023 77 10000 6.65 118 19:49 29.11.2022
855 Clouds 6 1023 70 10000 7.08 114 17:55 29.11.2022
856 Clouds 6 1022 70 10000 7.12 111 16:31 29.11.2022
857 Clouds 6 1022 70 10000 7.06 112 15:28 29.11.2022
858 Clouds 6 1021 72 10000 7.29 114 14:25 29.11.2022
859 Clouds 5 1021 77 10000 7.43 110 12:38 29.11.2022
860 Clouds 5 1021 77 10000 7.5 114 11:31 29.11.2022
861 Clouds 5 1021 78 10000 7.85 118 10:27 29.11.2022
862 Clouds 5 1021 79 10000 8.1 119 09:26 29.11.2022
863 Clouds 5 1020 82 10000 8.33 119 07:19 29.11.2022
864 Clouds 5 1018 80 10000 9.23 125 00:28 29.11.2022
865 Clouds 5 1018 79 10000 9.41 126 23:25 28.11.2022
866 Clouds 5 1018 79 10000 9.51 124 22:21 28.11.2022
867 Clouds 5 1018 79 10000 9.51 124 21:43 28.11.2022
868 Clouds 5 1018 78 10000 9.66 132 20:25 28.11.2022
869 Clouds 5 1018 78 10000 9.42 133 19:36 28.11.2022
870 Clouds 6 1018 76 10000 10.72 130 18:28 28.11.2022
871 Clouds 6 1018 75 10000 11.01 126 17:23 28.11.2022
872 Clouds 6 1017 72 10000 10.97 128 14:57 28.11.2022
873 Clouds 6 1017 72 10000 10.84 131 13:56 28.11.2022
874 Rain 6 1018 73 10000 10.78 132 13:19 28.11.2022
875 Clouds 6 1018 74 10000 10.61 134 11:32 28.11.2022
876 Clouds 6 1018 78 10000 10.85 138 08:26 28.11.2022
877 Clouds 7 1019 78 10000 10.53 140 04:57 28.11.2022
878 Clouds 7 1019 78 10000 10.53 140 04:38 28.11.2022
879 Clouds 7 1020 79 10000 9.89 147 03:21 28.11.2022
880 Clouds 7 1021 79 10000 8.87 150 00:29 28.11.2022
881 Clouds 7 1022 79 10000 8.51 157 22:24 27.11.2022
882 Clouds 7 1022 82 10000 8.02 156 20:49 27.11.2022
883 Clouds 7 1022 80 10000 7.29 161 18:39 27.11.2022
884 Clouds 7 1023 84 10000 6.87 155 16:39 27.11.2022
885 Clouds 7 1025 84 10000 5.83 157 13:55 27.11.2022
886 Clouds 7 1026 87 10000 5.35 166 12:25 27.11.2022
887 Clouds 7 1027 92 10000 4.83 174 10:23 27.11.2022
888 Clouds 6 1027 89 10000 4.12 185 07:30 27.11.2022
889 Clouds 6 1027 89 10000 4.12 185 07:30 27.11.2022
890 Clouds 7 1028 88 10000 4.73 221 23:37 26.11.2022
891 Clouds 8 1028 89 10000 4.73 222 21:43 26.11.2022
892 Clouds 8 1028 90 10000 4.57 225 19:57 26.11.2022
893 Rain 8 1028 91 10000 3.88 215 18:42 26.11.2022
894 Clouds 8 1027 89 10000 2.9 210 16:47 26.11.2022
895 Clouds 8 1028 88 10000 2.34 210 15:37 26.11.2022
896 Clouds 8 1027 88 10000 2.52 198 12:54 26.11.2022
897 Clouds 7 1026 87 10000 3.33 178 11:23 26.11.2022
898 Clouds 7 1026 88 10000 3.52 168 09:43 26.11.2022
899 Clouds 7 1026 88 10000 3.52 173 08:39 26.11.2022
900 Clouds 6 1021 90 10000 3.98 155 22:59 25.11.2022
901 Rain 6 1021 90 10000 4.07 157 21:38 25.11.2022
902 Clouds 7 1020 89 10000 4.7 150 20:33 25.11.2022
903 Clouds 7 1019 89 10000 6.41 135 19:24 25.11.2022
904 Clouds 7 1017 88 10000 6.93 123 15:42 25.11.2022
905 Clouds 7 1017 89 10000 6.7 140 12:20 25.11.2022
906 Clouds 7 1016 91 10000 6.18 139 08:53 25.11.2022
907 Clouds 7 1016 91 10000 6.18 139 08:33 25.11.2022
908 Clouds 7 1016 93 10000 5.7 132 06:42 25.11.2022
909 Clouds 7 1015 90 10000 3.76 162 01:26 25.11.2022
910 Clouds 7 1015 89 10000 3.43 157 23:41 24.11.2022
911 Clouds 7 1014 89 10000 3.24 162 22:35 24.11.2022
912 Clouds 7 1014 88 10000 3.33 159 21:39 24.11.2022
913 Clouds 6 1014 88 10000 3.05 174 19:48 24.11.2022
914 Clouds 6 1013 89 10000 3.97 174 17:47 24.11.2022
915 Clouds 6 1012 88 10000 4.38 176 17:24 24.11.2022
916 Clouds 6 1012 88 10000 4.38 176 16:40 24.11.2022
917 Clouds 6 1011 84 10000 5 179 14:24 24.11.2022
918 Clouds 6 1011 85 10000 5.47 181 12:41 24.11.2022
919 Rain 6 1011 84 10000 5.9 174 11:37 24.11.2022
920 Clouds 4 1009 88 10000 6.72 164 08:47 24.11.2022
921 Clouds 5 1008 87 10000 6.97 164 06:22 24.11.2022
922 Clouds 5 1007 88 10000 7.44 156 00:40 24.11.2022
923 Clouds 5 1007 88 10000 7.48 156 23:32 23.11.2022
924 Clouds 5 1006 88 10000 7.69 154 21:48 23.11.2022
925 Clouds 5 1006 88 10000 7.94 151 20:51 23.11.2022
926 Clouds 5 1006 88 10000 8.24 147 19:34 23.11.2022
927 Clouds 5 1005 87 10000 8.35 143 18:55 23.11.2022
928 Clouds 5 1005 86 10000 7.81 143 17:35 23.11.2022
929 Clouds 6 1004 83 10000 7.42 146 14:19 23.11.2022
930 Clouds 5 1004 84 10000 7.33 150 13:24 23.11.2022
931 Clouds 5 1004 84 10000 7.33 150 12:41 23.11.2022
932 Clouds 5 1004 85 10000 7.14 152 11:51 23.11.2022
933 Clouds 5 1005 86 10000 7.81 153 10:48 23.11.2022
934 Clouds 4 1004 87 10000 8.3 149 10:18 23.11.2022
935 Clouds 4 1004 87 10000 8.3 149 09:40 23.11.2022
936 Clouds 4 1004 88 10000 8.07 147 09:21 23.11.2022
937 Clouds 4 1004 88 10000 8.07 147 08:36 23.11.2022
938 Clouds 3 1004 89 10000 7.84 150 05:20 23.11.2022
939 Clouds 2 1003 88 10000 7.99 150 01:53 23.11.2022
940 Clouds 4 1004 88 10000 8.09 149 22:37 22.11.2022
941 Clouds 3 1004 87 10000 8.43 150 21:51 22.11.2022
942 Clouds 3 1004 87 10000 8.43 150 21:31 22.11.2022
943 Clouds 3 1003 87 10000 9.06 144 20:44 22.11.2022
944 Clouds 1 1003 86 10000 8.97 141 19:47 22.11.2022
945 Clouds 4 1003 84 10000 8.67 136 17:54 22.11.2022
946 Clouds 4 1003 83 10000 8.94 130 16:48 22.11.2022
947 Clouds 4 1003 81 10000 9.3 128 14:55 22.11.2022
948 Clouds 1 1003 82 10000 10 125 12:56 22.11.2022
949 Clouds 0 1003 84 10000 10.45 127 09:42 22.11.2022
950 Clouds -1 1003 82 10000 10.62 126 08:59 22.11.2022
951 Clouds -1 1003 76 10000 10.44 129 06:45 22.11.2022
952 Clouds -1 1003 82 10000 8.39 151 01:35 22.11.2022
953 Clouds -1 1003 80 10000 6.86 164 23:28 21.11.2022
954 Clouds 1 1003 80 10000 6.8 175 22:26 21.11.2022
955 Clouds 1 1003 80 10000 6.8 175 21:33 21.11.2022
956 Clouds -1 1003 80 10000 7.24 187 20:35 21.11.2022
957 Clouds 1 1003 80 10000 7.28 197 19:41 21.11.2022
958 Clouds 1 1003 79 10000 7.26 201 18:53 21.11.2022
959 Clouds 2 1003 79 10000 7.58 215 17:46 21.11.2022
960 Clouds 3 1003 77 10000 7.39 221 16:51 21.11.2022
961 Clouds 3 1003 77 10000 7.39 221 16:33 21.11.2022
962 Clouds 4 1003 74 10000 8.17 236 15:24 21.11.2022
963 Clouds 4 1003 72 10000 8.18 245 13:55 21.11.2022
964 Clouds 4 1003 72 10000 8.18 245 13:34 21.11.2022
965 Clouds 2 1003 89 8662 6.53 217 10:24 21.11.2022
966 Clouds -1 1002 68 10000 5.59 236 08:21 21.11.2022
967 Clouds 3 1002 61 10000 4.11 255 05:41 21.11.2022
968 Rain 2 1005 69 8204 1.56 307 22:25 20.11.2022
969 Rain 2 1006 73 4494 1.6 329 21:24 20.11.2022
970 Snow 2 1006 82 5103 2.4 359 20:23 20.11.2022
971 Clouds 3 1006 64 8626 1.42 9 18:25 20.11.2022
972 Rain 3 1007 59 10000 1.97 63 15:59 20.11.2022
973 Rain 4 1007 60 10000 2.22 79 15:28 20.11.2022
974 Clouds 4 1007 60 10000 2.22 79 14:30 20.11.2022
975 Clouds 3 1008 64 10000 0.61 96 13:32 20.11.2022
976 Clouds 4 1007 61 10000 2.87 89 13:32 20.11.2022
977 Clouds 3 1008 64 10000 1.86 115 12:31 20.11.2022
978 Clouds 3 1009 63 10000 3.17 126 10:59 20.11.2022
979 Clouds 3 1008 66 10000 4.18 125 10:29 20.11.2022
980 Clouds 3 1009 68 10000 5.17 124 09:19 20.11.2022
981 Clouds 3 1009 68 10000 5.17 124 08:34 20.11.2022
982 Clouds 3 1009 73 10000 5.94 130 07:29 20.11.2022
983 Rain 3 1010 82 10000 7.25 123 02:19 20.11.2022
984 Clouds 2 1010 93 4768 7.63 131 01:20 20.11.2022
985 Rain 2 1010 93 4768 7.63 131 00:41 20.11.2022
986 Rain 2 1010 98 91 6.3 131 00:22 20.11.2022
987 Rain 2 1010 98 91 6.3 131 23:49 19.11.2022
988 Rain 2 1010 96 84 3.15 106 23:23 19.11.2022
989 Clouds 2 1010 96 84 3.15 106 22:38 19.11.2022
990 Rain 2 1010 95 122 2.72 100 21:32 19.11.2022
991 Rain 3 1010 96 666 3.45 98 20:56 19.11.2022
992 Rain 3 1009 84 9519 5.49 67 20:29 19.11.2022
993 Rain 3 1009 90 6872 5.78 69 18:57 19.11.2022
994 Clouds 3 1009 97 119 6.22 16 17:41 19.11.2022
995 Clouds 4 1009 88 2226 9.73 354 17:19 19.11.2022
996 Clouds 4 1010 80 3507 9.26 356 15:41 19.11.2022
997 Clouds 4 1010 79 3101 9.44 1 14:30 19.11.2022
998 Rain 4 1012 72 10000 9.1 359 12:18 19.11.2022
999 Clouds 4 1012 72 10000 9 4 10:56 19.11.2022
1000 Rain 4 1012 75 10000 9.36 4 08:39 19.11.2022
1001 Clouds 5 1013 68 10000 8.72 12 04:55 19.11.2022
1002 Rain 4 1014 84 6327 6.72 29 02:51 19.11.2022
1003 Rain 5 1014 65 10000 6.72 93 23:46 18.11.2022
1004 Clouds 5 1014 63 10000 8.56 85 22:38 18.11.2022
1005 Clouds 5 1014 62 7893 9.59 80 21:50 18.11.2022
1006 Rain 5 1014 62 7893 9.59 80 21:30 18.11.2022
1007 Clouds 5 1014 60 8124 10.23 77 20:34 18.11.2022
1008 Rain 5 1013 58 10000 10.47 74 19:46 18.11.2022
1009 Clouds 5 1013 59 10000 10.88 75 18:38 18.11.2022
1010 Clouds 6 1012 59 10000 11.15 76 17:44 18.11.2022
1011 Clouds 6 1011 56 10000 11.3 73 14:32 18.11.2022
1012 Clouds 6 1011 69 10000 10.58 90 11:31 18.11.2022
1013 Clouds 6 1010 65 10000 11.02 101 09:19 18.11.2022
1014 Clouds 6 1009 69 10000 11.37 103 07:51 18.11.2022
1015 Clouds 6 1007 70 10000 11 107 05:24 18.11.2022
1016 Clear 5 1007 69 10000 11.44 108 00:51 18.11.2022
1017 Clear 5 1007 70 10000 12.41 112 22:28 17.11.2022
1018 Clear 5 1006 70 10000 12.54 112 20:46 17.11.2022
1019 Clear 5 1006 70 10000 12.8 111 19:51 17.11.2022
1020 Clear 5 1006 70 10000 12.87 111 18:50 17.11.2022
1021 Clear 6 1006 67 10000 13.04 111 17:34 17.11.2022
1022 Clear 6 1006 67 10000 12.94 112 16:54 17.11.2022
1023 Clear 6 1005 68 10000 13.13 111 15:20 17.11.2022
1024 Clear 5 1007 73 10000 13.86 114 11:25 17.11.2022
1025 Clear 5 1007 74 10000 14.07 115 09:53 17.11.2022
1026 Clouds 6 1007 73 10000 13.63 111 05:47 17.11.2022
1027 Clouds 6 1010 72 10000 12.31 114 00:48 17.11.2022
1028 Clear 6 1010 70 10000 12.8 111 22:31 16.11.2022
1029 Clear 7 1010 70 10000 12.9 106 21:18 16.11.2022
1030 Clear 7 1010 70 10000 13.06 105 19:54 16.11.2022
1031 Clear 7 1010 70 10000 12.97 106 18:46 16.11.2022
1032 Clear 8 1010 69 10000 12.69 104 17:53 16.11.2022
1033 Clear 9 1009 69 10000 11.68 108 14:22 16.11.2022
1034 Clouds 9 1010 70 10000 13.41 106 09:57 16.11.2022
1035 Clouds 10 1010 75 10000 13.27 108 06:38 16.11.2022
1036 Clouds 10 1011 80 10000 11.56 103 01:29 16.11.2022
1037 Clouds 10 1012 81 10000 10.83 102 22:38 15.11.2022
1038 Clouds 10 1012 82 10000 10.51 101 20:55 15.11.2022
1039 Clouds 10 1012 83 10000 9.99 101 19:35 15.11.2022
1040 Clouds 10 1012 84 10000 9.07 100 18:50 15.11.2022
1041 Clouds 10 1011 85 10000 8.51 104 17:31 15.11.2022
1042 Clouds 10 1012 85 10000 7.5 101 16:19 15.11.2022
1043 Clear 10 1012 81 10000 6.62 98 14:59 15.11.2022
1044 Clear 11 1012 77 10000 4.6 91 13:39 15.11.2022
1045 Clear 10 1012 78 10000 2.82 127 11:48 15.11.2022
1046 Clear 9 1013 80 10000 3.27 157 11:19 15.11.2022
1047 Clear 8 1013 84 10000 4.16 151 09:28 15.11.2022
1048 Clouds 8 1014 82 10000 5.26 167 00:40 15.11.2022
1049 Clouds 8 1015 81 10000 5.14 160 00:18 15.11.2022
1050 Clouds 9 1016 78 10000 5.5 155 21:48 14.11.2022
1051 Clouds 9 1016 75 10000 5.63 158 20:42 14.11.2022
1052 Clouds 10 1017 73 10000 6.18 149 18:58 14.11.2022
1053 Clouds 10 1018 72 10000 6.7 133 17:28 14.11.2022
1054 Clouds 11 1019 68 10000 7.65 136 12:55 14.11.2022
1055 Clouds 11 1020 70 10000 7.97 127 11:45 14.11.2022
1056 Clouds 10 1021 73 10000 7.95 123 10:49 14.11.2022
1057 Clouds 10 1022 79 10000 7.51 118 08:29 14.11.2022
1058 Clouds 10 1022 79 10000 7.51 118 07:50 14.11.2022
1059 Clouds 11 1025 86 10000 6.7 120 00:19 14.11.2022
1060 Clouds 11 1025 86 10000 6.7 120 00:19 14.11.2022
1061 Clouds 11 1025 86 10000 6.7 120 00:19 14.11.2022
1062 Clouds 12 1026 88 10000 6.35 123 22:43 13.11.2022
1063 Clouds 12 1026 91 10000 6.1 119 21:40 13.11.2022
1064 Clouds 12 1026 93 10000 6.21 110 20:45 13.11.2022
1065 Clouds 12 1026 93 10000 5.75 100 18:35 13.11.2022
1066 Clouds 12 1027 93 10000 5.73 103 17:49 13.11.2022
1067 Clouds 12 1027 90 10000 5.64 116 15:40 13.11.2022
1068 Clouds 12 1028 87 10000 5.73 119 14:30 13.11.2022
1069 Clouds 12 1029 85 10000 4.47 114 12:55 13.11.2022
1070 Clouds 12 1029 83 10000 3.36 127 11:34 13.11.2022
1071 Clouds 11 1030 87 10000 3.66 159 10:28 13.11.2022
1072 Clouds 11 1029 89 10000 2.69 186 05:52 13.11.2022
1073 Clouds 12 1031 90 10000 2.84 196 23:44 12.11.2022
1074 Clouds 12 1031 91 10000 2.03 215 21:32 12.11.2022
1075 Clouds 12 1031 91 10000 2.37 243 20:41 12.11.2022
1076 Clouds 13 1031 85 10000 2.34 290 18:57 12.11.2022
1077 Clouds 13 1031 84 10000 4.14 286 16:55 12.11.2022
1078 Clouds 13 1031 87 10000 4.84 273 15:48 12.11.2022
1079 Clouds 12 1031 89 10000 5.53 272 13:39 12.11.2022
1080 Clouds 12 1030 92 10000 7.83 266 09:41 12.11.2022
1081 Clouds 12 1030 92 10000 7.83 266 09:41 12.11.2022
1082 Clouds 12 1029 91 10000 7.69 254 07:48 12.11.2022
1083 Clouds 12 1028 84 10000 9.53 258 23:50 11.11.2022
1084 Clouds 13 1027 82 10000 10.95 269 20:57 11.11.2022
1085 Clouds 13 1027 82 10000 10.95 269 20:34 11.11.2022
1086 Clouds 13 1026 81 10000 11.43 263 19:27 11.11.2022
1087 Clouds 13 1027 83 10000 10.61 260 18:33 11.11.2022
1088 Clouds 13 1026 84 10000 10.38 257 17:40 11.11.2022
1089 Clouds 13 1026 84 10000 10.38 257 17:40 11.11.2022
1090 Clouds 13 1026 87 10000 11.13 248 14:33 11.11.2022
1091 Clouds 12 1025 86 10000 11.51 246 13:56 11.11.2022
1092 Clouds 12 1025 87 10000 11.77 246 12:45 11.11.2022
1093 Clouds 12 1024 85 10000 11.51 245 09:32 11.11.2022
1094 Clouds 12 1024 85 10000 11.51 245 09:32 11.11.2022
1095 Clouds 12 1023 85 10000 11.68 240 08:26 11.11.2022
1096 Clouds 12 1023 83 10000 10.46 237 00:40 11.11.2022
1097 Clouds 12 1023 83 10000 10.65 239 22:53 10.11.2022
1098 Clouds 13 1022 81 10000 10.47 237 21:51 10.11.2022
1099 Clouds 13 1022 81 10000 10.15 237 21:28 10.11.2022
1100 Clouds 13 1022 81 10000 10.15 237 20:46 10.11.2022
1101 Clouds 13 1022 82 10000 10.41 239 20:19 10.11.2022
1102 Clouds 13 1022 83 10000 10 237 18:59 10.11.2022
1103 Clouds 12 1021 84 10000 9.46 241 17:59 10.11.2022
1104 Clouds 12 1020 82 10000 9.57 241 16:25 10.11.2022
1105 Clouds 12 1020 84 10000 9.47 247 13:39 10.11.2022
1106 Clouds 11 1018 88 10000 9.75 248 11:28 10.11.2022
1107 Clear 11 1015 89 10000 10.56 253 08:21 10.11.2022
1108 Clouds 12 1010 82 10000 10.7 239 01:27 10.11.2022
1109 Clouds 12 1009 79 10000 9.88 233 23:21 09.11.2022
1110 Clouds 12 1009 79 10000 9.43 228 21:59 09.11.2022
1111 Clouds 12 1009 79 10000 9.25 225 20:47 09.11.2022
1112 Clouds 12 1008 80 10000 8.28 219 20:29 09.11.2022
1113 Clouds 12 1008 80 10000 8.28 219 19:32 09.11.2022
1114 Clouds 12 1008 80 10000 6.91 215 18:39 09.11.2022
1115 Clouds 14 1007 76 10000 7.29 229 15:55 09.11.2022
1116 Clouds 14 1007 77 10000 7.22 229 14:45 09.11.2022
1117 Clouds 14 1007 78 10000 8.11 231 14:23 09.11.2022
1118 Clouds 14 1008 76 10000 7.87 228 12:58 09.11.2022
1119 Clouds 14 1008 75 10000 8.52 224 11:36 09.11.2022
1120 Clouds 13 1007 77 10000 7.81 206 08:35 09.11.2022
1121 Clouds 13 1006 77 10000 8.14 200 07:42 09.11.2022
1122 Clouds 13 1007 71 10000 8.11 206 23:53 08.11.2022
1123 Clouds 13 1007 72 10000 8.41 198 21:44 08.11.2022
1124 Clouds 13 1007 72 10000 8.63 196 21:26 08.11.2022
1125 Clouds 13 1007 72 10000 8.63 196 20:41 08.11.2022
1126 Clouds 13 1007 74 10000 8.88 192 19:37 08.11.2022
1127 Clouds 13 1007 75 10000 8.99 191 18:31 08.11.2022
1128 Clouds 13 1008 77 10000 8.29 188 16:47 08.11.2022
1129 Clouds 14 1008 75 10000 7.4 187 14:56 08.11.2022
1130 Clouds 14 1008 75 10000 7.37 193 13:41 08.11.2022
1131 Clouds 13 1009 77 10000 7.5 197 13:22 08.11.2022
1132 Clouds 12 1010 86 10000 7.81 209 09:43 08.11.2022
1133 Clouds 12 1010 86 10000 8.35 220 07:25 08.11.2022
1134 Clouds 12 1010 86 10000 8.32 217 00:33 08.11.2022
1135 Clouds 12 1010 85 10000 9.26 226 22:44 07.11.2022
1136 Clouds 12 1010 84 10000 9.13 230 21:32 07.11.2022
1137 Clouds 12 1009 84 10000 9.24 230 20:40 07.11.2022
1138 Clouds 12 1009 83 10000 10.36 227 18:53 07.11.2022
1139 Clouds 12 1009 82 10000 10.37 229 17:39 07.11.2022
1140 Clouds 13 1008 79 10000 10.28 232 15:36 07.11.2022
1141 Clouds 13 1008 78 10000 11.04 232 14:49 07.11.2022
1142 Clouds 13 1008 75 10000 10.63 228 12:59 07.11.2022
1143 Clouds 12 1008 77 10000 10.86 225 11:49 07.11.2022
1144 Clouds 11 1008 77 10000 10.62 219 09:49 07.11.2022
1145 Clouds 11 1007 78 10000 10.66 214 08:18 07.11.2022
1146 Clouds 11 1007 71 10000 11.04 217 06:27 07.11.2022
1147 Rain 10 1007 68 10000 10.44 194 01:42 07.11.2022
1148 Clouds 10 1009 67 10000 10.64 178 22:39 06.11.2022
1149 Clouds 10 1010 69 10000 10.31 181 21:21 06.11.2022
1150 Clouds 10 1010 69 10000 10.31 181 20:36 06.11.2022
1151 Clouds 10 1010 70 10000 10.19 182 19:56 06.11.2022
1152 Clouds 10 1010 69 10000 9.71 181 18:47 06.11.2022
1153 Clouds 11 1011 69 10000 8.92 182 18:20 06.11.2022
1154 Clouds 11 1011 69 10000 8.08 186 17:22 06.11.2022
1155 Clouds 11 1011 69 10000 8.08 186 16:53 06.11.2022
1156 Clouds 12 1011 69 10000 8.08 196 15:56 06.11.2022
1157 Clouds 12 1011 70 10000 7.89 203 14:45 06.11.2022
1158 Clouds 11 1012 70 10000 8.79 207 12:44 06.11.2022
1159 Clouds 10 1013 74 10000 9.63 206 10:52 06.11.2022
1160 Clouds 9 1013 76 10000 10.37 206 09:51 06.11.2022
1161 Clouds 9 1013 75 10000 10.18 202 07:39 06.11.2022
1162 Clouds 10 1015 80 10000 8.73 227 23:23 05.11.2022
1163 Clouds 10 1015 78 10000 8.95 230 20:40 05.11.2022
1164 Clear 11 1014 77 10000 8.94 235 18:22 05.11.2022
1165 Clear 11 1014 77 10000 8.94 235 18:22 05.11.2022
1166 Clear 11 1014 77 10000 8.94 235 18:22 05.11.2022
1167 Clear 12 1014 71 10000 9.19 241 16:27 05.11.2022
1168 Clear 12 1013 70 10000 10.26 248 14:42 05.11.2022
1169 Clouds 11 1013 72 10000 10.54 251 13:32 05.11.2022
1170 Clouds 12 1013 73 10000 8.47 259 10:59 05.11.2022
1171 Clouds 12 1012 75 10000 7.76 267 08:55 05.11.2022
1172 Clouds 11 1011 73 10000 7.21 287 07:23 05.11.2022
1173 Clouds 11 1011 73 10000 7.21 287 06:54 05.11.2022
1174 Clouds 12 1008 69 10000 8.36 307 00:22 05.11.2022
1175 Clouds 12 1008 70 10000 8.24 309 23:26 04.11.2022
1176 Clouds 12 1008 70 10000 8.24 309 23:26 04.11.2022
1177 Clouds 12 1007 81 10000 6.17 294 20:39 04.11.2022
1178 Clouds 12 1007 79 10000 3.63 286 19:28 04.11.2022
1179 Clouds 12 1006 78 10000 4.28 271 17:25 04.11.2022
1180 Rain 13 1005 79 10000 5.42 251 14:20 04.11.2022
1181 Rain 11 1005 84 10000 4.61 228 12:28 04.11.2022
1182 Rain 11 1005 84 10000 4.61 228 11:43 04.11.2022
1183 Rain 10 1004 82 10000 6.62 202 09:24 04.11.2022
1184 Rain 10 1004 82 10000 7.41 178 07:46 04.11.2022
1185 Clouds 10 1003 81 10000 8.95 151 05:51 04.11.2022
1186 Clouds 10 1005 71 10000 8.7 145 00:39 04.11.2022
1187 Clouds 11 1007 66 10000 9.96 150 21:18 03.11.2022
1188 Clouds 11 1007 66 10000 9.96 150 20:32 03.11.2022
1189 Clouds 11 1008 66 10000 9.93 151 19:40 03.11.2022
1190 Clouds 12 1010 65 10000 9.72 152 18:18 03.11.2022
1191 Clouds 12 1010 64 10000 8.99 153 16:54 03.11.2022
1192 Clouds 12 1011 65 10000 8.31 163 14:56 03.11.2022
1193 Clouds 12 1013 66 10000 8.66 179 13:26 03.11.2022
1194 Clouds 13 1013 67 10000 8.52 180 12:34 03.11.2022
1195 Clouds 12 1014 69 10000 9.79 185 11:28 03.11.2022
1196 Clouds 10 1016 76 10000 10.02 179 07:47 03.11.2022
1197 Clear 12 1018 79 10000 9.49 257 21:59 02.11.2022
1198 Clear 12 1018 80 10000 10.82 261 20:54 02.11.2022
1199 Clear 12 1017 81 10000 11.32 261 20:23 02.11.2022
1200 Clouds 12 1016 84 10000 13.54 259 17:58 02.11.2022
1201 Clouds 11 1014 87 10000 16.63 254 16:26 02.11.2022
1202 Clouds 13 1014 75 10000 13.47 237 15:27 02.11.2022
1203 Clouds 13 1014 73 10000 10.85 232 12:50 02.11.2022
1204 Clouds 13 1014 73 10000 10.93 232 12:20 02.11.2022
1205 Clouds 12 1015 75 10000 10.01 225 09:32 02.11.2022
1206 Clouds 11 1014 77 10000 8.89 212 07:38 02.11.2022
1207 Clear 12 1016 77 10000 6.49 205 01:46 02.11.2022
1208 Clear 13 1016 81 10000 5.68 217 22:21 01.11.2022
1209 Clear 13 1016 81 10000 5.68 217 21:42 01.11.2022
1210 Clouds 13 1016 82 10000 5.75 243 20:28 01.11.2022
1211 Clouds 13 1016 82 10000 5.75 243 19:59 01.11.2022
1212 Clouds 13 1016 82 10000 5.75 243 19:40 01.11.2022
1213 Clouds 14 1015 81 10000 6.68 250 18:21 01.11.2022
1214 Clouds 15 1014 77 10000 9.32 258 16:28 01.11.2022
1215 Clouds 15 1013 86 10000 6.12 230 14:38 01.11.2022
1216 Clouds 15 1013 81 10000 6.96 239 12:34 01.11.2022
1217 Clouds 15 1013 79 10000 6.29 209 11:40 01.11.2022
1218 Clouds 15 1012 81 10000 6.66 181 11:20 01.11.2022
1219 Clouds 14 1013 89 10000 7.15 148 08:58 01.11.2022
1220 Clouds 13 1013 93 10000 7.15 132 07:49 01.11.2022
1221 Clouds 13 1013 94 10000 6.68 123 07:27 01.11.2022
1222 Clouds 13 1013 94 10000 6.68 123 06:45 01.11.2022
1223 Clouds 13 1014 95 10000 7.07 124 05:19 01.11.2022
1224 Clouds 14 1018 88 10000 3.88 128 22:43 31.10.2022
1225 Clouds 14 1019 85 10000 3.09 124 21:32 31.10.2022
1226 Clouds 14 1019 86 10000 2.16 109 19:57 31.10.2022
1227 Clouds 14 1019 92 10000 0.21 238 18:36 31.10.2022
1228 Clouds 14 1019 92 10000 1.86 278 16:44 31.10.2022
1229 Clouds 14 1019 93 10000 2.45 275 15:34 31.10.2022
1230 Clouds 14 1020 94 10000 3.15 276 12:30 31.10.2022
1231 Clouds 14 1020 95 10000 3.06 274 09:36 31.10.2022
1232 Clouds 14 1019 95 10000 3.53 264 07:35 31.10.2022
1233 Clouds 14 1017 92 10000 2.22 269 02:47 31.10.2022
1234 Clouds 14 1017 94 10000 2.59 268 01:48 31.10.2022
1235 Clouds 14 1017 91 10000 3.14 243 22:20 30.10.2022
1236 Clouds 14 1017 91 10000 2.69 242 20:43 30.10.2022
1237 Clouds 14 1017 91 10000 3.2 262 19:52 30.10.2022
1238 Clouds 14 1017 90 10000 3.75 260 16:42 30.10.2022
1239 Clouds 15 1016 87 10000 3.67 265 14:54 30.10.2022
1240 Clouds 15 1017 86 10000 4.75 265 13:51 30.10.2022
1241 Clouds 16 1017 82 10000 3.85 203 12:27 30.10.2022
1242 Clouds 17 1017 86 10000 4.27 179 10:32 30.10.2022
1243 Clouds 16 1017 90 10000 4.59 161 09:35 30.10.2022
1244 Clouds 15 1017 93 10000 4.38 151 07:57 30.10.2022
1245 Clouds 15 1019 86 10000 1.19 251 00:29 30.10.2022
1246 Rain 15 1019 86 10000 1.19 251 23:48 29.10.2022
1247 Rain 15 1019 83 10000 2.51 249 22:52 29.10.2022
1248 Rain 16 1019 82 10000 5.02 266 19:57 29.10.2022
1249 Clouds 17 1019 83 10000 5.32 261 17:24 29.10.2022
1250 Clouds 17 1019 81 10000 5.79 258 15:51 29.10.2022
1251 Clouds 17 1019 80 10000 6.63 257 15:23 29.10.2022
1252 Clouds 18 1019 80 10000 6.63 257 14:41 29.10.2022
1253 Clouds 16 1019 80 10000 7.51 261 12:34 29.10.2022
1254 Clouds 15 1019 83 10000 7.77 268 09:57 29.10.2022
1255 Clouds 15 1018 85 10000 7.97 279 07:33 29.10.2022
1256 Clouds 14 1017 90 10000 9.84 274 05:55 29.10.2022
1257 Clouds 15 1017 90 10000 10.44 266 02:45 29.10.2022
1258 Clouds 18 1016 85 10000 5.93 232 22:30 28.10.2022
1259 Clouds 18 1016 84 10000 5.52 229 20:46 28.10.2022
1260 Clouds 18 1016 84 10000 4.86 214 18:58 28.10.2022
1261 Clouds 19 1016 84 10000 4.86 214 18:31 28.10.2022
1262 Clouds 22 1016 78 10000 4.16 225 15:31 28.10.2022
1263 Clouds 22 1016 77 10000 4.3 216 14:43 28.10.2022
1264 Clouds 16 1018 81 10000 3.95 211 12:31 28.10.2022
1265 Clouds 15 1018 84 10000 3.48 207 11:34 28.10.2022
1266 Clouds 15 1019 88 10000 4.24 209 10:47 28.10.2022
1267 Clouds 14 1019 91 10000 4.71 212 09:48 28.10.2022
1268 Clouds 14 1018 94 10000 5.33 227 08:28 28.10.2022
1269 Clouds 14 1019 89 10000 6.87 197 03:43 28.10.2022
1270 Clouds 16 1021 87 10000 6.12 180 23:49 27.10.2022
1271 Clouds 16 1021 88 10000 6.2 173 22:41 27.10.2022
1272 Clouds 16 1022 87 10000 6.06 175 21:55 27.10.2022
1273 Clouds 16 1022 89 10000 5.52 178 20:30 27.10.2022
1274 Clouds 16 1022 89 10000 5.52 178 20:30 27.10.2022
1275 Clouds 16 1022 89 10000 5.52 178 20:30 27.10.2022
1276 Clouds 18 1023 86 10000 3.69 182 18:23 27.10.2022
1277 Clouds 20 1023 83 10000 4.12 244 14:52 27.10.2022
1278 Clouds 17 1024 88 10000 5.63 245 11:33 27.10.2022
1279 Clouds 13 1022 94 10000 6.33 242 07:31 27.10.2022
1280 Clouds 15 1020 88 10000 5.43 209 00:22 27.10.2022
1281 Clouds 13 1020 88 10000 5.43 209 23:49 26.10.2022
1282 Clouds 13 1020 87 10000 5.29 199 22:38 26.10.2022
1283 Clouds 13 1019 83 10000 4.95 181 20:46 26.10.2022
1284 Clouds 14 1018 78 10000 3.76 181 17:36 26.10.2022
1285 Clouds 14 1018 77 10000 3.15 200 14:53 26.10.2022
1286 Clouds 14 1018 80 10000 3.65 216 12:56 26.10.2022
1287 Clouds 13 1018 83 10000 4.57 221 12:18 26.10.2022
1288 Clouds 12 1016 90 10000 5.64 227 09:19 26.10.2022
1289 Clouds 12 1016 90 10000 5.64 227 08:51 26.10.2022
1290 Clear 13 1015 91 10000 7.31 254 00:51 26.10.2022
1291 Clear 13 1015 91 10000 7.31 254 00:30 26.10.2022
1292 Clear 13 1014 87 10000 8.38 253 22:25 25.10.2022
1293 Clear 13 1014 87 10000 8.38 253 21:44 25.10.2022
1294 Clouds 14 1014 85 10000 9.19 259 20:27 25.10.2022
1295 Clouds 14 1013 84 10000 9.39 257 18:55 25.10.2022
1296 Clouds 14 1013 81 10000 9.83 245 16:45 25.10.2022
1297 Clouds 13 1011 89 10000 9.39 246 11:42 25.10.2022
1298 Clouds 13 1011 89 10000 9.69 247 10:47 25.10.2022
1299 Clouds 12 1010 91 10000 9.14 238 10:29 25.10.2022
1300 Clouds 12 1010 92 10000 8.58 229 08:38 25.10.2022
1301 Clouds 12 1009 92 10000 8.54 224 08:18 25.10.2022
1302 Clouds 12 1009 92 10000 8.54 224 07:53 25.10.2022
1303 Clouds 12 1009 92 10000 7.87 224 06:46 25.10.2022
1304 Clouds 13 1009 91 10000 7.52 229 03:32 25.10.2022
1305 Clouds 14 1008 85 10000 8.21 230 00:32 25.10.2022
1306 Clouds 14 1007 79 10000 9.16 230 22:28 24.10.2022
1307 Clouds 14 1007 79 10000 9.16 230 21:49 24.10.2022
1308 Clouds 14 1007 82 10000 7.93 218 20:55 24.10.2022
1309 Clouds 14 1007 83 10000 6.8 216 20:23 24.10.2022
1310 Clouds 15 1006 81 10000 6.92 219 18:41 24.10.2022
1311 Clouds 16 1006 79 10000 7.29 220 16:58 24.10.2022
1312 Clouds 16 1006 76 10000 6.49 218 15:34 24.10.2022
1313 Clouds 16 1007 79 10000 5.37 210 14:20 24.10.2022
1314 Clouds 16 1007 80 10000 5.85 203 12:41 24.10.2022
1315 Clouds 13 1007 97 10000 6.67 178 09:28 24.10.2022
1316 Clouds 13 1007 97 10000 6.58 175 07:51 24.10.2022
1317 Clouds 14 1011 88 10000 6.35 133 22:40 23.10.2022
1318 Clouds 13 1012 86 10000 5.68 126 20:40 23.10.2022
1319 Clouds 14 1013 83 10000 5.02 121 19:27 23.10.2022
1320 Clouds 14 1013 80 10000 3.71 114 17:30 23.10.2022
1321 Clouds 14 1013 80 10000 3.71 114 17:30 23.10.2022
1322 Clouds 14 1014 81 10000 0.65 191 16:20 23.10.2022
1323 Clouds 14 1014 82 10000 1.54 246 14:58 23.10.2022
1324 Clouds 13 1016 86 10000 4.85 240 11:56 23.10.2022
1325 Clouds 13 1015 87 10000 4.98 236 10:58 23.10.2022
1326 Clouds 13 1015 94 10000 6.3 255 06:36 23.10.2022
1327 Clouds 14 1013 94 10000 6.6 249 23:26 22.10.2022
1328 Clouds 14 1013 94 10000 6.6 249 22:30 22.10.2022
1329 Clouds 14 1013 91 10000 5.68 235 21:40 22.10.2022
1330 Clouds 14 1012 89 10000 3.09 226 20:28 22.10.2022
1331 Clouds 14 1013 88 10000 4.41 230 19:31 22.10.2022
1332 Clouds 14 1012 90 10000 3.87 254 18:23 22.10.2022
1333 Clouds 14 1012 91 10000 3.91 260 16:50 22.10.2022
1334 Clouds 14 1012 92 10000 4.98 270 15:21 22.10.2022
1335 Clouds 14 1012 92 10000 4.98 270 14:34 22.10.2022
1336 Clouds 14 1011 92 10000 4.87 271 11:40 22.10.2022
1337 Clouds 14 1010 94 10000 3.02 268 09:46 22.10.2022
1338 Clouds 14 1010 95 10000 2.94 250 08:37 22.10.2022
1339 Clouds 13 1009 95 10000 3.69 222 06:27 22.10.2022
1340 Clouds 12 1009 90 10000 3.15 214 01:25 22.10.2022
1341 Clouds 12 1009 86 10000 3.6 193 22:53 21.10.2022
1342 Clouds 13 1009 85 10000 3.32 185 21:34 21.10.2022
1343 Rain 13 1009 85 10000 3.58 182 20:47 21.10.2022
1344 Clouds 14 1009 83 10000 4.23 169 18:30 21.10.2022
1345 Clouds 15 1010 77 10000 3.75 163 14:47 21.10.2022
1346 Clouds 14 1010 76 10000 4.06 167 13:40 21.10.2022
1347 Clouds 13 1011 77 10000 4.53 162 11:55 21.10.2022
1348 Clouds 11 1011 83 10000 5.14 162 10:26 21.10.2022
1349 Clouds 10 1011 83 10000 5.14 162 09:33 21.10.2022
1350 Rain 9 1011 87 10000 6.22 167 08:26 21.10.2022
1351 Clouds 9 1013 94 10000 6.01 158 05:56 21.10.2022
1352 Clouds 9 1016 69 10000 9.55 148 23:59 20.10.2022
1353 Clouds 10 1018 69 10000 10.17 146 21:23 20.10.2022
1354 Clouds 11 1018 65 10000 9.94 143 19:45 20.10.2022
1355 Clouds 11 1019 61 10000 9.48 142 18:51 20.10.2022
1356 Clouds 12 1019 59 10000 9.51 136 17:48 20.10.2022
1357 Clouds 15 1021 56 10000 8.84 139 15:46 20.10.2022
1358 Clouds 13 1023 58 10000 7.85 132 12:33 20.10.2022
1359 Clouds 12 1024 61 10000 7.17 140 11:53 20.10.2022
1360 Clouds 10 1025 67 10000 6.84 143 10:56 20.10.2022
1361 Clouds 6 1025 74 10000 6.62 143 09:35 20.10.2022
1362 Clouds 5 1025 82 10000 5.41 154 07:44 20.10.2022
1363 Clouds 8 1026 76 10000 4.21 165 03:31 20.10.2022
1364 Clear 9 1028 67 10000 2.58 137 23:53 19.10.2022
1365 Clear 9 1029 65 10000 2.21 144 22:35 19.10.2022
1366 Clear 10 1028 62 10000 2.18 123 21:48 19.10.2022
1367 Clear 10 1028 61 10000 2.36 91 20:40 19.10.2022
1368 Clear 10 1028 63 10000 3.1 42 17:55 19.10.2022
1369 Clear 10 1028 63 10000 3.71 31 16:58 19.10.2022
1370 Clear 10 1028 62 10000 4 3 14:46 19.10.2022
1371 Clear 10 1028 65 10000 4.71 9 12:45 19.10.2022
1372 Clear 11 1026 69 10000 6.92 12 09:26 19.10.2022
1373 Clouds 11 1026 72 10000 7.37 6 07:51 19.10.2022
1374 Clouds 12 1023 82 10000 9.05 327 03:44 19.10.2022
1375 Clouds 13 1023 83 10000 10.25 298 00:25 19.10.2022
1376 Clouds 13 1023 84 10000 10.2 291 22:46 18.10.2022
1377 Clouds 15 1023 83 10000 10.08 290 21:36 18.10.2022
1378 Clear 15 1022 83 10000 10.48 288 20:35 18.10.2022
1379 Clouds 14 1022 79 10000 10.56 282 19:27 18.10.2022
1380 Clouds 14 1022 79 10000 10.41 276 17:31 18.10.2022
1381 Clouds 14 1022 80 10000 9.75 267 16:20 18.10.2022
1382 Clouds 14 1023 86 10000 8.51 263 13:57 18.10.2022
1383 Clouds 14 1023 86 10000 7.74 263 12:30 18.10.2022
1384 Clouds 14 1023 89 10000 6.93 249 11:20 18.10.2022
1385 Clouds 14 1023 92 10000 5.86 249 09:27 18.10.2022
1386 Clouds 14 1022 93 10000 5.73 257 07:54 18.10.2022
1387 Clouds 14 1023 92 10000 7.77 266 02:29 18.10.2022
1388 Rain 18 1021 97 10000 7.37 255 22:19 17.10.2022
1389 Clouds 18 1020 96 10000 5.27 252 20:51 17.10.2022
1390 Rain 15 1020 96 10000 5.27 252 20:31 17.10.2022
1391 Rain 15 1020 96 10000 5.96 280 19:51 17.10.2022
1392 Rain 15 1020 93 10000 6.74 271 18:51 17.10.2022
1393 Rain 21 1018 82 9641 6.68 236 16:49 17.10.2022
1394 Clouds 22 1018 81 10000 5.85 202 15:29 17.10.2022
1395 Clouds 22 1018 82 10000 5.56 204 14:34 17.10.2022
1396 Clouds 18 1020 81 10000 7.14 143 11:23 17.10.2022
1397 Clouds 13 1021 84 10000 4.45 147 06:36 17.10.2022
1398 Clouds 13 1021 82 10000 5.13 255 23:30 16.10.2022
1399 Clouds 14 1020 80 10000 7.08 269 21:56 16.10.2022
1400 Clouds 14 1019 81 10000 7.37 267 20:47 16.10.2022
1401 Clear 14 1018 81 10000 6.87 250 19:46 16.10.2022
1402 Clear 15 1016 76 10000 8.53 251 17:57 16.10.2022
1403 Clear 15 1016 76 10000 8.53 251 17:33 16.10.2022
1404 Clear 15 1014 75 10000 9.71 251 15:58 16.10.2022
1405 Clear 16 1014 72 10000 9.69 248 14:33 16.10.2022
1406 Clouds 18 1012 75 10000 8.81 225 12:23 16.10.2022
1407 Clouds 16 1012 84 10000 8.59 214 10:28 16.10.2022
1408 Clouds 14 1011 87 10000 8.51 212 08:51 16.10.2022
1409 Clouds 14 1008 90 10000 8.23 219 02:24 16.10.2022
1410 Clouds 16 1007 87 10000 7.84 192 23:41 15.10.2022
1411 Clouds 14 1007 83 10000 6.27 174 21:29 15.10.2022
1412 Clouds 15 1007 83 10000 6.27 174 20:57 15.10.2022
1413 Clouds 14 1007 81 10000 5.83 189 18:54 15.10.2022
1414 Clouds 19 1007 79 10000 3.43 223 15:50 15.10.2022
1415 Clouds 19 1007 79 10000 3.43 223 15:31 15.10.2022
1416 Clouds 14 1007 84 10000 5.47 241 12:33 15.10.2022
1417 Clouds 14 1007 90 10000 5.84 240 11:27 15.10.2022
1418 Clouds 13 1006 94 10000 6.62 219 08:56 15.10.2022
1419 Clouds 12 1006 94 10000 7.31 184 05:46 15.10.2022
1420 Clouds 14 1008 88 10000 5.96 157 00:40 15.10.2022
1421 Clouds 12 1010 90 10000 5.69 180 22:25 14.10.2022
1422 Clouds 13 1010 90 10000 5.69 180 21:37 14.10.2022
1423 Clouds 13 1011 90 10000 5.77 175 20:28 14.10.2022
1424 Clouds 14 1011 85 10000 4.63 169 17:35 14.10.2022
1425 Clouds 16 1012 85 10000 3.77 197 15:32 14.10.2022
1426 Clouds 13 1013 86 10000 3.75 244 12:46 14.10.2022
1427 Clouds 13 1014 89 10000 4.41 228 10:54 14.10.2022
1428 Clouds 12 1013 93 10000 4.67 232 08:25 14.10.2022
1429 Clouds 12 1013 93 10000 4.67 232 08:25 14.10.2022
1430 Clouds 12 1014 90 10000 5.46 223 06:45 14.10.2022
1431 Clouds 12 1014 90 10000 5.34 219 06:18 14.10.2022
1432 Clouds 12 1014 90 10000 5.34 219 05:41 14.10.2022
1433 Clouds 12 1014 89 10000 4.7 218 01:46 14.10.2022
1434 Clouds 14 1015 82 10000 5.59 210 23:22 13.10.2022
1435 Clouds 13 1015 81 10000 5.43 204 21:32 13.10.2022
1436 Clouds 13 1015 78 10000 4.53 201 20:22 13.10.2022
1437 Clouds 14 1015 78 10000 4.53 201 19:42 13.10.2022
1438 Clouds 14 1015 78 10000 4.53 201 19:42 13.10.2022
1439 Clouds 15 1015 75 10000 4.61 199 18:45 13.10.2022
1440 Clouds 15 1016 73 10000 4.31 205 18:20 13.10.2022
1441 Clouds 14 1016 71 10000 4.2 219 15:49 13.10.2022
1442 Clouds 14 1017 70 10000 5.55 226 14:59 13.10.2022
1443 Clouds 13 1016 72 10000 4.26 202 13:50 13.10.2022
1444 Clouds 14 1017 73 10000 5.07 227 12:38 13.10.2022
1445 Clouds 11 1018 76 10000 6.22 197 10:31 13.10.2022
1446 Clouds 8 1018 78 10000 6.23 180 08:34 13.10.2022
1447 Clouds 8 1018 78 10000 6.23 180 08:34 13.10.2022
1448 Clouds 10 1019 77 10000 6.29 186 07:36 13.10.2022
1449 Clouds 10 1020 74 10000 6.58 172 03:46 13.10.2022
1450 Clouds 11 1022 73 10000 6.4 177 01:40 13.10.2022
1451 Clouds 11 1022 75 10000 6.11 174 00:24 13.10.2022
1452 Clouds 11 1022 76 10000 5.96 170 22:44 12.10.2022
1453 Clouds 12 1023 74 10000 5.54 171 21:40 12.10.2022
1454 Clouds 12 1023 73 10000 4.73 168 21:18 12.10.2022
1455 Clouds 12 1023 74 10000 4.36 168 20:28 12.10.2022
1456 Clouds 13 1023 73 10000 3.35 162 19:22 12.10.2022
1457 Clouds 13 1023 71 10000 2.4 183 17:55 12.10.2022
1458 Clouds 13 1024 71 10000 1.87 220 16:54 12.10.2022
1459 Clouds 13 1025 72 10000 3.09 250 14:27 12.10.2022
1460 Clouds 13 1025 72 10000 3.09 250 13:53 12.10.2022
1461 Clouds 12 1025 76 10000 3.98 223 11:47 12.10.2022
1462 Clouds 12 1025 82 10000 4.38 227 09:36 12.10.2022
1463 Clouds 11 1025 82 10000 4.35 242 07:42 12.10.2022
1464 Clouds 12 1024 80 10000 4.44 248 06:44 12.10.2022
1465 Clouds 12 1024 78 10000 4.1 258 05:27 12.10.2022
1466 Clouds 12 1024 76 10000 5.22 283 00:32 12.10.2022
1467 Clouds 13 1024 75 10000 6.32 279 21:25 11.10.2022
1468 Clouds 13 1024 75 10000 6.32 279 20:30 11.10.2022
1469 Clouds 13 1023 75 10000 7.29 269 18:27 11.10.2022
1470 Clouds 13 1023 72 10000 8.39 271 16:27 11.10.2022
1471 Clear 13 1023 69 10000 9.29 273 13:52 11.10.2022
1472 Clear 13 1022 67 10000 9.76 279 11:32 11.10.2022
1473 Clear 12 1021 68 10000 10.26 283 10:27 11.10.2022
1474 Clear 12 1021 69 10000 10.06 284 08:46 11.10.2022
1475 Clear 12 1018 74 10000 10.23 292 05:25 11.10.2022
1476 Clouds 12 1017 77 10000 10.89 293 01:55 11.10.2022
1477 Clouds 13 1015 80 10000 11.56 297 00:24 11.10.2022
1478 Clouds 14 1012 76 10000 8.97 234 21:21 10.10.2022
1479 Clouds 14 1012 74 10000 6.81 225 19:45 10.10.2022
1480 Clouds 15 1012 70 10000 5.49 220 18:25 10.10.2022
1481 Clouds 16 1012 66 10000 6.41 218 16:43 10.10.2022
1482 Clouds 18 1013 59 10000 6.98 197 14:48 10.10.2022
1483 Clouds 15 1014 57 10000 7.97 180 12:38 10.10.2022
1484 Clear 15 1016 62 10000 10.06 173 11:18 10.10.2022
1485 Clear 8 1017 72 10000 9.9 164 08:32 10.10.2022
1486 Clouds 9 1019 75 10000 9.41 161 05:41 10.10.2022
1487 Clouds 10 1021 74 10000 7.98 171 02:53 10.10.2022
1488 Clear 11 1022 73 10000 6.75 176 00:29 10.10.2022
1489 Clear 12 1023 72 10000 5.68 179 22:27 09.10.2022
1490 Clear 12 1023 72 10000 5.68 179 21:58 09.10.2022
1491 Clear 12 1023 72 10000 4.64 174 21:21 09.10.2022
1492 Clear 13 1023 75 10000 3.04 142 19:59 09.10.2022
1493 Clear 13 1023 75 10000 3.04 142 19:34 09.10.2022
1494 Clear 13 1023 74 10000 0.9 162 18:43 09.10.2022
1495 Clear 13 1023 75 10000 2.74 282 16:56 09.10.2022
1496 Clear 13 1023 75 10000 2.74 282 16:33 09.10.2022
1497 Clouds 13 1024 75 10000 3.75 275 15:38 09.10.2022
1498 Clouds 13 1024 73 10000 4.44 270 14:31 09.10.2022
1499 Clouds 13 1024 75 10000 5.75 251 13:23 09.10.2022
1500 Clouds 13 1024 75 10000 5.6 256 12:29 09.10.2022
1501 Clouds 13 1024 76 10000 5.48 259 10:48 09.10.2022
1502 Clouds 12 1024 76 10000 5.93 281 08:30 09.10.2022
1503 Clouds 12 1024 76 10000 5.93 281 08:30 09.10.2022
1504 Clouds 13 1024 77 10000 5.6 279 08:30 09.10.2022
1505 Clear 12 1021 74 10000 8.8 293 03:38 09.10.2022
1506 Clear 12 1021 74 10000 9.41 294 02:52 09.10.2022
1507 Clear 12 1020 74 10000 10.15 293 00:38 09.10.2022
1508 Clear 12 1019 75 10000 10.99 297 22:56 08.10.2022
1509 Clear 12 1018 75 10000 10.74 293 22:19 08.10.2022
1510 Clouds 12 1016 76 10000 10.08 282 20:29 08.10.2022
1511 Clouds 13 1015 76 10000 11.36 274 18:56 08.10.2022
1512 Clear 13 1014 77 10000 10.68 266 16:52 08.10.2022
1513 Clear 14 1013 76 10000 10.32 261 15:26 08.10.2022
1514 Clouds 14 1013 78 10000 10.26 262 13:31 08.10.2022
1515 Clouds 13 1012 88 10000 10.21 243 10:48 08.10.2022
1516 Clouds 12 1012 89 10000 9.01 246 10:24 08.10.2022
1517 Rain 12 1012 83 10000 10.11 242 08:49 08.10.2022
1518 Clouds 12 1012 76 10000 8.94 225 05:31 08.10.2022
1519 Clouds 12 1014 75 10000 8.9 214 00:59 08.10.2022
1520 Clouds 13 1015 74 10000 8.72 211 23:39 07.10.2022
1521 Clouds 13 1016 74 10000 8.38 212 23:20 07.10.2022
1522 Clouds 13 1016 73 10000 8.16 212 21:48 07.10.2022
1523 Clouds 14 1016 71 10000 7.07 207 19:51 07.10.2022
1524 Clouds 15 1017 67 10000 6.81 216 17:54 07.10.2022
1525 Clouds 15 1018 65 10000 6.99 222 16:50 07.10.2022
1526 Clouds 15 1019 62 10000 8.13 222 15:26 07.10.2022
1527 Clear 15 1020 62 10000 8.67 221 13:55 07.10.2022
1528 Clear 14 1022 65 10000 9.28 217 11:38 07.10.2022
1529 Clear 11 1023 77 10000 9.69 218 09:25 07.10.2022
1530 Clear 11 1023 80 10000 9.55 217 08:23 07.10.2022
1531 Clear 12 1025 78 10000 8.58 231 02:55 07.10.2022
1532 Clear 13 1026 76 10000 8.75 237 23:52 06.10.2022
1533 Clear 13 1026 76 10000 8.61 240 22:49 06.10.2022
1534 Clear 13 1026 76 10000 8.5 239 21:39 06.10.2022
1535 Clear 14 1026 75 10000 9.23 248 20:41 06.10.2022
1536 Clear 15 1025 73 10000 10.85 252 18:58 06.10.2022
1537 Clear 15 1025 73 10000 10.85 252 18:32 06.10.2022
1538 Clear 15 1024 71 10000 10.66 259 15:40 06.10.2022
1539 Clear 15 1023 74 10000 11.77 260 13:49 06.10.2022
1540 Clear 14 1021 77 10000 13.42 263 10:43 06.10.2022
1541 Rain 15 1014 83 10000 12.37 260 05:20 06.10.2022
1542 Clouds 16 1012 77 10000 12.81 236 02:38 06.10.2022
1543 Clear 15 1012 74 10000 9.13 210 22:29 05.10.2022
1544 Clouds 17 1012 74 10000 7.81 204 19:54 05.10.2022
1545 Clouds 16 1011 72 10000 7.38 216 17:48 05.10.2022
1546 Clouds 17 1012 72 10000 6.85 219 17:27 05.10.2022
1547 Clouds 16 1012 73 10000 7 226 15:37 05.10.2022
1548 Clouds 16 1012 74 10000 7.77 221 14:38 05.10.2022
1549 Clouds 15 1013 79 10000 8.75 222 13:39 05.10.2022
1550 Clouds 14 1014 80 10000 9.03 217 12:19 05.10.2022
1551 Clouds 14 1014 81 10000 8.4 215 08:31 05.10.2022
1552 Clouds 13 1014 76 10000 8.33 213 07:23 05.10.2022
1553 Clouds 13 1014 77 10000 7.97 211 05:35 05.10.2022
1554 Clouds 13 1015 79 10000 8.04 215 02:40 05.10.2022
1555 Clouds 13 1016 79 10000 7.82 214 00:41 05.10.2022
1556 Clouds 13 1017 81 10000 7.62 214 00:23 05.10.2022
1557 Clouds 13 1017 83 10000 6.87 206 21:48 04.10.2022
1558 Clouds 14 1017 80 10000 4.66 206 20:22 04.10.2022
1559 Clouds 15 1018 79 10000 4.35 237 18:56 04.10.2022
1560 Clouds 15 1018 79 10000 4.35 237 18:35 04.10.2022
1561 Clouds 15 1018 80 10000 4.51 248 17:41 04.10.2022
1562 Clouds 14 1019 84 10000 5.69 257 16:26 04.10.2022
1563 Clouds 14 1020 86 10000 6.1 268 12:24 04.10.2022
1564 Clouds 13 1019 86 10000 5.97 298 08:42 04.10.2022
1565 Clouds 13 1019 85 10000 6.85 309 06:25 04.10.2022
1566 Clouds 13 1019 84 10000 8.59 317 01:27 04.10.2022
1567 Clouds 13 1019 85 10000 8.5 319 23:36 03.10.2022
1568 Clear 14 1019 81 10000 7.67 318 21:52 03.10.2022
1569 Clear 14 1019 79 10000 7.74 320 20:52 03.10.2022
1570 Clouds 15 1019 76 10000 8.7 314 18:57 03.10.2022
1571 Clouds 15 1019 75 10000 9.04 310 17:48 03.10.2022
1572 Clouds 15 1019 73 10000 9.4 309 16:41 03.10.2022
1573 Clouds 14 1019 71 10000 9.54 308 15:27 03.10.2022
1574 Clouds 14 1019 75 10000 9.25 306 13:44 03.10.2022
1575 Clouds 14 1019 77 10000 9.83 309 12:20 03.10.2022
1576 Clouds 13 1018 79 10000 10.27 313 10:38 03.10.2022
1577 Clouds 13 1018 79 10000 10.52 318 09:35 03.10.2022
1578 Clouds 13 1016 78 10000 11.84 317 05:34 03.10.2022
1579 Clouds 13 1015 85 10000 11.49 311 02:51 03.10.2022
1580 Clear 14 1013 79 10000 11.72 301 22:29 02.10.2022
1581 Clear 14 1012 76 10000 11.06 300 20:42 02.10.2022
1582 Rain 14 1011 73 10000 10.19 300 18:31 02.10.2022
1583 Rain 14 1010 74 10000 9.14 295 17:38 02.10.2022
1584 Clear 14 1010 74 10000 8.92 293 16:33 02.10.2022
1585 Clear 14 1009 74 10000 9.12 291 15:50 02.10.2022
1586 Clouds 14 1009 79 10000 10.42 281 13:51 02.10.2022
1587 Clouds 14 1009 81 10000 11.52 277 13:21 02.10.2022
1588 Clouds 14 1008 83 10000 11.79 269 12:28 02.10.2022
1589 Clouds 14 1008 83 10000 11.79 269 11:39 02.10.2022
1590 Clouds 14 1008 85 10000 11.66 266 10:59 02.10.2022
1591 Clouds 13 1007 85 10000 11.3 265 09:28 02.10.2022
1592 Clouds 13 1007 86 10000 11.31 262 07:41 02.10.2022
1593 Clear 13 1006 85 10000 11.23 264 02:55 02.10.2022
1594 Clear 13 1005 85 10000 11.96 275 00:50 02.10.2022
1595 Clouds 14 1004 84 10000 11.63 278 00:22 02.10.2022
1596 Clouds 14 1003 84 10000 10.98 278 22:53 01.10.2022
1597 Clear 14 1001 85 10000 10.44 275 20:53 01.10.2022
1598 Clouds 15 1000 85 10000 9.02 262 18:51 01.10.2022
1599 Clouds 13 1000 93 10000 9.3 211 16:42 01.10.2022
1600 Clouds 12 1000 90 8338 10.82 185 14:42 01.10.2022
1601 Rain 12 1002 86 10000 10.89 190 13:32 01.10.2022
1602 Rain 12 1002 80 10000 10.98 199 12:33 01.10.2022
1603 Clouds 12 1003 67 10000 9.96 184 11:21 01.10.2022
1604 Clouds 12 1003 67 10000 9.96 184 10:38 01.10.2022
1605 Clouds 12 1003 70 10000 9.87 186 10:20 01.10.2022
1606 Clouds 10 1004 71 10000 10.26 183 08:59 01.10.2022
1607 Clouds 10 1004 72 10000 9.73 177 07:30 01.10.2022
1608 Clouds 10 1007 72 10000 8.11 183 03:37 01.10.2022
1609 Clouds 11 1008 72 10000 7.16 190 01:22 01.10.2022
1610 Clouds 11 1008 72 10000 7.16 190 01:22 01.10.2022
1611 Clouds 12 1009 73 10000 7.3 191 23:20 30.09.2022
1612 Clouds 12 1009 74 10000 7.38 193 21:44 30.09.2022
1613 Clouds 13 1009 74 10000 6.99 188 20:45 30.09.2022
1614 Clouds 13 1009 69 10000 6.09 184 20:20 30.09.2022
1615 Clouds 16 1009 67 10000 5.34 206 17:42 30.09.2022
1616 Clouds 17 1009 64 10000 6.02 213 16:31 30.09.2022
1617 Clouds 17 1010 63 10000 7.36 195 14:22 30.09.2022
1618 Clouds 14 1010 64 10000 7.38 186 12:29 30.09.2022
1619 Clouds 16 1010 64 10000 7.38 186 11:54 30.09.2022
1620 Clouds 12 1010 70 10000 6.71 172 08:51 30.09.2022
1621 Clouds 12 1009 67 10000 5.8 172 06:34 30.09.2022
1622 Clouds 12 1008 71 10000 4.92 191 02:51 30.09.2022
1623 Clouds 12 1007 72 10000 4.87 213 00:53 30.09.2022
1624 Clouds 13 1006 63 10000 5.49 188 21:39 29.09.2022
1625 Clouds 13 1005 63 10000 5.57 178 21:19 29.09.2022
1626 Rain 13 1004 69 10000 3.39 223 18:56 29.09.2022
1627 Rain 13 1003 69 10000 4.07 239 17:49 29.09.2022
1628 Clouds 13 1002 67 10000 5.16 245 16:29 29.09.2022
1629 Clouds 13 1002 67 10000 5.16 245 15:37 29.09.2022
1630 Clouds 13 1002 66 10000 5.61 238 14:59 29.09.2022
1631 Clouds 12 1001 77 10000 6.12 227 12:22 29.09.2022
1632 Clouds 8 999 82 10000 6.96 236 08:44 29.09.2022
1633 Rain 12 997 74 10000 6.73 259 04:22 29.09.2022
1634 Clouds 12 997 73 10000 6.6 262 02:36 29.09.2022
1635 Rain 13 997 69 10000 5.57 287 23:21 28.09.2022
1636 Clouds 13 997 68 10000 4.47 292 21:32 28.09.2022
1637 Clouds 12 996 71 10000 3.41 298 20:51 28.09.2022
1638 Clouds 12 997 74 10000 3.05 286 19:56 28.09.2022
1639 Rain 12 996 72 10000 3.91 259 16:46 28.09.2022
1640 Clouds 12 995 73 10000 4.2 244 14:19 28.09.2022
1641 Clouds 11 995 76 10000 4.64 207 11:45 28.09.2022
1642 Clouds 11 995 82 10000 4.79 212 09:37 28.09.2022
1643 Clouds 10 995 84 10000 5.91 224 07:52 28.09.2022
1644 Clouds 11 995 87 10000 7.31 223 05:48 28.09.2022
1645 Clouds 11 995 87 10000 6.52 220 01:45 28.09.2022
1646 Clouds 12 994 81 10000 5.62 239 01:25 28.09.2022
1647 Clouds 11 994 83 10000 5.43 242 22:49 27.09.2022
1648 Clouds 11 994 85 10000 6.96 228 21:20 27.09.2022
1649 Clouds 12 994 83 10000 6.01 209 20:34 27.09.2022
1650 Clouds 12 993 81 10000 6.57 206 19:40 27.09.2022
1651 Rain 13 993 80 10000 5.87 165 17:47 27.09.2022
1652 Rain 13 993 79 10000 6.15 165 17:29 27.09.2022
1653 Rain 15 993 85 10000 7.57 162 15:18 27.09.2022
1654 Rain 13 993 86 10000 8.53 161 14:21 27.09.2022
1655 Rain 13 993 87 10000 8.78 164 12:39 27.09.2022
1656 Rain 13 993 88 10000 9.31 159 10:45 27.09.2022
1657 Rain 12 993 88 10000 8.86 157 08:42 27.09.2022
1658 Clouds 12 993 75 10000 8.89 169 05:48 27.09.2022
1659 Clouds 13 996 73 10000 8.27 176 01:40 27.09.2022
1660 Clouds 13 996 68 10000 8.71 186 00:32 27.09.2022
1661 Clouds 13 997 64 10000 8.67 186 23:25 26.09.2022
1662 Clouds 13 997 64 10000 8.53 192 21:44 26.09.2022
1663 Clouds 14 998 70 10000 7.21 182 20:26 26.09.2022
1664 Clouds 15 998 69 10000 7.58 187 19:21 26.09.2022
1665 Clouds 16 998 69 10000 7.58 187 18:30 26.09.2022
1666 Clouds 16 999 66 10000 8.86 212 15:49 26.09.2022
1667 Clouds 16 1001 68 10000 9.38 215 13:25 26.09.2022
1668 Clouds 14 1002 74 10000 9.19 209 11:29 26.09.2022
1669 Clouds 13 1002 74 10000 9.19 209 10:37 26.09.2022
1670 Clouds 13 1002 79 10000 8.81 211 10:19 26.09.2022
1671 Clouds 12 1002 79 10000 8.81 211 09:53 26.09.2022
1672 Clouds 11 1003 81 10000 8.26 217 09:22 26.09.2022
1673 Clouds 12 1004 77 10000 8.08 232 06:21 26.09.2022
1674 Rain 13 1005 75 10000 8.23 267 02:41 26.09.2022
1675 Clouds 14 1007 81 10000 6.35 265 23:28 25.09.2022
1676 Clouds 14 1007 84 10000 4.66 232 21:49 25.09.2022
1677 Clouds 14 1008 82 10000 3.38 216 21:25 25.09.2022
1678 Clouds 14 1008 82 10000 3.38 216 20:38 25.09.2022
1679 Clouds 14 1008 82 10000 2.9 230 19:31 25.09.2022
1680 Clouds 14 1009 81 10000 2.19 235 18:34 25.09.2022
1681 Clouds 14 1009 80 10000 2.21 257 17:49 25.09.2022
1682 Clouds 15 1010 75 10000 2.36 250 16:22 25.09.2022
1683 Clouds 15 1010 75 10000 2.36 250 15:43 25.09.2022
1684 Clouds 14 1011 79 10000 3.39 243 14:21 25.09.2022
1685 Clouds 14 1012 81 10000 3.25 254 12:49 25.09.2022
1686 Clouds 15 1012 87 10000 3.23 196 10:26 25.09.2022
1687 Rain 12 1012 89 10000 2.82 185 08:23 25.09.2022
1688 Clouds 12 1012 88 10000 2.31 203 05:36 25.09.2022
1689 Clouds 12 1013 83 10000 2.37 173 00:39 25.09.2022
1690 Clouds 13 1014 82 10000 2.59 188 22:34 24.09.2022
1691 Clouds 13 1013 83 10000 3.81 202 20:54 24.09.2022
1692 Clouds 13 1014 80 10000 4.56 192 19:22 24.09.2022
1693 Clouds 15 1013 72 10000 1.69 189 17:19 24.09.2022
1694 Clouds 15 1013 71 10000 0.75 247 16:23 24.09.2022
1695 Clouds 15 1013 71 10000 1.24 269 15:19 24.09.2022
1696 Clouds 14 1014 64 10000 1.25 222 13:23 24.09.2022
1697 Clouds 14 1014 64 10000 1.25 222 12:41 24.09.2022
1698 Clouds 14 1014 65 10000 3.32 179 10:19 24.09.2022
1699 Clouds 13 1014 65 10000 3.32 179 09:35 24.09.2022
1700 Clouds 12 1013 66 10000 3.75 181 08:43 24.09.2022
1701 Clouds 12 1013 63 10000 4.63 176 06:53 24.09.2022
1702 Clouds 13 1013 62 10000 5.12 176 04:35 24.09.2022
1703 Clouds 13 1014 61 10000 5.58 183 01:45 24.09.2022
1704 Clouds 14 1015 61 10000 6.06 169 22:24 23.09.2022
1705 Clouds 14 1015 62 10000 5.75 164 21:26 23.09.2022
1706 Clouds 15 1015 62 10000 5.75 164 20:55 23.09.2022
1707 Clouds 15 1015 61 10000 4.74 160 20:19 23.09.2022
1708 Clouds 17 1015 58 10000 3.37 163 18:26 23.09.2022
1709 Clouds 18 1018 53 10000 4.59 186 13:44 23.09.2022
1710 Clouds 13 1019 66 10000 5.44 191 10:27 23.09.2022
1711 Clouds 11 1019 68 10000 5.69 195 08:57 23.09.2022
1712 Clouds 12 1020 67 10000 5.48 198 04:59 23.09.2022
1713 Clouds 12 1022 62 10000 4.52 202 23:31 22.09.2022
1714 Clouds 12 1022 62 10000 3.98 184 22:41 22.09.2022
1715 Clouds 13 1022 62 10000 3.91 162 22:19 22.09.2022
1716 Clouds 14 1022 62 10000 3.87 147 20:45 22.09.2022
1717 Clouds 14 1023 60 10000 0.96 183 19:23 22.09.2022
1718 Clouds 14 1023 62 10000 3.02 283 16:57 22.09.2022
1719 Clouds 14 1025 63 10000 3.31 240 11:58 22.09.2022
1720 Clouds 15 1025 69 10000 3.7 222 10:20 22.09.2022
1721 Clouds 11 1024 71 10000 3.59 223 08:46 22.09.2022
1722 Clouds 9 1024 69 10000 3.08 221 06:42 22.09.2022
1723 Clouds 10 1025 61 10000 1.69 284 02:43 22.09.2022
1724 Clouds 12 1025 59 10000 0.42 328 23:25 21.09.2022
1725 Clouds 13 1025 59 10000 0.63 348 21:41 21.09.2022
1726 Clear 13 1025 57 10000 0.92 0 19:55 21.09.2022
1727 Clear 13 1025 58 10000 1.94 358 17:48 21.09.2022
1728 Clear 13 1025 59 10000 2.59 356 16:30 21.09.2022
1729 Clear 13 1026 61 10000 3.34 346 14:31 21.09.2022
1730 Clear 13 1026 62 10000 3.63 359 12:42 21.09.2022
1731 Clouds 14 1026 63 10000 4.22 1 11:29 21.09.2022
1732 Clouds 16 1025 64 10000 4.36 3 09:55 21.09.2022
1733 Clouds 13 1025 66 10000 4.41 6 09:00 21.09.2022
1734 Clouds 10 1025 66 10000 4.48 3 07:41 21.09.2022
1735 Clouds 13 1023 68 10000 5.64 355 02:48 21.09.2022
1736 Clouds 13 1023 70 10000 5.69 355 02:28 21.09.2022
1737 Clouds 12 1023 65 10000 4.47 356 00:34 21.09.2022
1738 Clouds 12 1023 64 10000 4.52 17 23:18 20.09.2022
1739 Clouds 13 1022 65 10000 4.82 17 20:52 20.09.2022
1740 Clear 15 1021 66 10000 4.85 6 19:37 20.09.2022
1741 Clear 14 1020 67 10000 4.74 349 16:28 20.09.2022
1742 Clear 14 1019 67 10000 5.15 354 14:46 20.09.2022
1743 Clouds 14 1019 67 10000 6.51 348 13:48 20.09.2022
1744 Clouds 13 1018 70 10000 6.65 357 10:33 20.09.2022
1745 Clouds 14 1016 68 10000 6.07 353 08:28 20.09.2022
1746 Clouds 13 1015 65 10000 6.45 356 05:48 20.09.2022
1747 Clouds 13 1015 66 10000 6.25 334 04:27 20.09.2022
1748 Clear 14 1014 64 10000 6.73 342 23:32 19.09.2022
1749 Clear 15 1014 67 10000 7.62 346 22:23 19.09.2022
1750 Clear 14 1013 67 10000 8.36 342 20:57 19.09.2022
1751 Clouds 14 1013 67 10000 8.36 340 20:38 19.09.2022
1752 Clouds 15 1012 68 10000 8.94 333 17:46 19.09.2022
1753 Rain 15 1011 70 10000 7.67 330 15:53 19.09.2022
1754 Clouds 14 1011 73 10000 7.18 333 13:35 19.09.2022
1755 Clouds 15 1010 69 10000 7.13 337 11:29 19.09.2022
1756 Clouds 16 1009 70 10000 7.41 348 09:20 19.09.2022
1757 Clouds 13 1009 70 10000 7.86 356 08:19 19.09.2022
1758 Clouds 12 1005 71 10000 5.45 358 02:18 19.09.2022
1759 Clouds 12 1004 71 10000 4.94 35 23:24 18.09.2022
1760 Clouds 12 1004 70 10000 3.86 27 21:47 18.09.2022
1761 Rain 12 1004 68 10000 2.34 15 20:34 18.09.2022
1762 Rain 13 1003 66 10000 2.81 280 18:41 18.09.2022
1763 Clouds 13 1002 65 10000 4.44 273 17:43 18.09.2022
1764 Clouds 15 1002 65 10000 6 273 16:32 18.09.2022
1765 Rain 14 1003 59 10000 8.35 272 14:35 18.09.2022
1766 Rain 13 1003 63 10000 9.06 277 12:55 18.09.2022
1767 Clouds 13 1003 65 10000 9.55 284 11:51 18.09.2022
1768 Clouds 12 1002 78 10000 6.54 290 06:45 18.09.2022
1769 Clouds 14 1003 76 10000 10.44 307 01:37 18.09.2022
1770 Clouds 14 1002 72 10000 8.19 308 01:18 18.09.2022
1771 Clouds 15 1002 66 10000 6.8 330 22:55 17.09.2022
1772 Clouds 15 1002 67 10000 6.51 328 20:50 17.09.2022
1773 Clouds 15 1002 69 10000 4.23 310 19:30 17.09.2022
1774 Clouds 15 1001 68 10000 4.45 312 17:21 17.09.2022
1775 Clouds 15 1002 71 10000 8.04 278 14:22 17.09.2022
1776 Clouds 15 1001 72 10000 8.52 286 12:44 17.09.2022
1777 Clouds 14 1001 77 10000 9.26 289 10:48 17.09.2022
1778 Clouds 14 1000 81 10000 8.98 294 06:35 17.09.2022
1779 Clouds 14 1000 78 10000 7.91 310 04:35 17.09.2022
1780 Clouds 14 999 77 10000 6.97 312 23:37 16.09.2022
1781 Rain 14 998 77 10000 4.89 278 21:57 16.09.2022
1782 Clouds 14 998 80 10000 6.24 260 20:44 16.09.2022
1783 Clouds 14 998 81 10000 10.56 253 18:43 16.09.2022
1784 Clouds 14 998 75 10000 11.2 269 16:22 16.09.2022
1785 Clouds 14 998 72 10000 12.26 263 14:51 16.09.2022
1786 Clouds 14 999 73 10000 13.66 263 12:52 16.09.2022
1787 Clouds 14 999 71 10000 13.92 274 10:24 16.09.2022
1788 Clouds 13 999 68 10000 14.07 278 07:23 16.09.2022
1789 Clouds 14 999 68 10000 14.07 278 06:48 16.09.2022
1790 Clouds 14 999 66 10000 13.85 280 05:55 16.09.2022
1791 Clouds 14 1000 58 10000 14.31 283 01:45 16.09.2022
1792 Clouds 14 1000 61 10000 12.94 291 21:44 15.09.2022
1793 Clouds 15 1000 62 10000 12.69 290 20:37 15.09.2022
1794 Clouds 15 999 66 10000 11.1 291 19:24 15.09.2022
1795 Clouds 18 999 65 10000 11.88 277 17:41 15.09.2022
1796 Clouds 18 999 67 10000 11.48 273 17:22 15.09.2022
1797 Clouds 15 1000 68 10000 11.79 271 15:38 15.09.2022
1798 Clouds 15 1000 64 10000 11.66 284 12:50 15.09.2022
1799 Clouds 15 1000 64 10000 12.02 287 11:48 15.09.2022
1800 Clouds 15 999 69 10000 12 286 09:45 15.09.2022
1801 Clouds 15 999 69 10000 11.27 282 06:58 15.09.2022
1802 Clouds 15 999 76 10000 9.73 283 03:48 15.09.2022
1803 Clouds 16 1001 79 10000 8.78 259 23:22 14.09.2022
1804 Clouds 16 1001 78 10000 7.95 253 20:37 14.09.2022
1805 Clouds 16 1001 71 10000 7.57 259 19:33 14.09.2022
1806 Clouds 16 1002 72 10000 8.69 269 17:47 14.09.2022
1807 Clouds 16 1002 72 10000 8.72 269 16:37 14.09.2022
1808 Rain 16 1003 70 10000 8.91 275 14:56 14.09.2022
1809 Clouds 18 1004 71 10000 8.94 276 12:50 14.09.2022
1810 Clouds 16 1003 69 10000 9.64 285 09:53 14.09.2022
1811 Clouds 15 1003 74 10000 10.09 287 08:38 14.09.2022
1812 Clouds 15 1003 74 10000 10.09 287 08:38 14.09.2022
1813 Clouds 17 1003 76 10000 11.45 288 06:50 14.09.2022
1814 Clouds 17 1003 76 10000 11.45 288 06:30 14.09.2022
1815 Clouds 17 1003 76 10000 11.45 288 06:30 14.09.2022
1816 Clear 16 1003 83 10000 11.54 279 02:58 14.09.2022
1817 Clear 16 1003 82 10000 11.52 271 01:36 14.09.2022
1818 Clear 16 1003 79 10000 10.97 268 00:53 14.09.2022
1819 Clear 16 1004 81 10000 10.72 273 23:55 13.09.2022
1820 Clear 16 1004 81 10000 10.72 273 23:37 13.09.2022
1821 Clear 16 1004 83 10000 10.87 275 23:19 13.09.2022
1822 Clear 16 1004 84 10000 11.44 272 22:29 13.09.2022
1823 Clear 16 1004 84 10000 11.44 272 21:39 13.09.2022
1824 Clouds 17 1004 75 10000 9.79 262 18:59 13.09.2022
1825 Clouds 16 1005 76 10000 10.7 263 16:45 13.09.2022
1826 Clouds 16 1005 75 10000 9.99 266 15:38 13.09.2022
1827 Clouds 17 1006 74 10000 10.09 269 13:41 13.09.2022
1828 Clouds 19 1005 87 10000 9.22 266 11:23 13.09.2022
1829 Rain 16 1006 83 10000 9.58 216 08:20 13.09.2022
1830 Clouds 16 1009 74 10000 8.49 184 02:58 13.09.2022
1831 Clouds 17 1013 75 10000 5.2 169 23:23 12.09.2022
1832 Clouds 17 1013 75 10000 5.2 169 22:45 12.09.2022
1833 Clouds 17 1013 79 10000 5.11 160 21:35 12.09.2022
1834 Clouds 18 1014 78 10000 3.36 151 20:23 12.09.2022
1835 Clouds 20 1014 76 10000 2.24 140 18:41 12.09.2022
1836 Clouds 17 1016 73 10000 0.89 59 15:53 12.09.2022
1837 Clouds 16 1017 76 10000 1.21 9 13:24 12.09.2022
1838 Clouds 19 1017 77 10000 1.17 36 10:56 12.09.2022
1839 Clouds 17 1017 78 10000 1.49 30 09:33 12.09.2022
1840 Clouds 16 1016 81 10000 2.97 340 04:42 12.09.2022
1841 Clouds 14 1017 80 10000 3.62 343 03:25 12.09.2022
1842 Clear 16 1017 78 10000 3.18 327 23:18 11.09.2022
1843 Clouds 16 1017 77 10000 2.96 317 21:41 11.09.2022
1844 Clear 16 1017 77 10000 2.07 330 20:45 11.09.2022
1845 Clear 16 1017 77 10000 1.92 344 19:51 11.09.2022
1846 Clear 16 1016 77 10000 2.49 358 19:22 11.09.2022
1847 Clear 16 1016 77 10000 3.27 1 18:20 11.09.2022
1848 Clear 16 1017 77 10000 3.97 355 16:34 11.09.2022
1849 Clouds 17 1017 76 10000 4 357 14:19 11.09.2022
1850 Rain 17 1016 75 10000 3.28 1 12:33 11.09.2022
1851 Rain 17 1015 79 10000 5.19 8 08:40 11.09.2022
1852 Clouds 15 1014 83 10000 5.44 11 06:56 11.09.2022
1853 Clouds 16 1013 84 10000 4.14 49 00:50 11.09.2022
1854 Clouds 16 1013 85 10000 5.36 48 22:55 10.09.2022
1855 Clouds 17 1013 86 10000 5.57 64 21:25 10.09.2022
1856 Clouds 18 1012 87 10000 5.96 64 19:47 10.09.2022
1857 Clouds 18 1012 86 10000 5.97 63 19:28 10.09.2022
1858 Clouds 18 1012 86 10000 5.97 63 18:54 10.09.2022
1859 Clouds 20 1012 83 10000 6.58 57 16:39 10.09.2022
1860 Clouds 21 1012 78 10000 5.42 47 14:42 10.09.2022
1861 Clouds 22 1012 74 10000 2.44 44 12:52 10.09.2022
1862 Clouds 18 1012 76 10000 1.94 90 11:19 10.09.2022
1863 Clouds 17 1012 78 10000 1.61 96 09:50 10.09.2022
1864 Clouds 16 1012 78 10000 1.81 146 08:37 10.09.2022
1865 Clouds 16 1011 81 10000 2.68 159 07:22 10.09.2022
1866 Clouds 16 1011 80 10000 3.42 147 00:41 10.09.2022
1867 Clouds 17 1011 80 10000 3.81 145 23:33 09.09.2022
1868 Rain 17 1011 83 10000 4.45 138 22:19 09.09.2022
1869 Rain 17 1011 80 10000 4.05 137 20:47 09.09.2022
1870 Rain 18 1010 76 10000 2.88 168 19:25 09.09.2022
1871 Clouds 20 1010 76 10000 2.88 168 18:53 09.09.2022
1872 Clouds 23 1010 68 9547 5.13 169 16:28 09.09.2022
1873 Clear 23 1010 70 10000 2.89 141 13:50 09.09.2022
1874 Clear 20 1011 72 10000 3.03 148 12:47 09.09.2022
1875 Clear 17 1010 82 10000 4.34 171 09:57 09.09.2022
1876 Clouds 16 1009 92 10000 6.05 222 05:38 09.09.2022
1877 Clouds 15 1008 91 10000 5.99 200 03:23 09.09.2022
1878 Rain 15 1008 72 8176 10.68 86 21:57 08.09.2022
1879 Rain 15 1008 72 8176 10.68 86 21:36 08.09.2022
1880 Rain 15 1010 69 10000 8.34 76 20:38 08.09.2022
1881 Rain 15 1010 73 10000 10.61 93 20:19 08.09.2022
1882 Rain 15 1009 63 10000 11.6 83 18:26 08.09.2022
1883 Rain 18 1010 63 10000 12.39 92 16:38 08.09.2022
1884 Clouds 18 1012 59 10000 12.36 92 14:41 08.09.2022
1885 Clouds 18 1012 60 10000 12.77 89 13:27 08.09.2022
1886 Clouds 19 1012 60 10000 12.77 89 12:33 08.09.2022
1887 Clouds 20 1013 62 10000 12.21 94 10:58 08.09.2022
1888 Clouds 20 1013 62 10000 12.21 94 10:58 08.09.2022
1889 Clouds 17 1013 64 10000 11.76 95 08:59 08.09.2022
1890 Clouds 16 1013 65 10000 11.4 100 06:43 08.09.2022
1891 Clouds 17 1014 68 10000 10.1 110 02:37 08.09.2022
1892 Clouds 18 1015 67 10000 9.57 109 02:19 08.09.2022
1893 Clouds 17 1015 67 10000 9.57 109 01:58 08.09.2022
1894 Clouds 18 1014 72 10000 10.67 95 22:55 07.09.2022
1895 Clouds 18 1014 74 10000 11.81 92 21:43 07.09.2022
1896 Clouds 18 1015 74 10000 11.82 90 21:20 07.09.2022
1897 Clouds 19 1015 73 10000 11.24 90 20:19 07.09.2022
1898 Clouds 21 1015 71 10000 10.48 91 18:40 07.09.2022
1899 Clouds 21 1015 61 10000 9.96 93 15:41 07.09.2022
1900 Clouds 18 1017 60 10000 8.53 113 10:51 07.09.2022
1901 Clouds 18 1017 60 10000 8.53 113 10:30 07.09.2022
1902 Clouds 14 1018 65 10000 8.19 118 07:43 07.09.2022
1903 Clouds 15 1018 67 10000 7.24 124 04:46 07.09.2022
1904 Clouds 18 1019 72 10000 7.89 99 00:26 07.09.2022
1905 Clouds 17 1020 71 10000 9.31 93 21:48 06.09.2022
1906 Clouds 17 1020 71 10000 9.4 93 21:27 06.09.2022
1907 Clouds 20 1021 62 10000 8.43 90 19:23 06.09.2022
1908 Clouds 20 1021 60 10000 7.94 90 18:29 06.09.2022
1909 Clouds 18 1022 59 10000 7.87 93 17:23 06.09.2022
1910 Clouds 21 1022 59 10000 7.87 93 16:41 06.09.2022
1911 Clouds 18 1023 60 10000 8.93 96 15:26 06.09.2022
1912 Clouds 21 1023 59 10000 9.13 98 13:47 06.09.2022
1913 Clouds 22 1023 59 10000 9.4 101 13:26 06.09.2022
1914 Clouds 20 1023 59 10000 9.4 101 12:40 06.09.2022
1915 Clouds 18 1024 62 10000 9.53 110 10:52 06.09.2022
1916 Clouds 16 1024 65 10000 9.68 112 08:58 06.09.2022
1917 Clouds 16 1025 67 10000 9.06 115 07:52 06.09.2022
1918 Clouds 15 1025 70 10000 9.1 114 05:59 06.09.2022
1919 Clouds 18 1026 69 10000 10.45 102 00:45 06.09.2022
1920 Clouds 18 1026 72 10000 10.48 94 22:43 05.09.2022
1921 Clouds 18 1026 71 10000 10.23 93 21:38 05.09.2022
1922 Clouds 18 1027 71 10000 9.82 91 20:18 05.09.2022
1923 Clouds 18 1027 66 10000 9.55 91 18:51 05.09.2022
1924 Clouds 18 1027 62 10000 9.06 90 18:24 05.09.2022
1925 Clouds 18 1027 62 10000 9.06 90 17:47 05.09.2022
1926 Clouds 18 1027 56 10000 8.66 95 15:53 05.09.2022
1927 Clouds 18 1028 57 10000 8.94 99 14:20 05.09.2022
1928 Clouds 18 1028 57 10000 8.37 102 12:50 05.09.2022
1929 Clouds 18 1028 57 10000 7.98 111 10:35 05.09.2022
1930 Clouds 17 1028 60 10000 8.31 111 08:36 05.09.2022
1931 Clouds 17 1027 65 10000 8.61 117 03:47 05.09.2022
1932 Clouds 17 1027 65 10000 8.61 117 03:47 05.09.2022
1933 Clouds 19 1027 70 10000 8.68 103 00:18 05.09.2022
1934 Clouds 18 1026 66 10000 9.42 93 22:28 04.09.2022
1935 Clouds 18 1026 66 10000 9.42 93 21:49 04.09.2022
1936 Clouds 18 1026 63 10000 9.12 88 20:21 04.09.2022
1937 Clouds 21 1025 59 10000 8.69 88 18:34 04.09.2022
1938 Clouds 18 1025 57 10000 8.57 85 17:26 04.09.2022
1939 Clouds 18 1025 57 10000 8.56 88 15:43 04.09.2022
1940 Clouds 18 1025 58 10000 8.4 96 14:25 04.09.2022
1941 Clouds 23 1025 58 10000 8.47 101 12:40 04.09.2022
1942 Clouds 18 1024 58 10000 8.32 107 10:59 04.09.2022
1943 Clouds 17 1024 59 10000 8.51 109 09:34 04.09.2022
1944 Clouds 15 1023 64 10000 7.91 107 06:35 04.09.2022
1945 Clouds 16 1022 66 10000 8.72 109 03:18 04.09.2022
1946 Clouds 17 1021 62 10000 11.1 105 22:53 03.09.2022
1947 Clouds 18 1021 62 10000 11.63 100 21:42 03.09.2022
1948 Clouds 18 1021 65 10000 11.78 93 21:22 03.09.2022
1949 Clouds 18 1020 65 10000 10.92 92 18:41 03.09.2022
1950 Clouds 19 1020 60 10000 9.74 93 17:19 03.09.2022
1951 Clouds 19 1021 58 10000 9.18 97 15:54 03.09.2022
1952 Clouds 19 1021 57 10000 8.89 102 14:42 03.09.2022
1953 Clouds 18 1021 58 10000 8.7 106 13:50 03.09.2022
1954 Clouds 22 1022 60 10000 8.13 119 11:34 03.09.2022
1955 Clouds 17 1022 65 10000 8.09 127 09:37 03.09.2022
1956 Clouds 16 1022 69 10000 7.95 124 07:54 03.09.2022
1957 Clouds 16 1021 64 10000 7.1 133 04:55 03.09.2022
1958 Clouds 15 1021 64 10000 7.04 131 03:29 03.09.2022
1959 Clouds 16 1022 70 10000 8.51 107 23:49 02.09.2022
1960 Clear 17 1022 66 10000 8.18 104 22:27 02.09.2022
1961 Clear 18 1022 64 10000 8.27 100 20:56 02.09.2022
1962 Clouds 18 1021 59 10000 7.66 98 20:23 02.09.2022
1963 Clouds 21 1021 57 10000 6.85 95 18:51 02.09.2022
1964 Clouds 21 1021 54 10000 6.09 93 18:26 02.09.2022
1965 Clouds 22 1021 54 10000 6.09 93 17:30 02.09.2022
1966 Clouds 22 1021 54 10000 6.09 93 17:30 02.09.2022
1967 Clouds 22 1022 52 10000 5.68 96 16:44 02.09.2022
1968 Clouds 19 1023 50 10000 5.18 112 13:51 02.09.2022
1969 Clouds 18 1023 53 10000 3.38 118 11:36 02.09.2022
1970 Clouds 17 1023 62 10000 2.25 136 09:46 02.09.2022
1971 Clouds 16 1023 64 10000 1.98 143 08:55 02.09.2022
1972 Clear 11 1023 63 10000 1.92 140 07:24 02.09.2022
1973 Clear 11 1023 63 10000 1.92 140 06:34 02.09.2022
1974 Clear 16 1024 60 10000 1.45 149 02:34 02.09.2022
1975 Clear 17 1024 56 10000 2.07 130 22:26 01.09.2022
1976 Clear 17 1024 56 10000 2.07 130 21:40 01.09.2022
1977 Clear 17 1024 55 10000 2.16 115 21:21 01.09.2022
1978 Clear 17 1024 53 10000 2.51 108 20:37 01.09.2022
1979 Clear 20 1024 51 10000 3.67 99 18:38 01.09.2022
1980 Clear 18 1024 51 10000 5.28 75 17:21 01.09.2022
1981 Clear 18 1024 51 10000 5.48 67 15:34 01.09.2022
1982 Clouds 18 1025 52 10000 6.51 63 13:49 01.09.2022
1983 Clouds 18 1025 53 10000 6.91 61 12:57 01.09.2022
1984 Clouds 18 1025 55 10000 7.15 61 11:52 01.09.2022
1985 Clouds 18 1025 55 10000 7.15 61 11:30 01.09.2022
1986 Clear 18 1024 60 10000 6.97 52 09:49 01.09.2022
1987 Clouds 17 1024 63 10000 1.72 78 07:51 01.09.2022
1988 Clouds 15 1024 61 10000 0.84 115 06:21 01.09.2022
1989 Clouds 15 1025 57 10000 1.95 66 01:31 01.09.2022
1990 Clouds 17 1025 55 10000 3.73 64 23:19 31.08.2022
1991 Clouds 18 1025 55 10000 4.03 61 21:30 31.08.2022
1992 Clear 18 1025 54 10000 4.18 48 19:46 31.08.2022
1993 Clear 18 1025 55 10000 4.4 60 17:52 31.08.2022
1994 Clear 18 1025 58 10000 5.96 59 15:45 31.08.2022
1995 Clouds 18 1025 60 10000 6.77 55 13:57 31.08.2022
1996 Clouds 18 1025 65 10000 6.7 64 12:21 31.08.2022
1997 Clouds 18 1025 67 10000 6.74 63 10:52 31.08.2022
1998 Clouds 15 1025 64 10000 5.3 49 08:35 31.08.2022
1999 Clear 13 1024 60 10000 2.61 82 04:26 31.08.2022
2000 Clear 16 1024 56 10000 2.62 63 22:58 30.08.2022
2001 Clear 18 1024 56 10000 3.33 50 21:38 30.08.2022
2002 Clouds 17 1024 56 10000 3.1 36 20:56 30.08.2022
2003 Clouds 18 1023 57 10000 4.1 48 17:30 30.08.2022
2004 Clouds 21 1024 57 10000 5.88 46 14:44 30.08.2022
2005 Clouds 17 1024 58 10000 6.7 39 13:24 30.08.2022
2006 Clouds 17 1024 60 10000 7.02 33 11:21 30.08.2022
2007 Clouds 17 1024 60 10000 7.02 33 10:35 30.08.2022
2008 Clouds 18 1022 73 10000 5.19 23 06:51 30.08.2022
2009 Clouds 18 1021 70 10000 4.46 49 01:53 30.08.2022
2010 Clouds 18 1021 74 10000 4.79 44 22:58 29.08.2022
2011 Clouds 17 1021 76 10000 4.74 35 22:24 29.08.2022
2012 Clouds 17 1021 77 10000 4.81 26 21:25 29.08.2022
2013 Clouds 17 1020 80 10000 4.53 21 19:51 29.08.2022
2014 Clouds 19 1020 82 10000 5.34 23 17:52 29.08.2022
2015 Clouds 17 1020 83 10000 5.86 19 17:24 29.08.2022
2016 Clouds 17 1020 83 10000 5.86 19 16:37 29.08.2022
2017 Clouds 17 1019 84 10000 5.97 14 14:45 29.08.2022
2018 Clouds 18 1019 84 10000 6.63 11 12:53 29.08.2022
2019 Clouds 20 1017 85 10000 7.41 11 11:19 29.08.2022
2020 Clouds 19 1017 86 10000 7.35 357 09:48 29.08.2022
2021 Clouds 19 1016 84 10000 8.54 343 08:29 29.08.2022
2022 Clouds 19 1015 83 10000 8.11 314 04:57 29.08.2022
2023 Clear 19 1014 83 10000 8.49 279 00:22 29.08.2022
2024 Clear 20 1014 81 10000 7.66 271 22:41 28.08.2022
2025 Clear 20 1014 80 10000 6.76 259 21:44 28.08.2022
2026 Clear 20 1014 80 10000 7.16 265 20:55 28.08.2022
2027 Clear 20 1013 73 10000 6.45 256 19:26 28.08.2022
2028 Clear 19 1014 71 10000 7.31 260 18:21 28.08.2022
2029 Clear 19 1014 70 10000 7.59 259 17:22 28.08.2022
2030 Clear 19 1014 71 10000 8.01 256 16:27 28.08.2022
2031 Clear 19 1014 78 10000 8.62 266 14:42 28.08.2022
2032 Clouds 20 1014 76 10000 7.29 288 12:48 28.08.2022
2033 Clouds 21 1014 83 10000 7.4 303 10:43 28.08.2022
2034 Clouds 20 1014 85 10000 6.73 305 09:54 28.08.2022
2035 Clouds 20 1013 87 10000 5.05 298 08:37 28.08.2022
2036 Clouds 19 1013 88 10000 5.49 299 07:43 28.08.2022
2037 Clouds 20 1013 89 10000 4.06 323 02:48 28.08.2022
2038 Clouds 19 1013 90 10000 4.25 333 00:29 28.08.2022
2039 Clouds 19 1013 91 10000 4.2 337 22:37 27.08.2022
2040 Rain 19 1013 92 10000 4.48 335 21:36 27.08.2022
2041 Rain 19 1012 92 10000 3.14 303 19:57 27.08.2022
2042 Rain 20 1012 88 10000 2.97 336 18:27 27.08.2022
2043 Rain 22 1012 92 10000 5.23 357 15:53 27.08.2022
2044 Rain 20 1012 93 10000 4.92 3 15:25 27.08.2022
2045 Rain 21 1012 92 10000 5.91 9 12:31 27.08.2022
2046 Clouds 21 1012 92 10000 6.51 11 11:47 27.08.2022
2047 Clouds 22 1012 92 10000 5.45 8 09:50 27.08.2022
2048 Clouds 22 1011 89 10000 5.65 360 08:45 27.08.2022
2049 Rain 20 1010 91 10000 3.69 78 03:58 27.08.2022
2050 Rain 22 1012 91 10000 4.32 75 00:20 27.08.2022
2051 Rain 22 1012 92 10000 4.25 84 23:23 26.08.2022
2052 Clouds 23 1012 93 10000 4.42 88 21:43 26.08.2022
2053 Clouds 21 1012 89 10000 4.46 51 19:25 26.08.2022
2054 Clouds 25 1013 87 10000 5.07 61 17:29 26.08.2022
2055 Clouds 27 1014 86 10000 5.56 74 15:37 26.08.2022
2056 Clouds 22 1014 87 10000 5.93 76 14:44 26.08.2022
2057 Clouds 27 1015 87 10000 6.12 73 12:54 26.08.2022
2058 Clouds 25 1015 87 10000 5.54 74 11:42 26.08.2022
2059 Clouds 24 1015 88 10000 5.3 79 11:21 26.08.2022
2060 Clouds 22 1016 93 10000 5.38 91 07:37 26.08.2022
2061 Clouds 20 1017 93 10000 6 84 02:43 26.08.2022
2062 Clouds 21 1018 91 10000 6.02 91 23:45 25.08.2022
2063 Clear 21 1018 92 10000 5.53 93 21:55 25.08.2022
2064 Clear 20 1019 91 10000 5.68 92 20:51 25.08.2022
2065 Clouds 24 1019 87 10000 6.99 84 19:25 25.08.2022
2066 Clouds 25 1019 85 10000 7.1 79 18:29 25.08.2022
2067 Clouds 25 1019 85 10000 7.1 79 17:31 25.08.2022
2068 Clouds 25 1020 83 10000 7.74 78 16:27 25.08.2022
2069 Clouds 26 1020 82 10000 7.6 77 15:28 25.08.2022
2070 Clouds 25 1021 81 10000 7.28 79 13:20 25.08.2022
2071 Clouds 25 1022 83 10000 7.28 86 10:49 25.08.2022
2072 Clouds 23 1022 84 10000 7.29 86 09:46 25.08.2022
2073 Clouds 20 1022 85 10000 6.13 85 07:31 25.08.2022
2074 Clear 20 1022 86 10000 5.13 81 02:41 25.08.2022
2075 Clear 20 1023 85 10000 4.96 78 23:30 24.08.2022
2076 Clear 20 1023 85 10000 4.69 85 22:54 24.08.2022
2077 Clear 20 1023 86 10000 4.63 92 21:39 24.08.2022
2078 Clear 21 1023 85 10000 4.79 92 21:20 24.08.2022
2079 Clear 20 1022 83 10000 5.38 84 19:52 24.08.2022
2080 Clear 26 1022 77 10000 6.82 68 16:51 24.08.2022
2081 Clear 27 1022 76 10000 6.87 59 15:53 24.08.2022
2082 Clear 27 1022 76 10000 6.87 56 14:58 24.08.2022
2083 Clouds 26 1022 74 10000 5.55 67 12:48 24.08.2022
2084 Clouds 25 1022 75 10000 5.66 74 11:18 24.08.2022
2085 Clear 20 1022 77 10000 5.65 79 08:45 24.08.2022
2086 Clouds 17 1021 80 10000 5.18 77 06:23 24.08.2022
2087 Clouds 20 1021 77 10000 5.03 85 00:53 24.08.2022
2088 Clouds 20 1021 79 10000 4.69 81 22:38 23.08.2022
2089 Clouds 20 1021 78 10000 4.37 75 21:55 23.08.2022
2090 Clear 20 1020 76 10000 4.6 76 20:47 23.08.2022
2091 Clear 23 1020 69 10000 5.36 76 19:18 23.08.2022
2092 Clear 25 1020 66 10000 5.38 70 17:59 23.08.2022
2093 Clear 25 1020 64 10000 5.93 67 17:28 23.08.2022
2094 Clear 26 1020 64 10000 5.99 66 16:24 23.08.2022
2095 Clear 21 1020 66 10000 5.93 64 14:30 23.08.2022
2096 Clouds 21 1020 61 10000 4.56 73 12:46 23.08.2022
2097 Clouds 24 1020 62 10000 4.11 74 10:58 23.08.2022
2098 Clouds 24 1020 62 10000 4.11 74 10:33 23.08.2022
2099 Clouds 22 1020 63 10000 3.77 78 09:38 23.08.2022
2100 Clouds 20 1020 64 10000 3.41 86 08:47 23.08.2022
2101 Clouds 18 1020 68 10000 1.72 132 08:19 23.08.2022
2102 Clouds 17 1020 68 10000 1.72 132 07:33 23.08.2022
2103 Clouds 17 1019 71 10000 2.61 143 06:23 23.08.2022
2104 Clouds 18 1019 66 10000 3.75 107 01:49 23.08.2022
2105 Clouds 20 1019 63 10000 4.35 95 00:27 23.08.2022
2106 Clouds 20 1019 63 10000 4.35 95 23:32 22.08.2022
2107 Clouds 20 1018 63 10000 3.39 81 22:25 22.08.2022
2108 Clouds 20 1018 64 10000 3.49 83 20:53 22.08.2022
2109 Clouds 20 1018 69 10000 3.8 86 19:46 22.08.2022
2110 Clouds 22 1018 69 10000 4.46 82 18:37 22.08.2022
2111 Clouds 23 1018 70 10000 4.52 64 16:23 22.08.2022
2112 Clouds 23 1018 70 10000 4.52 64 15:36 22.08.2022
2113 Clouds 20 1018 72 10000 4.89 49 12:56 22.08.2022
2114 Clouds 22 1018 71 10000 4.1 18 09:57 22.08.2022
2115 Clouds 17 1017 69 10000 3.28 357 07:40 22.08.2022
2116 Clear 18 1016 68 10000 3.35 338 02:50 22.08.2022
2117 Clouds 20 1015 66 10000 2.87 286 00:37 22.08.2022
2118 Clouds 20 1015 63 10000 2.91 270 23:43 21.08.2022
2119 Clouds 20 1015 58 10000 1.32 263 21:57 21.08.2022
2120 Clouds 20 1015 57 10000 0.9 239 21:21 21.08.2022
2121 Clouds 20 1014 57 10000 0.51 214 20:27 21.08.2022
2122 Clouds 20 1014 57 10000 0.11 168 19:23 21.08.2022
2123 Clouds 20 1015 60 10000 0.2 261 16:54 21.08.2022
2124 Clouds 20 1015 62 10000 1.88 269 15:53 21.08.2022
2125 Clouds 20 1015 64 10000 3.35 270 15:20 21.08.2022
2126 Clouds 20 1015 66 10000 4.41 279 13:51 21.08.2022
2127 Clouds 20 1015 66 10000 4.73 284 13:24 21.08.2022
2128 Clouds 19 1015 70 10000 5 291 11:29 21.08.2022
2129 Clouds 19 1015 73 10000 5.05 301 09:31 21.08.2022
2130 Clouds 19 1015 72 10000 4.47 307 08:56 21.08.2022
2131 Clouds 19 1015 72 10000 4.47 307 08:38 21.08.2022
2132 Clouds 20 1015 70 10000 3.48 333 07:26 21.08.2022
2133 Clouds 20 1014 67 10000 0.57 350 03:39 21.08.2022
2134 Clouds 21 1015 69 10000 2.78 347 23:49 20.08.2022
2135 Clouds 21 1014 72 10000 3.65 351 22:37 20.08.2022
2136 Clouds 21 1014 74 10000 3.43 339 21:34 20.08.2022
2137 Clouds 21 1014 78 10000 1.89 328 20:28 20.08.2022
2138 Clouds 21 1014 78 10000 1.89 328 19:40 20.08.2022
2139 Clouds 21 1014 78 10000 2.92 298 18:29 20.08.2022
2140 Clouds 21 1014 78 10000 2.92 298 17:40 20.08.2022
2141 Clouds 21 1014 78 10000 3.08 283 16:49 20.08.2022
2142 Clouds 21 1014 77 10000 2.94 288 15:30 20.08.2022
2143 Clouds 20 1014 77 10000 3.92 301 13:24 20.08.2022
2144 Clouds 20 1013 78 10000 4.72 304 11:49 20.08.2022
2145 Clouds 20 1013 81 10000 6.12 304 09:37 20.08.2022
2146 Clouds 20 1012 82 10000 5.24 303 08:31 20.08.2022
2147 Rain 20 1011 83 10000 6.46 310 05:52 20.08.2022
2148 Rain 21 1010 89 10000 4.54 309 00:59 20.08.2022
2149 Rain 22 1010 89 10000 4.54 309 00:35 20.08.2022
2150 Rain 21 1011 88 10000 4.54 312 23:18 19.08.2022
2151 Clouds 22 1010 87 10000 4.56 319 21:41 19.08.2022
2152 Rain 21 1010 88 10000 4.44 327 20:20 19.08.2022
2153 Clouds 21 1010 88 10000 5.3 342 17:35 19.08.2022
2154 Clouds 20 1011 91 10000 5.5 325 15:18 19.08.2022
2155 Rain 20 1011 91 10000 3.52 331 13:21 19.08.2022
2156 Rain 23 1011 87 10000 1.21 256 10:53 19.08.2022
2157 Rain 23 1011 83 10000 0.76 147 10:21 19.08.2022
2158 Clouds 21 1011 86 10000 1.5 152 06:27 19.08.2022
2159 Clouds 21 1011 86 10000 5.07 232 00:57 19.08.2022
2160 Clouds 21 1011 88 10000 6.74 225 00:28 19.08.2022
2161 Clouds 21 1011 88 10000 6.74 225 23:38 18.08.2022
2162 Rain 21 1011 86 10000 7.86 191 22:49 18.08.2022
2163 Rain 22 1011 84 10000 6.62 166 21:56 18.08.2022
2164 Clouds 22 1011 84 10000 6.62 166 21:34 18.08.2022
2165 Clouds 24 1011 76 10000 3.96 109 19:56 18.08.2022
2166 Clouds 24 1010 75 10000 3.69 93 19:28 18.08.2022
2167 Clouds 24 1010 75 10000 3.87 90 17:50 18.08.2022
2168 Clouds 24 1010 75 10000 4.37 85 16:59 18.08.2022
2169 Clouds 24 1010 71 10000 5.45 76 14:52 18.08.2022
2170 Clouds 25 1011 66 10000 3.03 119 14:19 18.08.2022
2171 Clouds 25 1011 67 10000 4.2 116 13:29 18.08.2022
2172 Clouds 28 1011 70 10000 4.94 118 11:42 18.08.2022
2173 Clouds 26 1011 78 10000 6.15 106 09:43 18.08.2022
2174 Clouds 23 1011 81 10000 5.62 106 08:40 18.08.2022
2175 Clouds 21 1011 85 10000 5.18 104 07:19 18.08.2022
2176 Clouds 22 1011 79 10000 5.28 89 04:37 18.08.2022
2177 Clouds 21 1013 81 10000 2.43 118 23:35 17.08.2022
2178 Clouds 22 1013 81 10000 3.15 108 21:53 17.08.2022
2179 Clouds 22 1012 75 10000 5.26 95 20:20 17.08.2022
2180 Clouds 22 1012 75 10000 5.26 95 19:31 17.08.2022
2181 Clouds 23 1012 72 10000 5 65 17:37 17.08.2022
2182 Clouds 23 1012 72 10000 4.46 57 16:39 17.08.2022
2183 Clouds 23 1012 74 10000 3.72 49 15:30 17.08.2022
2184 Clouds 22 1013 75 10000 2.58 29 13:31 17.08.2022
2185 Clouds 21 1013 80 10000 1.71 340 11:42 17.08.2022
2186 Clouds 21 1013 83 10000 2.68 300 09:59 17.08.2022
2187 Clouds 23 1012 84 10000 2.49 256 08:24 17.08.2022
2188 Clouds 20 1011 84 10000 2.55 224 03:52 17.08.2022
2189 Clouds 20 1011 82 10000 3.43 214 00:38 17.08.2022
2190 Clouds 21 1010 81 10000 2.17 197 22:50 16.08.2022
2191 Clouds 21 1010 82 10000 4.99 240 20:59 16.08.2022
2192 Clouds 22 1009 77 10000 1.62 209 19:54 16.08.2022
2193 Clouds 22 1009 77 10000 2.14 192 19:22 16.08.2022
2194 Clouds 22 1009 80 10000 1.99 161 17:54 16.08.2022
2195 Clouds 21 1009 81 10000 1.96 105 16:35 16.08.2022
2196 Clouds 21 1009 81 10000 0.78 25 15:44 16.08.2022
2197 Clear 21 1008 80 10000 2.56 306 14:54 16.08.2022
2198 Clear 21 1008 80 10000 2.56 306 14:36 16.08.2022
2199 Clouds 21 1008 80 10000 3.82 282 11:40 16.08.2022
2200 Clouds 25 1007 80 10000 3.97 230 09:58 16.08.2022
2201 Clouds 21 1006 83 10000 4.22 223 08:49 16.08.2022
2202 Clouds 20 1006 87 10000 4.99 227 08:20 16.08.2022
2203 Clouds 20 1005 91 10000 4.32 177 05:52 16.08.2022
2204 Clouds 21 1005 84 10000 5.87 117 23:27 15.08.2022
2205 Clouds 22 1004 84 10000 6.15 84 22:21 15.08.2022
2206 Rain 22 1004 84 10000 6.15 84 21:48 15.08.2022
2207 Clouds 22 1004 84 10000 4.81 88 20:31 15.08.2022
2208 Clouds 23 1004 80 10000 4.3 69 19:18 15.08.2022
2209 Clouds 23 1005 80 10000 4.92 81 17:59 15.08.2022
2210 Clear 27 1005 76 10000 7.49 73 16:24 15.08.2022
2211 Clear 23 1005 74 10000 7.22 78 15:27 15.08.2022
2212 Clear 27 1006 72 10000 6.54 85 13:45 15.08.2022
2213 Clear 29 1007 72 10000 5.76 112 10:38 15.08.2022
2214 Clear 27 1007 75 10000 5.62 120 09:40 15.08.2022
2215 Clouds 21 1007 84 10000 4.94 125 06:51 15.08.2022
2216 Clouds 21 1007 83 10000 4.01 128 04:32 15.08.2022
2217 Clouds 21 1009 91 10000 7.93 78 00:22 15.08.2022
2218 Clouds 21 1010 83 10000 8.05 76 22:29 14.08.2022
2219 Clouds 21 1010 83 10000 8.05 76 21:35 14.08.2022
2220 Clouds 25 1010 79 10000 7.1 74 19:47 14.08.2022
2221 Clouds 27 1011 77 10000 7.29 69 18:53 14.08.2022
2222 Clouds 28 1011 75 10000 7.69 67 18:18 14.08.2022
2223 Clouds 30 1012 74 10000 7.53 65 16:50 14.08.2022
2224 Clouds 30 1012 73 10000 7.01 70 15:48 14.08.2022
2225 Clouds 23 1013 72 10000 6.99 81 14:24 14.08.2022
2226 Clouds 31 1013 72 10000 6.99 81 13:49 14.08.2022
2227 Clouds 31 1014 73 10000 7.61 86 13:19 14.08.2022
2228 Clouds 30 1014 74 10000 7.23 85 12:23 14.08.2022
2229 Clouds 28 1015 76 10000 6.53 86 10:49 14.08.2022
2230 Clouds 25 1015 80 10000 5.96 87 08:50 14.08.2022
2231 Clouds 20 1015 83 10000 5.15 87 06:21 14.08.2022
2232 Clouds 21 1016 85 10000 6.42 81 02:48 14.08.2022
2233 Clouds 22 1017 80 10000 5.41 74 23:53 13.08.2022
2234 Clouds 21 1018 79 10000 5.08 83 22:52 13.08.2022
2235 Clouds 22 1018 78 10000 5.64 77 20:58 13.08.2022
2236 Clouds 22 1018 78 10000 5.64 77 20:33 13.08.2022
2237 Clouds 22 1018 77 10000 5.87 68 19:37 13.08.2022
2238 Clouds 29 1019 74 10000 6.21 63 17:59 13.08.2022
2239 Clouds 23 1019 73 10000 6.2 64 15:31 13.08.2022
2240 Clouds 23 1020 72 10000 5.75 73 14:28 13.08.2022
2241 Clouds 23 1020 72 10000 5.75 73 13:40 13.08.2022
2242 Clouds 31 1020 69 10000 4.99 76 11:52 13.08.2022
2243 Clouds 28 1021 69 10000 4.44 77 10:31 13.08.2022
2244 Clouds 25 1020 74 10000 3.03 76 09:18 13.08.2022
2245 Clear 18 1020 81 10000 3.37 77 05:57 13.08.2022
2246 Clear 20 1022 76 10000 4.88 104 00:29 13.08.2022
2247 Clear 21 1022 73 10000 5.14 99 22:20 12.08.2022
2248 Clear 21 1021 68 10000 5.32 92 20:54 12.08.2022
2249 Clear 22 1021 65 10000 5.42 88 19:42 12.08.2022
2250 Clear 22 1021 63 10000 5.78 83 18:52 12.08.2022
2251 Clear 30 1022 61 10000 6.06 81 17:36 12.08.2022
2252 Clear 30 1022 61 10000 6.44 75 16:24 12.08.2022
2253 Clear 23 1022 61 10000 6.14 73 14:47 12.08.2022
2254 Clear 23 1022 60 10000 4.36 66 12:57 12.08.2022
2255 Clouds 22 1023 62 10000 3.95 88 11:19 12.08.2022
2256 Clouds 22 1023 70 10000 3.85 97 08:47 12.08.2022
2257 Clouds 19 1023 77 10000 3.99 95 07:26 12.08.2022
2258 Clear 17 1023 74 10000 3.43 98 03:35 12.08.2022
2259 Clear 19 1024 74 10000 3.94 109 00:31 12.08.2022
2260 Clear 20 1024 73 10000 4.11 104 23:40 11.08.2022
2261 Clear 19 1024 73 10000 4.05 96 22:35 11.08.2022
2262 Clear 19 1024 74 10000 4.56 95 21:47 11.08.2022
2263 Clear 20 1024 72 10000 4.69 90 21:22 11.08.2022
2264 Clear 20 1023 70 10000 4.92 85 20:29 11.08.2022
2265 Clouds 26 1023 70 10000 4.95 84 19:33 11.08.2022
2266 Clouds 21 1023 67 10000 5.42 76 18:41 11.08.2022
2267 Clear 28 1024 64 10000 5.46 66 16:42 11.08.2022
2268 Clear 21 1024 64 10000 5.57 64 15:42 11.08.2022
2269 Clear 21 1024 64 10000 5.57 64 15:42 11.08.2022
2270 Clouds 21 1025 65 10000 5.45 60 14:20 11.08.2022
2271 Clouds 21 1025 63 10000 4.26 55 11:51 11.08.2022
2272 Clouds 22 1026 64 10000 2.48 92 08:48 11.08.2022
2273 Clear 16 1025 70 10000 2.5 99 05:44 11.08.2022
2274 Clear 19 1026 70 10000 2.77 117 02:33 11.08.2022
2275 Clear 19 1026 69 10000 3.9 117 22:59 10.08.2022
2276 Clear 19 1027 68 10000 3.94 111 21:46 10.08.2022
2277 Clear 19 1027 67 10000 3.97 101 20:56 10.08.2022
2278 Clouds 23 1026 66 10000 3.91 88 20:27 10.08.2022
2279 Clouds 20 1026 64 10000 4.33 89 18:48 10.08.2022
2280 Clouds 25 1027 63 10000 4.62 67 17:27 10.08.2022
2281 Clouds 20 1028 65 10000 4.17 56 14:53 10.08.2022
2282 Clouds 20 1028 65 10000 3.81 45 13:33 10.08.2022
2283 Clouds 20 1029 66 10000 1.92 29 10:50 10.08.2022
2284 Clouds 19 1029 68 10000 0.75 107 08:39 10.08.2022
2285 Clouds 17 1029 66 10000 0.61 115 07:35 10.08.2022
2286 Clouds 16 1028 68 10000 0.73 84 04:50 10.08.2022
2287 Clouds 18 1028 70 10000 1.61 110 01:52 10.08.2022
2288 Clouds 18 1029 73 10000 2.35 116 23:32 09.08.2022
2289 Clear 18 1029 74 10000 2.56 104 22:45 09.08.2022
2290 Clear 19 1029 73 10000 3.44 69 21:24 09.08.2022
2291 Clouds 23 1028 69 10000 3.23 55 19:28 09.08.2022
2292 Clouds 20 1028 67 10000 3.32 49 17:53 09.08.2022
2293 Clouds 20 1028 66 10000 3.34 40 17:26 09.08.2022
2294 Clouds 20 1028 66 10000 3.34 40 16:30 09.08.2022
2295 Clouds 19 1028 67 10000 3.79 36 15:26 09.08.2022
2296 Clouds 19 1028 66 10000 2.21 348 12:20 09.08.2022
2297 Clouds 21 1028 67 10000 0.95 188 08:54 09.08.2022
2298 Clear 19 1028 70 10000 1.51 198 08:26 09.08.2022
2299 Clear 15 1027 71 10000 1.12 242 07:18 09.08.2022
2300 Clear 16 1027 71 10000 0.84 191 02:27 09.08.2022
2301 Clear 18 1027 72 10000 0.59 227 23:26 08.08.2022
2302 Clear 18 1027 72 10000 0.59 227 22:52 08.08.2022
2303 Clear 18 1026 72 10000 0.53 239 21:48 08.08.2022
2304 Clear 18 1026 71 10000 0.92 302 20:51 08.08.2022
2305 Clouds 18 1025 69 10000 1.3 318 19:50 08.08.2022
2306 Clouds 19 1025 65 10000 1.45 323 18:19 08.08.2022
2307 Clouds 19 1025 66 10000 2.3 343 15:57 08.08.2022
2308 Clouds 19 1025 66 10000 2.3 343 15:38 08.08.2022
2309 Clouds 18 1025 70 10000 4.17 302 12:50 08.08.2022
2310 Clouds 18 1025 69 10000 3.96 288 11:48 08.08.2022
2311 Clear 20 1025 68 10000 3.73 259 09:36 08.08.2022
2312 Clouds 17 1024 71 10000 3.57 235 05:37 08.08.2022
2313 Clouds 17 1024 68 10000 3.25 204 02:24 08.08.2022
2314 Clouds 17 1024 66 10000 0.93 168 22:25 07.08.2022
2315 Clouds 17 1024 66 10000 0.93 168 21:38 07.08.2022
2316 Clouds 18 1023 67 10000 2.41 301 20:25 07.08.2022
2317 Clouds 18 1023 67 10000 2.41 301 19:54 07.08.2022
2318 Clouds 18 1023 67 10000 2.41 301 19:34 07.08.2022
2319 Clouds 18 1023 66 10000 4.02 298 18:23 07.08.2022
2320 Clouds 18 1024 65 10000 4.81 295 16:54 07.08.2022
2321 Clouds 18 1024 65 10000 4.81 295 16:35 07.08.2022
2322 Clouds 17 1024 62 10000 5.88 283 15:20 07.08.2022
2323 Clouds 17 1025 66 10000 6.09 274 13:26 07.08.2022
2324 Clouds 17 1026 65 10000 4.92 261 11:27 07.08.2022
2325 Clouds 21 1026 65 10000 4.92 261 10:34 07.08.2022
2326 Clouds 14 1025 70 10000 3.87 247 07:36 07.08.2022
2327 Clouds 16 1025 68 10000 5.24 297 03:20 07.08.2022
2328 Clear 17 1025 64 10000 6.36 301 00:57 07.08.2022
2329 Clear 18 1025 62 10000 6.47 293 22:25 06.08.2022
2330 Clear 18 1025 63 10000 6.9 292 20:46 06.08.2022
2331 Clear 19 1024 61 10000 6.27 288 19:41 06.08.2022
2332 Clear 22 1024 60 10000 6.57 289 18:30 06.08.2022
2333 Clear 19 1024 60 10000 7.09 289 17:33 06.08.2022
2334 Clear 18 1024 61 10000 8.99 266 14:48 06.08.2022
2335 Clear 18 1024 58 10000 8.46 274 13:49 06.08.2022
2336 Clear 17 1024 59 10000 8.95 293 11:59 06.08.2022
2337 Clear 17 1024 62 10000 9.59 293 10:33 06.08.2022
2338 Clear 19 1023 68 10000 9.77 294 08:40 06.08.2022
2339 Clear 17 1020 69 10000 10.14 309 03:54 06.08.2022
2340 Clouds 17 1018 75 10000 6.9 288 23:54 05.08.2022
2341 Clouds 18 1017 73 10000 6.05 289 22:33 05.08.2022
2342 Clouds 17 1016 72 10000 6.99 294 20:20 05.08.2022
2343 Clouds 20 1015 75 10000 6.13 290 18:47 05.08.2022
2344 Rain 20 1015 81 10000 6.56 301 18:27 05.08.2022
2345 Rain 20 1015 82 10000 6.37 308 16:50 05.08.2022
2346 Clouds 18 1014 84 10000 4.23 312 15:23 05.08.2022
2347 Rain 21 1014 84 10000 4.23 312 14:33 05.08.2022
2348 Rain 21 1014 81 10000 4.22 346 13:25 05.08.2022
2349 Clouds 22 1014 81 10000 4.22 346 12:45 05.08.2022
2350 Rain 22 1013 86 10000 5.57 335 10:59 05.08.2022
2351 Rain 19 1013 93 10000 6.77 341 08:45 05.08.2022
2352 Clouds 19 1013 93 10000 7.6 337 07:33 05.08.2022
2353 Clouds 22 1012 87 10000 2.4 185 01:52 05.08.2022
2354 Clouds 21 1012 86 10000 5.26 48 22:43 04.08.2022
2355 Rain 20 1013 89 10000 6.97 349 21:28 04.08.2022
2356 Clouds 20 1013 89 10000 6.97 349 20:53 04.08.2022
2357 Clouds 20 1013 89 10000 6.97 349 20:33 04.08.2022
2358 Clouds 22 1011 81 10000 8.43 350 18:58 04.08.2022
2359 Clouds 22 1011 81 10000 8.43 350 18:33 04.08.2022
2360 Clouds 27 1011 51 10000 4.85 112 15:51 04.08.2022
2361 Clouds 26 1013 58 10000 1.83 67 13:26 04.08.2022
2362 Clouds 35 1013 59 10000 1.11 155 11:39 04.08.2022
2363 Clouds 30 1014 63 10000 3.14 165 10:21 04.08.2022
2364 Clouds 23 1014 69 10000 3.04 143 07:45 04.08.2022
2365 Clouds 22 1015 73 10000 0.58 327 02:48 04.08.2022
2366 Clouds 22 1015 72 10000 0.8 247 00:43 04.08.2022
2367 Clouds 22 1014 71 10000 1 181 23:40 03.08.2022
2368 Clouds 23 1014 67 10000 2.34 137 21:31 03.08.2022
2369 Clouds 24 1014 64 10000 3.44 108 20:21 03.08.2022
2370 Clouds 24 1014 62 10000 3.1 92 19:24 03.08.2022
2371 Clouds 23 1014 65 10000 2.3 30 16:50 03.08.2022
2372 Clouds 23 1014 67 10000 2.51 5 16:22 03.08.2022
2373 Clouds 22 1015 68 10000 2.6 322 13:52 03.08.2022
2374 Clouds 23 1015 63 10000 4.13 221 10:57 03.08.2022
2375 Clouds 20 1015 64 10000 5.71 204 07:32 03.08.2022
2376 Clouds 20 1015 61 10000 5.54 170 04:22 03.08.2022
2377 Clouds 21 1015 62 10000 5.38 156 03:24 03.08.2022
2378 Clouds 21 1016 66 10000 3.84 135 00:54 03.08.2022
2379 Clouds 22 1016 65 10000 4.37 142 22:49 02.08.2022
2380 Rain 22 1016 66 10000 3.25 159 21:52 02.08.2022
2381 Clouds 19 1016 65 10000 3.81 137 20:37 02.08.2022
2382 Clouds 19 1016 66 10000 3.25 89 18:42 02.08.2022
2383 Clouds 18 1017 65 10000 2.78 27 15:36 02.08.2022
2384 Clouds 22 1018 64 10000 2.6 283 11:32 02.08.2022
2385 Clouds 19 1019 65 10000 2.53 274 09:18 02.08.2022
2386 Clouds 16 1018 64 10000 3.21 287 07:53 02.08.2022
2387 Clouds 16 1018 64 10000 3.4 298 06:43 02.08.2022
2388 Clouds 16 1017 63 10000 4.14 309 04:54 02.08.2022
2389 Clouds 18 1017 63 10000 6.46 322 23:38 01.08.2022
2390 Clouds 18 1016 65 10000 6.73 308 22:25 01.08.2022
2391 Clouds 19 1016 65 10000 6.62 296 20:52 01.08.2022
2392 Clouds 22 1015 67 10000 4.76 274 19:25 01.08.2022
2393 Clouds 22 1015 67 10000 4.76 274 18:40 01.08.2022
2394 Clouds 23 1015 75 10000 4.05 325 16:53 01.08.2022
2395 Clouds 17 1015 82 10000 6.4 333 15:52 01.08.2022
2396 Clouds 17 1015 82 10000 6.4 333 15:30 01.08.2022
2397 Clouds 17 1014 87 10000 8.12 328 14:43 01.08.2022
2398 Clouds 19 1013 88 10000 5.75 318 12:47 01.08.2022
2399 Clouds 18 1012 88 10000 3.12 270 10:22 01.08.2022
2400 Clouds 20 1012 88 10000 1.59 243 08:34 01.08.2022
2401 Clouds 19 1011 86 10000 3.42 171 04:56 01.08.2022
2402 Clouds 16 1011 89 10000 3.49 158 03:49 01.08.2022
2403 Clouds 17 1012 82 10000 3.73 163 00:49 01.08.2022
2404 Rain 18 1013 78 10000 3.79 194 22:41 31.07.2022
2405 Clouds 19 1012 75 10000 5.49 126 21:33 31.07.2022
2406 Clouds 19 1013 69 10000 5.87 117 19:56 31.07.2022
2407 Clouds 20 1013 67 10000 5.38 116 18:35 31.07.2022
2408 Clouds 20 1014 69 10000 5.9 78 15:54 31.07.2022
2409 Clouds 19 1015 70 10000 4.72 59 13:51 31.07.2022
2410 Clouds 19 1016 69 10000 3.44 62 12:28 31.07.2022
2411 Clouds 20 1016 69 10000 2.39 84 09:55 31.07.2022
2412 Clouds 18 1016 74 10000 2.28 117 08:18 31.07.2022
2413 Clear 17 1017 78 10000 3.01 112 03:49 31.07.2022
2414 Clouds 17 1018 81 10000 4.3 111 23:53 30.07.2022
2415 Clouds 17 1018 81 10000 5.39 96 22:19 30.07.2022
2416 Clouds 17 1018 81 10000 5.39 96 22:19 30.07.2022
2417 Clouds 17 1018 81 10000 5.39 96 21:49 30.07.2022
2418 Clouds 18 1018 78 10000 5.48 94 20:58 30.07.2022
2419 Clouds 18 1018 78 10000 5.48 94 20:58 30.07.2022
2420 Clouds 18 1018 74 10000 5.92 92 19:59 30.07.2022
2421 Clouds 26 1017 74 10000 6.3 88 18:57 30.07.2022
2422 Clouds 26 1018 73 10000 6.11 83 17:45 30.07.2022
2423 Clouds 19 1018 73 10000 5.98 82 15:55 30.07.2022
2424 Clouds 19 1018 72 10000 5.98 84 15:25 30.07.2022
2425 Clouds 19 1018 70 10000 5.91 88 13:21 30.07.2022
2426 Clouds 19 1018 70 10000 5.39 95 12:20 30.07.2022
2427 Clouds 24 1019 70 10000 5.34 101 10:36 30.07.2022
2428 Clouds 19 1018 72 10000 5.75 107 09:57 30.07.2022
2429 Clouds 18 1018 74 10000 5.97 108 08:44 30.07.2022
2430 Clouds 18 1018 78 10000 6.15 108 06:50 30.07.2022
2431 Clouds 18 1018 83 10000 5.91 95 02:33 30.07.2022
2432 Clouds 18 1019 79 10000 7.58 92 22:57 29.07.2022
2433 Clouds 18 1019 79 10000 8.25 88 21:30 29.07.2022
2434 Clouds 18 1019 80 10000 8.69 86 20:50 29.07.2022
2435 Clouds 23 1019 80 10000 8.49 79 19:34 29.07.2022
2436 Clouds 18 1020 78 10000 7.36 69 16:44 29.07.2022
2437 Clouds 19 1020 76 10000 6.56 84 14:23 29.07.2022
2438 Clouds 18 1021 76 10000 6.05 86 12:41 29.07.2022
2439 Clouds 17 1021 70 10000 3.96 94 08:52 29.07.2022
2440 Clouds 16 1021 72 10000 3.44 101 08:22 29.07.2022
2441 Clouds 15 1021 71 10000 3.47 115 04:39 29.07.2022
2442 Clouds 15 1022 70 10000 1.94 86 23:46 28.07.2022
2443 Clouds 15 1021 69 10000 0.93 4 21:39 28.07.2022
2444 Clouds 15 1021 69 10000 1.3 313 20:52 28.07.2022
2445 Clouds 16 1020 67 10000 1.48 306 20:18 28.07.2022
2446 Clouds 16 1020 67 10000 1.48 306 19:40 28.07.2022
2447 Clouds 21 1020 70 10000 3.61 275 18:19 28.07.2022
2448 Clouds 16 1020 70 10000 3.61 275 17:36 28.07.2022
2449 Clouds 15 1020 69 10000 3.72 270 16:41 28.07.2022
2450 Clouds 15 1020 65 10000 3.62 277 13:57 28.07.2022
2451 Clouds 15 1020 66 10000 4.13 283 12:40 28.07.2022
2452 Clear 14 1020 71 10000 5.01 293 08:49 28.07.2022
2453 Clear 14 1018 73 10000 6.48 301 05:41 28.07.2022
2454 Clear 14 1018 73 10000 6.77 298 05:21 28.07.2022
2455 Clouds 17 1017 63 10000 8.55 302 23:41 27.07.2022
2456 Clouds 18 1016 66 10000 8.24 295 21:31 27.07.2022
2457 Clouds 20 1015 66 10000 7.71 286 20:19 27.07.2022
2458 Clouds 18 1015 65 10000 8.84 281 19:26 27.07.2022
2459 Clouds 18 1015 64 10000 8.92 284 16:33 27.07.2022
2460 Clouds 17 1015 63 10000 9.99 287 15:51 27.07.2022
2461 Clouds 17 1015 64 10000 10.64 282 14:42 27.07.2022
2462 Clouds 16 1015 62 10000 10.96 284 13:57 27.07.2022
2463 Clouds 15 1014 68 10000 11.25 283 11:18 27.07.2022
2464 Clouds 17 1013 70 10000 11.36 287 07:53 27.07.2022
2465 Clouds 16 1013 68 10000 10 281 05:18 27.07.2022
2466 Clouds 18 1013 63 10000 10.98 283 23:41 26.07.2022
2467 Clouds 17 1013 62 10000 11.31 282 22:20 26.07.2022
2468 Clouds 17 1013 64 10000 11.12 281 21:19 26.07.2022
2469 Clouds 17 1012 65 10000 10.83 280 19:39 26.07.2022
2470 Clouds 18 1012 65 10000 10.86 276 18:41 26.07.2022
2471 Clouds 18 1012 66 10000 10.45 280 17:55 26.07.2022
2472 Clouds 18 1012 65 10000 10.14 276 15:47 26.07.2022
2473 Clouds 18 1011 66 10000 9.59 277 14:44 26.07.2022
2474 Clouds 18 1011 70 10000 8.81 286 12:41 26.07.2022
2475 Rain 21 1009 80 10000 9.55 299 10:57 26.07.2022
2476 Clouds 18 1008 86 10000 11 262 08:31 26.07.2022
2477 Clouds 17 1008 88 10000 9.75 246 05:30 26.07.2022
2478 Clouds 20 1006 88 10000 7.67 261 00:24 26.07.2022
2479 Rain 21 1006 90 10000 7.5 270 22:51 25.07.2022
2480 Rain 18 1006 91 10000 9.3 284 22:21 25.07.2022
2481 Rain 18 1006 91 10000 9.3 284 21:38 25.07.2022
2482 Rain 19 1006 93 10000 8.22 260 20:39 25.07.2022
2483 Rain 20 1004 81 10000 4.87 280 19:27 25.07.2022
2484 Rain 21 1003 75 10000 3.64 324 18:18 25.07.2022
2485 Clouds 23 1004 65 10000 5.28 296 17:26 25.07.2022
2486 Clouds 33 1005 53 10000 4.97 186 14:32 25.07.2022
2487 Clouds 32 1009 51 10000 6.4 164 11:50 25.07.2022
2488 Clouds 25 1011 58 10000 7.33 174 08:32 25.07.2022
2489 Clouds 19 1014 66 10000 5.96 182 02:21 25.07.2022
2490 Clouds 22 1015 71 10000 6.11 160 23:51 24.07.2022
2491 Clouds 19 1015 74 10000 6.22 151 22:54 24.07.2022
2492 Clouds 19 1016 73 10000 6.39 144 22:26 24.07.2022
2493 Clouds 19 1016 74 10000 6.76 136 21:19 24.07.2022
2494 Clouds 19 1016 74 10000 6.76 136 20:47 24.07.2022
2495 Clouds 19 1016 71 10000 6.89 134 19:54 24.07.2022
2496 Clouds 20 1016 68 10000 5.44 119 18:38 24.07.2022
2497 Clouds 18 1018 65 10000 0.69 25 16:29 24.07.2022
2498 Clouds 18 1018 65 10000 0.69 25 15:45 24.07.2022
2499 Clouds 17 1019 69 10000 2 294 14:29 24.07.2022
2500 Clouds 17 1019 72 10000 3.4 280 12:54 24.07.2022
2501 Clouds 17 1020 73 10000 3.99 271 11:40 24.07.2022
2502 Clouds 16 1020 74 10000 4.27 267 11:00 24.07.2022
2503 Clouds 18 1019 75 10000 4.9 282 08:33 24.07.2022
2504 Clouds 15 1019 76 10000 5.21 292 07:52 24.07.2022
2505 Clouds 15 1019 77 10000 6.52 291 05:49 24.07.2022
2506 Clouds 18 1018 79 10000 7.08 299 00:29 24.07.2022
2507 Clouds 19 1017 79 10000 8.09 299 21:37 23.07.2022
2508 Clouds 17 1016 81 10000 10.27 288 20:28 23.07.2022
2509 Clouds 17 1016 75 10000 9.37 280 18:50 23.07.2022
2510 Clouds 17 1016 73 10000 9.55 266 17:29 23.07.2022
2511 Clouds 17 1016 73 10000 9.55 266 16:35 23.07.2022
2512 Clouds 17 1016 71 10000 9.18 265 15:31 23.07.2022
2513 Clouds 17 1016 71 10000 9.09 267 14:59 23.07.2022
2514 Clouds 17 1016 71 10000 9.09 267 14:30 23.07.2022
2515 Clouds 18 1016 69 10000 9.12 267 13:39 23.07.2022
2516 Clouds 19 1016 71 10000 8.63 261 11:18 23.07.2022
2517 Clouds 17 1015 72 10000 8.37 262 10:22 23.07.2022
2518 Clouds 17 1015 72 10000 7.97 257 08:55 23.07.2022
2519 Clouds 16 1016 75 10000 6.54 261 03:40 23.07.2022
2520 Clouds 17 1016 76 10000 7.02 272 01:58 23.07.2022
2521 Clouds 17 1016 76 10000 8.01 281 23:39 22.07.2022
2522 Clouds 18 1016 74 10000 7.36 264 20:57 22.07.2022
2523 Clear 19 1016 72 10000 7.4 264 19:47 22.07.2022
2524 Clear 19 1016 71 10000 7.31 262 18:36 22.07.2022
2525 Clear 23 1016 70 10000 7.06 262 17:37 22.07.2022
2526 Clear 18 1016 73 10000 8.11 258 15:26 22.07.2022
2527 Clouds 17 1017 78 10000 9.01 265 12:23 22.07.2022
2528 Rain 17 1016 85 10000 7.58 262 09:43 22.07.2022
2529 Rain 17 1016 86 10000 7.12 263 09:18 22.07.2022
2530 Clouds 18 1015 88 10000 6.49 268 07:23 22.07.2022
2531 Clouds 18 1015 89 10000 4.93 222 04:18 22.07.2022
2532 Clouds 19 1015 90 10000 4.74 219 22:56 21.07.2022
2533 Clouds 19 1015 93 10000 3.87 226 21:37 21.07.2022
2534 Clouds 19 1016 93 10000 2.78 251 19:35 21.07.2022
2535 Clouds 20 1015 87 7740 9.63 252 18:29 21.07.2022
2536 Clouds 21 1015 81 10000 5.42 273 17:20 21.07.2022
2537 Clouds 21 1015 79 10000 5.55 277 15:39 21.07.2022
2538 Clouds 21 1015 80 10000 6.6 265 14:45 21.07.2022
2539 Clouds 20 1015 82 10000 10.79 255 13:22 21.07.2022
2540 Clouds 25 1014 82 10000 9.53 259 11:43 21.07.2022
2541 Clouds 25 1013 59 10000 5.53 180 09:51 21.07.2022
2542 Clouds 27 1013 61 10000 4.88 155 08:53 21.07.2022
2543 Clouds 22 1013 63 10000 4.81 153 07:50 21.07.2022
2544 Clouds 24 1013 64 10000 5.04 167 06:26 21.07.2022
2545 Clouds 22 1014 62 10000 5.66 142 02:35 21.07.2022
2546 Clouds 28 1015 65 10000 6.38 134 22:46 20.07.2022
2547 Clear 29 1015 66 10000 6.78 125 22:18 20.07.2022
2548 Clear 32 1015 67 10000 7.16 117 20:46 20.07.2022
2549 Clear 23 1015 67 10000 7.8 112 19:46 20.07.2022
2550 Clear 36 1016 63 10000 7.81 113 18:53 20.07.2022
2551 Clear 36 1016 63 10000 7.81 113 18:30 20.07.2022
2552 Clear 25 1017 58 10000 8.46 107 17:25 20.07.2022
2553 Clear 25 1017 58 10000 8.22 104 15:33 20.07.2022
2554 Clear 25 1018 57 10000 7.8 103 14:36 20.07.2022
2555 Clouds 25 1018 56 10000 6.11 115 12:54 20.07.2022
2556 Clouds 32 1019 61 10000 5.2 127 10:57 20.07.2022
2557 Clear 18 1019 70 10000 4.49 150 06:21 20.07.2022
2558 Clear 21 1019 64 10000 4.12 130 01:47 20.07.2022
2559 Clear 21 1020 63 10000 3.78 127 00:42 20.07.2022
2560 Clear 20 1020 64 10000 3.18 139 22:36 19.07.2022
2561 Clear 21 1019 62 10000 3.34 134 22:18 19.07.2022
2562 Clear 22 1019 59 10000 3.02 118 20:50 19.07.2022
2563 Clouds 22 1019 58 10000 2.18 109 19:32 19.07.2022
2564 Clouds 22 1019 60 10000 1.17 81 18:42 19.07.2022
2565 Clouds 22 1019 60 10000 0.95 25 17:55 19.07.2022
2566 Clouds 21 1020 63 10000 1.74 332 15:49 19.07.2022
2567 Clouds 20 1020 68 10000 2.62 302 13:46 19.07.2022
2568 Clouds 19 1020 72 10000 2.55 294 11:34 19.07.2022
2569 Clear 19 1020 75 10000 2.76 279 09:54 19.07.2022
2570 Clear 19 1020 76 10000 2.74 270 08:48 19.07.2022
2571 Clouds 18 1020 79 10000 2.85 278 08:21 19.07.2022
2572 Clouds 18 1019 79 10000 3.31 279 07:18 19.07.2022
2573 Clouds 18 1019 78 10000 3.52 272 05:23 19.07.2022
2574 Clouds 18 1019 78 10000 3.52 272 04:40 19.07.2022
2575 Clouds 19 1019 76 10000 3.3 255 00:21 19.07.2022
2576 Clouds 19 1019 75 10000 3.08 241 23:21 18.07.2022
2577 Clouds 19 1019 75 10000 3.08 241 22:55 18.07.2022
2578 Clouds 19 1019 73 10000 2.83 222 21:50 18.07.2022
2579 Clouds 20 1019 70 10000 2.96 207 20:50 18.07.2022
2580 Clouds 20 1020 67 10000 3.62 243 19:24 18.07.2022
2581 Clouds 19 1021 70 10000 2.96 283 16:52 18.07.2022
2582 Clouds 19 1021 71 10000 3.51 282 15:42 18.07.2022
2583 Clouds 18 1022 75 10000 4.62 256 13:45 18.07.2022
2584 Clouds 18 1023 76 10000 5.05 264 12:38 18.07.2022
2585 Clouds 18 1023 80 10000 5.23 253 10:37 18.07.2022
2586 Clouds 17 1024 83 10000 5.66 262 08:50 18.07.2022
2587 Clouds 17 1023 85 10000 5.97 259 06:58 18.07.2022
2588 Clouds 17 1024 82 10000 6.95 282 00:36 18.07.2022
2589 Clouds 18 1024 79 10000 6.97 277 22:34 17.07.2022
2590 Clouds 17 1024 79 10000 6.68 268 21:47 17.07.2022
2591 Clouds 21 1024 79 10000 7.39 262 21:18 17.07.2022
2592 Clouds 21 1024 79 10000 7.39 262 20:37 17.07.2022
2593 Clouds 22 1024 77 10000 6.93 273 19:29 17.07.2022
2594 Clouds 18 1024 77 10000 9.35 274 18:27 17.07.2022
2595 Clouds 18 1024 77 10000 9.35 274 17:38 17.07.2022
2596 Clouds 17 1024 78 10000 9.67 261 16:51 17.07.2022
2597 Clouds 17 1024 78 10000 9.67 261 16:51 17.07.2022
2598 Clouds 17 1024 73 10000 7.67 261 16:26 17.07.2022
2599 Clouds 17 1024 70 10000 7.2 275 14:44 17.07.2022
2600 Clouds 17 1024 70 10000 8.58 276 13:31 17.07.2022
2601 Clouds 16 1024 69 10000 9.03 283 11:41 17.07.2022
2602 Clouds 15 1024 74 10000 8.88 290 09:24 17.07.2022
2603 Clouds 14 1023 75 10000 7.87 293 05:25 17.07.2022
2604 Clear 16 1023 72 10000 8.57 300 02:32 17.07.2022
2605 Clear 17 1021 71 10000 9.8 303 23:20 16.07.2022
2606 Clear 17 1020 71 10000 9.13 300 21:32 16.07.2022
2607 Clear 18 1019 66 10000 8.66 300 19:40 16.07.2022
2608 Clear 18 1018 67 10000 8.03 300 18:35 16.07.2022
2609 Clear 18 1017 66 10000 7.84 309 16:53 16.07.2022
2610 Clear 17 1016 65 10000 8.5 295 14:31 16.07.2022
2611 Clouds 16 1015 66 10000 11.45 302 11:38 16.07.2022
2612 Rain 17 1014 71 10000 11.63 306 09:35 16.07.2022
2613 Clouds 15 1014 72 10000 11.65 310 08:48 16.07.2022
2614 Clouds 16 1013 76 10000 10.93 318 08:29 16.07.2022
2615 Rain 13 1014 91 8715 6.28 231 04:28 16.07.2022
2616 Rain 14 1015 84 10000 5.87 255 03:29 16.07.2022
2617 Clouds 16 1016 67 10000 9.32 279 23:38 15.07.2022
2618 Clouds 16 1016 66 10000 9.06 283 22:42 15.07.2022
2619 Clouds 16 1016 68 10000 9.7 282 21:29 15.07.2022
2620 Clouds 16 1016 68 10000 9.7 282 20:31 15.07.2022
2621 Clouds 16 1016 68 10000 11.08 279 18:44 15.07.2022
2622 Clouds 17 1016 68 10000 11.05 272 17:48 15.07.2022
2623 Clouds 17 1016 63 10000 9.59 275 14:57 15.07.2022
2624 Clouds 17 1016 59 10000 10.64 288 13:20 15.07.2022
2625 Clouds 16 1016 61 10000 11.62 291 11:45 15.07.2022
2626 Clouds 16 1016 64 10000 12.11 292 10:42 15.07.2022
2627 Clouds 16 1015 69 10000 12.88 291 07:42 15.07.2022
2628 Clouds 15 1014 70 10000 12.01 293 02:24 15.07.2022
2629 Clouds 15 1014 69 10000 12.02 294 00:38 15.07.2022
2630 Clouds 16 1014 66 10000 11.56 296 22:54 14.07.2022
2631 Clouds 17 1013 67 10000 10.46 291 21:57 14.07.2022
2632 Clouds 17 1013 67 10000 10.46 291 21:32 14.07.2022
2633 Clouds 17 1013 68 10000 9.68 292 20:57 14.07.2022
2634 Clouds 17 1013 68 10000 9.68 292 20:37 14.07.2022
2635 Clouds 17 1013 71 10000 9.96 284 20:18 14.07.2022
2636 Clouds 17 1014 69 10000 9.55 267 16:42 14.07.2022
2637 Clouds 17 1015 68 10000 9.2 266 16:18 14.07.2022
2638 Clouds 17 1015 69 10000 9.49 268 14:44 14.07.2022
2639 Clouds 17 1016 69 10000 9.98 269 13:39 14.07.2022
2640 Clouds 17 1016 67 10000 9.83 275 12:23 14.07.2022
2641 Clouds 16 1016 66 10000 9.5 278 11:26 14.07.2022
2642 Clouds 16 1016 66 10000 9.5 278 10:49 14.07.2022
2643 Clouds 15 1017 71 10000 9.09 296 08:28 14.07.2022
2644 Clouds 15 1016 72 10000 9.96 310 04:18 14.07.2022
2645 Clear 16 1016 69 10000 10.87 306 00:55 14.07.2022
2646 Clear 17 1016 71 10000 10.71 305 00:18 14.07.2022
2647 Clear 19 1015 70 10000 9.95 303 22:28 13.07.2022
2648 Clear 19 1015 70 10000 9.95 303 21:38 13.07.2022
2649 Clear 19 1015 73 10000 9.88 296 20:38 13.07.2022
2650 Clouds 20 1013 76 10000 8.03 272 18:26 13.07.2022
2651 Clouds 20 1013 76 10000 6.07 267 17:22 13.07.2022
2652 Clouds 20 1014 77 10000 5.41 264 16:18 13.07.2022
2653 Clouds 20 1015 78 10000 5.78 269 13:57 13.07.2022
2654 Clouds 20 1016 75 10000 6.36 247 11:36 13.07.2022
2655 Clouds 19 1016 80 10000 5.78 251 10:44 13.07.2022
2656 Clouds 19 1016 80 10000 7.12 266 09:49 13.07.2022
2657 Clouds 19 1017 79 10000 8.6 279 09:20 13.07.2022
2658 Rain 18 1017 84 10000 6.94 259 05:21 13.07.2022
2659 Clouds 18 1019 80 10000 6.4 281 01:21 13.07.2022
2660 Clouds 19 1020 83 10000 6.57 283 23:21 12.07.2022
2661 Clouds 19 1020 82 10000 6.43 282 21:49 12.07.2022
2662 Clouds 19 1020 83 10000 6.66 281 20:54 12.07.2022
2663 Clouds 19 1020 83 10000 6.66 281 20:36 12.07.2022
2664 Clouds 18 1020 80 10000 6.66 267 18:53 12.07.2022
2665 Clouds 18 1021 81 10000 7.18 271 17:32 12.07.2022
2666 Clouds 18 1021 79 10000 6.19 272 15:37 12.07.2022
2667 Clear 18 1022 82 10000 7.38 274 13:55 12.07.2022
2668 Clear 17 1022 84 10000 7.29 271 11:59 12.07.2022
2669 Clear 17 1022 83 10000 6.52 281 10:51 12.07.2022
2670 Clear 17 1023 83 10000 5.5 305 09:22 12.07.2022
2671 Clear 21 1022 78 10000 5.24 313 08:18 12.07.2022
2672 Clear 17 1022 74 10000 5.21 313 06:24 12.07.2022
2673 Clear 17 1022 74 10000 5.21 313 05:39 12.07.2022
2674 Clouds 17 1021 74 10000 5.74 311 01:57 12.07.2022
2675 Clouds 17 1021 74 10000 5.74 311 01:57 12.07.2022
2676 Clouds 17 1021 76 10000 5.43 309 01:57 12.07.2022
2677 Clouds 17 1021 74 10000 5.21 318 22:59 11.07.2022
2678 Clouds 18 1021 74 10000 5.27 312 22:29 11.07.2022
2679 Clouds 18 1021 74 10000 5.34 305 20:33 11.07.2022
2680 Clouds 18 1020 75 10000 5.87 292 19:36 11.07.2022
2681 Clouds 17 1020 75 10000 7.11 279 18:32 11.07.2022
2682 Clouds 17 1020 75 10000 7.45 276 17:46 11.07.2022
2683 Clouds 17 1020 76 10000 7.03 273 16:19 11.07.2022
2684 Clear 17 1021 75 10000 7.16 275 14:38 11.07.2022
2685 Clouds 17 1020 73 10000 6.15 311 11:49 11.07.2022
2686 Clouds 16 1019 75 10000 6.32 328 10:29 11.07.2022
2687 Clouds 17 1019 74 10000 7.14 328 09:42 11.07.2022
2688 Clouds 16 1019 74 10000 7.4 336 08:34 11.07.2022
2689 Clouds 16 1018 73 10000 7.83 341 05:52 11.07.2022
2690 Clear 17 1018 66 10000 8.36 320 00:22 11.07.2022
2691 Clear 17 1018 65 10000 8.39 324 23:28 10.07.2022
2692 Clear 17 1018 65 10000 8.07 330 21:55 10.07.2022
2693 Clear 17 1017 63 10000 7.99 336 20:54 10.07.2022
2694 Clear 18 1017 65 10000 8 335 19:50 10.07.2022
2695 Clear 21 1017 63 10000 7.73 334 18:53 10.07.2022
2696 Clear 18 1017 64 10000 6.72 324 17:41 10.07.2022
2697 Clear 18 1017 66 10000 6.83 294 16:58 10.07.2022
2698 Clear 17 1017 67 10000 7.72 277 16:20 10.07.2022
2699 Clouds 17 1017 68 10000 7.55 279 14:33 10.07.2022
2700 Clouds 16 1017 64 10000 8.04 293 12:38 10.07.2022
2701 Clouds 16 1017 66 10000 8.68 294 11:34 10.07.2022
2702 Clouds 15 1016 73 10000 9.99 305 09:28 10.07.2022
2703 Clouds 15 1016 73 10000 9.99 305 08:38 10.07.2022
2704 Clouds 15 1016 74 10000 10.36 308 05:36 10.07.2022
2705 Clouds 15 1017 71 10000 11.79 306 23:35 09.07.2022
2706 Clouds 16 1017 67 10000 11.92 303 22:26 09.07.2022
2707 Clouds 18 1017 67 10000 11.92 303 21:40 09.07.2022
2708 Clouds 20 1017 66 10000 11.06 296 19:37 09.07.2022
2709 Clear 18 1017 66 10000 10.62 296 18:25 09.07.2022
2710 Clear 17 1018 68 10000 10.38 295 17:21 09.07.2022
2711 Clear 18 1018 71 10000 10.66 298 15:58 09.07.2022
2712 Clear 18 1018 71 10000 10.66 298 15:38 09.07.2022
2713 Clouds 18 1018 68 10000 9.32 294 14:21 09.07.2022
2714 Clouds 18 1018 68 10000 9.32 294 13:47 09.07.2022
2715 Clouds 18 1019 72 10000 9.52 291 11:45 09.07.2022
2716 Clouds 17 1019 77 10000 9.29 287 10:26 09.07.2022
2717 Clouds 20 1019 77 10000 9.29 287 09:38 09.07.2022
2718 Clouds 17 1019 81 10000 10.25 288 07:44 09.07.2022
2719 Clouds 16 1020 80 10000 11.65 294 04:41 09.07.2022
2720 Clouds 17 1022 75 10000 10.18 289 23:41 08.07.2022
2721 Clouds 17 1022 76 10000 9.78 289 22:33 08.07.2022
2722 Clear 19 1022 74 10000 6.89 290 21:26 08.07.2022
2723 Clear 18 1022 74 10000 6.89 290 20:35 08.07.2022
2724 Clouds 18 1022 72 10000 6.62 285 19:38 08.07.2022
2725 Clouds 22 1022 70 10000 7.67 290 17:50 08.07.2022
2726 Clouds 18 1022 73 10000 7.17 274 16:29 08.07.2022
2727 Clouds 17 1023 76 10000 7.37 287 14:50 08.07.2022
2728 Clouds 17 1023 81 10000 9.29 296 12:42 08.07.2022
2729 Clouds 16 1022 81 10000 10.16 296 10:52 08.07.2022
2730 Clouds 18 1022 77 10000 9.5 296 09:58 08.07.2022
2731 Clouds 18 1022 79 10000 9.14 294 07:53 08.07.2022
2732 Clear 17 1021 80 10000 9.15 310 06:23 08.07.2022
2733 Clouds 18 1019 83 10000 8.25 322 00:41 08.07.2022
2734 Clouds 18 1017 84 10000 9.63 341 22:57 07.07.2022
2735 Clouds 18 1016 82 10000 8.16 329 21:52 07.07.2022
2736 Clouds 20 1014 77 10000 5.16 302 19:47 07.07.2022
2737 Clouds 21 1014 74 10000 5.91 293 17:56 07.07.2022
2738 Clouds 22 1014 77 10000 7.01 295 16:32 07.07.2022
2739 Clouds 18 1013 81 10000 6.77 300 14:21 07.07.2022
2740 Clouds 20 1012 85 10000 5.63 303 12:46 07.07.2022
2741 Clouds 20 1011 85 10000 4.67 292 12:23 07.07.2022
2742 Clouds 19 1011 85 10000 4.67 292 11:34 07.07.2022
2743 Clouds 17 1011 87 10000 4.92 272 10:46 07.07.2022
2744 Clouds 17 1011 92 10000 6.35 250 10:28 07.07.2022
2745 Clouds 17 1011 92 10000 6.35 250 09:52 07.07.2022
2746 Rain 15 1011 96 10000 9.58 220 06:32 07.07.2022
2747 Clouds 16 1015 75 10000 8.33 230 00:31 07.07.2022
2748 Clouds 16 1016 68 10000 8.01 239 23:36 06.07.2022
2749 Clouds 16 1016 64 10000 8.45 258 23:18 06.07.2022
2750 Clouds 17 1016 64 10000 8.45 258 22:52 06.07.2022
2751 Clouds 17 1016 64 10000 8.45 258 22:33 06.07.2022
2752 Clouds 17 1017 62 10000 8.82 269 20:30 06.07.2022
2753 Clouds 19 1017 64 10000 9 265 19:33 06.07.2022
2754 Clouds 17 1019 59 10000 7.6 274 17:22 06.07.2022
2755 Clouds 17 1019 59 10000 8.13 281 15:58 06.07.2022
2756 Clouds 17 1020 60 10000 8.32 287 13:21 06.07.2022
2757 Clouds 16 1019 62 10000 8.33 289 12:28 06.07.2022
2758 Clouds 16 1019 62 10000 8.33 289 11:44 06.07.2022
2759 Clouds 16 1019 70 10000 8.74 299 09:50 06.07.2022
2760 Clouds 16 1019 72 10000 8.04 301 07:44 06.07.2022
2761 Clouds 16 1018 74 10000 7.34 293 07:19 06.07.2022
2762 Clouds 16 1019 74 10000 7.65 277 00:38 06.07.2022
2763 Clouds 17 1019 68 10000 7.57 274 22:43 05.07.2022
2764 Clouds 18 1018 67 10000 6.78 269 21:29 05.07.2022
2765 Clouds 18 1018 67 10000 6.78 269 20:35 05.07.2022
2766 Clouds 18 1018 69 10000 6.94 264 19:40 05.07.2022
2767 Clear 18 1018 69 10000 7.6 260 18:23 05.07.2022
2768 Clear 18 1018 69 10000 7.6 260 17:39 05.07.2022
2769 Clouds 18 1019 68 10000 7.35 263 16:39 05.07.2022
2770 Clouds 18 1019 67 10000 7.41 267 15:23 05.07.2022
2771 Clear 17 1019 67 10000 7.71 264 13:36 05.07.2022
2772 Clouds 17 1019 69 10000 8.15 266 12:41 05.07.2022
2773 Clouds 17 1019 71 10000 8.76 265 10:46 05.07.2022
2774 Clouds 17 1019 72 10000 8.77 267 09:58 05.07.2022
2775 Clouds 16 1018 76 10000 8.82 251 08:24 05.07.2022
2776 Clouds 16 1018 78 10000 8.58 247 07:21 05.07.2022
2777 Clear 16 1018 79 10000 7.76 246 04:40 05.07.2022
2778 Clear 17 1018 75 10000 7.39 257 02:48 05.07.2022
2779 Clouds 17 1017 71 10000 8.28 275 23:42 04.07.2022
2780 Clouds 18 1017 73 10000 7.71 281 22:59 04.07.2022
2781 Clouds 18 1017 72 10000 6.97 270 22:20 04.07.2022
2782 Clouds 18 1017 73 10000 6.23 249 21:18 04.07.2022
2783 Clouds 18 1017 73 10000 6.23 249 20:50 04.07.2022
2784 Clouds 18 1017 73 10000 6.23 249 20:32 04.07.2022
2785 Clouds 19 1017 71 10000 6.55 265 19:44 04.07.2022
2786 Clouds 19 1016 73 10000 6.1 255 19:25 04.07.2022
2787 Clouds 18 1017 73 10000 6.27 264 17:40 04.07.2022
2788 Clouds 18 1017 72 10000 6.85 262 15:42 04.07.2022
2789 Clouds 18 1017 72 10000 7.42 261 14:42 04.07.2022
2790 Clouds 18 1017 71 10000 7.99 261 13:27 04.07.2022
2791 Clear 18 1017 71 10000 7.94 270 11:43 04.07.2022
2792 Clear 18 1017 74 10000 6.88 275 10:33 04.07.2022
2793 Clear 18 1016 77 10000 6.4 281 09:40 04.07.2022
2794 Clouds 18 1015 79 10000 6.48 277 06:53 04.07.2022
2795 Clouds 17 1015 86 10000 3.12 315 03:30 04.07.2022
2796 Rain 19 1015 82 10000 4.79 286 00:30 04.07.2022
2797 Clouds 20 1015 79 10000 2.16 222 22:58 03.07.2022
2798 Clouds 20 1015 83 10000 0.61 253 20:47 03.07.2022
2799 Clouds 20 1015 79 10000 2.31 261 20:25 03.07.2022
2800 Clouds 20 1015 77 10000 2.41 334 19:26 03.07.2022
2801 Clouds 20 1015 77 10000 2.41 334 18:32 03.07.2022
2802 Clouds 21 1015 76 10000 1.35 309 17:43 03.07.2022
2803 Clouds 23 1015 60 10000 5.3 141 15:29 03.07.2022
2804 Clouds 23 1015 60 10000 5.3 141 14:58 03.07.2022
2805 Clouds 23 1016 59 10000 5.99 139 13:59 03.07.2022
2806 Clouds 23 1016 59 10000 5.99 139 13:33 03.07.2022
2807 Clouds 28 1017 59 10000 6.39 151 12:32 03.07.2022
2808 Clouds 27 1018 62 10000 7.31 156 11:20 03.07.2022
2809 Clouds 22 1018 62 10000 7.31 156 10:38 03.07.2022
2810 Clouds 22 1018 65 10000 7.06 159 09:31 03.07.2022
2811 Clouds 19 1018 70 10000 6.82 157 07:34 03.07.2022
2812 Clouds 18 1021 80 10000 7.24 129 01:42 03.07.2022
2813 Clouds 18 1021 75 10000 6.59 117 23:50 02.07.2022
2814 Clouds 18 1021 73 10000 6.14 120 22:33 02.07.2022
2815 Clouds 18 1022 71 10000 5.63 120 20:50 02.07.2022
2816 Clouds 19 1022 66 10000 4.6 117 19:52 02.07.2022
2817 Clouds 19 1022 63 10000 3.1 104 19:20 02.07.2022
2818 Clear 19 1022 64 10000 1.32 70 17:41 02.07.2022
2819 Clear 19 1022 65 10000 1.28 342 16:49 02.07.2022
2820 Clear 18 1023 69 10000 6.32 274 13:52 02.07.2022
2821 Clear 18 1023 69 10000 7.14 261 12:21 02.07.2022
2822 Clear 18 1023 71 10000 7.46 257 11:26 02.07.2022
2823 Clear 18 1023 71 10000 7.46 257 10:37 02.07.2022
2824 Clear 18 1022 73 10000 7.17 253 08:55 02.07.2022
2825 Clouds 17 1021 73 10000 7.25 261 08:20 02.07.2022
2826 Clouds 16 1021 76 10000 7.34 260 07:27 02.07.2022
2827 Rain 18 1019 74 10000 9.23 280 01:53 02.07.2022
2828 Clouds 17 1019 73 10000 8.75 294 23:56 01.07.2022
2829 Clouds 17 1018 77 10000 9.52 298 22:41 01.07.2022
2830 Clouds 17 1017 82 10000 10.99 293 21:48 01.07.2022
2831 Rain 17 1017 83 10000 9.68 292 21:28 01.07.2022
2832 Rain 17 1017 83 10000 9.68 292 20:40 01.07.2022
2833 Rain 18 1016 88 9532 10.76 288 19:46 01.07.2022
2834 Rain 19 1014 92 10000 9.47 299 17:53 01.07.2022
2835 Clouds 19 1013 94 10000 9.5 307 16:22 01.07.2022
2836 Clouds 21 1013 92 8793 3.96 319 13:55 01.07.2022
2837 Clouds 21 1013 87 10000 2.98 35 12:55 01.07.2022
2838 Clouds 21 1013 86 10000 3.22 113 10:20 01.07.2022
2839 Clouds 20 1013 86 10000 3.22 113 09:47 01.07.2022
2840 Clouds 18 1012 93 10000 3.63 107 05:25 01.07.2022
2841 Clouds 18 1013 93 10000 4.16 93 00:42 01.07.2022
2842 Rain 18 1013 93 10000 5.03 97 23:26 30.06.2022
2843 Clouds 18 1013 93 10000 5.03 97 22:44 30.06.2022
2844 Clouds 18 1013 92 10000 4.75 104 22:26 30.06.2022
2845 Clouds 18 1013 92 10000 4.75 104 21:48 30.06.2022
2846 Clouds 19 1013 90 10000 4.52 101 20:30 30.06.2022
2847 Clouds 19 1013 89 10000 5.09 87 19:55 30.06.2022
2848 Clouds 19 1013 88 10000 4.88 72 19:26 30.06.2022
2849 Clouds 19 1013 88 10000 4.88 72 18:43 30.06.2022
2850 Clouds 20 1013 87 10000 4.65 77 17:49 30.06.2022
2851 Clouds 20 1013 86 10000 6.49 78 16:55 30.06.2022
2852 Clouds 20 1013 85 10000 5.94 71 15:44 30.06.2022
2853 Clouds 20 1014 79 10000 6.15 75 13:50 30.06.2022
2854 Clouds 20 1014 77 10000 5.99 78 12:36 30.06.2022
2855 Clouds 20 1014 77 10000 5.99 78 12:36 30.06.2022
2856 Clouds 20 1015 77 10000 5.86 82 11:59 30.06.2022
2857 Clouds 19 1015 75 10000 5.4 90 09:55 30.06.2022
2858 Clouds 19 1015 75 10000 5.4 90 09:37 30.06.2022
2859 Clouds 19 1015 74 10000 5.54 86 08:19 30.06.2022
2860 Clear 19 1016 74 10000 5.56 83 07:40 30.06.2022
2861 Clear 18 1017 76 10000 5.27 89 02:49 30.06.2022
2862 Clear 18 1017 73 10000 3.84 95 23:38 29.06.2022
2863 Clear 18 1017 74 10000 4.19 103 22:41 29.06.2022
2864 Clear 18 1017 75 10000 3.97 93 21:59 29.06.2022
2865 Clear 19 1017 75 10000 3.84 86 20:35 29.06.2022
2866 Clouds 19 1017 75 10000 4.33 82 19:56 29.06.2022
2867 Clouds 19 1017 75 10000 4.99 75 17:55 29.06.2022
2868 Clouds 19 1017 75 10000 4.99 75 17:55 29.06.2022
2869 Clouds 19 1017 75 10000 4.99 75 17:32 29.06.2022
2870 Clouds 19 1018 75 10000 5.34 69 15:44 29.06.2022
2871 Clouds 19 1019 68 10000 4.49 59 13:45 29.06.2022
2872 Clouds 19 1019 66 10000 4.45 64 12:38 29.06.2022
2873 Clouds 19 1020 60 10000 3.49 72 09:50 29.06.2022
2874 Clouds 19 1020 62 10000 3.51 77 09:26 29.06.2022
2875 Clear 18 1020 70 10000 2.89 87 06:29 29.06.2022
2876 Clear 17 1020 70 10000 2.27 100 04:42 29.06.2022
2877 Clear 18 1021 72 10000 0.21 14 00:53 29.06.2022
2878 Clear 18 1021 72 10000 0.21 14 00:34 29.06.2022
2879 Clear 18 1021 73 10000 0.62 324 22:52 28.06.2022
2880 Clear 18 1021 73 10000 1.37 328 21:59 28.06.2022
2881 Clear 18 1021 73 10000 1.37 328 21:40 28.06.2022
2882 Clear 18 1021 72 10000 1.77 313 21:22 28.06.2022
2883 Clear 18 1021 70 10000 2.27 293 19:56 28.06.2022
2884 Clear 18 1021 70 10000 2.27 293 19:31 28.06.2022
2885 Clear 18 1021 68 10000 2.85 288 18:40 28.06.2022
2886 Clear 18 1021 70 10000 4.45 277 17:25 28.06.2022
2887 Clear 18 1021 70 10000 4.89 280 15:55 28.06.2022
2888 Clear 19 1021 69 10000 4.32 281 14:54 28.06.2022
2889 Clouds 18 1021 70 10000 3.91 296 14:19 28.06.2022
2890 Clouds 18 1021 74 10000 2.19 310 13:45 28.06.2022
2891 Clouds 18 1021 77 10000 3.46 319 12:35 28.06.2022
2892 Clouds 17 1020 83 10000 7.27 312 10:40 28.06.2022
2893 Clouds 17 1019 88 10000 6.58 311 08:56 28.06.2022
2894 Clouds 17 1019 88 10000 6.58 311 08:38 28.06.2022
2895 Clouds 17 1018 86 10000 8.29 293 07:20 28.06.2022
2896 Clouds 17 1017 88 10000 8.69 275 04:54 28.06.2022
2897 Clouds 19 1015 96 8039 8.17 264 23:53 27.06.2022
2898 Clouds 19 1015 96 10000 6.54 286 23:28 27.06.2022
2899 Clouds 19 1015 96 10000 6.54 286 22:42 27.06.2022
2900 Clouds 19 1015 96 10000 6.7 286 21:30 27.06.2022
2901 Clouds 20 1014 96 10000 7.31 283 20:34 27.06.2022
2902 Rain 21 1013 90 10000 4.85 315 18:55 27.06.2022
2903 Rain 21 1012 88 10000 4.97 337 17:45 27.06.2022
2904 Clouds 23 1012 74 10000 2.96 98 15:51 27.06.2022
2905 Clouds 24 1013 67 10000 5.04 111 14:26 27.06.2022
2906 Clouds 24 1013 70 10000 4.32 115 13:24 27.06.2022
2907 Clouds 24 1013 70 10000 4.32 115 12:49 27.06.2022
2908 Clouds 22 1014 78 10000 4.36 150 10:22 27.06.2022
2909 Clouds 21 1014 80 10000 5.61 143 08:43 27.06.2022
2910 Clouds 20 1014 84 10000 5.03 129 07:53 27.06.2022
2911 Clouds 19 1014 87 10000 4.03 116 06:38 27.06.2022
2912 Clouds 20 1015 87 10000 1.28 31 01:54 27.06.2022
2913 Rain 20 1016 85 10000 2.16 30 23:39 26.06.2022
2914 Clouds 19 1016 90 10000 3.66 37 21:51 26.06.2022
2915 Rain 19 1016 93 10000 4.56 331 20:34 26.06.2022
2916 Rain 22 1015 80 10000 3.3 153 19:23 26.06.2022
2917 Rain 22 1015 77 10000 2.98 124 18:24 26.06.2022
2918 Clouds 23 1015 76 10000 2.75 113 15:53 26.06.2022
2919 Rain 23 1015 75 10000 4.38 112 14:34 26.06.2022
2920 Clouds 24 1015 69 10000 2.99 108 13:30 26.06.2022
2921 Clouds 23 1015 70 10000 2.96 135 12:52 26.06.2022
2922 Clouds 22 1015 75 10000 3.29 154 11:21 26.06.2022
2923 Clouds 22 1014 80 10000 3.44 166 10:23 26.06.2022
2924 Clouds 21 1014 84 10000 3.56 164 08:46 26.06.2022
2925 Clouds 19 1014 87 10000 2.84 151 07:30 26.06.2022
2926 Clouds 21 1014 89 10000 1.35 88 00:49 26.06.2022
2927 Clouds 21 1014 91 10000 1.34 122 00:20 26.06.2022
2928 Clouds 21 1014 91 10000 1.34 122 23:33 25.06.2022
2929 Clouds 21 1014 91 9885 1.29 181 22:55 25.06.2022
2930 Clouds 21 1013 90 10000 1.3 159 22:27 25.06.2022
2931 Clouds 21 1013 90 10000 1.3 159 21:37 25.06.2022
2932 Clouds 22 1013 90 10000 2.48 130 21:18 25.06.2022
2933 Clouds 22 1013 85 10000 2.77 101 20:25 25.06.2022
2934 Clouds 23 1013 86 10000 1.06 111 19:20 25.06.2022
2935 Clouds 23 1012 83 10000 0.82 92 17:53 25.06.2022
2936 Clouds 25 1012 84 10000 1.36 160 17:19 25.06.2022
2937 Clouds 22 1012 76 10000 5.45 140 14:59 25.06.2022
2938 Clouds 21 1012 78 10000 5.66 114 13:27 25.06.2022
2939 Clouds 26 1012 78 10000 5.66 114 12:37 25.06.2022
2940 Clouds 22 1012 79 10000 2.99 123 10:34 25.06.2022
2941 Clouds 22 1011 83 10000 2.89 154 08:58 25.06.2022
2942 Clouds 23 1011 83 10000 2.89 154 08:36 25.06.2022
2943 Clouds 19 1011 84 10000 3.22 163 07:54 25.06.2022
2944 Clouds 18 1010 82 10000 3.88 183 03:33 25.06.2022
2945 Clouds 18 1009 83 10000 6.04 206 00:34 25.06.2022
2946 Clouds 22 1007 60 10000 9.24 140 22:54 24.06.2022
2947 Clouds 22 1007 61 10000 10.27 126 21:41 24.06.2022
2948 Clouds 22 1007 65 10000 9.44 113 20:45 24.06.2022
2949 Clear 22 1007 66 10000 9.12 110 20:18 24.06.2022
2950 Clear 22 1007 67 10000 8.4 101 19:21 24.06.2022
2951 Clear 22 1007 67 10000 8.4 101 18:48 24.06.2022
2952 Clear 22 1007 67 10000 8.4 101 18:30 24.06.2022
2953 Clear 22 1008 65 10000 8.48 103 17:20 24.06.2022
2954 Clear 23 1009 61 10000 8.67 108 15:29 24.06.2022
2955 Clear 23 1010 60 10000 8.58 116 14:27 24.06.2022
2956 Clear 23 1010 60 10000 8.58 116 13:55 24.06.2022
2957 Clear 23 1010 60 10000 8.58 116 13:55 24.06.2022
2958 Clear 22 1010 63 10000 7.4 128 11:44 24.06.2022
2959 Clear 22 1011 66 10000 7.53 135 10:55 24.06.2022
2960 Clear 21 1011 69 10000 7.79 138 09:55 24.06.2022
2961 Clear 20 1011 73 10000 7.17 136 09:29 24.06.2022
2962 Clear 20 1011 73 10000 7.17 136 08:52 24.06.2022
2963 Clear 18 1012 83 10000 5.95 127 06:48 24.06.2022
2964 Clear 18 1012 83 10000 5.95 127 06:30 24.06.2022
2965 Clear 17 1012 87 10000 5.94 115 05:52 24.06.2022
2966 Clouds 17 1014 80 10000 5.75 107 01:28 24.06.2022
2967 Clouds 17 1015 81 10000 5.62 105 22:44 23.06.2022
2968 Clouds 17 1015 81 10000 5.26 102 21:54 23.06.2022
2969 Clouds 18 1015 80 10000 4.71 101 20:54 23.06.2022
2970 Clear 18 1015 81 10000 4.76 108 20:32 23.06.2022
2971 Clear 19 1015 77 10000 5.24 98 18:49 23.06.2022
2972 Clear 19 1015 77 10000 4.73 87 17:50 23.06.2022
2973 Clear 19 1015 77 10000 4.73 87 17:50 23.06.2022
2974 Clear 19 1016 74 10000 4.84 80 16:42 23.06.2022
2975 Clear 18 1016 74 10000 4.51 71 15:43 23.06.2022
2976 Clouds 18 1016 73 10000 3.71 61 15:23 23.06.2022
2977 Clouds 17 1016 74 10000 1.83 19 13:21 23.06.2022
2978 Clouds 17 1016 78 10000 1.53 294 11:23 23.06.2022
2979 Clouds 17 1016 78 10000 1.53 294 10:31 23.06.2022
2980 Clouds 16 1016 82 10000 1.54 234 08:35 23.06.2022
2981 Clouds 16 1014 80 10000 1.47 217 02:38 23.06.2022
2982 Clouds 16 1014 83 10000 0.38 294 00:26 23.06.2022
2983 Clouds 16 1014 83 10000 1.05 344 23:27 22.06.2022
2984 Clouds 16 1014 83 10000 1.05 344 22:31 22.06.2022
2985 Clouds 16 1013 84 10000 2.53 310 21:21 22.06.2022
2986 Clouds 16 1013 84 10000 2.53 310 20:34 22.06.2022
2987 Clouds 17 1013 84 10000 3.13 298 19:52 22.06.2022
2988 Clouds 17 1013 83 10000 3.64 301 18:40 22.06.2022
2989 Clear 16 1013 84 10000 5.15 279 17:27 22.06.2022
2990 Clear 16 1013 83 10000 6.29 277 16:24 22.06.2022
2991 Clear 16 1013 83 10000 5.93 264 15:26 22.06.2022
2992 Clouds 16 1013 78 10000 4.8 263 14:19 22.06.2022
2993 Clouds 16 1013 78 10000 4.8 263 13:37 22.06.2022
2994 Clouds 16 1013 79 10000 4.44 269 13:18 22.06.2022
2995 Clouds 16 1014 80 10000 4.74 284 11:49 22.06.2022
2996 Clouds 16 1013 80 10000 4.4 277 10:55 22.06.2022
2997 Clouds 15 1013 80 10000 4.07 283 10:19 22.06.2022
2998 Clouds 15 1012 81 10000 4.42 294 08:27 22.06.2022
2999 Clouds 15 1013 77 10000 4.89 268 04:50 22.06.2022
3000 Clouds 16 1013 77 10000 4.76 289 01:23 22.06.2022
3001 Clear 16 1013 76 10000 4.69 294 00:24 22.06.2022
3002 Clear 16 1013 74 10000 4.81 287 22:19 21.06.2022
3003 Clear 17 1013 75 10000 5.33 288 19:56 21.06.2022
3004 Clear 17 1013 76 10000 5.71 281 18:35 21.06.2022
3005 Clear 17 1013 77 10000 6 278 17:39 21.06.2022
3006 Clear 16 1013 73 10000 6.91 290 14:22 21.06.2022
3007 Clear 16 1013 72 10000 7.31 303 11:49 21.06.2022
3008 Clear 15 1013 75 10000 9.69 308 10:18 21.06.2022
3009 Clear 15 1012 76 10000 10.16 309 08:48 21.06.2022
3010 Clouds 14 1011 80 10000 10.02 303 07:23 21.06.2022
3011 Clouds 14 1010 77 10000 9.14 316 02:27 21.06.2022
3012 Clouds 14 1009 76 10000 9.29 332 23:26 20.06.2022
3013 Clouds 14 1009 74 10000 8.59 325 21:58 20.06.2022
3014 Clouds 14 1009 74 10000 8.59 325 21:31 20.06.2022
3015 Clouds 14 1009 77 10000 7.48 329 19:49 20.06.2022
3016 Clouds 15 1009 73 10000 6.18 306 18:54 20.06.2022
3017 Clouds 15 1009 72 10000 4.88 288 18:24 20.06.2022
3018 Clouds 15 1009 72 10000 4.88 288 17:40 20.06.2022
3019 Clouds 16 1010 63 10000 2.35 288 16:20 20.06.2022
3020 Clouds 15 1010 70 10000 2.68 297 14:18 20.06.2022
3021 Clouds 15 1011 72 10000 0.95 267 11:46 20.06.2022
3022 Clouds 14 1011 77 10000 2.17 226 09:48 20.06.2022
3023 Clouds 14 1011 81 10000 2.97 200 08:45 20.06.2022
3024 Clouds 14 1012 80 10000 3.6 214 07:35 20.06.2022
3025 Clouds 13 1012 79 10000 2.68 187 03:51 20.06.2022
3026 Clouds 13 1012 76 10000 0.33 182 00:52 20.06.2022
3027 Clouds 13 1012 78 10000 1.85 12 23:29 19.06.2022
3028 Clouds 13 1012 80 10000 2.27 10 22:19 19.06.2022
3029 Clouds 13 1012 80 10000 2.27 10 21:42 19.06.2022
3030 Clouds 14 1012 82 10000 3.06 35 20:48 19.06.2022
3031 Clouds 14 1012 82 10000 3.67 26 19:49 19.06.2022
3032 Clouds 13 1012 84 10000 4.27 19 19:24 19.06.2022
3033 Rain 13 1012 84 10000 4.27 19 18:32 19.06.2022
3034 Clouds 13 1011 85 10000 5.61 8 17:42 19.06.2022
3035 Rain 14 1011 83 10000 5.76 7 17:20 19.06.2022
3036 Rain 14 1010 82 10000 6.41 43 16:28 19.06.2022
3037 Rain 14 1010 82 10000 6.41 43 15:35 19.06.2022
3038 Clouds 14 1010 88 10000 8.54 49 14:42 19.06.2022
3039 Clouds 14 1010 89 10000 8.04 51 13:52 19.06.2022
3040 Rain 15 1010 88 10000 7.32 68 12:22 19.06.2022
3041 Clouds 15 1010 90 10000 7.88 64 10:53 19.06.2022
3042 Clouds 15 1010 88 9038 5.43 30 09:21 19.06.2022
3043 Clouds 15 1010 88 9038 5.43 30 08:32 19.06.2022
3044 Clouds 16 1011 84 9786 1.87 347 07:26 19.06.2022
3045 Rain 16 1012 86 10000 3.09 308 04:27 19.06.2022
3046 Clouds 16 1013 80 10000 5.5 293 01:28 19.06.2022
3047 Clouds 16 1013 76 10000 5.36 280 00:23 19.06.2022
3048 Clouds 16 1013 76 10000 5.36 280 23:35 18.06.2022
3049 Clouds 17 1014 75 10000 7.39 280 22:33 18.06.2022
3050 Clouds 17 1014 73 10000 7.34 276 20:55 18.06.2022
3051 Clouds 18 1013 73 10000 5.99 273 20:24 18.06.2022
3052 Clouds 18 1014 78 10000 6.15 277 19:25 18.06.2022
3053 Clouds 18 1014 78 10000 6.15 277 18:44 18.06.2022
3054 Clouds 18 1014 80 10000 6.15 274 17:30 18.06.2022
3055 Clouds 18 1014 80 10000 6.15 274 17:30 18.06.2022
3056 Clouds 18 1014 80 10000 6.15 274 17:30 18.06.2022
3057 Clouds 18 1014 85 10000 6.26 272 16:20 18.06.2022
3058 Clear 17 1014 88 10000 6.81 270 15:18 18.06.2022
3059 Clear 17 1014 88 10000 6.81 270 14:42 18.06.2022
3060 Clear 17 1014 88 10000 6.76 264 12:51 18.06.2022
3061 Clear 17 1014 85 10000 7.22 263 11:31 18.06.2022
3062 Clear 19 1013 74 10000 7.85 257 10:26 18.06.2022
3063 Clear 19 1013 72 10000 6.73 225 09:20 18.06.2022
3064 Clouds 18 1014 71 10000 7.4 212 08:19 18.06.2022
3065 Clouds 17 1014 69 10000 8.33 200 06:43 18.06.2022
3066 Clouds 16 1017 77 10000 7.21 177 03:24 18.06.2022
3067 Clouds 16 1019 79 10000 5.71 175 01:24 18.06.2022
3068 Clouds 16 1019 79 10000 5.71 175 00:42 18.06.2022
3069 Clouds 17 1020 79 10000 3.95 185 23:52 17.06.2022
3070 Clouds 17 1020 79 10000 3.95 185 23:52 17.06.2022
3071 Clouds 16 1021 81 10000 2.26 211 22:56 17.06.2022
3072 Clouds 17 1022 82 10000 4.74 285 20:42 17.06.2022
3073 Rain 17 1022 76 10000 5.14 272 19:30 17.06.2022
3074 Clouds 17 1022 74 10000 4.59 266 18:34 17.06.2022
3075 Clouds 17 1022 74 10000 4.66 265 17:43 17.06.2022
3076 Clouds 17 1022 75 10000 5.29 268 16:43 17.06.2022
3077 Clouds 17 1023 75 10000 5.18 261 15:43 17.06.2022
3078 Clouds 16 1023 76 10000 5.19 262 14:58 17.06.2022
3079 Clouds 16 1023 78 10000 5.42 265 14:20 17.06.2022
3080 Clouds 16 1023 78 10000 5.42 265 13:45 17.06.2022
3081 Clouds 16 1023 80 10000 6.27 266 12:57 17.06.2022
3082 Clouds 16 1023 79 10000 6.62 270 11:57 17.06.2022
3083 Clouds 16 1023 79 10000 6.62 270 11:36 17.06.2022
3084 Clouds 16 1023 77 10000 6.22 273 10:51 17.06.2022
3085 Clouds 15 1022 80 10000 5.91 286 08:30 17.06.2022
3086 Clouds 15 1022 80 10000 6.22 296 07:47 17.06.2022
3087 Clouds 15 1022 80 10000 5.95 301 05:57 17.06.2022
3088 Clouds 15 1021 83 10000 7.22 307 03:19 17.06.2022
3089 Clouds 15 1021 83 10000 7.58 307 00:42 17.06.2022
3090 Clear 16 1021 80 10000 6.7 302 22:45 16.06.2022
3091 Clear 16 1020 79 10000 6.09 299 22:26 16.06.2022
3092 Clear 17 1020 76 10000 6.58 293 21:19 16.06.2022
3093 Clear 17 1020 76 10000 6.58 293 20:50 16.06.2022
3094 Clouds 17 1020 77 10000 6.76 282 19:58 16.06.2022
3095 Clouds 16 1020 78 10000 7.51 269 18:44 16.06.2022
3096 Clouds 16 1020 78 10000 7.73 266 17:44 16.06.2022
3097 Clouds 16 1020 77 10000 6.66 267 17:20 16.06.2022
3098 Clouds 16 1020 76 10000 6.55 275 15:44 16.06.2022
3099 Clouds 16 1020 75 10000 5.43 275 15:20 16.06.2022
3100 Clouds 15 1020 75 10000 4.39 287 13:55 16.06.2022
3101 Clouds 15 1020 76 10000 4.63 304 12:47 16.06.2022
3102 Clouds 15 1020 78 10000 5.13 319 12:20 16.06.2022
3103 Clouds 15 1019 80 10000 5.36 332 11:21 16.06.2022
3104 Clouds 15 1019 80 10000 5.36 332 10:35 16.06.2022
3105 Clouds 15 1019 82 10000 5.32 345 09:39 16.06.2022
3106 Clouds 15 1018 83 10000 5.15 359 08:50 16.06.2022
3107 Clouds 15 1018 82 10000 4.37 333 07:38 16.06.2022
3108 Clouds 15 1018 81 10000 2.84 313 05:48 16.06.2022
3109 Clouds 15 1018 79 10000 2.41 284 03:56 16.06.2022
3110 Clouds 15 1019 76 10000 1.66 284 01:52 16.06.2022
3111 Clouds 15 1019 75 10000 1.51 290 01:22 16.06.2022
3112 Clouds 15 1019 75 10000 1.22 304 00:22 16.06.2022
3113 Clouds 15 1019 75 10000 1.47 301 22:53 15.06.2022
3114 Clouds 15 1019 75 10000 1.47 312 21:37 15.06.2022
3115 Clouds 15 1019 73 10000 2.12 304 20:59 15.06.2022
3116 Clouds 15 1019 73 10000 2.12 304 20:36 15.06.2022
3117 Clouds 15 1019 71 10000 2.1 299 20:18 15.06.2022
3118 Clouds 16 1019 68 10000 2.2 305 18:41 15.06.2022
3119 Clouds 16 1020 67 10000 3.33 301 17:53 15.06.2022
3120 Clouds 16 1020 67 10000 4.15 285 16:27 15.06.2022
3121 Clouds 16 1020 69 10000 4.25 278 15:22 15.06.2022
3122 Clouds 15 1020 70 10000 2.91 276 13:29 15.06.2022
3123 Clouds 15 1020 70 10000 2.91 276 12:47 15.06.2022
3124 Clouds 15 1021 70 10000 2.77 289 11:37 15.06.2022
3125 Clouds 15 1020 73 10000 3 297 10:22 15.06.2022
3126 Clouds 15 1020 73 10000 3 297 09:34 15.06.2022
3127 Clouds 15 1020 77 10000 3.98 294 07:58 15.06.2022
3128 Clouds 15 1020 79 10000 4.41 291 06:33 15.06.2022
3129 Clouds 15 1020 83 10000 5.65 289 03:28 15.06.2022
3130 Clouds 15 1020 83 10000 5.86 282 01:37 15.06.2022
3131 Clouds 15 1020 83 10000 5.64 284 00:41 15.06.2022
3132 Clouds 15 1020 82 10000 5.71 287 23:38 14.06.2022
3133 Clouds 15 1020 81 10000 6.4 285 22:51 14.06.2022
3134 Clouds 16 1020 80 10000 6.56 280 21:53 14.06.2022
3135 Clouds 16 1019 79 10000 6.26 280 21:27 14.06.2022
3136 Clouds 16 1019 79 10000 6.26 280 20:48 14.06.2022
3137 Clouds 16 1019 78 10000 6.43 282 19:59 14.06.2022
3138 Clouds 16 1019 77 10000 6.88 287 18:45 14.06.2022
3139 Clouds 15 1019 77 10000 8.49 282 17:29 14.06.2022
3140 Clouds 15 1019 77 10000 8.49 282 16:43 14.06.2022
3141 Clouds 15 1020 77 10000 9.38 280 15:49 14.06.2022
3142 Clouds 15 1020 76 10000 9.54 279 14:57 14.06.2022
3143 Clouds 15 1020 76 10000 9.54 279 14:57 14.06.2022
3144 Clouds 15 1019 73 10000 8.57 280 14:23 14.06.2022
3145 Clouds 15 1020 74 10000 9.1 278 13:39 14.06.2022
3146 Clouds 15 1020 71 10000 8.99 286 12:30 14.06.2022
3147 Clouds 14 1020 71 10000 9.2 291 11:28 14.06.2022
3148 Clouds 14 1020 71 10000 9.2 291 10:44 14.06.2022
3149 Clouds 14 1019 72 10000 9.47 293 09:48 14.06.2022
3150 Clouds 14 1019 74 10000 9.69 295 08:45 14.06.2022
3151 Clouds 13 1019 73 10000 9.75 294 07:31 14.06.2022
3152 Clouds 13 1018 73 10000 9.97 294 04:44 14.06.2022
3153 Clouds 13 1018 73 10000 10.4 295 02:49 14.06.2022
3154 Clouds 14 1018 71 10000 10.42 297 00:28 14.06.2022
3155 Rain 15 1017 68 10000 10 301 23:22 13.06.2022
3156 Clouds 15 1017 69 10000 8.79 297 22:25 13.06.2022
3157 Clouds 15 1017 69 10000 8.79 297 21:49 13.06.2022
3158 Clouds 15 1017 69 10000 8.1 298 20:31 13.06.2022
3159 Clear 15 1016 69 10000 8.53 297 19:34 13.06.2022
3160 Clear 15 1016 68 10000 7.46 291 17:58 13.06.2022
3161 Clear 15 1016 68 10000 7.46 291 17:38 13.06.2022
3162 Rain 16 1016 66 10000 7.09 292 16:52 13.06.2022
3163 Clouds 15 1016 68 10000 7.55 288 15:38 13.06.2022
3164 Clouds 15 1016 71 10000 8.25 281 14:43 13.06.2022
3165 Clouds 15 1016 68 10000 8.31 276 13:53 13.06.2022
3166 Rain 15 1016 68 10000 8.61 275 12:48 13.06.2022
3167 Clouds 15 1015 67 10000 8.22 273 11:26 13.06.2022
3168 Clouds 15 1015 68 10000 7.98 281 10:27 13.06.2022
3169 Rain 15 1015 68 10000 7.98 281 09:38 13.06.2022
3170 Clouds 14 1015 72 10000 7.9 285 07:53 13.06.2022
3171 Clouds 14 1015 74 10000 7.72 283 06:28 13.06.2022
3172 Clear 15 1016 74 10000 6.87 276 03:18 13.06.2022
3173 Clouds 15 1016 75 10000 6.58 278 01:38 13.06.2022
3174 Clouds 16 1017 77 10000 5.28 278 00:22 13.06.2022
3175 Clouds 16 1017 77 10000 4.32 276 23:25 12.06.2022
3176 Clouds 16 1017 77 10000 4.24 292 22:23 12.06.2022
3177 Clouds 17 1017 76 10000 4.78 291 21:28 12.06.2022
3178 Clouds 17 1017 76 10000 5.74 276 20:34 12.06.2022
3179 Rain 17 1017 74 10000 6.05 268 19:38 12.06.2022
3180 Clouds 17 1017 73 10000 5.67 265 18:39 12.06.2022
3181 Clouds 17 1017 75 10000 5.3 276 16:42 12.06.2022
3182 Clouds 17 1018 74 10000 4.88 278 15:30 12.06.2022
3183 Clouds 17 1018 72 10000 3.74 271 14:32 12.06.2022
3184 Clouds 17 1019 73 10000 4.04 272 13:55 12.06.2022
3185 Clouds 16 1019 74 10000 4.17 263 12:58 12.06.2022
3186 Clouds 16 1019 74 10000 4.4 262 11:47 12.06.2022
3187 Clouds 16 1020 74 10000 4.77 260 10:45 12.06.2022
3188 Clouds 16 1020 75 10000 4.86 255 09:28 12.06.2022
3189 Clouds 16 1020 75 10000 4.86 255 08:49 12.06.2022
3190 Clouds 16 1020 75 10000 5.35 261 07:40 12.06.2022
3191 Clouds 16 1020 78 10000 4.97 252 05:39 12.06.2022
3192 Clouds 16 1020 75 10000 3.77 244 03:38 12.06.2022
3193 Clouds 16 1020 75 10000 3.77 244 03:38 12.06.2022
3194 Clear 16 1021 76 10000 3.59 252 01:44 12.06.2022
3195 Clear 15 1021 77 10000 4.21 267 00:59 12.06.2022
3196 Clear 15 1021 77 10000 4.21 267 00:30 12.06.2022
3197 Clear 16 1021 77 10000 4.39 274 23:56 11.06.2022
3198 Clear 16 1021 78 10000 4.43 285 22:53 11.06.2022
3199 Clear 16 1021 79 10000 4.61 294 22:29 11.06.2022
3200 Clear 17 1020 80 10000 5.49 294 20:55 11.06.2022
3201 Clear 17 1020 81 10000 6.13 288 20:26 11.06.2022
3202 Clear 17 1020 79 10000 6.55 287 19:33 11.06.2022
3203 Clear 18 1020 79 10000 6.42 277 18:37 11.06.2022
3204 Clear 18 1020 77 10000 7.1 272 17:58 11.06.2022
3205 Clear 18 1020 77 10000 7.1 272 17:38 11.06.2022
3206 Clear 18 1019 79 10000 5.63 281 17:19 11.06.2022
3207 Clear 18 1019 79 10000 5.63 281 16:38 11.06.2022
3208 Clear 18 1019 84 10000 6 286 15:46 11.06.2022
3209 Clouds 18 1019 83 10000 4.21 260 13:54 11.06.2022
3210 Clouds 17 1019 88 10000 4.06 270 13:36 11.06.2022
3211 Clouds 18 1019 85 10000 3 226 11:36 11.06.2022
3212 Clouds 17 1020 89 10000 4.41 226 10:29 11.06.2022
3213 Clouds 17 1020 89 10000 4.41 226 09:40 11.06.2022
3214 Clouds 17 1020 83 10000 4.02 209 07:58 11.06.2022
3215 Clouds 16 1020 84 10000 4.93 217 06:32 11.06.2022
3216 Clouds 16 1020 80 10000 4.58 221 05:26 11.06.2022
3217 Clouds 15 1020 81 10000 4.48 193 02:35 11.06.2022
3218 Clouds 15 1020 81 10000 4.65 198 01:41 11.06.2022
3219 Clouds 15 1020 80 10000 4.72 191 00:37 11.06.2022
3220 Clouds 16 1020 75 10000 3.63 190 22:55 10.06.2022
3221 Clouds 17 1020 72 10000 2.71 175 22:20 10.06.2022
3222 Clouds 17 1020 72 10000 1.23 184 21:22 10.06.2022
3223 Clouds 17 1020 72 10000 1.23 184 20:36 10.06.2022
3224 Clouds 17 1020 73 10000 0.34 265 20:18 10.06.2022
3225 Clouds 17 1020 72 10000 0.75 286 19:19 10.06.2022
3226 Clouds 17 1020 72 10000 0.96 291 18:29 10.06.2022
3227 Clouds 17 1020 72 10000 0.96 291 17:42 10.06.2022
3228 Clouds 16 1020 73 10000 1.89 278 16:59 10.06.2022
3229 Clear 16 1021 76 10000 2.9 265 16:25 10.06.2022
3230 Clear 16 1021 76 10000 2.9 265 15:37 10.06.2022
3231 Clouds 16 1021 80 10000 6.16 264 13:57 10.06.2022
3232 Clouds 15 1021 79 10000 6.73 265 12:50 10.06.2022
3233 Clouds 15 1021 78 10000 6.64 266 11:43 10.06.2022
3234 Clouds 15 1021 77 10000 6.42 273 10:45 10.06.2022
3235 Clouds 15 1020 77 10000 7.07 279 09:54 10.06.2022
3236 Clouds 15 1020 75 10000 7.38 282 08:42 10.06.2022
3237 Clouds 15 1020 78 10000 7.79 283 07:30 10.06.2022
3238 Clouds 14 1019 81 10000 8.09 284 06:45 10.06.2022
3239 Clouds 14 1019 84 10000 8.52 285 06:26 10.06.2022
3240 Clouds 15 1017 88 10000 8.93 285 03:56 10.06.2022
3241 Clouds 15 1017 93 10000 7.94 278 01:42 10.06.2022
3242 Clouds 15 1016 92 10000 7.55 277 00:40 10.06.2022
3243 Clouds 15 1016 91 10000 7.38 272 23:49 09.06.2022
3244 Clouds 16 1014 86 10000 6.85 273 22:18 09.06.2022
3245 Clouds 16 1014 86 10000 6.85 273 21:37 09.06.2022
3246 Clouds 16 1014 85 10000 6.03 267 20:55 09.06.2022
3247 Clouds 17 1013 84 10000 5.64 266 20:26 09.06.2022
3248 Clouds 17 1012 84 10000 5.59 260 19:29 09.06.2022
3249 Clouds 17 1012 84 10000 5.59 260 18:34 09.06.2022
3250 Clouds 17 1012 88 10000 6.54 261 17:18 09.06.2022
3251 Clouds 16 1011 88 10000 6.52 259 15:54 09.06.2022
3252 Clouds 16 1011 88 10000 5.51 269 14:38 09.06.2022
3253 Clouds 17 1010 87 10000 4.01 283 13:55 09.06.2022
3254 Clouds 17 1010 86 10000 3.88 276 13:29 09.06.2022
3255 Clouds 17 1009 87 10000 3.98 276 12:21 09.06.2022
3256 Clouds 17 1009 87 10000 4.74 277 11:19 09.06.2022
3257 Clouds 17 1008 87 10000 4.45 257 09:50 09.06.2022
3258 Clouds 17 1008 87 10000 4.45 257 09:31 09.06.2022
3259 Clouds 16 1008 89 10000 3.77 220 08:21 09.06.2022
3260 Rain 16 1007 90 10000 2.89 185 06:55 09.06.2022
3261 Clouds 15 1007 91 10000 5.23 105 03:22 09.06.2022
3262 Clouds 15 1007 88 10000 5.71 113 23:55 08.06.2022
3263 Clouds 15 1007 86 10000 5.74 108 22:59 08.06.2022
3264 Clouds 15 1008 84 10000 5.71 104 22:27 08.06.2022
3265 Clouds 15 1008 84 10000 5.71 104 21:57 08.06.2022
3266 Clouds 16 1007 84 10000 5.52 96 21:24 08.06.2022
3267 Clouds 16 1008 83 10000 5.27 89 20:22 08.06.2022
3268 Clouds 16 1007 83 10000 5.32 88 19:39 08.06.2022
3269 Clouds 16 1007 83 10000 5.32 88 19:39 08.06.2022
3270 Clouds 16 1007 81 10000 4.83 77 18:48 08.06.2022
3271 Clouds 16 1008 79 10000 3.88 75 17:35 08.06.2022
3272 Clouds 16 1008 78 10000 2.95 63 15:52 08.06.2022
3273 Clear 15 1009 78 10000 2.56 334 14:18 08.06.2022
3274 Clouds 15 1009 79 10000 2.76 311 12:46 08.06.2022
3275 Clouds 15 1009 79 10000 3.25 281 11:35 08.06.2022
3276 Clouds 15 1009 78 10000 3.71 258 10:37 08.06.2022
3277 Clouds 14 1009 83 10000 4.34 232 09:28 08.06.2022
3278 Clouds 14 1009 83 10000 4.34 232 08:49 08.06.2022
3279 Clear 13 1009 87 10000 5.52 226 06:43 08.06.2022
3280 Clear 13 1009 87 10000 5.8 223 04:35 08.06.2022
3281 Clouds 14 1010 86 10000 5.8 227 00:57 08.06.2022
3282 Clouds 14 1010 85 10000 5.2 229 23:31 07.06.2022
3283 Clouds 15 1010 83 10000 4.35 236 22:51 07.06.2022
3284 Clouds 15 1010 83 10000 4.35 236 22:33 07.06.2022
3285 Clouds 15 1010 81 10000 3.95 247 21:37 07.06.2022
3286 Clouds 16 1010 78 10000 3.56 255 21:18 07.06.2022
3287 Clouds 16 1010 78 10000 3.56 255 20:37 07.06.2022
3288 Clouds 17 1010 80 10000 4.94 227 19:49 07.06.2022
3289 Clouds 17 1009 77 10000 4.89 240 18:25 07.06.2022
3290 Clouds 17 1009 77 10000 4.89 240 17:31 07.06.2022
3291 Rain 17 1010 74 10000 4.42 237 16:44 07.06.2022
3292 Clouds 17 1010 73 10000 2.16 195 15:58 07.06.2022
3293 Clouds 17 1010 73 10000 2.16 195 15:30 07.06.2022
3294 Clouds 17 1010 73 10000 1.43 128 14:56 07.06.2022
3295 Clouds 17 1010 73 10000 1.43 128 14:38 07.06.2022
3296 Clouds 17 1011 71 10000 3.29 230 13:33 07.06.2022
3297 Clouds 17 1011 73 10000 4.53 233 12:54 07.06.2022
3298 Clouds 17 1012 75 10000 5.47 229 11:51 07.06.2022
3299 Clouds 16 1012 76 10000 5.3 217 10:48 07.06.2022
3300 Clouds 15 1012 80 10000 4.36 205 08:53 07.06.2022
3301 Clouds 14 1012 83 10000 4.31 220 07:54 07.06.2022
3302 Clouds 14 1012 84 10000 3.88 234 06:41 07.06.2022
3303 Clouds 15 1012 82 10000 5.44 242 04:41 07.06.2022
3304 Clouds 14 1013 93 10000 5.5 170 01:27 07.06.2022
3305 Clouds 15 1013 93 10000 5.44 147 23:58 06.06.2022
3306 Clouds 15 1013 94 10000 5.24 144 22:54 06.06.2022
3307 Clouds 15 1013 94 10000 5.24 144 22:30 06.06.2022
3308 Rain 16 1013 88 10000 3.53 157 21:18 06.06.2022
3309 Clouds 17 1013 76 10000 2.55 166 19:29 06.06.2022
3310 Clouds 17 1013 76 10000 2.55 166 18:53 06.06.2022
3311 Clouds 17 1013 79 10000 1.83 208 18:26 06.06.2022
3312 Clouds 17 1014 82 10000 2.36 236 17:27 06.06.2022
3313 Clouds 16 1014 85 10000 4.06 240 16:18 06.06.2022
3314 Clouds 16 1014 85 10000 4.06 240 15:33 06.06.2022
3315 Clouds 16 1014 85 10000 3.92 234 14:36 06.06.2022
3316 Clouds 16 1014 86 10000 4.11 251 13:26 06.06.2022
3317 Clouds 16 1014 86 10000 4.11 251 12:36 06.06.2022
3318 Clouds 16 1013 90 10000 4.03 230 11:53 06.06.2022
3319 Clouds 15 1013 95 10000 4.92 175 10:41 06.06.2022
3320 Rain 15 1013 96 10000 6.58 160 09:40 06.06.2022
3321 Rain 15 1014 94 10000 6.64 160 08:32 06.06.2022
3322 Rain 15 1013 81 10000 7.33 140 07:28 06.06.2022
3323 Clouds 16 1013 74 10000 8.12 127 05:28 06.06.2022
3324 Clouds 16 1013 76 10000 7.6 118 03:39 06.06.2022
3325 Clouds 15 1015 83 10000 7.15 103 01:23 06.06.2022
3326 Clouds 15 1015 83 10000 7.15 103 00:39 06.06.2022
3327 Clouds 15 1016 82 10000 7.39 95 23:43 05.06.2022
3328 Clouds 15 1016 82 10000 7.44 87 22:47 05.06.2022
3329 Clouds 15 1017 81 10000 6.15 93 20:57 05.06.2022
3330 Clouds 15 1017 79 10000 6.24 86 19:44 05.06.2022
3331 Clouds 16 1017 77 10000 6.29 86 18:30 05.06.2022
3332 Clouds 16 1017 77 10000 6.29 86 18:30 05.06.2022
3333 Clouds 16 1018 73 10000 6.13 86 17:55 05.06.2022
3334 Clouds 16 1018 70 10000 6.16 90 17:26 05.06.2022
3335 Clouds 16 1018 70 10000 6.16 90 16:52 05.06.2022
3336 Clouds 16 1018 70 10000 6.16 90 16:34 05.06.2022
3337 Clouds 16 1020 64 10000 4.8 105 14:27 05.06.2022
3338 Clouds 16 1021 65 10000 4.83 104 12:57 05.06.2022
3339 Clouds 16 1021 67 10000 3.93 101 11:49 05.06.2022
3340 Clear 16 1022 70 10000 2.75 113 10:42 05.06.2022
3341 Clear 15 1021 74 10000 3.19 121 10:22 05.06.2022
3342 Clear 15 1022 77 10000 2.93 143 08:40 05.06.2022
3343 Clear 14 1022 79 10000 3.03 147 08:20 05.06.2022
3344 Clear 12 1022 77 10000 2.53 164 05:23 05.06.2022
3345 Clear 12 1022 77 10000 2.53 164 04:30 05.06.2022
3346 Clear 13 1023 79 10000 1.51 67 01:33 05.06.2022
3347 Clear 14 1023 78 10000 2.05 18 00:52 05.06.2022
3348 Clear 14 1023 74 10000 2.72 331 22:43 04.06.2022
3349 Clear 14 1023 71 10000 1.62 304 20:55 04.06.2022
3350 Clear 14 1022 67 10000 1.33 315 18:53 04.06.2022
3351 Clear 14 1022 71 10000 1.64 352 16:47 04.06.2022
3352 Clear 14 1022 75 10000 2.68 1 16:19 04.06.2022
3353 Clear 14 1023 78 10000 3.03 1 15:22 04.06.2022
3354 Clear 13 1023 79 10000 3.24 1 13:46 04.06.2022
3355 Clear 13 1022 82 10000 3.53 15 11:23 04.06.2022
3356 Clear 13 1022 82 10000 3.53 15 10:52 04.06.2022
3357 Clear 13 1022 84 10000 4.07 14 09:46 04.06.2022
3358 Clear 13 1022 84 10000 4.16 14 08:44 04.06.2022
3359 Clouds 13 1021 84 10000 3.32 15 07:59 04.06.2022
3360 Clouds 13 1021 81 10000 3.2 11 06:20 04.06.2022
3361 Clouds 13 1021 78 10000 2.32 42 02:57 04.06.2022
3362 Clouds 13 1021 79 10000 1.01 37 00:21 04.06.2022
3363 Clouds 13 1021 78 10000 1.41 27 22:54 03.06.2022
3364 Clouds 13 1021 79 10000 1.09 17 21:46 03.06.2022
3365 Clear 13 1020 78 10000 1.46 15 20:40 03.06.2022
3366 Clear 13 1020 77 10000 1.62 348 19:33 03.06.2022
3367 Clear 13 1021 77 10000 2.51 301 16:56 03.06.2022
3368 Clear 13 1021 79 10000 2.88 290 15:52 03.06.2022
3369 Clouds 13 1022 81 10000 3.61 291 14:25 03.06.2022
3370 Clouds 13 1022 80 10000 4.18 274 12:21 03.06.2022
3371 Clouds 12 1022 81 10000 4.41 265 09:57 03.06.2022
3372 Clouds 12 1022 82 10000 4.72 268 09:29 03.06.2022
3373 Clouds 12 1022 85 10000 4.85 277 07:45 03.06.2022
3374 Clouds 12 1022 87 10000 5.11 273 06:59 03.06.2022
3375 Clouds 12 1021 88 10000 5.42 272 06:28 03.06.2022
3376 Clouds 12 1021 88 10000 5.96 269 03:39 03.06.2022
3377 Clouds 13 1020 85 10000 7.98 270 23:53 02.06.2022
3378 Clear 13 1020 85 10000 8 267 22:33 02.06.2022
3379 Clouds 13 1019 84 10000 7.79 271 20:56 02.06.2022
3380 Clouds 13 1019 82 10000 8.11 271 19:58 02.06.2022
3381 Clouds 14 1019 82 10000 8.65 275 19:39 02.06.2022
3382 Clouds 13 1019 83 10000 9.23 275 18:51 02.06.2022
3383 Clouds 13 1018 82 10000 10.01 268 16:30 02.06.2022
3384 Clear 13 1018 82 10000 9.73 263 15:47 02.06.2022
3385 Clouds 13 1018 85 10000 10.44 263 13:32 02.06.2022
3386 Clouds 13 1017 84 10000 10.39 261 12:51 02.06.2022
3387 Rain 12 1017 87 10000 10.5 255 10:48 02.06.2022
3388 Clouds 12 1017 80 10000 10 252 09:45 02.06.2022
3389 Clouds 12 1016 80 10000 9.13 251 09:26 02.06.2022
3390 Clouds 12 1016 76 10000 7.88 261 08:23 02.06.2022
3391 Clouds 12 1015 76 10000 7.24 280 06:21 02.06.2022
3392 Clouds 12 1014 77 10000 5.38 290 03:53 02.06.2022
3393 Clouds 12 1014 78 10000 5.93 295 01:36 02.06.2022
3394 Clouds 13 1013 78 10000 5.41 291 23:36 01.06.2022
3395 Clouds 13 1013 77 10000 4 297 22:18 01.06.2022
3396 Clouds 13 1013 74 10000 3.05 286 21:26 01.06.2022
3397 Clouds 13 1013 74 10000 3.05 286 20:39 01.06.2022
3398 Clouds 12 1012 81 10000 2.14 149 19:52 01.06.2022
3399 Clouds 12 1012 80 10000 3.01 125 18:52 01.06.2022
3400 Rain 13 1012 77 10000 3.12 105 17:40 01.06.2022
3401 Rain 13 1012 73 10000 2.91 63 16:33 01.06.2022
3402 Rain 13 1012 70 10000 1.84 17 14:51 01.06.2022
3403 Clouds 13 1012 69 10000 1.92 46 13:44 01.06.2022
3404 Clouds 12 1013 75 10000 3.31 347 11:41 01.06.2022
3405 Clouds 12 1013 78 10000 5.22 306 09:34 01.06.2022
3406 Clouds 13 1012 74 10000 0.74 274 08:29 01.06.2022
3407 Clouds 12 1012 73 10000 0.74 28 07:21 01.06.2022
3408 Clouds 12 1012 75 10000 1.17 36 05:22 01.06.2022
3409 Clouds 12 1014 73 10000 2.03 155 00:20 01.06.2022
3410 Clouds 12 1014 70 10000 1.78 165 23:26 31.05.2022
3411 Clouds 12 1014 70 10000 1.78 165 22:36 31.05.2022
3412 Clouds 12 1014 68 10000 1.46 163 21:45 31.05.2022
3413 Clouds 12 1013 66 10000 0.86 190 20:45 31.05.2022
3414 Clouds 12 1013 66 10000 0.86 190 20:45 31.05.2022
3415 Clouds 13 1013 66 10000 0.43 263 19:57 31.05.2022
3416 Clouds 13 1013 65 10000 1.74 265 18:50 31.05.2022
3417 Clouds 13 1014 65 10000 2.61 270 17:50 31.05.2022
3418 Clouds 13 1014 66 10000 3.47 273 16:56 31.05.2022
3419 Clouds 12 1014 68 10000 4.31 280 15:40 31.05.2022
3420 Clouds 12 1014 71 10000 6.13 270 13:52 31.05.2022
3421 Clouds 12 1015 77 10000 6.3 262 12:20 31.05.2022
3422 Clouds 12 1014 78 10000 6.1 264 10:55 31.05.2022
3423 Clouds 12 1014 81 10000 5.78 282 09:29 31.05.2022
3424 Clouds 12 1013 81 10000 6.6 277 07:24 31.05.2022
3425 Clouds 12 1013 82 10000 6.59 275 05:19 31.05.2022
3426 Clouds 12 1013 85 10000 4.53 270 00:52 31.05.2022
3427 Clouds 12 1013 84 10000 4.53 268 23:27 30.05.2022
3428 Clouds 12 1013 84 10000 4.53 268 22:56 30.05.2022
3429 Clouds 12 1012 84 10000 4.3 266 21:52 30.05.2022
3430 Clouds 12 1012 84 10000 4.3 266 21:32 30.05.2022
3431 Clouds 13 1011 80 10000 4.39 254 20:20 30.05.2022
3432 Clouds 13 1011 79 10000 4.76 227 18:41 30.05.2022
3433 Clouds 13 1011 77 10000 4.55 227 17:36 30.05.2022
3434 Rain 13 1011 79 10000 3.89 228 16:41 30.05.2022
3435 Rain 13 1011 74 10000 2.66 213 14:49 30.05.2022
3436 Clouds 13 1010 74 10000 2.27 218 12:24 30.05.2022
3437 Clouds 13 1010 76 10000 2.56 219 10:46 30.05.2022
3438 Clouds 12 1010 78 10000 2.73 211 09:38 30.05.2022
3439 Clouds 10 1009 87 10000 3.02 145 07:22 30.05.2022
3440 Clouds 10 1009 87 10000 2.8 149 05:49 30.05.2022
3441 Clouds 11 1009 84 10000 3.5 170 02:24 30.05.2022
3442 Rain 12 1009 80 10000 1.94 148 23:21 29.05.2022
3443 Clouds 12 1009 80 10000 1.94 148 22:38 29.05.2022
3444 Rain 12 1009 78 10000 0.6 118 21:19 29.05.2022
3445 Clouds 12 1009 80 10000 1.51 163 19:38 29.05.2022
3446 Clouds 12 1009 80 10000 1.11 183 19:18 29.05.2022
3447 Clouds 12 1009 79 10000 1.04 223 17:32 29.05.2022
3448 Clouds 12 1009 78 10000 3.22 261 15:49 29.05.2022
3449 Clouds 12 1009 79 10000 4.01 266 15:28 29.05.2022
3450 Clouds 12 1009 80 10000 4.87 264 14:23 29.05.2022
3451 Clouds 12 1010 82 10000 4.89 267 11:55 29.05.2022
3452 Clouds 12 1010 83 10000 5.31 278 10:42 29.05.2022
3453 Clouds 12 1009 84 10000 5.72 276 09:52 29.05.2022
3454 Clouds 12 1009 82 10000 4.16 253 06:57 29.05.2022
3455 Clouds 11 1009 85 10000 3.95 280 04:49 29.05.2022
3456 Clouds 11 1009 85 10000 3.95 280 04:31 29.05.2022
3457 Clouds 12 1009 83 10000 7.25 291 00:35 29.05.2022
3458 Clouds 12 1009 82 10000 7.39 292 23:42 28.05.2022
3459 Clouds 12 1009 79 10000 7.48 295 22:46 28.05.2022
3460 Clouds 13 1009 77 10000 7.67 294 21:45 28.05.2022
3461 Rain 13 1009 77 10000 7.85 293 20:30 28.05.2022
3462 Clouds 13 1008 73 10000 6.92 297 19:18 28.05.2022
3463 Clouds 13 1008 72 10000 6.91 289 18:19 28.05.2022
3464 Clouds 13 1008 71 10000 6.9 288 16:57 28.05.2022
3465 Rain 13 1009 70 10000 8.11 298 15:45 28.05.2022
3466 Rain 13 1008 71 10000 8.37 305 15:19 28.05.2022
3467 Clouds 12 1008 73 10000 10.76 309 13:27 28.05.2022
3468 Clouds 12 1008 73 10000 10.76 309 13:27 28.05.2022
3469 Clouds 12 1008 73 10000 10.76 309 12:42 28.05.2022
3470 Clouds 12 1007 78 10000 12.81 299 11:28 28.05.2022
3471 Clouds 12 1007 78 10000 12.81 299 10:34 28.05.2022
3472 Clouds 11 1007 80 10000 13.1 308 09:46 28.05.2022
3473 Rain 10 1006 83 10000 13.57 291 07:56 28.05.2022
3474 Rain 10 1006 75 10000 13.52 289 06:33 28.05.2022
3475 Clouds 10 1006 73 10000 13.8 291 04:43 28.05.2022
3476 Rain 10 1007 72 10000 14.77 286 01:46 28.05.2022
3477 Clouds 11 1008 70 10000 14.47 283 23:55 27.05.2022
3478 Clear 11 1008 69 10000 13.96 283 22:38 27.05.2022
3479 Clear 11 1008 69 10000 13.96 283 22:38 27.05.2022
3480 Clear 11 1009 72 10000 13.54 282 21:22 27.05.2022
3481 Clear 11 1009 72 10000 13.54 282 20:43 27.05.2022
3482 Clouds 12 1009 73 10000 13.43 283 20:18 27.05.2022
3483 Clouds 12 1008 72 10000 13.4 283 19:37 27.05.2022
3484 Clouds 12 1008 73 10000 13.08 285 19:19 27.05.2022
3485 Clouds 12 1008 73 10000 13.08 285 19:19 27.05.2022
3486 Clouds 12 1009 78 10000 12.98 284 16:53 27.05.2022
3487 Clouds 12 1009 78 10000 13.33 277 15:56 27.05.2022
3488 Rain 12 1009 77 10000 13.7 271 14:53 27.05.2022
3489 Rain 12 1009 74 10000 13.58 272 13:40 27.05.2022
3490 Rain 12 1010 71 10000 12.98 273 12:20 27.05.2022
3491 Clouds 12 1010 71 10000 12.98 273 11:30 27.05.2022
3492 Clouds 12 1010 72 10000 12.45 274 10:41 27.05.2022
3493 Clear 12 1010 70 10000 12.07 281 09:59 27.05.2022
3494 Clear 11 1010 70 10000 12.72 289 09:29 27.05.2022
3495 Clouds 11 1010 71 10000 13.11 291 07:39 27.05.2022
3496 Clouds 11 1010 71 10000 13.11 291 07:39 27.05.2022
3497 Clouds 12 1009 88 10000 11.47 252 03:59 27.05.2022
3498 Rain 12 1012 86 10000 9.38 248 01:27 27.05.2022
3499 Rain 13 1013 79 10000 9.8 264 23:23 26.05.2022
3500 Rain 13 1013 76 10000 9.77 272 22:22 26.05.2022
3501 Rain 13 1013 73 10000 10.19 274 21:27 26.05.2022
3502 Clouds 13 1013 72 10000 11.96 272 19:35 26.05.2022
3503 Clouds 13 1013 71 10000 12.48 272 18:51 26.05.2022
3504 Clouds 14 1013 70 10000 13.04 271 17:36 26.05.2022
3505 Clear 14 1013 70 10000 13.18 271 16:30 26.05.2022
3506 Clear 14 1013 69 10000 12.32 268 15:28 26.05.2022
3507 Clear 13 1013 72 10000 11.97 270 14:20 26.05.2022
3508 Clear 13 1013 78 10000 12.88 269 12:18 26.05.2022
3509 Clear 13 1012 79 10000 13.09 271 11:21 26.05.2022
3510 Clear 13 1011 82 10000 13 267 09:39 26.05.2022
3511 Clear 13 1011 80 10000 12.14 263 08:48 26.05.2022
3512 Clouds 13 1010 89 10000 12.34 246 06:47 26.05.2022
3513 Clouds 12 1011 89 10000 9.04 226 02:51 26.05.2022
3514 Rain 12 1012 86 10000 5.63 203 00:19 26.05.2022
3515 Clouds 13 1012 85 10000 4.46 216 22:58 25.05.2022
3516 Clouds 13 1013 85 10000 5.54 245 21:44 25.05.2022
3517 Clouds 13 1013 80 10000 6.05 254 20:50 25.05.2022
3518 Clouds 14 1012 77 10000 4.42 238 19:56 25.05.2022
3519 Clouds 14 1012 74 10000 3.7 233 18:48 25.05.2022
3520 Clouds 14 1012 75 10000 3.56 252 17:26 25.05.2022
3521 Clouds 14 1012 75 10000 3.56 252 16:35 25.05.2022
3522 Clouds 14 1012 76 10000 3.75 252 15:49 25.05.2022
3523 Clouds 13 1013 78 10000 4.36 257 14:51 25.05.2022
3524 Clouds 13 1013 78 10000 4.36 257 14:32 25.05.2022
3525 Clouds 13 1013 81 10000 4.96 264 13:27 25.05.2022
3526 Clouds 13 1013 82 10000 5.38 266 11:51 25.05.2022
3527 Clouds 13 1013 83 10000 5.14 259 10:42 25.05.2022
3528 Clouds 13 1012 83 10000 4.87 248 09:53 25.05.2022
3529 Clouds 12 1012 88 10000 5.02 234 08:22 25.05.2022
3530 Clouds 12 1011 89 10000 5.39 243 06:45 25.05.2022
3531 Clouds 12 1010 87 10000 6.09 243 02:55 25.05.2022
3532 Clouds 13 1009 90 10000 6.44 242 23:53 24.05.2022
3533 Clouds 13 1008 89 10000 6.06 245 23:23 24.05.2022
3534 Clouds 13 1008 88 10000 5.88 239 22:19 24.05.2022
3535 Clouds 13 1008 88 10000 5.88 239 21:38 24.05.2022
3536 Rain 13 1007 91 10000 4.71 209 21:19 24.05.2022
3537 Clouds 13 1006 91 10000 4.65 211 19:37 24.05.2022
3538 Clouds 13 1006 92 10000 5.28 243 18:50 24.05.2022
3539 Rain 13 1005 95 9030 9.27 262 16:41 24.05.2022
3540 Clouds 14 1004 85 10000 3.22 246 16:19 24.05.2022
3541 Clouds 14 1004 85 10000 3.22 246 16:19 24.05.2022
3542 Clouds 14 1003 85 10000 2.59 259 14:50 24.05.2022
3543 Clouds 14 1003 86 10000 4.79 257 13:52 24.05.2022
3544 Clouds 14 1003 89 10000 6.58 258 12:49 24.05.2022
3545 Clouds 14 1001 92 10000 6.69 262 10:46 24.05.2022
3546 Rain 13 1000 94 10000 7.65 259 09:43 24.05.2022
3547 Rain 13 999 97 4803 7.43 183 08:49 24.05.2022
3548 Clouds 12 999 95 6303 9.46 151 06:56 24.05.2022
3549 Clouds 14 1000 76 10000 11.73 135 03:56 24.05.2022
3550 Clouds 14 1001 73 10000 11.26 127 01:53 24.05.2022
3551 Clouds 14 1002 71 10000 11.43 128 01:33 24.05.2022
3552 Clouds 14 1004 75 10000 9.7 121 22:55 23.05.2022
3553 Clouds 14 1004 79 10000 9.89 108 21:55 23.05.2022
3554 Clouds 13 1005 79 10000 10.2 103 21:29 23.05.2022
3555 Clouds 13 1005 79 10000 10.2 103 20:35 23.05.2022
3556 Clouds 13 1005 80 10000 10.22 102 19:32 23.05.2022
3557 Clouds 14 1006 81 10000 9.71 101 18:58 23.05.2022
3558 Clouds 14 1006 81 10000 9.71 101 18:31 23.05.2022
3559 Clouds 15 1008 75 10000 8.52 100 17:24 23.05.2022
3560 Clouds 15 1008 70 10000 7.85 104 15:31 23.05.2022
3561 Clouds 15 1010 70 10000 7.24 116 13:22 23.05.2022
3562 Clouds 14 1011 72 10000 6.46 118 11:33 23.05.2022
3563 Clouds 14 1012 74 10000 5.3 129 10:42 23.05.2022
3564 Clouds 13 1012 76 10000 4.83 139 09:39 23.05.2022
3565 Clouds 13 1013 78 10000 4.96 150 08:38 23.05.2022
3566 Clouds 11 1013 82 10000 4.4 161 06:47 23.05.2022
3567 Clouds 11 1013 82 10000 4.35 165 06:22 23.05.2022
3568 Clouds 12 1014 75 10000 3.5 163 02:35 23.05.2022
3569 Clouds 12 1014 74 10000 2.6 179 01:46 23.05.2022
3570 Clouds 12 1015 74 10000 1.76 189 00:44 23.05.2022
3571 Clouds 12 1015 75 10000 2.12 240 22:43 22.05.2022
3572 Clouds 13 1015 76 10000 2.72 247 21:56 22.05.2022
3573 Clouds 13 1015 76 10000 2.72 247 21:36 22.05.2022
3574 Clouds 13 1015 78 10000 3.23 255 20:40 22.05.2022
3575 Clear 13 1015 79 10000 3.82 254 20:19 22.05.2022
3576 Clear 13 1015 79 10000 4.01 259 18:58 22.05.2022
3577 Clear 13 1015 79 10000 4.01 259 18:31 22.05.2022
3578 Clear 13 1015 80 10000 4.29 266 17:55 22.05.2022
3579 Clear 13 1015 81 10000 4.53 271 16:51 22.05.2022
3580 Clear 13 1016 80 10000 4.37 279 15:22 22.05.2022
3581 Clear 13 1016 80 10000 4.37 279 14:36 22.05.2022
3582 Clouds 13 1016 81 10000 5.9 294 12:54 22.05.2022
3583 Clouds 12 1016 82 10000 6.21 293 12:24 22.05.2022
3584 Clouds 12 1016 86 10000 5.69 290 10:38 22.05.2022
3585 Clouds 12 1015 88 10000 6.19 304 09:27 22.05.2022
3586 Clouds 12 1015 89 10000 6.49 303 07:44 22.05.2022
3587 Clouds 12 1015 89 10000 6.49 307 06:41 22.05.2022
3588 Clouds 12 1015 89 10000 8.08 307 04:18 22.05.2022
3589 Clouds 12 1015 82 10000 2.83 313 00:59 22.05.2022
3590 Clouds 12 1015 82 10000 2.78 328 23:57 21.05.2022
3591 Clouds 12 1015 83 10000 3.73 330 23:29 21.05.2022
3592 Clouds 12 1015 83 10000 4.7 321 21:59 21.05.2022
3593 Rain 12 1015 83 10000 4.7 321 21:37 21.05.2022
3594 Rain 12 1015 84 10000 5.8 308 20:47 21.05.2022
3595 Clouds 13 1014 80 10000 7.68 320 19:55 21.05.2022
3596 Rain 13 1013 78 10000 8.89 310 19:20 21.05.2022
3597 Rain 14 1012 79 10000 10.23 287 17:23 21.05.2022
3598 Rain 13 1012 80 10000 10.36 280 14:58 21.05.2022
3599 Clouds 13 1012 84 10000 9.44 275 14:24 21.05.2022
3600 Clouds 13 1012 84 10000 10.72 273 13:34 21.05.2022
3601 Clouds 13 1012 88 10000 11.6 263 12:39 21.05.2022
3602 Clouds 12 1012 91 10000 11.83 260 11:45 21.05.2022
3603 Clouds 12 1011 82 10000 11.79 275 10:22 21.05.2022
3604 Clouds 12 1011 79 10000 13.19 279 09:18 21.05.2022
3605 Clouds 12 1011 79 10000 13.19 279 08:39 21.05.2022
3606 Clouds 10 1009 83 10000 12.68 324 06:22 21.05.2022
3607 Rain 13 1004 91 7231 8.63 112 02:23 21.05.2022
3608 Rain 13 1007 86 10000 6.63 96 23:42 20.05.2022
3609 Rain 13 1008 86 10000 6.25 83 22:41 20.05.2022
3610 Rain 13 1011 86 10000 4.35 109 22:18 20.05.2022
3611 Clouds 13 1011 86 10000 4.36 94 21:27 20.05.2022
3612 Clouds 13 1011 86 10000 4.36 94 20:51 20.05.2022
3613 Clouds 13 1012 86 10000 1.92 78 19:55 20.05.2022
3614 Clouds 13 1014 87 10000 1.03 167 18:59 20.05.2022
3615 Clouds 13 1015 88 10000 1.4 218 18:27 20.05.2022
3616 Clouds 13 1015 88 10000 2.47 261 16:50 20.05.2022
3617 Clouds 13 1017 87 10000 3.84 272 15:55 20.05.2022
3618 Clouds 13 1017 87 10000 3.84 272 15:32 20.05.2022
3619 Clouds 13 1018 89 10000 5.44 276 14:28 20.05.2022
3620 Clouds 13 1018 89 10000 5.44 276 13:44 20.05.2022
3621 Clouds 13 1018 92 10000 6.37 285 10:56 20.05.2022
3622 Clouds 13 1018 94 10000 6.55 276 09:50 20.05.2022
3623 Clouds 13 1018 95 10000 6.69 269 08:38 20.05.2022
3624 Clouds 13 1017 98 10000 7.8 269 06:45 20.05.2022
3625 Clouds 13 1016 97 10000 7.54 269 06:21 20.05.2022
3626 Clouds 14 1015 98 4209 7.8 271 03:53 20.05.2022
3627 Clouds 15 1015 96 10000 5.59 242 23:54 19.05.2022
3628 Rain 15 1014 96 10000 3.59 255 22:44 19.05.2022
3629 Rain 15 1014 96 10000 5.71 264 21:53 19.05.2022
3630 Rain 17 1015 87 10000 7.43 238 21:25 19.05.2022
3631 Clouds 17 1015 87 10000 7.43 238 20:59 19.05.2022
3632 Clouds 18 1014 83 10000 3.87 212 20:21 19.05.2022
3633 Clouds 17 1015 85 10000 4.23 238 19:34 19.05.2022
3634 Clouds 18 1016 79 10000 4.51 213 17:59 19.05.2022
3635 Clouds 19 1017 74 10000 5.52 205 16:29 19.05.2022
3636 Clouds 19 1017 72 10000 5.64 201 14:52 19.05.2022
3637 Clouds 19 1018 74 10000 5.52 202 14:23 19.05.2022
3638 Clouds 18 1018 76 10000 5.44 203 12:35 19.05.2022
3639 Clouds 17 1019 79 10000 5.54 202 11:25 19.05.2022
3640 Clouds 16 1020 85 10000 5.55 186 08:59 19.05.2022
3641 Clouds 15 1020 86 10000 5.79 182 07:48 19.05.2022
3642 Clouds 14 1020 82 10000 5.98 181 04:50 19.05.2022
3643 Clouds 14 1021 76 10000 5.96 174 01:59 19.05.2022
3644 Clouds 14 1022 81 10000 6.12 169 23:55 18.05.2022
3645 Clouds 14 1022 80 10000 6.01 166 22:47 18.05.2022
3646 Clouds 15 1022 79 10000 6.03 156 21:47 18.05.2022
3647 Clouds 15 1022 80 10000 5.79 150 21:26 18.05.2022
3648 Clouds 15 1022 80 10000 5.79 150 20:41 18.05.2022
3649 Clouds 16 1022 79 10000 5.63 146 20:18 18.05.2022
3650 Clouds 16 1023 74 10000 5.46 144 18:28 18.05.2022
3651 Clouds 16 1023 74 10000 5.46 144 17:41 18.05.2022
3652 Clouds 16 1024 72 10000 5.48 149 17:23 18.05.2022
3653 Clouds 16 1024 72 10000 5.48 149 16:34 18.05.2022
3654 Clouds 16 1024 71 10000 5.56 156 15:41 18.05.2022
3655 Clouds 15 1025 69 10000 5.97 153 14:35 18.05.2022
3656 Clouds 15 1025 67 10000 6.55 148 13:41 18.05.2022
3657 Clouds 14 1026 67 10000 7.04 148 12:43 18.05.2022
3658 Clouds 13 1026 65 10000 7.44 148 11:34 18.05.2022
3659 Clouds 13 1026 65 10000 7.95 146 10:56 18.05.2022
3660 Clouds 12 1027 65 10000 8.01 145 09:50 18.05.2022
3661 Clouds 11 1027 68 10000 8.3 141 07:51 18.05.2022
3662 Clouds 10 1026 65 10000 9.03 141 06:41 18.05.2022
3663 Clouds 11 1026 67 10000 9.65 113 01:22 18.05.2022
3664 Clouds 11 1026 67 10000 9.69 107 00:23 18.05.2022
3665 Clouds 11 1025 67 10000 9.49 103 21:57 17.05.2022
3666 Clouds 11 1025 66 10000 9.73 98 21:20 17.05.2022
3667 Clouds 11 1025 66 10000 9.73 98 21:20 17.05.2022
3668 Clouds 12 1024 64 10000 9.67 94 20:22 17.05.2022
3669 Clouds 12 1024 69 10000 9.28 88 19:28 17.05.2022
3670 Clouds 12 1023 71 10000 8.85 87 17:52 17.05.2022
3671 Clouds 12 1023 71 10000 8.43 84 16:59 17.05.2022
3672 Clouds 12 1023 71 10000 8.43 84 16:31 17.05.2022
3673 Clouds 12 1023 72 10000 8.18 83 15:32 17.05.2022
3674 Clouds 12 1023 73 10000 8.04 82 14:31 17.05.2022
3675 Clouds 12 1023 74 10000 6.92 78 13:37 17.05.2022
3676 Clouds 13 1022 75 10000 6.46 78 11:58 17.05.2022
3677 Clouds 13 1022 77 10000 5.56 90 09:38 17.05.2022
3678 Clouds 12 1021 79 10000 5.37 95 08:43 17.05.2022
3679 Clouds 12 1020 83 10000 5.92 95 06:52 17.05.2022
3680 Clouds 12 1020 83 10000 5.82 86 04:24 17.05.2022
3681 Clouds 12 1020 79 10000 5.9 85 00:47 17.05.2022
3682 Clouds 12 1020 76 10000 4.18 103 22:44 16.05.2022
3683 Clouds 12 1020 76 10000 4.66 104 22:18 16.05.2022
3684 Clouds 12 1019 74 10000 5.05 107 20:49 16.05.2022
3685 Clouds 13 1018 73 10000 6.17 104 19:57 16.05.2022
3686 Clouds 13 1019 74 10000 5.42 97 18:32 16.05.2022
3687 Clouds 13 1020 70 10000 5.45 82 16:28 16.05.2022
3688 Clouds 13 1021 70 10000 4.59 71 14:42 16.05.2022
3689 Clouds 13 1021 69 10000 3.86 65 13:26 16.05.2022
3690 Clouds 12 1021 69 10000 2.86 58 11:34 16.05.2022
3691 Clouds 12 1021 73 10000 1.5 53 10:24 16.05.2022
3692 Clouds 11 1021 76 10000 0.74 50 07:34 16.05.2022
3693 Clouds 11 1021 79 10000 0.57 65 05:40 16.05.2022
3694 Clear 12 1021 77 10000 1.59 356 23:59 15.05.2022
3695 Clear 12 1021 76 10000 1.9 333 22:36 15.05.2022
3696 Clear 12 1021 77 10000 1.93 317 21:48 15.05.2022
3697 Clear 12 1021 77 10000 2.5 301 21:21 15.05.2022
3698 Clear 12 1021 80 10000 3.79 264 20:35 15.05.2022
3699 Clouds 12 1021 80 10000 4.53 266 18:30 15.05.2022
3700 Clouds 12 1022 81 10000 4.96 266 16:37 15.05.2022
3701 Clouds 12 1022 81 10000 4.98 269 14:18 15.05.2022
3702 Clouds 12 1022 81 10000 5.04 269 13:44 15.05.2022
3703 Clouds 11 1022 82 10000 4.73 278 11:55 15.05.2022
3704 Clouds 11 1022 83 10000 4.97 284 10:43 15.05.2022
3705 Clear 11 1022 84 10000 5.57 300 08:58 15.05.2022
3706 Clear 11 1021 83 10000 6.19 300 07:22 15.05.2022
3707 Clear 11 1021 83 10000 6.19 300 06:42 15.05.2022
3708 Clear 11 1020 82 10000 6.47 306 02:43 15.05.2022
3709 Clouds 11 1020 81 10000 6.6 298 00:22 15.05.2022
3710 Clouds 11 1020 81 10000 6.6 298 23:36 14.05.2022
3711 Clouds 12 1019 78 10000 7.56 302 21:45 14.05.2022
3712 Clouds 12 1019 77 10000 8.14 298 21:25 14.05.2022
3713 Clouds 12 1018 75 10000 8.12 298 20:26 14.05.2022
3714 Clouds 12 1018 73 10000 8.12 298 19:20 14.05.2022
3715 Clouds 12 1018 73 10000 8.12 298 18:57 14.05.2022
3716 Clouds 13 1017 74 10000 8.24 305 17:44 14.05.2022
3717 Clouds 13 1017 75 10000 9.96 282 15:58 14.05.2022
3718 Clouds 13 1016 78 10000 10.15 275 14:38 14.05.2022
3719 Clouds 13 1016 78 10000 10.15 275 14:38 14.05.2022
3720 Clouds 12 1016 82 10000 10.46 272 13:27 14.05.2022
3721 Clouds 12 1016 85 10000 10.79 271 11:45 14.05.2022
3722 Clouds 12 1015 86 10000 11.35 271 10:44 14.05.2022
3723 Clouds 12 1015 87 10000 11.76 268 10:18 14.05.2022
3724 Clouds 12 1014 88 10000 11.79 265 09:23 14.05.2022
3725 Clouds 11 1014 89 10000 11.73 262 07:34 14.05.2022
3726 Clouds 11 1014 86 10000 11.4 250 04:43 14.05.2022
3727 Clouds 11 1015 87 10000 10.39 258 00:43 14.05.2022
3728 Clouds 12 1015 85 10000 10.42 265 23:28 13.05.2022
3729 Clouds 12 1015 85 10000 10.42 265 22:55 13.05.2022
3730 Clouds 12 1015 84 10000 10.27 267 22:21 13.05.2022
3731 Clouds 12 1015 82 10000 10.64 269 20:59 13.05.2022
3732 Clouds 12 1015 82 10000 10.64 269 20:40 13.05.2022
3733 Clouds 12 1014 81 10000 10.27 269 20:21 13.05.2022
3734 Clouds 12 1014 80 10000 10.29 269 19:18 13.05.2022
3735 Clouds 12 1013 79 10000 9.75 265 17:47 13.05.2022
3736 Clouds 12 1013 79 10000 9.7 263 17:23 13.05.2022
3737 Clouds 12 1013 78 10000 9.51 259 15:48 13.05.2022
3738 Clouds 12 1014 81 10000 8.35 252 14:45 13.05.2022
3739 Clouds 11 1014 86 10000 8.68 268 12:54 13.05.2022
3740 Clouds 12 1013 78 10000 8.14 251 12:20 13.05.2022
3741 Clouds 11 1013 81 10000 6.89 224 10:23 13.05.2022
3742 Clouds 11 1014 82 10000 6.16 229 09:29 13.05.2022
3743 Clouds 11 1014 82 10000 6.09 243 07:59 13.05.2022
3744 Clouds 11 1014 83 10000 6.91 242 07:30 13.05.2022
3745 Clouds 10 1014 85 10000 7.57 253 05:46 13.05.2022
3746 Clouds 11 1014 86 10000 7.67 252 01:37 13.05.2022
3747 Clouds 11 1015 82 10000 7.74 255 23:43 12.05.2022
3748 Clouds 12 1015 80 10000 7.75 255 22:42 12.05.2022
3749 Clouds 12 1015 78 10000 7.64 261 21:36 12.05.2022
3750 Clear 12 1014 74 10000 8.51 273 20:22 12.05.2022
3751 Clear 13 1014 74 10000 8.71 270 18:30 12.05.2022
3752 Clear 13 1014 74 10000 8.35 258 16:52 12.05.2022
3753 Clear 12 1014 75 10000 8.02 260 15:30 12.05.2022
3754 Clear 12 1014 78 10000 10.18 268 13:58 12.05.2022
3755 Clear 12 1014 79 10000 10.99 267 13:21 12.05.2022
3756 Clear 12 1012 80 10000 10.81 275 10:35 12.05.2022
3757 Clear 11 1010 86 10000 10.04 283 08:58 12.05.2022
3758 Clear 11 1010 86 10000 10.04 283 08:39 12.05.2022
3759 Clouds 11 1009 86 10000 9.54 283 07:37 12.05.2022
3760 Rain 11 1006 92 10000 10.37 264 05:30 12.05.2022
3761 Rain 11 1006 86 10000 3.25 250 02:21 12.05.2022
3762 Rain 11 1006 87 10000 2.55 21 23:55 11.05.2022
3763 Clouds 12 1007 87 10000 3.59 347 22:31 11.05.2022
3764 Clouds 12 1007 86 10000 2.46 315 21:32 11.05.2022
3765 Clouds 12 1007 87 10000 1.61 306 20:52 11.05.2022
3766 Clouds 13 1007 85 10000 6.4 280 17:56 11.05.2022
3767 Clouds 14 1007 80 10000 7.27 254 16:50 11.05.2022
3768 Clouds 14 1008 82 10000 5.99 232 14:50 11.05.2022
3769 Clouds 14 1009 86 10000 7.21 222 14:26 11.05.2022
3770 Clouds 14 1009 87 10000 6.86 230 13:51 11.05.2022
3771 Clouds 13 1010 89 10000 5.91 204 11:51 11.05.2022
3772 Clouds 12 1011 87 10000 4.91 197 10:27 11.05.2022
3773 Clouds 12 1011 87 10000 4.73 204 08:33 11.05.2022
3774 Clouds 11 1011 91 10000 4.53 261 05:19 11.05.2022
3775 Clouds 13 1013 96 10000 5.32 217 00:42 11.05.2022
3776 Rain 12 1013 97 10000 2.91 190 22:30 10.05.2022
3777 Rain 13 1014 95 10000 3.62 233 21:55 10.05.2022
3778 Rain 13 1013 87 10000 2.83 269 20:56 10.05.2022
3779 Rain 14 1013 86 10000 7.08 280 19:27 10.05.2022
3780 Clouds 16 1013 77 10000 5.56 213 17:54 10.05.2022
3781 Clouds 16 1014 75 10000 6.03 210 17:21 10.05.2022
3782 Clouds 17 1015 71 10000 6.7 200 15:28 10.05.2022
3783 Clouds 16 1017 71 10000 7.4 186 12:39 10.05.2022
3784 Clouds 15 1018 72 10000 7.38 184 11:50 10.05.2022
3785 Clouds 14 1018 74 10000 7.36 182 11:20 10.05.2022
3786 Clouds 13 1019 76 10000 7.22 178 10:26 10.05.2022
3787 Clouds 13 1019 77 10000 7.26 179 09:25 10.05.2022
3788 Clouds 11 1020 81 10000 7.78 175 06:54 10.05.2022
3789 Clouds 11 1022 77 10000 7.75 169 03:57 10.05.2022
3790 Clouds 11 1024 80 10000 6.01 158 00:57 10.05.2022
3791 Clouds 11 1025 78 10000 6.48 131 22:56 09.05.2022
3792 Clouds 11 1026 77 10000 6.95 124 21:51 09.05.2022
3793 Clear 11 1026 76 10000 6.89 119 20:54 09.05.2022
3794 Clouds 12 1026 72 10000 6.85 112 19:23 09.05.2022
3795 Clouds 12 1027 70 10000 6.83 111 17:51 09.05.2022
3796 Clouds 13 1028 68 10000 6.8 107 16:38 09.05.2022
3797 Clouds 13 1028 65 10000 6.62 108 15:52 09.05.2022
3798 Clouds 13 1029 63 10000 6.44 108 15:24 09.05.2022
3799 Clouds 13 1029 63 10000 6.2 109 14:31 09.05.2022
3800 Clouds 13 1030 62 10000 6.02 111 13:50 09.05.2022
3801 Clouds 12 1030 62 10000 5.07 124 12:26 09.05.2022
3802 Clouds 12 1030 62 10000 5.07 124 11:37 09.05.2022
3803 Clouds 12 1030 63 10000 4.85 133 10:43 09.05.2022
3804 Clouds 11 1030 66 10000 5.48 141 08:51 09.05.2022
3805 Clouds 10 1030 69 10000 5.58 137 07:54 09.05.2022
3806 Clouds 9 1030 75 10000 5.18 120 03:36 09.05.2022
3807 Clouds 9 1029 84 10000 4.82 109 00:20 09.05.2022
3808 Clouds 10 1029 83 10000 4.55 105 22:56 08.05.2022
3809 Clouds 10 1029 80 10000 4.44 98 21:56 08.05.2022
3810 Clouds 10 1028 75 10000 3.68 89 20:37 08.05.2022
3811 Clouds 11 1027 76 10000 3.8 76 19:45 08.05.2022
3812 Clear 11 1027 71 10000 1.75 35 18:57 08.05.2022
3813 Clear 11 1027 70 10000 1.4 338 18:19 08.05.2022
3814 Clear 11 1027 69 10000 1.83 310 16:56 08.05.2022
3815 Clear 11 1026 70 10000 2.68 303 15:40 08.05.2022
3816 Clear 10 1026 71 10000 3.25 302 15:20 08.05.2022
3817 Clear 10 1026 71 10000 3.25 302 15:20 08.05.2022
3818 Clouds 10 1026 71 10000 3.89 301 12:39 08.05.2022
3819 Clouds 9 1026 74 10000 4.53 303 10:32 08.05.2022
3820 Clouds 9 1025 76 10000 4.79 304 09:59 08.05.2022
3821 Clouds 9 1025 76 10000 4.79 304 09:31 08.05.2022
3822 Clouds 8 1024 72 10000 5.07 297 07:33 08.05.2022
3823 Clouds 9 1023 71 10000 6.23 312 04:20 08.05.2022
3824 Clouds 9 1023 71 10000 6 315 03:19 08.05.2022
3825 Clouds 11 1023 76 10000 5.45 319 00:28 08.05.2022
3826 Clouds 11 1023 76 10000 5.45 319 23:53 07.05.2022
3827 Clouds 11 1022 75 10000 5.16 319 22:51 07.05.2022
3828 Clouds 11 1022 75 10000 5.16 319 22:33 07.05.2022
3829 Clouds 11 1022 74 10000 5.01 312 21:43 07.05.2022
3830 Clouds 12 1022 79 10000 4.68 305 20:55 07.05.2022
3831 Clouds 12 1021 82 10000 5.67 272 19:58 07.05.2022
3832 Clouds 12 1021 81 10000 4.32 254 17:51 07.05.2022
3833 Clouds 12 1021 83 10000 4.4 285 15:53 07.05.2022
3834 Clouds 11 1021 92 10000 5.61 283 14:20 07.05.2022
3835 Clouds 11 1021 90 10000 5.62 275 10:59 07.05.2022
3836 Clouds 11 1021 90 10000 6.12 273 09:38 07.05.2022
3837 Clouds 11 1020 90 10000 6.03 267 07:52 07.05.2022
3838 Clouds 11 1020 90 10000 5.73 264 06:44 07.05.2022
3839 Clouds 11 1020 90 10000 4.93 253 05:22 07.05.2022
3840 Clouds 11 1020 89 10000 4.67 245 03:32 07.05.2022
3841 Clouds 11 1021 83 10000 4.58 211 23:38 06.05.2022
3842 Clouds 12 1022 80 10000 4.2 212 22:32 06.05.2022
3843 Clouds 12 1022 78 10000 3.36 221 21:45 06.05.2022
3844 Clouds 12 1022 78 10000 2.94 246 20:35 06.05.2022
3845 Clouds 12 1022 77 10000 3.33 252 19:41 06.05.2022
3846 Clouds 12 1022 74 10000 2.95 251 19:18 06.05.2022
3847 Clouds 12 1022 70 10000 3.24 256 18:23 06.05.2022
3848 Clouds 12 1023 70 10000 3.26 256 16:57 06.05.2022
3849 Clear 11 1023 71 10000 3.13 256 15:47 06.05.2022
3850 Clear 11 1024 73 10000 3.38 257 14:54 06.05.2022
3851 Clear 10 1024 72 10000 3.35 266 13:26 06.05.2022
3852 Clear 10 1024 72 10000 3.35 266 12:40 06.05.2022
3853 Clear 10 1024 73 10000 3.25 277 11:45 06.05.2022
3854 Clear 10 1024 73 10000 3.24 290 10:30 06.05.2022
3855 Clouds 10 1024 74 10000 3.82 296 09:46 06.05.2022
3856 Clouds 10 1024 75 10000 4.25 297 08:33 06.05.2022
3857 Clouds 10 1023 82 10000 3.78 302 06:50 06.05.2022
3858 Clouds 10 1023 83 10000 3.94 309 05:37 06.05.2022
3859 Clouds 11 1023 83 10000 5.17 277 02:50 06.05.2022
3860 Clouds 11 1023 82 10000 5.01 270 01:31 06.05.2022
3861 Clear 11 1023 84 10000 4.42 282 22:32 05.05.2022
3862 Clear 11 1022 84 10000 4.86 268 21:22 05.05.2022
3863 Clouds 11 1022 81 10000 5.18 263 19:55 05.05.2022
3864 Clouds 10 1021 78 10000 5.68 264 18:35 05.05.2022
3865 Clouds 10 1021 77 10000 5.78 265 16:35 05.05.2022
3866 Clouds 10 1021 80 10000 4.34 279 14:51 05.05.2022
3867 Clouds 10 1021 80 10000 4.2 299 13:24 05.05.2022
3868 Clouds 10 1021 80 10000 4.2 299 12:53 05.05.2022
3869 Clouds 9 1020 82 10000 4.43 303 10:52 05.05.2022
3870 Clouds 9 1020 83 10000 4.81 304 09:40 05.05.2022
3871 Clouds 9 1019 82 10000 4.93 297 07:36 05.05.2022
3872 Clouds 9 1018 82 10000 3.71 290 05:42 05.05.2022
3873 Clouds 10 1018 74 10000 3.67 307 02:18 05.05.2022
3874 Clouds 10 1018 74 10000 3.23 288 01:32 05.05.2022
3875 Clouds 10 1018 78 10000 1.9 293 23:53 04.05.2022
3876 Clouds 10 1018 81 10000 1.09 289 22:46 04.05.2022
3877 Clouds 10 1018 81 10000 0.38 276 21:54 04.05.2022
3878 Clouds 11 1018 80 10000 0.11 31 21:29 04.05.2022
3879 Clouds 11 1018 80 10000 0.11 31 20:30 04.05.2022
3880 Clouds 11 1017 81 10000 1.94 94 19:55 04.05.2022
3881 Clouds 11 1017 79 10000 2.04 86 19:24 04.05.2022
3882 Clouds 11 1017 79 10000 2.12 85 18:22 04.05.2022
3883 Clouds 11 1017 79 10000 2.12 85 17:58 04.05.2022
3884 Clouds 11 1018 78 10000 2.44 80 15:57 04.05.2022
3885 Clouds 11 1018 78 10000 2.44 80 15:30 04.05.2022
3886 Clouds 11 1018 75 10000 2.5 46 14:21 04.05.2022
3887 Clouds 11 1018 75 10000 2.88 55 13:50 04.05.2022
3888 Clouds 11 1019 74 10000 1.83 42 12:34 04.05.2022
3889 Clouds 10 1019 77 10000 1.36 151 10:57 04.05.2022
3890 Clouds 10 1019 78 10000 2.31 160 09:46 04.05.2022
3891 Clouds 9 1019 81 10000 2.86 162 08:49 04.05.2022
3892 Clouds 8 1019 83 10000 3.72 167 07:33 04.05.2022
3893 Clouds 7 1019 84 10000 3.55 161 03:50 04.05.2022
3894 Clouds 8 1018 80 10000 3.41 153 01:41 04.05.2022
3895 Clouds 8 1018 73 10000 2.2 156 22:54 03.05.2022
3896 Clouds 9 1018 74 10000 1.37 167 21:47 03.05.2022
3897 Clouds 9 1017 75 10000 0.83 220 21:21 03.05.2022
3898 Clouds 9 1017 75 10000 0.83 220 21:21 03.05.2022
3899 Clouds 9 1017 75 10000 0.83 220 20:38 03.05.2022
3900 Clouds 9 1017 70 10000 1.53 273 19:21 03.05.2022
3901 Clouds 9 1017 70 10000 1.53 273 18:42 03.05.2022
3902 Clouds 9 1017 71 10000 3.65 268 17:20 03.05.2022
3903 Clouds 9 1017 71 10000 3.65 268 17:20 03.05.2022
3904 Clouds 9 1017 72 10000 4.54 272 15:51 03.05.2022
3905 Clouds 9 1017 73 10000 4.35 275 14:23 03.05.2022
3906 Clouds 9 1017 73 10000 4.82 273 12:35 03.05.2022
3907 Clouds 9 1017 82 10000 4.74 313 11:24 03.05.2022
3908 Clouds 9 1016 88 10000 4.95 299 10:26 03.05.2022
3909 Clouds 10 1015 90 10000 6.13 269 08:19 03.05.2022
3910 Clouds 9 1015 90 10000 6.37 265 06:45 03.05.2022
3911 Clouds 9 1015 83 10000 5.85 278 01:59 03.05.2022
3912 Clouds 10 1016 75 10000 6.08 273 22:56 02.05.2022
3913 Clouds 10 1017 75 10000 5.51 267 22:28 02.05.2022
3914 Clouds 10 1017 75 10000 5.51 267 21:37 02.05.2022
3915 Clouds 10 1016 74 10000 5.95 266 19:26 02.05.2022
3916 Clouds 10 1017 72 10000 6.19 269 18:26 02.05.2022
3917 Clouds 10 1017 72 10000 6.19 269 17:39 02.05.2022
3918 Clouds 10 1017 71 10000 6.16 268 16:42 02.05.2022
3919 Clear 10 1018 75 10000 6.76 267 15:41 02.05.2022
3920 Clear 10 1018 74 10000 5.85 263 14:45 02.05.2022
3921 Clouds 10 1019 72 10000 4.64 263 13:42 02.05.2022
3922 Clouds 10 1020 72 10000 4.11 275 11:41 02.05.2022
3923 Clouds 9 1020 74 10000 3.98 262 09:45 02.05.2022
3924 Clouds 8 1021 77 10000 3.73 252 08:29 02.05.2022
3925 Clouds 8 1021 78 10000 3.47 238 06:56 02.05.2022
3926 Clouds 9 1022 78 10000 1.05 278 00:47 02.05.2022
3927 Clouds 9 1022 78 10000 1.05 278 00:47 02.05.2022
3928 Clouds 9 1022 77 10000 1.14 279 00:22 02.05.2022
3929 Clouds 9 1022 77 10000 1.17 283 22:55 01.05.2022
3930 Clouds 9 1022 77 10000 1.51 284 21:45 01.05.2022
3931 Clouds 9 1022 75 10000 2.07 298 20:50 01.05.2022
3932 Clouds 10 1022 72 10000 2.95 294 19:27 01.05.2022
3933 Clouds 10 1022 72 10000 2.95 294 18:53 01.05.2022
3934 Clouds 10 1022 70 10000 2.63 292 17:51 01.05.2022
3935 Clouds 10 1022 70 10000 2.27 304 16:38 01.05.2022
3936 Clouds 9 1022 72 10000 2.35 318 16:18 01.05.2022
3937 Clouds 9 1023 75 10000 2.58 333 14:54 01.05.2022
3938 Clouds 9 1023 72 10000 2.75 330 12:52 01.05.2022
3939 Clouds 9 1023 74 10000 3.13 324 10:36 01.05.2022
3940 Clouds 9 1023 79 10000 3.27 303 08:50 01.05.2022
3941 Clouds 8 1022 80 10000 3.06 263 06:50 01.05.2022
3942 Clouds 9 1022 78 10000 3.15 305 02:46 01.05.2022
3943 Clouds 9 1023 74 10000 3.84 281 22:51 30.04.2022
3944 Clouds 9 1023 74 10000 3.84 281 22:51 30.04.2022
3945 Clouds 9 1023 75 10000 3.7 273 21:33 30.04.2022
3946 Clouds 9 1023 75 10000 3.7 273 21:33 30.04.2022
3947 Clouds 9 1023 79 10000 3.78 272 20:22 30.04.2022
3948 Clouds 9 1023 79 10000 3.78 272 19:31 30.04.2022
3949 Clouds 10 1023 79 10000 3.81 277 17:37 30.04.2022
3950 Clouds 10 1023 78 10000 3.15 290 16:28 30.04.2022
3951 Clouds 10 1024 78 10000 3.13 295 15:19 30.04.2022
3952 Clouds 10 1024 78 10000 3.13 295 14:30 30.04.2022
3953 Clouds 9 1024 78 10000 2.41 277 11:59 30.04.2022
3954 Clouds 9 1024 78 10000 2.41 277 11:32 30.04.2022
3955 Clouds 9 1025 79 10000 2.4 265 10:30 30.04.2022
3956 Clouds 9 1025 82 10000 1.81 247 08:26 30.04.2022
3957 Clouds 8 1025 77 10000 1.99 265 04:58 30.04.2022
3958 Clouds 8 1026 69 10000 2.77 200 00:34 30.04.2022
3959 Clouds 8 1027 70 10000 2.4 181 23:29 29.04.2022
3960 Clouds 8 1027 73 10000 1.41 178 22:29 29.04.2022
3961 Clouds 8 1027 76 10000 0.59 245 21:26 29.04.2022
3962 Clouds 8 1027 76 10000 0.59 245 20:36 29.04.2022
3963 Clouds 8 1026 74 10000 1.7 290 19:33 29.04.2022
3964 Clouds 9 1027 72 10000 2.97 280 17:48 29.04.2022
3965 Clouds 9 1027 72 10000 3.2 280 16:43 29.04.2022
3966 Clouds 9 1028 76 10000 3.05 283 14:38 29.04.2022
3967 Clouds 9 1028 79 10000 3.37 287 14:19 29.04.2022
3968 Clouds 9 1029 79 10000 3.72 290 12:41 29.04.2022
3969 Clouds 9 1029 73 10000 2.64 275 10:57 29.04.2022
3970 Clouds 10 1028 76 10000 0.29 195 08:18 29.04.2022
3971 Clouds 7 1028 79 10000 0.98 316 07:27 29.04.2022
3972 Clouds 7 1028 79 10000 0.98 316 06:35 29.04.2022
3973 Clouds 7 1028 84 10000 3.63 325 03:28 29.04.2022
3974 Clouds 8 1028 84 10000 4.55 276 00:18 29.04.2022
3975 Clouds 9 1028 79 10000 4.65 256 23:26 28.04.2022
3976 Clouds 10 1028 79 10000 4.65 256 22:40 28.04.2022
3977 Clear 8 1028 76 10000 4.59 253 21:46 28.04.2022
3978 Clear 9 1028 74 10000 4.88 260 20:55 28.04.2022
3979 Clouds 9 1028 73 10000 5.01 261 20:22 28.04.2022
3980 Clouds 9 1027 74 10000 5.08 259 19:40 28.04.2022
3981 Clouds 9 1027 74 10000 5.34 261 19:21 28.04.2022
3982 Clouds 9 1027 81 10000 5.62 262 18:23 28.04.2022
3983 Clouds 9 1028 84 10000 5.18 267 16:59 28.04.2022
3984 Clouds 9 1028 82 10000 4.19 273 16:22 28.04.2022
3985 Clouds 9 1028 82 10000 4.19 273 15:57 28.04.2022
3986 Clouds 9 1028 80 10000 3.64 284 15:27 28.04.2022
3987 Clouds 9 1028 77 10000 3.34 285 13:44 28.04.2022
3988 Clouds 12 1028 75 10000 2.53 289 12:42 28.04.2022
3989 Clouds 11 1028 72 10000 1.4 301 11:56 28.04.2022
3990 Clouds 10 1028 72 10000 0.48 4 10:44 28.04.2022
3991 Clouds 10 1028 73 10000 0.86 91 09:52 28.04.2022
3992 Clouds 9 1028 74 10000 1.56 95 08:30 28.04.2022
3993 Clouds 8 1027 75 10000 1.85 82 06:59 28.04.2022
3994 Clouds 7 1027 76 10000 2 67 05:55 28.04.2022
3995 Clouds 7 1027 76 10000 2 67 05:37 28.04.2022
3996 Clouds 6 1027 75 10000 1.94 56 04:38 28.04.2022
3997 Clouds 7 1027 79 10000 2.95 108 00:22 28.04.2022
3998 Clouds 7 1027 81 10000 3.71 100 22:39 27.04.2022
3999 Clouds 7 1026 83 10000 4.14 90 21:54 27.04.2022
4000 Clear 8 1026 82 10000 3.83 81 20:59 27.04.2022
4001 Clear 8 1026 82 10000 3.83 81 20:37 27.04.2022
4002 Clouds 8 1025 82 10000 3.13 62 19:37 27.04.2022
4003 Clouds 8 1025 80 10000 2.68 42 19:18 27.04.2022
4004 Clouds 9 1025 78 10000 2.76 23 18:22 27.04.2022
4005 Clouds 9 1025 77 10000 3.05 8 16:58 27.04.2022
4006 Clouds 9 1025 76 10000 3.12 356 14:33 27.04.2022
4007 Clouds 8 1025 79 10000 4.02 55 12:23 27.04.2022
4008 Clouds 8 1024 80 10000 4.2 58 11:20 27.04.2022
4009 Clouds 8 1024 81 10000 4.35 51 09:43 27.04.2022
4010 Clouds 7 1022 85 10000 3.49 332 07:18 27.04.2022
4011 Clouds 6 1021 79 10000 3.3 325 04:45 27.04.2022
4012 Clouds 7 1021 72 10000 1.92 315 01:34 27.04.2022
4013 Clouds 8 1020 72 10000 1.74 326 00:38 27.04.2022
4014 Clouds 8 1020 70 10000 2.12 337 23:40 26.04.2022
4015 Clouds 8 1020 69 10000 2.62 345 23:22 26.04.2022
4016 Clouds 9 1020 69 10000 2.62 345 22:41 26.04.2022
4017 Clouds 9 1019 70 10000 2.65 348 21:37 26.04.2022
4018 Clouds 9 1019 71 10000 2.52 323 20:53 26.04.2022
4019 Clouds 9 1019 71 10000 2.52 323 20:33 26.04.2022
4020 Clear 8 1018 71 10000 2.71 283 19:32 26.04.2022
4021 Clear 9 1018 71 10000 2.94 280 18:51 26.04.2022
4022 Clear 9 1018 69 10000 2.87 287 18:18 26.04.2022
4023 Clear 9 1017 68 10000 2.94 302 17:22 26.04.2022
4024 Clear 9 1017 68 10000 3.07 308 14:46 26.04.2022
4025 Clouds 9 1017 69 10000 3.38 306 13:34 26.04.2022
4026 Clouds 8 1017 70 10000 2.95 288 12:22 26.04.2022
4027 Clouds 8 1017 71 10000 2.52 287 10:46 26.04.2022
4028 Clouds 12 1017 73 10000 2.59 298 09:41 26.04.2022
4029 Clear 6 1016 76 10000 3.3 286 07:59 26.04.2022
4030 Clear 5 1016 80 10000 3.02 246 04:37 26.04.2022
4031 Clouds 5 1015 77 10000 2.58 268 02:20 26.04.2022
4032 Clouds 6 1015 74 10000 3.04 277 00:26 26.04.2022
4033 Clouds 7 1015 72 10000 3.34 272 22:50 25.04.2022
4034 Clouds 8 1015 70 10000 3.14 274 21:44 25.04.2022
4035 Clouds 8 1015 70 10000 2.24 277 20:46 25.04.2022
4036 Clouds 7 1014 72 10000 1.07 303 19:39 25.04.2022
4037 Clouds 7 1014 70 10000 2.08 356 18:25 25.04.2022
4038 Clouds 7 1014 70 10000 2.08 356 17:32 25.04.2022
4039 Clouds 7 1014 73 10000 2.89 8 15:38 25.04.2022
4040 Clouds 7 1014 74 10000 3.05 19 15:18 25.04.2022
4041 Clouds 7 1014 75 10000 3.42 29 13:43 25.04.2022
4042 Clouds 6 1013 77 10000 4.6 39 11:53 25.04.2022
4043 Clouds 6 1013 77 10000 5.76 46 10:27 25.04.2022
4044 Clouds 10 1012 77 10000 6.42 43 09:20 25.04.2022
4045 Clouds 6 1012 79 10000 6.9 48 07:19 25.04.2022
4046 Clouds 5 1011 81 10000 7.31 55 05:32 25.04.2022
4047 Clouds 6 1011 86 10000 10.02 63 01:24 25.04.2022
4048 Clouds 6 1011 85 10000 10.53 63 23:53 24.04.2022
4049 Clouds 7 1011 85 10000 11.16 64 22:53 24.04.2022
4050 Clouds 7 1011 85 10000 11.16 64 22:32 24.04.2022
4051 Clouds 7 1011 85 10000 11.66 67 21:54 24.04.2022
4052 Clouds 7 1011 85 10000 11.88 68 21:20 24.04.2022
4053 Clouds 7 1011 85 10000 11.88 68 20:38 24.04.2022
4054 Clouds 8 1010 86 10000 12.22 66 19:50 24.04.2022
4055 Clouds 9 1009 86 10000 12.25 67 18:28 24.04.2022
4056 Clouds 9 1009 86 10000 12.25 67 17:40 24.04.2022
4057 Clouds 9 1009 86 10000 11.76 69 17:19 24.04.2022
4058 Clouds 9 1009 86 10000 11.76 69 16:48 24.04.2022
4059 Clouds 10 1010 86 10000 11.26 69 16:20 24.04.2022
4060 Clouds 10 1010 86 10000 11.26 69 15:32 24.04.2022
4061 Clouds 10 1010 86 10000 11.03 70 14:30 24.04.2022
4062 Clouds 10 1010 88 10000 10.67 67 13:26 24.04.2022
4063 Clouds 10 1010 88 10000 10.67 67 12:37 24.04.2022
4064 Clouds 11 1010 86 10000 10.34 68 11:39 24.04.2022
4065 Clouds 10 1010 86 10000 10.07 69 10:32 24.04.2022
4066 Clouds 9 1010 86 10000 10.56 69 09:39 24.04.2022
4067 Clouds 8 1010 87 10000 10.18 64 07:39 24.04.2022
4068 Clouds 7 1010 85 10000 9.6 58 04:56 24.04.2022
4069 Clouds 7 1011 83 10000 8.15 52 01:50 24.04.2022
4070 Clouds 7 1011 82 10000 7.6 55 00:33 24.04.2022
4071 Clouds 7 1011 82 10000 5.74 56 23:45 23.04.2022
4072 Clear 7 1012 83 10000 5.09 63 23:22 23.04.2022
4073 Clear 8 1012 83 10000 4.96 69 21:55 23.04.2022
4074 Clear 8 1012 83 10000 4.96 69 21:35 23.04.2022
4075 Clear 7 1012 83 10000 4.89 71 20:57 23.04.2022
4076 Clouds 7 1012 83 10000 4.67 70 19:54 23.04.2022
4077 Clouds 7 1012 81 10000 4.57 75 19:19 23.04.2022
4078 Clouds 7 1012 81 10000 4.57 75 18:53 23.04.2022
4079 Clouds 7 1012 81 10000 5.42 67 18:28 23.04.2022
4080 Clouds 7 1012 81 10000 5.42 67 17:43 23.04.2022
4081 Clouds 7 1013 82 10000 5.92 63 16:43 23.04.2022
4082 Clouds 7 1013 84 10000 6.26 59 15:32 23.04.2022
4083 Clear 7 1015 86 10000 6.47 58 12:50 23.04.2022
4084 Clear 7 1015 86 10000 6.23 57 10:52 23.04.2022
4085 Clear 12 1015 85 10000 5.98 63 09:38 23.04.2022
4086 Clear 7 1015 86 10000 5.93 68 07:38 23.04.2022
4087 Clear 7 1015 87 10000 6.86 78 03:54 23.04.2022
4088 Clear 7 1015 85 10000 8.13 80 01:55 23.04.2022
4089 Clear 8 1015 83 10000 8.96 76 23:33 22.04.2022
4090 Clear 8 1015 83 10000 9.41 70 22:28 22.04.2022
4091 Clear 9 1015 83 10000 9.41 70 21:44 22.04.2022
4092 Clear 10 1014 83 10000 9.63 74 20:55 22.04.2022
4093 Clear 11 1014 83 10000 10.19 75 20:28 22.04.2022
4094 Clouds 8 1014 84 10000 9.32 72 19:22 22.04.2022
4095 Clouds 8 1014 84 10000 9.32 72 18:52 22.04.2022
4096 Clear 14 1014 85 10000 9.2 73 17:54 22.04.2022
4097 Clear 15 1014 85 10000 9.1 72 16:52 22.04.2022
4098 Clear 15 1014 84 10000 9.14 73 15:47 22.04.2022
4099 Clouds 9 1014 85 10000 8.87 67 15:22 22.04.2022
4100 Clouds 8 1014 87 10000 8.86 63 13:54 22.04.2022
4101 Clouds 8 1014 88 10000 8.86 62 13:27 22.04.2022
4102 Clouds 8 1014 88 10000 8.86 62 12:30 22.04.2022
4103 Clouds 7 1015 88 10000 8.79 64 11:23 22.04.2022
4104 Clouds 12 1015 88 10000 8.79 64 10:53 22.04.2022
4105 Clouds 11 1015 88 10000 8.79 64 10:32 22.04.2022
4106 Clouds 10 1014 89 10000 8.85 68 09:54 22.04.2022
4107 Clouds 8 1014 89 10000 8.77 67 08:56 22.04.2022
4108 Clouds 8 1014 90 10000 8.91 64 08:29 22.04.2022
4109 Clear 7 1014 90 10000 8.67 64 05:31 22.04.2022
4110 Clear 8 1016 87 10000 8.92 59 00:53 22.04.2022
4111 Clear 7 1016 86 10000 8.22 57 23:29 21.04.2022
4112 Clear 7 1016 86 10000 8.22 57 22:34 21.04.2022
4113 Clouds 7 1016 85 10000 7.25 61 21:25 21.04.2022
4114 Clouds 7 1016 85 10000 7.2 64 20:29 21.04.2022
4115 Clouds 7 1016 88 10000 7.42 58 18:49 21.04.2022
4116 Clouds 7 1016 88 10000 7.42 58 18:49 21.04.2022
4117 Clouds 8 1016 87 10000 7.46 58 18:19 21.04.2022
4118 Clouds 14 1017 86 10000 7.62 58 16:56 21.04.2022
4119 Clouds 13 1017 86 10000 8.11 55 15:24 21.04.2022
4120 Clouds 13 1017 86 10000 8.11 55 14:52 21.04.2022
4121 Clouds 13 1017 88 10000 7.66 54 13:59 21.04.2022
4122 Clouds 12 1017 88 10000 7.55 55 13:21 21.04.2022
4123 Clouds 12 1017 88 10000 7.55 55 13:21 21.04.2022
4124 Clouds 12 1017 88 10000 7.64 56 12:22 21.04.2022
4125 Clouds 11 1017 88 10000 7.47 53 09:33 21.04.2022
4126 Clouds 10 1017 88 10000 7.84 58 08:38 21.04.2022
4127 Clouds 7 1016 88 10000 8.04 57 06:36 21.04.2022
4128 Clouds 7 1016 85 10000 8.24 53 03:41 21.04.2022
4129 Clouds 7 1017 84 10000 8.39 52 03:20 21.04.2022
4130 Clouds 7 1017 84 10000 8.39 52 02:44 21.04.2022
4131 Clouds 8 1017 84 10000 8.78 48 00:34 21.04.2022
4132 Clouds 8 1017 82 10000 8.59 50 23:37 20.04.2022
4133 Clear 8 1017 79 10000 8.45 47 23:18 20.04.2022
4134 Clear 9 1017 79 10000 8.45 47 22:34 20.04.2022
4135 Clear 8 1017 77 10000 8.31 51 21:43 20.04.2022
4136 Clear 8 1018 77 10000 7.89 55 20:44 20.04.2022
4137 Clear 8 1018 77 10000 7.89 55 20:44 20.04.2022
4138 Clouds 8 1017 78 10000 8.92 57 20:21 20.04.2022
4139 Clouds 8 1017 78 10000 8.92 57 19:44 20.04.2022
4140 Clouds 8 1017 78 10000 8.37 51 18:46 20.04.2022
4141 Clouds 8 1017 78 10000 8.1 48 17:50 20.04.2022
4142 Clouds 8 1018 78 10000 7.75 48 16:39 20.04.2022
4143 Clouds 8 1018 81 10000 7.15 43 15:26 20.04.2022
4144 Clouds 7 1019 82 10000 6.07 26 12:22 20.04.2022
4145 Clouds 7 1019 82 10000 6.07 26 11:42 20.04.2022
4146 Clouds 12 1019 83 10000 5.95 29 10:44 20.04.2022
4147 Clouds 11 1019 83 10000 5.9 27 09:31 20.04.2022
4148 Clouds 11 1019 84 10000 5.96 27 08:40 20.04.2022
4149 Clouds 10 1019 84 10000 5.86 20 08:18 20.04.2022
4150 Clouds 7 1019 83 10000 5.06 26 06:23 20.04.2022
4151 Clouds 7 1020 78 10000 4.7 35 02:34 20.04.2022
4152 Clouds 7 1020 78 10000 5.06 65 00:22 20.04.2022
4153 Clouds 7 1020 77 10000 5.7 68 22:59 19.04.2022
4154 Clouds 7 1020 77 10000 5.91 71 22:24 19.04.2022
4155 Clouds 7 1020 77 10000 5.91 71 21:55 19.04.2022
4156 Clouds 7 1020 78 10000 5.99 72 20:59 19.04.2022
4157 Clouds 7 1020 78 10000 5.99 72 20:37 19.04.2022
4158 Clouds 7 1019 81 10000 6.38 65 19:41 19.04.2022
4159 Clouds 7 1019 81 10000 6.62 64 18:37 19.04.2022
4160 Clouds 7 1019 78 10000 6.98 55 17:24 19.04.2022
4161 Clouds 7 1019 78 10000 6.98 55 16:42 19.04.2022
4162 Clouds 7 1019 78 10000 6.98 55 16:42 19.04.2022
4163 Clouds 13 1019 78 10000 7.09 52 16:20 19.04.2022
4164 Clouds 7 1019 78 10000 7.14 48 14:46 19.04.2022
4165 Clouds 7 1019 78 10000 7.14 48 14:46 19.04.2022
4166 Clouds 7 1019 72 10000 6.4 50 13:22 19.04.2022
4167 Clouds 7 1019 72 10000 6.4 50 12:49 19.04.2022
4168 Clouds 7 1019 68 10000 6.34 56 11:38 19.04.2022
4169 Clear 11 1018 66 10000 6.14 64 09:52 19.04.2022
4170 Clear 9 1018 69 10000 5.78 63 08:43 19.04.2022
4171 Clouds 5 1018 68 10000 3.92 66 04:26 19.04.2022
4172 Clouds 6 1017 67 10000 3.43 65 03:19 19.04.2022
4173 Clouds 7 1019 68 10000 3.27 73 00:24 19.04.2022
4174 Clouds 7 1019 68 10000 3.19 81 22:58 18.04.2022
4175 Clouds 7 1020 67 10000 4.03 78 21:29 18.04.2022
4176 Clouds 7 1020 67 10000 4.03 78 20:46 18.04.2022
4177 Clouds 7 1020 66 10000 4.25 72 20:25 18.04.2022
4178 Clouds 7 1020 66 10000 4.31 76 19:42 18.04.2022
4179 Clouds 7 1020 65 10000 4.87 70 18:53 18.04.2022
4180 Clouds 7 1021 62 10000 5.12 66 17:53 18.04.2022
4181 Clouds 7 1021 62 10000 5.12 66 17:33 18.04.2022
4182 Clouds 7 1021 62 10000 4.82 67 16:44 18.04.2022
4183 Clouds 8 1021 63 10000 4.67 67 16:21 18.04.2022
4184 Clouds 8 1022 63 10000 4.37 77 14:43 18.04.2022
4185 Clouds 8 1022 65 10000 4.22 84 13:35 18.04.2022
4186 Clouds 8 1022 65 10000 4.22 84 13:35 18.04.2022
4187 Clouds 8 1023 67 10000 4.33 99 12:29 18.04.2022
4188 Clouds 8 1023 69 10000 4.6 101 11:27 18.04.2022
4189 Clouds 8 1023 69 10000 4.6 101 10:31 18.04.2022
4190 Clouds 11 1023 71 10000 4.22 103 09:30 18.04.2022
4191 Clear 6 1023 78 10000 2.76 95 07:42 18.04.2022
4192 Clear 5 1023 79 10000 2.23 37 05:35 18.04.2022
4193 Clear 6 1026 69 10000 2.49 358 00:27 18.04.2022
4194 Clear 8 1027 67 10000 2.52 348 22:40 17.04.2022
4195 Clear 8 1027 66 10000 2.43 335 21:42 17.04.2022
4196 Clear 8 1027 65 10000 2.48 320 21:22 17.04.2022
4197 Clear 8 1027 65 10000 2.48 320 20:33 17.04.2022
4198 Clouds 8 1027 68 10000 1.82 337 19:28 17.04.2022
4199 Clouds 8 1028 69 10000 1.77 325 17:45 17.04.2022
4200 Clouds 8 1029 71 10000 2.88 350 15:39 17.04.2022
4201 Clouds 7 1030 73 10000 2.83 338 14:54 17.04.2022
4202 Clouds 7 1030 74 10000 3.13 349 13:48 17.04.2022
4203 Clouds 7 1031 76 10000 3.14 356 12:58 17.04.2022
4204 Clouds 7 1031 77 10000 3.88 355 12:27 17.04.2022
4205 Clouds 7 1031 77 10000 4.11 346 10:46 17.04.2022
4206 Clouds 7 1031 77 10000 3.66 346 10:28 17.04.2022
4207 Clouds 11 1031 77 10000 3.66 346 09:34 17.04.2022
4208 Clouds 8 1032 78 10000 4.17 346 08:51 17.04.2022
4209 Clouds 4 1032 75 10000 3.63 343 07:30 17.04.2022
4210 Clouds 3 1033 71 10000 3.61 332 04:30 17.04.2022
4211 Clouds 4 1034 73 10000 4.05 298 01:26 17.04.2022
4212 Clouds 6 1035 70 10000 3.92 298 23:52 16.04.2022
4213 Clouds 7 1035 67 10000 4.23 295 22:35 16.04.2022
4214 Clouds 7 1035 65 10000 3.87 287 21:39 16.04.2022
4215 Clouds 7 1035 65 10000 2.86 271 20:32 16.04.2022
4216 Clouds 7 1035 68 10000 2.11 287 18:59 16.04.2022
4217 Clouds 7 1035 67 10000 1.72 320 17:52 16.04.2022
4218 Clouds 7 1035 69 10000 1.93 339 16:40 16.04.2022
4219 Clouds 7 1036 70 10000 2.06 339 15:45 16.04.2022
4220 Clouds 7 1036 70 10000 2.06 339 15:45 16.04.2022
4221 Clouds 7 1036 72 10000 2.11 358 14:57 16.04.2022
4222 Clouds 6 1037 69 10000 2.88 8 13:58 16.04.2022
4223 Clouds 6 1037 69 10000 2.88 8 13:37 16.04.2022
4224 Clouds 6 1037 68 10000 3.33 29 12:27 16.04.2022
4225 Clouds 6 1037 68 10000 3.71 35 11:18 16.04.2022
4226 Clear 10 1036 69 10000 4.37 40 09:56 16.04.2022
4227 Clear 8 1036 69 10000 5.13 42 08:59 16.04.2022
4228 Clouds 7 1036 69 10000 6.2 41 08:18 16.04.2022
4229 Clouds 5 1035 67 10000 6.56 47 06:59 16.04.2022
4230 Clear 5 1034 70 10000 7.13 41 03:36 16.04.2022
4231 Clear 5 1034 70 10000 7.17 46 00:31 16.04.2022
4232 Clear 5 1033 69 10000 7.21 59 23:27 15.04.2022
4233 Clear 5 1033 69 10000 7.21 59 22:37 15.04.2022
4234 Clear 6 1032 70 10000 6.81 56 21:58 15.04.2022
4235 Clear 6 1032 71 10000 6.33 63 21:18 15.04.2022
4236 Clouds 6 1031 71 10000 7.01 59 20:27 15.04.2022
4237 Clouds 7 1031 71 10000 7.01 59 19:40 15.04.2022
4238 Clouds 7 1030 72 10000 7.36 55 18:54 15.04.2022
4239 Clouds 7 1030 75 10000 8 60 18:25 15.04.2022
4240 Clouds 7 1030 75 10000 8 60 17:49 15.04.2022
4241 Clouds 7 1029 78 10000 9.09 58 17:22 15.04.2022
4242 Clouds 7 1028 80 10000 10 54 16:24 15.04.2022
4243 Clouds 7 1028 80 10000 10 54 15:37 15.04.2022
4244 Clouds 7 1027 85 10000 10.6 47 13:55 15.04.2022
4245 Clouds 8 1026 89 10000 10.21 48 12:46 15.04.2022
4246 Clouds 8 1025 91 10000 10.51 48 11:59 15.04.2022
4247 Clouds 7 1025 91 10000 10.51 48 11:40 15.04.2022
4248 Clouds 7 1024 91 10000 10.42 47 10:45 15.04.2022
4249 Rain 8 1023 91 10000 10.51 50 09:57 15.04.2022
4250 Clouds 8 1022 94 10000 10.91 51 09:22 15.04.2022
4251 Rain 10 1021 96 10000 8.31 28 08:24 15.04.2022
4252 Clouds 10 1019 97 10000 6.48 337 06:47 15.04.2022
4253 Clouds 10 1019 97 10000 6.48 337 06:47 15.04.2022
4254 Clouds 10 1019 94 10000 5.07 299 04:28 15.04.2022
4255 Clouds 7 1018 92 10000 5.27 279 00:32 15.04.2022
4256 Clouds 7 1019 90 10000 5.55 280 23:20 14.04.2022
4257 Clouds 7 1019 90 10000 5.55 280 22:44 14.04.2022
4258 Clouds 11 1018 89 10000 5.31 271 22:25 14.04.2022
4259 Clouds 8 1018 90 10000 5.51 265 21:39 14.04.2022
4260 Clouds 9 1017 90 10000 5.02 269 19:24 14.04.2022
4261 Clouds 9 1017 90 10000 5.02 269 18:53 14.04.2022
4262 Clouds 9 1017 91 10000 4.46 261 17:45 14.04.2022
4263 Clouds 9 1017 93 10000 4.27 254 16:51 14.04.2022
4264 Clouds 9 1017 94 10000 4.51 253 15:51 14.04.2022
4265 Clouds 15 1018 93 10000 5.86 261 13:53 14.04.2022
4266 Clouds 15 1018 92 10000 5.74 253 13:21 14.04.2022
4267 Clouds 14 1018 92 10000 5.74 253 12:32 14.04.2022
4268 Clouds 15 1018 93 10000 5.19 259 11:43 14.04.2022
4269 Clouds 15 1017 93 10000 4.74 257 11:18 14.04.2022
4270 Clouds 15 1017 93 10000 4.74 257 10:31 14.04.2022
4271 Clouds 13 1017 94 10000 4.2 249 09:30 14.04.2022
4272 Clouds 12 1017 96 10000 3.69 263 08:24 14.04.2022
4273 Rain 12 1017 99 10000 2.66 234 05:57 14.04.2022
4274 Clouds 8 1017 94 10000 5.73 291 00:59 14.04.2022
4275 Clouds 10 1017 85 10000 3.28 243 22:38 13.04.2022
4276 Clouds 10 1017 82 10000 3.09 216 21:43 13.04.2022
4277 Clouds 11 1017 81 10000 2.99 203 20:45 13.04.2022
4278 Clouds 11 1017 80 10000 3.29 184 19:54 13.04.2022
4279 Clouds 11 1016 78 10000 3.7 177 18:39 13.04.2022
4280 Clouds 11 1016 75 10000 4.26 171 17:41 13.04.2022
4281 Clouds 11 1017 74 10000 4.81 166 17:23 13.04.2022
4282 Clouds 11 1017 73 10000 5.2 161 16:18 13.04.2022
4283 Clouds 11 1017 73 10000 5.2 161 15:31 13.04.2022
4284 Clouds 11 1017 72 10000 5.41 155 14:43 13.04.2022
4285 Clouds 10 1017 71 10000 6.01 149 13:55 13.04.2022
4286 Clouds 10 1018 68 10000 6.93 147 12:58 13.04.2022
4287 Clouds 9 1018 67 10000 7.92 142 12:19 13.04.2022
4288 Clouds 13 1018 68 10000 8.6 140 10:41 13.04.2022
4289 Clouds 9 1018 71 10000 8.98 134 08:49 13.04.2022
4290 Clouds 8 1018 73 10000 8.32 137 08:28 13.04.2022
4291 Clouds 7 1018 76 10000 8 135 06:50 13.04.2022
4292 Clouds 7 1017 77 10000 7.73 131 06:25 13.04.2022
4293 Clouds 7 1018 79 10000 7.03 132 02:37 13.04.2022
4294 Clouds 7 1020 81 10000 7.97 114 00:20 13.04.2022
4295 Clouds 7 1020 79 10000 8.48 109 22:45 12.04.2022
4296 Clouds 7 1020 78 10000 8.25 106 21:56 12.04.2022
4297 Clouds 8 1020 77 10000 8.25 104 20:49 12.04.2022
4298 Clouds 8 1020 77 10000 8.25 104 20:49 12.04.2022
4299 Clouds 8 1019 76 10000 7.86 100 20:27 12.04.2022
4300 Clouds 6 1020 77 10000 7.93 101 19:41 12.04.2022
4301 Clouds 11 1020 74 10000 7.48 99 19:19 12.04.2022
4302 Clouds 13 1020 71 10000 6.86 99 17:50 12.04.2022
4303 Clouds 14 1020 69 10000 6.81 102 16:50 12.04.2022
4304 Clouds 14 1020 67 10000 6.32 103 15:52 12.04.2022
4305 Clouds 7 1020 65 10000 6.26 107 15:25 12.04.2022
4306 Clouds 7 1020 65 10000 6.2 110 13:54 12.04.2022
4307 Clouds 7 1021 64 10000 5.62 118 13:27 12.04.2022
4308 Clouds 7 1021 64 10000 5.62 118 12:31 12.04.2022
4309 Clouds 12 1021 65 10000 5.17 117 11:40 12.04.2022
4310 Clouds 6 1021 68 10000 4.52 129 10:29 12.04.2022
4311 Clouds 6 1021 69 10000 3.95 136 08:54 12.04.2022
4312 Clouds 6 1021 69 10000 3.95 136 08:54 12.04.2022
4313 Clouds 6 1021 69 10000 3.95 136 08:54 12.04.2022
4314 Clouds 2 1020 71 10000 3.5 129 07:47 12.04.2022
4315 Clouds 1 1020 68 10000 2.35 146 05:49 12.04.2022
4316 Clouds 2 1020 68 10000 0.94 199 03:28 12.04.2022
4317 Clouds 5 1020 71 10000 3.34 265 23:36 11.04.2022
4318 Clouds 5 1019 71 10000 3.25 264 22:44 11.04.2022
4319 Clouds 6 1019 72 10000 3.86 261 21:37 11.04.2022
4320 Clouds 5 1019 73 10000 4.37 257 20:54 11.04.2022
4321 Clouds 5 1018 74 10000 5.42 256 20:28 11.04.2022
4322 Clouds 5 1018 74 10000 5.26 255 19:37 11.04.2022
4323 Clouds 6 1018 75 10000 5.36 256 19:18 11.04.2022
4324 Clouds 6 1018 75 10000 5.36 256 18:40 11.04.2022
4325 Clouds 6 1018 74 10000 5.85 258 17:56 11.04.2022
4326 Clouds 5 1018 74 10000 6.5 261 16:54 11.04.2022
4327 Clouds 5 1018 74 10000 7.12 263 15:45 11.04.2022
4328 Clouds 5 1018 71 10000 8.22 267 13:53 11.04.2022
4329 Clouds 5 1018 70 10000 8.13 270 12:47 11.04.2022
4330 Clouds 5 1018 68 10000 8.05 275 12:29 11.04.2022
4331 Clouds 5 1018 68 10000 8.05 275 11:30 11.04.2022
4332 Clouds 5 1018 72 10000 8.49 282 10:21 11.04.2022
4333 Clouds 7 1017 74 10000 8.22 286 08:50 11.04.2022
4334 Clouds 5 1016 75 10000 8.73 289 06:21 11.04.2022
4335 Clouds 6 1016 77 10000 10.64 291 01:23 11.04.2022
4336 Clouds 7 1015 73 10000 10.41 290 22:34 10.04.2022
4337 Clouds 7 1015 71 10000 10.53 291 21:55 10.04.2022
4338 Clouds 7 1014 70 10000 10.56 293 21:26 10.04.2022
4339 Clouds 7 1014 70 10000 10.56 293 20:30 10.04.2022
4340 Clouds 6 1014 66 10000 11.11 297 19:41 10.04.2022
4341 Clouds 8 1013 63 10000 10.7 299 19:18 10.04.2022
4342 Clouds 6 1013 63 10000 10.7 299 18:38 10.04.2022
4343 Clouds 6 1012 65 10000 10.84 293 17:52 10.04.2022
4344 Clouds 6 1012 65 10000 10.84 293 17:32 10.04.2022
4345 Clouds 6 1012 64 10000 9.8 281 15:56 10.04.2022
4346 Clouds 6 1011 65 10000 9.98 286 14:51 10.04.2022
4347 Clouds 6 1011 67 10000 10.77 282 13:54 10.04.2022
4348 Clouds 5 1011 70 10000 11.27 278 12:33 10.04.2022
4349 Clouds 5 1010 71 10000 11.73 277 11:46 10.04.2022
4350 Clouds 5 1010 74 10000 11.72 278 11:28 10.04.2022
4351 Clouds 8 1010 74 10000 11.72 278 10:43 10.04.2022
4352 Clouds 7 1009 76 10000 11.7 279 09:50 10.04.2022
4353 Clouds 7 1009 77 10000 11.78 279 08:56 10.04.2022
4354 Clouds 6 1008 79 10000 11.77 279 08:21 10.04.2022
4355 Clear 6 1007 80 10000 12.83 275 06:59 10.04.2022
4356 Clear 6 1006 81 10000 12.62 274 04:42 10.04.2022
4357 Clear 6 1005 83 10000 13.43 274 02:20 10.04.2022
4358 Clear 6 1004 82 10000 13.59 275 23:54 09.04.2022
4359 Clear 6 1004 81 10000 13.49 275 23:29 09.04.2022
4360 Clear 6 1004 81 10000 13.49 275 22:39 09.04.2022
4361 Clouds 6 1003 80 10000 13.71 274 21:32 09.04.2022
4362 Clear 6 1003 79 10000 14.01 272 20:39 09.04.2022
4363 Clouds 6 1002 72 10000 13.86 274 20:19 09.04.2022
4364 Clouds 7 1002 72 10000 13.86 274 19:41 09.04.2022
4365 Clouds 7 1001 70 10000 14.34 275 18:54 09.04.2022
4366 Clouds 8 1001 69 10000 14.07 274 18:18 09.04.2022
4367 Clouds 9 1001 69 10000 14.07 274 17:32 09.04.2022
4368 Clouds 6 1000 69 10000 13.51 275 16:43 09.04.2022
4369 Clouds 6 1000 68 10000 12.85 274 15:53 09.04.2022
4370 Clouds 6 999 72 10000 12.17 265 15:28 09.04.2022
4371 Clouds 6 999 74 10000 12.32 265 14:27 09.04.2022
4372 Clouds 6 999 74 10000 12.32 265 14:27 09.04.2022
4373 Clear 6 999 74 10000 12.87 266 13:47 09.04.2022
4374 Clear 5 999 74 10000 13.47 267 12:59 09.04.2022
4375 Clear 5 998 73 10000 13.55 267 11:56 09.04.2022
4376 Clear 8 997 72 10000 13.14 271 11:21 09.04.2022
4377 Clear 8 997 72 10000 12.55 274 10:20 09.04.2022
4378 Clear 7 997 72 10000 12.55 274 09:37 09.04.2022
4379 Clear 6 996 75 10000 12.85 279 08:50 09.04.2022
4380 Clear 5 993 78 10000 12.91 278 05:58 09.04.2022
4381 Clouds 6 991 80 10000 10.48 259 00:38 09.04.2022
4382 Clouds 6 991 79 10000 9.61 257 23:25 08.04.2022
4383 Clouds 6 991 78 10000 9.69 258 21:58 08.04.2022
4384 Clouds 5 991 76 10000 9.72 261 20:47 08.04.2022
4385 Clouds 5 991 75 10000 10.53 263 19:58 08.04.2022
4386 Clouds 8 990 75 10000 11.43 267 19:18 08.04.2022
4387 Clouds 8 990 76 10000 12.36 268 18:28 08.04.2022
4388 Clouds 9 990 76 10000 12.36 268 17:45 08.04.2022
4389 Rain 10 990 76 10000 13.32 269 17:22 08.04.2022
4390 Clouds 10 990 76 10000 13.32 269 16:47 08.04.2022
4391 Clouds 11 990 75 10000 14.22 274 15:56 08.04.2022
4392 Clouds 11 989 69 10000 15.21 262 15:25 08.04.2022
4393 Clouds 6 989 69 10000 14.88 256 14:26 08.04.2022
4394 Clouds 11 989 69 10000 14.88 256 13:45 08.04.2022
4395 Clouds 6 990 70 10000 15.05 258 13:27 08.04.2022
4396 Clouds 9 990 72 10000 15.24 259 11:54 08.04.2022
4397 Clouds 8 990 73 10000 15.21 262 10:33 08.04.2022
4398 Clouds 7 989 72 10000 15.25 269 09:38 08.04.2022
4399 Clouds 7 987 72 10000 15.3 275 08:44 08.04.2022
4400 Clouds 6 986 74 10000 16.33 279 06:55 08.04.2022
4401 Clouds 6 983 79 10000 15.78 284 05:18 08.04.2022
4402 Clouds 6 976 86 10000 16.85 259 01:27 08.04.2022
4403 Clouds 7 975 89 10000 15.32 251 00:25 08.04.2022
4404 Clouds 7 975 89 10000 15.32 251 00:25 08.04.2022
4405 Clouds 7 975 84 10000 15.37 247 22:59 07.04.2022
4406 Rain 7 975 84 10000 15.37 247 22:39 07.04.2022
4407 Rain 7 975 81 10000 15.69 235 22:21 07.04.2022
4408 Rain 8 975 81 10000 15.69 235 21:53 07.04.2022
4409 Clouds 8 975 79 10000 13.1 227 21:19 07.04.2022
4410 Clouds 8 975 79 10000 13.1 227 20:37 07.04.2022
4411 Clouds 10 975 81 10000 11.85 232 18:35 07.04.2022
4412 Clouds 10 976 87 10000 10.18 241 17:27 07.04.2022
4413 Clouds 10 976 87 10000 10.18 241 16:44 07.04.2022
4414 Clouds 8 976 94 10000 8.72 292 16:23 07.04.2022
4415 Rain 7 975 89 6356 14.65 210 14:50 07.04.2022
4416 Rain 11 977 86 10000 14.47 196 13:43 07.04.2022
4417 Rain 11 979 85 7795 13.52 200 12:58 07.04.2022
4418 Clouds 9 980 82 10000 13.22 199 11:40 07.04.2022
4419 Clouds 11 983 84 10000 12.26 208 09:42 07.04.2022
4420 Clouds 11 983 82 10000 11.98 212 08:38 07.04.2022
4421 Clouds 10 985 89 10000 10.62 212 06:57 07.04.2022
4422 Clouds 10 987 88 10000 10.62 227 03:59 07.04.2022
4423 Clouds 10 988 85 10000 14.54 226 02:28 07.04.2022
4424 Clouds 10 988 88 10000 14.16 220 00:42 07.04.2022
4425 Rain 10 990 89 10000 11.64 223 22:58 06.04.2022
4426 Rain 10 990 89 10000 11.64 223 22:39 06.04.2022
4427 Rain 10 991 92 10000 9.86 228 21:47 06.04.2022
4428 Rain 10 991 88 10000 10.66 231 20:41 06.04.2022
4429 Clouds 11 991 90 10000 10.32 220 19:59 06.04.2022
4430 Rain 11 992 88 10000 10.95 225 18:53 06.04.2022
4431 Clouds 11 992 88 10000 10.95 225 18:34 06.04.2022
4432 Clouds 11 992 88 10000 11.65 231 17:35 06.04.2022
4433 Clouds 10 993 90 10000 11.49 233 16:39 06.04.2022
4434 Clouds 10 993 90 10000 12.3 236 15:57 06.04.2022
4435 Clouds 11 993 90 10000 12.3 236 15:39 06.04.2022
4436 Clouds 11 994 90 10000 12.84 239 13:31 06.04.2022
4437 Clouds 11 994 89 10000 13.44 238 12:28 06.04.2022
4438 Clouds 10 994 90 10000 13.34 239 10:57 06.04.2022
4439 Clouds 10 994 90 10000 13.34 239 10:33 06.04.2022
4440 Clouds 9 994 92 10000 8.78 228 09:46 06.04.2022
4441 Clouds 6 995 97 7694 7.2 154 08:51 06.04.2022
4442 Clouds 5 996 97 528 6.09 167 07:58 06.04.2022
4443 Rain 4 998 91 10000 4.85 235 05:23 06.04.2022
4444 Clouds 5 999 77 10000 7.06 276 00:20 06.04.2022
4445 Clouds 5 999 77 10000 7.06 276 23:47 05.04.2022
4446 Clouds 6 999 74 10000 7.74 278 21:48 05.04.2022
4447 Clouds 7 999 76 10000 8.88 272 20:59 05.04.2022
4448 Clouds 7 999 76 10000 9.3 265 20:23 05.04.2022
4449 Clouds 8 999 71 10000 8.21 275 18:31 05.04.2022
4450 Clouds 9 999 68 10000 7.23 268 17:22 05.04.2022
4451 Clouds 6 999 68 10000 7.23 268 16:43 05.04.2022
4452 Clouds 9 999 67 10000 7.3 277 15:51 05.04.2022
4453 Clouds 5 999 67 10000 7.3 277 15:31 05.04.2022
4454 Clouds 5 999 65 10000 9.16 287 13:55 05.04.2022
4455 Clouds 5 999 66 10000 9.97 291 12:39 05.04.2022
4456 Clouds 4 999 66 10000 10.48 290 11:43 05.04.2022
4457 Clouds 4 998 63 10000 11.48 296 11:25 05.04.2022
4458 Clouds 4 998 63 10000 11.48 296 11:25 05.04.2022
4459 Clouds 7 998 67 10000 12.67 297 09:40 05.04.2022
4460 Clouds 6 997 68 10000 12.65 298 08:51 05.04.2022
4461 Clouds 5 993 73 10000 15.56 287 04:25 05.04.2022
4462 Clouds 6 991 75 10000 16.35 285 23:48 04.04.2022
4463 Clouds 6 990 76 10000 16.3 282 22:41 04.04.2022
4464 Clouds 7 989 77 10000 16.15 281 21:52 04.04.2022
4465 Clouds 7 988 79 10000 16.78 281 21:21 04.04.2022
4466 Clouds 8 988 79 10000 16.78 281 20:48 04.04.2022
4467 Clouds 7 987 84 10000 16.7 271 19:39 04.04.2022
4468 Clouds 7 987 90 10000 16.13 266 18:59 04.04.2022
4469 Clouds 6 987 92 10000 18.74 241 17:39 04.04.2022
4470 Rain 5 988 95 1643 19.18 234 16:36 04.04.2022
4471 Rain 4 989 96 98 19.67 229 15:34 04.04.2022
4472 Rain 4 991 96 68 19.26 224 14:58 04.04.2022
4473 Clouds 4 991 96 68 19.26 224 14:40 04.04.2022
4474 Rain 3 995 96 290 17.9 219 13:21 04.04.2022
4475 Clouds 5 997 92 10000 17.21 217 11:48 04.04.2022
4476 Rain 5 999 88 10000 15.54 218 11:27 04.04.2022
4477 Clouds 5 1004 86 10000 13.14 230 08:29 04.04.2022
4478 Clouds 5 1008 88 10000 12.75 254 03:52 04.04.2022
4479 Clouds 6 1011 88 10000 11.61 269 00:26 04.04.2022
4480 Clouds 6 1011 85 10000 11.11 274 22:33 03.04.2022
4481 Clouds 7 1011 79 10000 10.03 276 21:44 03.04.2022
4482 Clouds 7 1011 77 10000 9.8 279 20:53 03.04.2022
4483 Clouds 7 1011 81 10000 8.49 275 19:45 03.04.2022
4484 Clouds 8 1012 89 10000 9.24 278 18:32 03.04.2022
4485 Clouds 8 1012 84 10000 9.15 271 17:47 03.04.2022
4486 Rain 5 1013 82 10000 9.67 271 16:57 03.04.2022
4487 Rain 5 1013 82 10000 9.67 271 16:39 03.04.2022
4488 Clouds 5 1014 70 10000 6.94 269 14:39 03.04.2022
4489 Clouds 4 1015 75 10000 6.73 256 13:51 03.04.2022
4490 Clouds 3 1015 78 10000 7.4 255 12:42 03.04.2022
4491 Clouds 3 1016 64 10000 6.73 253 10:58 03.04.2022
4492 Clouds 5 1016 62 10000 6.1 255 09:38 03.04.2022
4493 Clouds 1 1017 58 10000 4.82 266 08:36 03.04.2022
4494 Clouds -2 1017 57 10000 5.1 308 05:38 03.04.2022
4495 Clouds 0 1018 57 10000 5.19 328 01:54 03.04.2022
4496 Clouds 1 1018 57 10000 6.6 342 23:21 02.04.2022
4497 Clouds 1 1018 57 10000 6.9 347 22:18 02.04.2022
4498 Snow 1 1018 57 10000 6.9 347 21:47 02.04.2022
4499 Clouds 1 1018 54 10000 5.95 350 21:18 02.04.2022
4500 Clouds 2 1018 50 10000 3.63 342 20:29 02.04.2022
4501 Clouds 5 1018 51 10000 3.79 357 18:23 02.04.2022
4502 Clouds 5 1018 51 10000 3.79 357 17:53 02.04.2022
4503 Clouds 5 1018 52 10000 4.79 19 16:30 02.04.2022
4504 Clouds 6 1018 55 10000 7.7 38 15:23 02.04.2022
4505 Clouds 6 1018 55 10000 7.7 38 14:51 02.04.2022
4506 Clouds 6 1018 57 10000 8.61 36 13:56 02.04.2022
4507 Clouds 5 1018 58 10000 9.16 37 13:19 02.04.2022
4508 Clouds 5 1018 58 10000 9.53 39 11:39 02.04.2022
4509 Clouds 3 1017 61 10000 10.28 41 09:48 02.04.2022
4510 Clouds 2 1016 64 10000 10.73 39 06:58 02.04.2022
4511 Clouds 2 1015 64 10000 10.89 45 03:55 02.04.2022
4512 Clouds 3 1015 63 10000 10.3 56 00:27 02.04.2022
4513 Clouds 3 1015 63 10000 10.3 56 23:53 01.04.2022
4514 Clouds 2 1015 62 10000 11.05 64 22:24 01.04.2022
4515 Clouds 3 1014 62 10000 11.17 65 20:54 01.04.2022
4516 Clouds 3 1014 62 10000 11.17 65 20:32 01.04.2022
4517 Clouds 3 1014 60 10000 10.54 65 19:39 01.04.2022
4518 Clouds 4 1013 59 10000 10.72 62 18:54 01.04.2022
4519 Clouds 5 1013 60 10000 11.02 59 18:23 01.04.2022
4520 Clouds 5 1013 60 10000 11.02 59 17:36 01.04.2022
4521 Clouds 5 1013 60 10000 11.53 56 15:44 01.04.2022
4522 Clouds 5 1013 59 10000 11.44 58 14:47 01.04.2022
4523 Clouds 6 1013 58 10000 11.08 58 13:38 01.04.2022
4524 Clouds 5 1013 58 10000 11.01 59 12:33 01.04.2022
4525 Clouds 5 1013 59 10000 11.16 61 11:45 01.04.2022
4526 Clouds 5 1013 60 10000 11.34 63 10:41 01.04.2022
4527 Clouds 5 1012 61 10000 11.65 64 09:35 01.04.2022
4528 Clouds 3 1011 60 10000 11.34 66 07:24 01.04.2022
4529 Clouds 3 1011 58 10000 10.82 71 04:57 01.04.2022
4530 Clouds 3 1011 58 10000 10.82 71 04:39 01.04.2022
4531 Clouds 3 1010 56 10000 11.05 75 02:32 01.04.2022
4532 Clouds 3 1011 56 10000 10.72 76 01:31 01.04.2022
4533 Clouds 3 1011 55 10000 10.86 78 22:24 31.03.2022
4534 Clouds 3 1011 55 10000 10.86 78 21:38 31.03.2022
4535 Clouds 3 1010 54 10000 11.05 76 20:50 31.03.2022
4536 Clouds 3 1010 54 10000 11.3 74 20:28 31.03.2022
4537 Clouds 4 1010 51 10000 11.26 76 19:21 31.03.2022
4538 Clouds 4 1010 51 10000 11.26 76 18:31 31.03.2022
4539 Clouds 5 1009 51 10000 11.03 74 16:47 31.03.2022
4540 Clouds 6 1009 51 10000 10.99 76 15:54 31.03.2022
4541 Clouds 7 1010 51 10000 10.83 79 15:24 31.03.2022
4542 Clouds 7 1010 51 10000 10.83 79 14:44 31.03.2022
4543 Clouds 6 1010 51 10000 10.4 83 13:28 31.03.2022
4544 Clouds 5 1010 51 10000 10.47 87 11:30 31.03.2022
4545 Clouds 5 1009 52 10000 10.32 89 10:26 31.03.2022
4546 Clouds 4 1009 52 10000 10.32 89 09:39 31.03.2022
4547 Clouds 1 1009 52 10000 9.86 93 07:48 31.03.2022
4548 Clouds 2 1008 53 10000 9.01 96 02:33 31.03.2022
4549 Clouds 3 1009 64 10000 10.8 93 23:24 30.03.2022
4550 Clouds 3 1009 67 10000 11.16 89 21:55 30.03.2022
4551 Clouds 3 1009 67 10000 11.16 89 21:30 30.03.2022
4552 Clouds 3 1008 69 10000 11.08 87 20:37 30.03.2022
4553 Clouds 4 1008 68 10000 10.56 88 19:47 30.03.2022
4554 Clouds 5 1008 66 10000 10.1 89 18:41 30.03.2022
4555 Clouds 6 1008 65 10000 9.8 93 17:51 30.03.2022
4556 Clouds 6 1008 64 10000 9.21 96 17:20 30.03.2022
4557 Clouds 6 1008 64 10000 9.21 96 16:40 30.03.2022
4558 Clouds 6 1007 63 10000 8.65 97 15:55 30.03.2022
4559 Clouds 7 1008 63 10000 8.23 99 14:36 30.03.2022
4560 Clouds 7 1008 67 10000 7.29 94 13:22 30.03.2022
4561 Clouds 3 1008 65 10000 6.65 92 12:22 30.03.2022
4562 Clouds 7 1008 65 10000 6.18 88 10:48 30.03.2022
4563 Clouds 5 1008 67 10000 6.02 88 09:55 30.03.2022
4564 Clouds 3 1007 74 10000 5.42 75 08:21 30.03.2022
4565 Clouds 2 1007 78 10000 4.07 48 07:28 30.03.2022
4566 Clouds 2 1006 75 10000 3.7 32 05:40 30.03.2022
4567 Clouds 4 1006 64 10000 5.48 349 02:32 30.03.2022
4568 Clouds 7 1006 73 10000 6.32 335 22:42 29.03.2022
4569 Clouds 7 1006 69 10000 7.15 304 21:52 29.03.2022
4570 Clouds 7 1006 69 10000 7.15 304 21:34 29.03.2022
4571 Clouds 8 1006 71 10000 6.23 270 20:26 29.03.2022
4572 Clouds 6 1006 71 10000 6.23 270 19:32 29.03.2022
4573 Clouds 6 1006 71 10000 5.91 274 18:53 29.03.2022
4574 Clouds 6 1007 71 10000 6.42 283 17:52 29.03.2022
4575 Clouds 6 1007 72 10000 6.66 284 17:18 29.03.2022
4576 Clouds 6 1007 72 10000 6.66 284 16:53 29.03.2022
4577 Clouds 5 1008 74 10000 6.76 284 15:41 29.03.2022
4578 Clouds 5 1008 76 10000 6.81 278 14:43 29.03.2022
4579 Clouds 5 1008 76 10000 6.81 278 14:43 29.03.2022
4580 Clouds 5 1009 73 10000 7.17 278 13:35 29.03.2022
4581 Clouds 5 1009 76 10000 6.15 277 12:22 29.03.2022
4582 Clouds 5 1010 78 10000 5.84 283 11:18 29.03.2022
4583 Clouds 4 1010 80 10000 5.71 288 10:20 29.03.2022
4584 Clouds 7 1010 82 10000 5.95 296 08:52 29.03.2022
4585 Clouds 4 1010 82 10000 7.42 302 06:53 29.03.2022
4586 Clouds 7 1011 82 10000 8.68 300 02:52 29.03.2022
4587 Clouds 7 1013 88 10000 8.74 291 23:37 28.03.2022
4588 Clear 7 1013 88 10000 9.22 283 22:57 28.03.2022
4589 Clear 7 1013 88 10000 9.22 283 22:33 28.03.2022
4590 Clear 8 1013 86 10000 9.62 275 21:47 28.03.2022
4591 Clear 8 1014 85 10000 9.91 268 20:37 28.03.2022
4592 Clouds 8 1014 83 10000 9.76 268 19:57 28.03.2022
4593 Clouds 8 1014 83 10000 9.76 268 19:38 28.03.2022
4594 Clouds 10 1014 85 10000 9.77 262 18:51 28.03.2022
4595 Clouds 10 1014 85 10000 9.9 261 17:41 28.03.2022
4596 Clouds 11 1015 87 10000 10.08 264 16:56 28.03.2022
4597 Clouds 10 1016 86 10000 9.93 272 15:35 28.03.2022
4598 Clouds 10 1018 86 10000 9.92 278 14:24 28.03.2022
4599 Clouds 10 1019 88 10000 10.86 278 13:19 28.03.2022
4600 Clouds 10 1019 92 10000 9.78 279 11:52 28.03.2022
4601 Clouds 8 1020 93 10000 9.67 275 10:35 28.03.2022
4602 Clouds 7 1021 92 10000 8.88 274 09:21 28.03.2022
4603 Clouds 7 1021 92 10000 8.88 274 08:40 28.03.2022
4604 Clouds 7 1021 92 10000 8.87 274 08:20 28.03.2022
4605 Clouds 7 1021 90 10000 8.93 279 07:23 28.03.2022
4606 Clouds 8 1023 90 10000 7.98 278 02:44 28.03.2022
4607 Clouds 10 1025 87 10000 8.02 273 22:38 27.03.2022
4608 Clouds 7 1025 87 10000 7.75 270 21:48 27.03.2022
4609 Clear 7 1026 88 10000 7.6 267 21:28 27.03.2022
4610 Clear 7 1026 88 10000 7.6 267 20:41 27.03.2022
4611 Clear 7 1025 85 10000 7.76 261 19:43 27.03.2022
4612 Clear 7 1026 83 10000 7.52 255 18:47 27.03.2022
4613 Clear 7 1026 78 10000 7.45 253 18:24 27.03.2022
4614 Clear 7 1026 78 10000 7.45 253 17:37 27.03.2022
4615 Clouds 7 1028 83 10000 7.48 259 15:55 27.03.2022
4616 Clear 7 1029 76 10000 5.94 263 13:59 27.03.2022
4617 Clear 7 1029 76 10000 5.94 263 13:33 27.03.2022
4618 Clear 7 1030 73 10000 4.87 256 11:41 27.03.2022
4619 Clouds 9 1031 71 10000 2.99 243 09:49 27.03.2022
4620 Clouds 3 1031 76 10000 2.45 249 07:47 27.03.2022
4621 Clouds 3 1030 73 10000 1.31 243 05:18 27.03.2022
4622 Clouds 6 1031 74 10000 2.04 142 00:30 27.03.2022
4623 Clouds 8 1031 75 10000 3.35 86 22:53 26.03.2022
4624 Clouds 8 1031 76 10000 3.39 49 22:27 26.03.2022
4625 Clouds 8 1031 76 10000 3.39 49 21:31 26.03.2022
4626 Clear 10 1030 79 10000 3.68 326 19:45 26.03.2022
4627 Clouds 7 1030 86 10000 1.37 289 18:44 26.03.2022
4628 Clouds 7 1029 87 10000 2.09 301 17:44 26.03.2022
4629 Clouds 7 1029 87 10000 2.89 300 16:47 26.03.2022
4630 Clouds 7 1028 87 10000 3.18 300 15:43 26.03.2022
4631 Clouds 7 1028 90 10000 4.33 324 14:21 26.03.2022
4632 Clouds 7 1028 90 10000 4.33 324 13:51 26.03.2022
4633 Clouds 7 1027 92 10000 4.02 321 12:36 26.03.2022
4634 Clouds 11 1027 93 10000 5.44 312 10:56 26.03.2022
4635 Clouds 10 1026 94 10000 7.26 298 09:22 26.03.2022
4636 Clouds 9 1025 92 10000 8.13 293 07:36 26.03.2022
4637 Clouds 9 1024 88 10000 10.32 276 05:52 26.03.2022
4638 Clouds 9 1025 85 10000 10.33 268 03:23 26.03.2022
4639 Clouds 8 1027 83 10000 8.18 284 22:57 25.03.2022
4640 Clear 8 1027 82 10000 7.18 282 20:58 25.03.2022
4641 Clear 8 1027 82 10000 7.18 282 20:37 25.03.2022
4642 Clear 8 1027 81 10000 6.85 267 19:21 25.03.2022
4643 Clear 8 1027 80 10000 6.98 269 18:37 25.03.2022
4644 Clear 8 1027 81 10000 6.7 265 17:34 25.03.2022
4645 Clear 7 1027 83 10000 6.71 260 16:39 25.03.2022
4646 Clear 7 1027 83 10000 6.7 261 15:50 25.03.2022
4647 Clear 8 1028 80 10000 6.04 269 13:40 25.03.2022
4648 Clouds 7 1029 79 10000 5.52 280 11:49 25.03.2022
4649 Clouds 7 1029 80 10000 5.22 291 09:46 25.03.2022
4650 Clouds 11 1028 80 10000 4.65 289 08:59 25.03.2022
4651 Clouds 7 1028 81 10000 4.86 297 07:48 25.03.2022
4652 Clear 7 1028 86 10000 3.99 282 07:21 25.03.2022
4653 Clear 5 1028 86 10000 3.5 280 04:35 25.03.2022
4654 Clear 7 1028 79 10000 3.59 264 23:55 24.03.2022
4655 Clear 8 1029 76 10000 3.37 268 22:24 24.03.2022
4656 Clear 9 1029 76 10000 3.37 268 21:33 24.03.2022
4657 Clear 7 1029 76 10000 3.41 265 19:50 24.03.2022
4658 Clear 7 1028 75 10000 3.37 268 18:49 24.03.2022
4659 Clear 7 1028 75 10000 3.15 271 17:38 24.03.2022
4660 Clear 7 1028 73 10000 3.02 276 16:41 24.03.2022
4661 Clear 7 1029 71 10000 3.02 284 14:59 24.03.2022
4662 Clear 7 1029 71 10000 3.02 284 14:40 24.03.2022
4663 Clear 7 1030 70 10000 3.12 288 13:41 24.03.2022
4664 Clear 7 1030 66 10000 2.97 286 12:39 24.03.2022
4665 Clear 7 1030 65 10000 2.76 283 11:31 24.03.2022
4666 Clear 10 1030 66 10000 2.11 281 09:34 24.03.2022
4667 Clear 6 1030 67 10000 2.04 292 08:39 24.03.2022
4668 Clear 3 1030 68 10000 1.52 283 06:18 24.03.2022
4669 Clear 5 1031 67 10000 1.41 341 01:20 24.03.2022
4670 Clear 7 1032 69 10000 0.99 343 22:26 23.03.2022
4671 Clear 6 1032 69 10000 0.5 14 21:25 23.03.2022
4672 Clear 6 1032 69 10000 0.5 14 20:47 23.03.2022
4673 Clear 6 1032 70 10000 0.93 49 19:40 23.03.2022
4674 Clear 6 1031 71 10000 2.52 39 18:22 23.03.2022
4675 Clear 6 1031 71 10000 2.52 39 17:36 23.03.2022
4676 Clouds 6 1032 71 10000 3.25 39 16:18 23.03.2022
4677 Clouds 6 1032 72 10000 3.42 42 14:49 23.03.2022
4678 Clouds 6 1032 73 10000 3.88 43 13:51 23.03.2022
4679 Clouds 6 1033 75 10000 4.21 54 11:51 23.03.2022
4680 Clouds 10 1033 78 10000 4.07 68 09:21 23.03.2022
4681 Clouds 4 1032 76 10000 3.53 62 06:40 23.03.2022
4682 Clouds 5 1032 72 10000 3.85 55 03:57 23.03.2022
4683 Clear 7 1033 62 10000 0.78 58 00:29 23.03.2022
4684 Clear 8 1034 61 10000 1.13 63 22:26 22.03.2022
4685 Clear 9 1033 60 10000 1.31 54 21:29 22.03.2022
4686 Clear 10 1033 60 10000 1.31 54 20:39 22.03.2022
4687 Clear 7 1033 61 10000 1.57 72 19:31 22.03.2022
4688 Clear 7 1033 60 10000 2 69 18:57 22.03.2022
4689 Clear 8 1033 59 10000 2.21 49 17:47 22.03.2022
4690 Clear 8 1033 57 10000 2.07 32 17:25 22.03.2022
4691 Clear 9 1034 56 10000 1.12 22 15:54 22.03.2022
4692 Clear 8 1034 58 10000 0.14 149 15:22 22.03.2022
4693 Clear 8 1034 58 10000 0.14 149 14:46 22.03.2022
4694 Clear 8 1034 58 10000 1.11 189 14:25 22.03.2022
4695 Clear 8 1035 57 10000 1.95 197 12:55 22.03.2022
4696 Clear 8 1035 58 10000 2.86 189 11:48 22.03.2022
4697 Clear 12 1035 58 10000 3.69 184 10:35 22.03.2022
4698 Clear 6 1035 64 10000 4.66 171 07:57 22.03.2022
4699 Clear 3 1035 67 10000 4.76 168 05:21 22.03.2022
4700 Clear 4 1035 67 10000 4.67 166 03:41 22.03.2022
4701 Clear 7 1036 66 10000 4.82 165 23:59 21.03.2022
4702 Clear 7 1036 65 10000 4.74 155 22:29 21.03.2022
4703 Clear 6 1036 64 10000 4.62 147 20:54 21.03.2022
4704 Clear 6 1036 64 10000 4.62 147 20:33 21.03.2022
4705 Clear 6 1036 64 10000 4.51 141 19:58 21.03.2022
4706 Clear 7 1036 64 10000 4.26 135 19:27 21.03.2022
4707 Clear 7 1036 63 10000 4.17 137 18:18 21.03.2022
4708 Clear 8 1036 61 10000 4.58 138 17:19 21.03.2022
4709 Clear 8 1036 61 10000 4.58 138 16:44 21.03.2022
4710 Clear 8 1036 58 10000 5.36 138 15:52 21.03.2022
4711 Clear 8 1036 56 10000 6.22 136 15:19 21.03.2022
4712 Clear 8 1037 56 10000 6.48 135 14:25 21.03.2022
4713 Clear 7 1037 57 10000 6.73 137 12:40 21.03.2022
4714 Clear 12 1038 58 10000 6.91 139 11:52 21.03.2022
4715 Clear 11 1038 61 10000 6.87 141 10:40 21.03.2022
4716 Clear 7 1038 65 10000 6.72 147 08:55 21.03.2022
4717 Clear 3 1038 70 10000 6.6 144 06:54 21.03.2022
4718 Clear 5 1038 68 10000 7.4 138 02:53 21.03.2022
4719 Clear 6 1038 66 10000 7.67 135 00:35 21.03.2022
4720 Clear 6 1039 64 10000 8.16 128 22:54 20.03.2022
4721 Clear 7 1039 62 10000 8.14 126 21:56 20.03.2022
4722 Clear 6 1039 62 10000 7.64 123 21:29 20.03.2022
4723 Clear 6 1039 62 10000 7.64 123 20:43 20.03.2022
4724 Clear 6 1039 63 10000 6.9 123 19:59 20.03.2022
4725 Clear 6 1039 63 10000 6.9 123 19:59 20.03.2022
4726 Clear 6 1039 63 10000 6.9 123 19:38 20.03.2022
4727 Clear 8 1039 64 10000 6.58 119 18:40 20.03.2022
4728 Clear 10 1039 64 10000 7.21 114 17:37 20.03.2022
4729 Clear 11 1039 62 10000 8.14 109 16:58 20.03.2022
4730 Clear 11 1040 60 10000 8.83 105 15:52 20.03.2022
4731 Clear 7 1040 57 10000 9.14 108 14:36 20.03.2022
4732 Clear 6 1041 56 10000 9.49 113 13:18 20.03.2022
4733 Clear 11 1042 57 10000 9.49 115 11:37 20.03.2022
4734 Clear 9 1043 60 10000 8.71 118 09:57 20.03.2022
4735 Clear 4 1043 72 10000 7.57 115 07:51 20.03.2022
4736 Clear 2 1043 83 10000 6.88 107 05:49 20.03.2022
4737 Clear 2 1043 83 10000 6.88 107 05:49 20.03.2022
4738 Clear 3 1044 89 10000 6.98 99 03:18 20.03.2022
4739 Clear 4 1045 89 10000 7.6 94 00:48 20.03.2022
4740 Clear 5 1045 89 10000 8.3 93 23:35 19.03.2022
4741 Clear 5 1046 86 10000 8.88 85 21:54 19.03.2022
4742 Clear 5 1046 87 10000 9.05 79 21:20 19.03.2022
4743 Clear 5 1046 87 10000 8.6 72 19:21 19.03.2022
4744 Clear 6 1046 86 10000 8.88 72 18:30 19.03.2022
4745 Clear 7 1045 85 10000 8.69 65 17:45 19.03.2022
4746 Clear 8 1046 85 10000 8.46 66 16:40 19.03.2022
4747 Clear 10 1046 83 10000 8.66 64 15:22 19.03.2022
4748 Clear 11 1046 83 10000 8.56 63 13:40 19.03.2022
4749 Clear 5 1047 84 10000 8.8 60 12:42 19.03.2022
4750 Clear 5 1047 84 10000 8.73 58 12:20 19.03.2022
4751 Clear 5 1047 84 10000 8.73 58 11:42 19.03.2022
4752 Clear 7 1047 82 10000 7.63 56 09:22 19.03.2022
4753 Clear 4 1046 82 10000 6.13 28 04:53 19.03.2022
4754 Clear 5 1046 82 10000 6.13 20 02:33 19.03.2022
4755 Clear 6 1046 78 10000 6.4 358 23:51 18.03.2022
4756 Clear 6 1046 77 10000 6.41 358 22:58 18.03.2022
4757 Clear 7 1046 75 10000 6.57 348 22:21 18.03.2022
4758 Clear 8 1045 71 10000 7.1 341 20:26 18.03.2022
4759 Clear 6 1045 74 10000 6.38 352 19:24 18.03.2022
4760 Clear 6 1045 76 10000 6.09 356 18:58 18.03.2022
4761 Clouds 6 1044 90 10000 4.18 312 16:56 18.03.2022
4762 Clear 5 1043 91 10000 4.42 287 16:24 18.03.2022
4763 Clear 5 1043 89 10000 4.83 279 14:29 18.03.2022
4764 Clear 5 1043 89 10000 4.83 279 13:40 18.03.2022
4765 Clouds 5 1043 85 10000 5.53 276 11:37 18.03.2022
4766 Clear 5 1042 82 10000 4.9 261 10:27 18.03.2022
4767 Clear 3 1041 83 10000 4.5 254 08:50 18.03.2022
4768 Clear 2 1040 84 10000 3.82 245 07:26 18.03.2022
4769 Clear 3 1039 86 10000 3.18 274 05:20 18.03.2022
4770 Clear 6 1037 88 10000 3.28 301 01:51 18.03.2022
4771 Clouds 6 1036 87 10000 5.56 297 00:20 18.03.2022
4772 Clouds 5 1035 88 10000 5.63 286 22:54 17.03.2022
4773 Clouds 8 1034 90 10000 5.14 273 22:20 17.03.2022
4774 Clouds 8 1034 90 10000 5.14 273 21:31 17.03.2022
4775 Clouds 8 1033 90 10000 5.55 267 20:58 17.03.2022
4776 Clouds 8 1032 91 10000 5.5 261 20:28 17.03.2022
4777 Clouds 8 1032 91 10000 5.5 261 19:39 17.03.2022
4778 Clouds 9 1031 91 10000 6.24 253 18:55 17.03.2022
4779 Rain 9 1030 96 10000 6.41 244 17:47 17.03.2022
4780 Rain 10 1028 77 10000 6.56 219 16:29 17.03.2022
4781 Rain 10 1028 77 10000 6.56 219 15:43 17.03.2022
4782 Rain 11 1028 69 10000 7.68 191 15:21 17.03.2022
4783 Clouds 10 1027 69 10000 8.36 169 13:48 17.03.2022
4784 Clouds 10 1027 69 10000 8.76 157 12:48 17.03.2022
4785 Clouds 9 1027 70 10000 9.05 150 11:47 17.03.2022
4786 Clouds 8 1027 72 10000 8.9 147 11:22 17.03.2022
4787 Clouds 7 1028 75 10000 8.5 148 09:47 17.03.2022
4788 Clouds 6 1028 80 10000 8.5 142 08:31 17.03.2022
4789 Clouds 5 1029 88 10000 6.72 132 06:25 17.03.2022
4790 Clouds 5 1029 88 10000 6.72 132 05:39 17.03.2022
4791 Clouds 5 1029 88 10000 6.72 132 05:39 17.03.2022
4792 Clouds 5 1030 91 10000 6.69 106 00:42 17.03.2022
4793 Clouds 4 1030 90 10000 6.41 108 22:59 16.03.2022
4794 Clouds 4 1030 90 10000 6.41 108 22:40 16.03.2022
4795 Clouds 4 1030 90 10000 6.9 110 22:19 16.03.2022
4796 Clouds 5 1031 91 10000 7.12 117 21:29 16.03.2022
4797 Clouds 5 1031 93 10000 6.06 114 19:26 16.03.2022
4798 Clouds 5 1031 93 10000 6.06 114 18:58 16.03.2022
4799 Clouds 6 1030 90 10000 4.83 110 18:24 16.03.2022
4800 Clouds 7 1030 90 10000 4.83 110 17:37 16.03.2022
4801 Clouds 7 1030 85 10000 4.82 109 16:50 16.03.2022
4802 Clouds 7 1030 82 10000 5.23 98 15:53 16.03.2022
4803 Clear 7 1031 80 10000 4.84 76 14:24 16.03.2022
4804 Clear 5 1031 80 10000 3.98 70 13:22 16.03.2022
4805 Clear 5 1030 79 10000 3.47 65 11:53 16.03.2022
4806 Clear 6 1030 83 10000 2.81 67 11:20 16.03.2022
4807 Clear 5 1029 86 10000 3.35 71 10:18 16.03.2022
4808 Clear 4 1029 89 10000 3.59 64 08:38 16.03.2022
4809 Clear 5 1027 87 10000 2 8 04:35 16.03.2022
4810 Clouds 5 1026 84 10000 0.85 47 00:48 16.03.2022
4811 Clouds 5 1026 83 10000 1.24 66 22:37 15.03.2022
4812 Clouds 5 1026 83 10000 1.27 351 21:52 15.03.2022
4813 Clouds 6 1025 84 10000 0.9 332 19:53 15.03.2022
4814 Clouds 8 1025 81 10000 0.86 283 18:54 15.03.2022
4815 Clouds 10 1025 84 10000 2.52 280 16:55 15.03.2022
4816 Clouds 11 1025 86 10000 2.72 270 16:20 15.03.2022
4817 Clouds 5 1026 87 10000 3.23 259 14:57 15.03.2022
4818 Clouds 5 1026 87 10000 3.23 259 14:34 15.03.2022
4819 Clouds 5 1027 91 10000 4.43 263 13:28 15.03.2022
4820 Clouds 10 1027 91 10000 5.5 260 12:21 15.03.2022
4821 Clouds 9 1027 92 10000 5.8 258 11:29 15.03.2022
4822 Clouds 7 1027 94 10000 5.76 253 09:40 15.03.2022
4823 Clouds 8 1027 96 10000 5.92 251 08:42 15.03.2022
4824 Clouds 8 1027 98 10000 5.91 249 07:50 15.03.2022
4825 Clouds 8 1027 98 10000 5.85 249 06:54 15.03.2022
4826 Clouds 9 1026 95 10000 4.73 244 03:30 15.03.2022
4827 Clouds 5 1026 89 10000 5.33 240 23:40 14.03.2022
4828 Clouds 5 1026 77 10000 4.61 234 23:21 14.03.2022
4829 Clouds 5 1025 74 10000 3.86 231 22:26 14.03.2022
4830 Clouds 8 1025 74 10000 3.86 231 21:30 14.03.2022
4831 Clouds 8 1025 72 10000 3.9 227 20:41 14.03.2022
4832 Clouds 8 1025 71 10000 3.09 203 20:19 14.03.2022
4833 Clouds 6 1025 70 10000 3.58 151 18:55 14.03.2022
4834 Clouds 6 1024 68 10000 4.13 135 17:54 14.03.2022
4835 Clear 7 1024 65 10000 4.33 122 16:58 14.03.2022
4836 Clear 12 1024 62 10000 4.62 123 15:43 14.03.2022
4837 Clear 7 1025 59 10000 5.54 124 14:40 14.03.2022
4838 Clear 6 1026 62 10000 6.08 125 12:29 14.03.2022
4839 Clear 5 1026 63 10000 6.51 128 10:54 14.03.2022
4840 Clear 9 1026 65 10000 6.82 131 09:52 14.03.2022
4841 Clear 4 1026 68 10000 7.36 132 09:22 14.03.2022
4842 Clear 4 1026 68 10000 7.36 132 08:55 14.03.2022
4843 Clear 5 1025 72 10000 7.69 127 07:32 14.03.2022
4844 Clear 4 1025 74 10000 7.21 123 05:46 14.03.2022
4845 Clear 4 1025 68 10000 7.42 126 01:55 14.03.2022
4846 Clear 5 1025 66 10000 7.32 127 01:28 14.03.2022
4847 Clear 5 1025 62 10000 7.44 136 22:44 13.03.2022
4848 Clear 5 1024 61 10000 8.49 137 21:31 13.03.2022
4849 Clear 6 1024 59 10000 9.43 133 20:56 13.03.2022
4850 Clear 6 1024 59 10000 9.43 133 20:31 13.03.2022
4851 Clear 6 1024 59 10000 9.47 127 19:59 13.03.2022
4852 Clear 6 1024 59 10000 9.47 127 19:37 13.03.2022
4853 Clear 6 1023 59 10000 8.91 124 19:18 13.03.2022
4854 Clear 6 1023 59 10000 8.64 125 18:38 13.03.2022
4855 Clear 6 1023 59 10000 8.35 121 17:46 13.03.2022
4856 Clear 7 1023 57 10000 8.47 119 17:20 13.03.2022
4857 Clear 7 1023 57 10000 8.47 119 16:30 13.03.2022
4858 Clear 7 1023 56 10000 8.3 118 15:47 13.03.2022
4859 Clear 7 1023 53 10000 8.06 123 14:58 13.03.2022
4860 Clear 7 1023 51 10000 8.85 126 13:49 13.03.2022
4861 Clear 6 1024 51 10000 9.01 126 12:57 13.03.2022
4862 Clear 6 1024 53 10000 9 127 11:53 13.03.2022
4863 Clear 11 1024 53 10000 9 127 11:32 13.03.2022
4864 Clear 10 1024 55 10000 8.63 132 10:48 13.03.2022
4865 Clear 10 1024 55 10000 8.63 132 10:48 13.03.2022
4866 Clear 4 1024 58 10000 8.46 134 10:24 13.03.2022
4867 Clear 7 1024 58 10000 8.46 134 09:41 13.03.2022
4868 Clear 7 1024 58 10000 8.46 134 09:41 13.03.2022
4869 Clear 5 1024 61 10000 8.33 134 08:47 13.03.2022
4870 Clear 3 1024 64 10000 8.1 134 07:47 13.03.2022
4871 Clouds 2 1024 67 10000 7.58 131 05:48 13.03.2022
4872 Clear 2 1024 70 10000 7.13 131 02:50 13.03.2022
4873 Clear 3 1025 67 10000 5.87 134 00:30 13.03.2022
4874 Clear 4 1025 66 10000 5.36 137 22:44 12.03.2022
4875 Clear 4 1025 65 10000 5.21 143 20:58 12.03.2022
4876 Clear 5 1025 63 10000 6 140 19:57 12.03.2022
4877 Clear 5 1025 63 10000 6 140 19:57 12.03.2022
4878 Clear 5 1025 63 10000 6 140 19:38 12.03.2022
4879 Clear 6 1025 58 10000 7.03 136 18:29 12.03.2022
4880 Clear 6 1025 58 10000 7.03 136 17:39 12.03.2022
4881 Clear 11 1025 53 10000 8.12 130 16:25 12.03.2022
4882 Clear 7 1025 52 10000 8.3 130 15:24 12.03.2022
4883 Clear 7 1025 52 10000 8.3 130 15:24 12.03.2022
4884 Clear 7 1025 52 10000 8.3 130 14:52 12.03.2022
4885 Clear 6 1025 49 10000 8.25 135 13:47 12.03.2022
4886 Clear 11 1026 47 10000 8.42 144 12:25 12.03.2022
4887 Clear 10 1026 47 10000 8.42 144 11:51 12.03.2022
4888 Clear 9 1026 48 10000 8.63 149 11:19 12.03.2022
4889 Clear 6 1027 48 10000 8.88 151 09:58 12.03.2022
4890 Clear 5 1027 48 10000 8.88 151 09:38 12.03.2022
4891 Clear 2 1026 50 10000 9.32 148 07:50 12.03.2022
4892 Clear 1 1027 51 10000 9.62 147 05:20 12.03.2022
4893 Clear 3 1028 49 10000 10.05 152 00:24 12.03.2022
4894 Clear 3 1028 50 10000 10.61 148 23:28 11.03.2022
4895 Clear 4 1028 50 10000 10.63 148 21:48 11.03.2022
4896 Clear 3 1028 51 10000 10.63 146 20:58 11.03.2022
4897 Clear 3 1028 51 10000 10.63 146 20:37 11.03.2022
4898 Clear 4 1028 50 10000 10.76 142 19:54 11.03.2022
4899 Clear 6 1028 49 10000 10.79 138 19:27 11.03.2022
4900 Clear 5 1028 48 10000 10.5 136 17:37 11.03.2022
4901 Clear 7 1028 47 10000 10.41 136 17:18 11.03.2022
4902 Clear 8 1029 46 10000 10.53 135 15:57 11.03.2022
4903 Clear 10 1030 45 10000 10.9 135 14:22 11.03.2022
4904 Clear 8 1030 44 10000 11.04 137 13:21 11.03.2022
4905 Clear 8 1030 45 10000 10.41 140 12:22 11.03.2022
4906 Clear 7 1030 45 10000 10.41 140 11:56 11.03.2022
4907 Clear 5 1031 45 10000 10.03 149 10:24 11.03.2022
4908 Clear 3 1031 50 10000 9.88 146 09:27 11.03.2022
4909 Clear 1 1031 52 10000 9.92 147 08:25 11.03.2022
4910 Clear 1 1031 52 10000 9.92 147 07:46 11.03.2022
4911 Clouds 0 1031 56 10000 10.03 141 06:22 11.03.2022
4912 Clouds 1 1031 56 10000 9.61 144 04:24 11.03.2022
4913 Clouds 3 1032 55 10000 9.45 145 00:21 11.03.2022
4914 Clouds 3 1032 56 10000 9.15 146 22:31 10.03.2022
4915 Clouds 3 1032 57 10000 9.16 147 21:52 10.03.2022
4916 Clouds 5 1032 59 10000 8.86 145 21:24 10.03.2022
4917 Clouds 6 1032 59 10000 8.83 143 19:54 10.03.2022
4918 Clouds 6 1032 61 10000 8.39 138 18:56 10.03.2022
4919 Clouds 5 1032 63 10000 8.36 131 17:37 10.03.2022
4920 Clouds 9 1032 67 10000 8.19 126 16:42 10.03.2022
4921 Clouds 11 1032 73 10000 7.7 128 15:27 10.03.2022
4922 Clouds 5 1032 76 10000 7.55 128 13:30 10.03.2022
4923 Clouds 5 1032 77 10000 7.35 131 12:35 10.03.2022
4924 Clouds 9 1032 81 10000 7.37 140 11:26 10.03.2022
4925 Clear 4 1032 84 10000 7.13 140 09:28 10.03.2022
4926 Clear 2 1032 86 10000 6.68 137 07:47 10.03.2022
4927 Clear 3 1030 87 10000 5.66 135 05:30 10.03.2022
4928 Clear 4 1030 88 10000 5.76 113 01:56 10.03.2022
4929 Clear 4 1030 83 10000 4.76 115 23:30 09.03.2022
4930 Clear 4 1029 80 10000 5.26 114 22:20 09.03.2022
4931 Clear 4 1029 80 10000 5.26 114 21:36 09.03.2022
4932 Clear 4 1029 81 10000 4.97 110 20:31 09.03.2022
4933 Clear 4 1028 81 10000 5.02 102 18:35 09.03.2022
4934 Clear 5 1027 79 10000 4.76 79 17:28 09.03.2022
4935 Clear 5 1027 79 10000 4.76 79 16:36 09.03.2022
4936 Clear 5 1027 77 10000 4.31 71 15:32 09.03.2022
4937 Clear 5 1027 74 10000 3.15 67 13:58 09.03.2022
4938 Clear 4 1027 73 10000 2.77 65 12:59 09.03.2022
4939 Clear 4 1027 69 10000 2.17 40 12:19 09.03.2022
4940 Clear 4 1027 69 10000 2.17 40 11:36 09.03.2022
4941 Clear 4 1027 70 10000 1.96 24 10:49 09.03.2022
4942 Clear 4 1026 72 10000 2.08 19 09:22 09.03.2022
4943 Clear 4 1026 72 10000 2.08 19 08:42 09.03.2022
4944 Clear 1 1026 76 10000 3.17 341 04:47 09.03.2022
4945 Clouds 2 1025 76 10000 2.9 326 00:55 09.03.2022
4946 Clouds 2 1026 72 10000 3.45 300 23:21 08.03.2022
4947 Clouds 3 1026 72 10000 3.45 300 22:45 08.03.2022
4948 Clouds 3 1026 74 10000 3.52 289 21:26 08.03.2022
4949 Clouds 5 1026 74 10000 3.52 289 20:54 08.03.2022
4950 Clouds 6 1025 76 10000 3.28 286 19:59 08.03.2022
4951 Clouds 3 1025 78 10000 3.35 288 18:45 08.03.2022
4952 Clouds 4 1026 78 10000 2.8 291 17:50 08.03.2022
4953 Clouds 8 1026 79 10000 3.05 286 16:35 08.03.2022
4954 Clear 9 1026 82 10000 3.87 281 14:23 08.03.2022
4955 Clear 8 1026 81 10000 3.97 283 13:22 08.03.2022
4956 Clear 8 1027 78 10000 3.52 281 12:19 08.03.2022
4957 Clear 7 1027 78 10000 3.52 281 11:41 08.03.2022
4958 Clear 8 1026 75 10000 3.74 281 10:27 08.03.2022
4959 Clear 2 1026 75 10000 3.9 275 08:30 08.03.2022
4960 Clouds 0 1026 72 10000 2.56 272 05:48 08.03.2022
4961 Clouds 1 1026 71 10000 2.29 331 01:48 08.03.2022
4962 Clouds 2 1027 70 10000 2.99 337 22:41 07.03.2022
4963 Clouds 3 1027 70 10000 3.44 333 21:36 07.03.2022
4964 Clouds 3 1027 70 10000 3.52 335 20:55 07.03.2022
4965 Clouds 4 1026 69 10000 3.84 339 20:29 07.03.2022
4966 Clouds 6 1026 69 10000 3.84 339 19:48 07.03.2022
4967 Clouds 3 1026 67 10000 3.59 350 18:48 07.03.2022
4968 Clouds 5 1026 68 10000 4.02 348 18:28 07.03.2022
4969 Clear 5 1026 69 10000 4.33 343 16:56 07.03.2022
4970 Clear 5 1026 69 10000 4.33 343 16:37 07.03.2022
4971 Clear 8 1026 72 10000 4.68 343 14:41 07.03.2022
4972 Clear 8 1027 75 10000 4.91 343 12:34 07.03.2022
4973 Clear 6 1026 75 10000 5.66 343 11:21 07.03.2022
4974 Clear 4 1026 75 10000 6.19 340 10:26 07.03.2022
4975 Clear 1 1026 78 10000 6.1 345 07:42 07.03.2022
4976 Clear 1 1026 81 10000 4.56 1 01:23 07.03.2022
4977 Clouds 1 1026 80 10000 5.01 2 00:20 07.03.2022
4978 Clouds 1 1026 81 10000 5.03 355 23:19 06.03.2022
4979 Clouds 1 1026 83 10000 4.76 348 22:25 06.03.2022
4980 Clouds 2 1026 82 10000 4.3 334 21:22 06.03.2022
4981 Clouds 2 1025 79 10000 3.32 323 20:29 06.03.2022
4982 Clouds 3 1025 79 10000 3.32 323 19:39 06.03.2022
4983 Clouds 3 1025 77 10000 3.46 322 18:49 06.03.2022
4984 Clouds 4 1025 75 10000 4.35 320 17:46 06.03.2022
4985 Clouds 4 1025 72 10000 3.69 319 17:19 06.03.2022
4986 Clouds 4 1025 70 10000 3.79 328 16:26 06.03.2022
4987 Clouds 4 1025 69 10000 4.18 334 15:25 06.03.2022
4988 Clouds 4 1025 69 10000 4.18 334 14:42 06.03.2022
4989 Clouds 3 1026 69 10000 4.86 332 13:48 06.03.2022
4990 Clouds 3 1026 66 10000 4.21 343 12:39 06.03.2022
4991 Clouds 5 1026 65 10000 4.22 348 11:45 06.03.2022
4992 Clouds 4 1026 67 10000 4.68 349 10:39 06.03.2022
4993 Clouds 3 1026 70 10000 4.69 356 09:18 06.03.2022
4994 Clouds 3 1026 69 10000 4.88 359 08:27 06.03.2022
4995 Clouds 2 1026 69 10000 4.2 6 07:25 06.03.2022
4996 Clouds 1 1026 67 10000 3.1 43 02:22 06.03.2022
4997 Clouds 1 1026 66 10000 2.67 54 00:35 06.03.2022
4998 Clouds 1 1026 66 10000 2.93 68 23:59 05.03.2022
4999 Clouds 2 1026 66 10000 2.85 65 23:19 05.03.2022
5000 Clouds 2 1026 66 10000 2.85 65 22:34 05.03.2022
5001 Clouds 2 1026 66 10000 2.57 82 21:29 05.03.2022
5002 Clouds 2 1026 66 10000 2.57 82 20:32 05.03.2022
5003 Clouds 2 1026 67 10000 3.74 94 19:19 05.03.2022
5004 Clouds 3 1026 67 10000 3.9 92 18:37 05.03.2022
5005 Clouds 3 1026 67 10000 4.51 91 17:34 05.03.2022
5006 Clouds 3 1026 67 10000 4.51 91 17:34 05.03.2022
5007 Clouds 4 1026 65 10000 5.25 80 16:18 05.03.2022
5008 Clouds 4 1026 64 10000 5.26 71 15:20 05.03.2022
5009 Clouds 5 1026 64 10000 5.26 71 14:36 05.03.2022
5010 Clouds 5 1026 64 10000 5.1 67 13:42 05.03.2022
5011 Clouds 5 1026 65 10000 4.61 74 12:40 05.03.2022
5012 Clouds 4 1027 65 10000 4.36 86 11:20 05.03.2022
5013 Clouds 4 1027 65 10000 4.36 86 10:52 05.03.2022
5014 Clouds 3 1027 66 10000 4.28 91 09:33 05.03.2022
5015 Clouds 2 1026 70 10000 4.03 91 08:28 05.03.2022
5016 Clear 2 1026 72 10000 4.37 88 07:22 05.03.2022
5017 Clear 2 1026 73 10000 4.35 85 05:39 05.03.2022
5018 Clear 2 1027 74 10000 4.83 91 00:49 05.03.2022
5019 Clear 2 1026 75 10000 5.38 88 23:20 04.03.2022
5020 Clear 2 1026 75 10000 5.38 88 22:39 04.03.2022
5021 Clear 2 1026 74 10000 5.78 86 21:43 04.03.2022
5022 Clear 3 1026 74 10000 5.88 83 20:45 04.03.2022
5023 Clear 1 1026 74 10000 5.54 79 19:38 04.03.2022
5024 Clear 3 1026 74 10000 5.17 80 18:59 04.03.2022
5025 Clear 3 1026 74 10000 5.17 80 18:36 04.03.2022
5026 Clear 5 1026 71 10000 5.46 76 17:29 04.03.2022
5027 Clear 6 1026 69 10000 5.8 74 16:26 04.03.2022
5028 Clear 6 1026 69 10000 6.05 69 15:27 04.03.2022
5029 Clear 4 1026 69 10000 5.92 68 13:38 04.03.2022
5030 Clear 7 1026 70 10000 5.98 67 12:51 04.03.2022
5031 Clear 6 1026 71 10000 6.24 66 11:37 04.03.2022
5032 Clear 6 1026 72 10000 6.04 67 10:30 04.03.2022
5033 Clear 4 1026 74 10000 6 65 09:28 04.03.2022
5034 Clear 2 1025 77 10000 5.69 63 08:20 04.03.2022
5035 Clear 0 1025 79 10000 5.17 61 06:59 04.03.2022
5036 Clouds 1 1024 81 10000 4.05 66 03:28 04.03.2022
5037 Clear 1 1024 82 10000 3.6 65 00:19 04.03.2022
5038 Clear 2 1024 81 10000 2.91 79 22:21 03.03.2022
5039 Clear 3 1024 81 10000 2.91 79 21:39 03.03.2022
5040 Clear 2 1023 81 10000 3.33 83 20:59 03.03.2022
5041 Clear 5 1023 81 10000 3.64 72 19:48 03.03.2022
5042 Clear 2 1023 82 10000 3.83 59 18:51 03.03.2022
5043 Clear 3 1022 83 10000 4.32 59 18:22 03.03.2022
5044 Clear 6 1022 82 10000 4.78 51 17:27 03.03.2022
5045 Clear 6 1022 80 10000 4.97 48 15:48 03.03.2022
5046 Clear 6 1022 79 10000 4.71 45 15:20 03.03.2022
5047 Clear 6 1022 79 10000 4.71 45 14:42 03.03.2022
5048 Clear 8 1023 79 10000 4.58 43 13:18 03.03.2022
5049 Clear 4 1022 77 10000 4.33 39 11:51 03.03.2022
5050 Clear 3 1022 77 10000 4.38 34 10:41 03.03.2022
5051 Clear 3 1022 80 10000 4.63 29 08:57 03.03.2022
5052 Clear 3 1022 82 10000 4.69 23 07:45 03.03.2022
5053 Clear 3 1022 83 10000 4.14 24 06:35 03.03.2022
5054 Clear 2 1023 84 10000 4.21 349 01:52 03.03.2022
5055 Clouds 1 1023 83 10000 3.48 342 23:31 02.03.2022
5056 Clouds 2 1024 82 10000 3.28 342 22:52 02.03.2022
5057 Clouds 2 1024 81 10000 3.56 346 21:32 02.03.2022
5058 Clouds 2 1024 79 10000 3.26 334 20:46 02.03.2022
5059 Clouds 2 1024 79 10000 2.37 333 20:24 02.03.2022
5060 Clouds 3 1024 79 10000 2.37 333 19:36 02.03.2022
5061 Clear 3 1024 75 10000 2.38 340 18:48 02.03.2022
5062 Clear 5 1024 74 10000 2.39 339 18:18 02.03.2022
5063 Clear 6 1024 74 10000 2.39 339 17:32 02.03.2022
5064 Clear 4 1024 72 10000 2.28 339 16:51 02.03.2022
5065 Clear 6 1025 71 10000 2.47 347 14:49 02.03.2022
5066 Clouds 6 1026 70 10000 2.02 349 13:29 02.03.2022
5067 Clouds 6 1026 68 10000 1.58 327 12:44 02.03.2022
5068 Clouds 8 1027 65 10000 1.88 326 11:59 02.03.2022
5069 Clouds 5 1027 63 10000 1.14 284 11:25 02.03.2022
5070 Clouds 3 1027 62 10000 1.08 239 10:25 02.03.2022
5071 Clouds 3 1027 62 10000 1.35 231 09:25 02.03.2022
5072 Clouds 2 1027 63 10000 1.3 231 07:59 02.03.2022
5073 Clouds 1 1027 59 10000 1.74 204 07:23 02.03.2022
5074 Clouds 2 1028 60 10000 2.28 200 03:56 02.03.2022
5075 Clouds 3 1029 59 10000 3.26 206 00:39 02.03.2022
5076 Clouds 3 1030 60 10000 3.87 191 22:53 01.03.2022
5077 Clouds 3 1030 60 10000 3.87 191 22:35 01.03.2022
5078 Clouds 4 1030 60 10000 4.18 194 21:26 01.03.2022
5079 Clouds 4 1030 60 10000 4.18 194 20:38 01.03.2022
5080 Clouds 5 1030 60 10000 3.96 184 20:19 01.03.2022
5081 Clouds 5 1030 59 10000 3.79 183 18:52 01.03.2022
5082 Clouds 6 1030 57 10000 3.45 193 18:22 01.03.2022
5083 Clouds 5 1030 57 10000 3.45 193 17:39 01.03.2022
5084 Clouds 7 1030 56 10000 3.62 193 16:36 01.03.2022
5085 Clouds 7 1030 54 10000 3.87 199 15:47 01.03.2022
5086 Clouds 8 1030 53 10000 4.42 200 14:54 01.03.2022
5087 Clouds 8 1030 53 10000 4.42 200 14:31 01.03.2022
5088 Clouds 7 1031 52 10000 6.29 191 13:26 01.03.2022
5089 Clear 6 1031 52 10000 5.92 193 12:36 01.03.2022
5090 Clear 6 1031 52 10000 7.1 186 11:35 01.03.2022
5091 Clear 3 1033 57 10000 8.04 183 09:52 01.03.2022
5092 Clear 1 1033 67 10000 7.93 174 08:25 01.03.2022
5093 Clear 0 1033 67 10000 7.1 176 06:47 01.03.2022
5094 Clear 1 1034 67 10000 7.22 173 03:27 01.03.2022
5095 Clear 2 1035 66 10000 7.31 176 00:48 01.03.2022
5096 Clear 2 1035 64 10000 7.88 176 23:46 28.02.2022
5097 Clear 3 1035 64 10000 7.89 175 22:43 28.02.2022
5098 Clear 3 1035 65 10000 7.77 173 21:48 28.02.2022
5099 Clear 3 1035 65 10000 7.59 169 20:54 28.02.2022
5100 Clear 4 1035 66 10000 7.06 166 19:51 28.02.2022
5101 Clear 5 1035 65 10000 6.32 166 18:57 28.02.2022
5102 Clear 6 1035 67 10000 5.87 149 17:57 28.02.2022
5103 Clear 6 1035 64 10000 5.63 142 17:23 28.02.2022
5104 Clear 7 1035 64 10000 5.63 142 16:32 28.02.2022
5105 Clear 8 1035 57 10000 5.39 143 15:21 28.02.2022
5106 Clear 9 1036 57 10000 4.72 147 14:29 28.02.2022
5107 Clear 7 1036 57 10000 4.73 154 13:24 28.02.2022
5108 Clear 7 1036 56 10000 4.73 153 12:31 28.02.2022
5109 Clear 6 1036 57 10000 5.11 156 11:37 28.02.2022
5110 Clear 5 1036 61 10000 5.34 160 10:24 28.02.2022
5111 Clear 3 1036 61 10000 5.34 160 09:59 28.02.2022
5112 Clear 3 1036 66 10000 5.11 161 09:27 28.02.2022
5113 Clear 1 1036 68 10000 4.35 167 08:26 28.02.2022
5114 Clear 1 1036 68 10000 4.35 167 08:26 28.02.2022
5115 Clear 0 1036 64 10000 4.26 164 06:53 28.02.2022
5116 Clear 1 1036 65 10000 3.93 169 04:31 28.02.2022
5117 Clear 1 1036 66 10000 3.99 167 03:30 28.02.2022
5118 Clear 2 1037 74 10000 4.44 142 23:26 27.02.2022
5119 Clear 3 1037 74 10000 4.44 142 22:33 27.02.2022
5120 Clear 3 1037 74 10000 4.61 136 21:47 27.02.2022
5121 Clear 3 1037 76 10000 4.7 131 20:54 27.02.2022
5122 Clear 3 1037 77 10000 4.86 127 20:27 27.02.2022
5123 Clear 4 1037 77 10000 4.86 127 19:56 27.02.2022
5124 Clear 4 1037 78 10000 5.27 122 19:26 27.02.2022
5125 Clear 5 1037 78 10000 5.27 122 18:40 27.02.2022
5126 Clear 5 1037 78 10000 5.31 113 17:54 27.02.2022
5127 Clear 7 1037 76 10000 4.71 113 16:38 27.02.2022
5128 Clear 7 1037 73 10000 4.53 118 15:59 27.02.2022
5129 Clear 6 1038 73 10000 4 127 13:21 27.02.2022
5130 Clear 6 1038 73 10000 3.97 127 12:32 27.02.2022
5131 Clear 3 1039 77 10000 4.47 136 10:54 27.02.2022
5132 Clear 5 1038 81 10000 4.73 137 10:18 27.02.2022
5133 Clear 5 1038 81 10000 4.73 137 09:44 27.02.2022
5134 Clear 4 1038 84 10000 4.82 135 09:19 27.02.2022
5135 Clear 1 1038 85 10000 4.44 132 07:37 27.02.2022
5136 Clear 1 1038 84 10000 4.38 120 05:38 27.02.2022
5137 Clear 2 1038 82 10000 3.62 120 01:53 27.02.2022
5138 Clear 2 1038 81 10000 4.34 124 23:22 26.02.2022
5139 Clear 3 1037 81 10000 4.2 115 21:58 26.02.2022
5140 Clear 3 1037 79 10000 3.5 110 20:59 26.02.2022
5141 Clear 3 1036 78 10000 3.58 100 20:20 26.02.2022
5142 Clear 4 1036 78 10000 3.58 100 19:50 26.02.2022
5143 Clear 5 1036 76 10000 3.43 89 19:26 26.02.2022
5144 Clear 5 1035 76 10000 3.64 86 17:52 26.02.2022
5145 Clear 7 1035 75 10000 3.55 81 17:28 26.02.2022
5146 Clear 5 1035 75 10000 3.56 63 16:19 26.02.2022
5147 Clear 6 1035 76 10000 3.48 53 15:25 26.02.2022
5148 Clear 6 1035 76 10000 3.48 53 14:56 26.02.2022
5149 Clear 6 1035 76 10000 3.48 53 14:38 26.02.2022
5150 Clear 6 1034 77 10000 4.03 47 13:27 26.02.2022
5151 Clear 6 1034 77 10000 4.03 47 12:51 26.02.2022
5152 Clear 6 1033 73 10000 4.91 35 11:29 26.02.2022
5153 Clear 6 1033 73 10000 4.91 35 10:56 26.02.2022
5154 Clear 6 1031 75 10000 6.72 22 09:21 26.02.2022
5155 Clear 4 1029 76 10000 7.35 15 07:57 26.02.2022
5156 Clear 5 1023 89 10000 8.57 320 03:21 26.02.2022
5157 Clear 6 1019 84 10000 8.37 285 23:32 25.02.2022
5158 Clear 6 1017 83 10000 8.93 289 22:18 25.02.2022
5159 Clear 6 1016 82 10000 8.15 282 21:29 25.02.2022
5160 Clear 5 1016 82 10000 8.15 282 20:33 25.02.2022
5161 Clear 5 1015 82 10000 6.24 284 19:53 25.02.2022
5162 Clouds 6 1013 85 10000 8.49 268 17:54 25.02.2022
5163 Clouds 6 1012 87 10000 10 257 16:47 25.02.2022
5164 Rain 5 1011 91 10000 11.51 249 15:49 25.02.2022
5165 Rain 6 1011 88 10000 12.48 246 15:23 25.02.2022
5166 Clouds 6 1011 88 10000 12.48 246 14:55 25.02.2022
5167 Clouds 6 1010 89 10000 12.51 239 14:19 25.02.2022
5168 Clouds 6 1010 89 10000 12.51 239 13:30 25.02.2022
5169 Clouds 6 1010 83 10000 12.72 245 12:21 25.02.2022
5170 Clouds 6 1010 84 10000 13.38 244 11:21 25.02.2022
5171 Clouds 6 1009 85 10000 13.64 244 10:23 25.02.2022
5172 Clouds 5 1009 85 10000 13.64 244 09:45 25.02.2022
5173 Clouds 5 1008 89 10000 14.18 248 08:22 25.02.2022
5174 Rain 4 1007 96 1066 13.13 240 06:56 25.02.2022
5175 Clouds 3 1007 83 10000 13.44 250 05:42 25.02.2022
5176 Clouds 3 1006 79 10000 13.16 263 02:46 25.02.2022
5177 Clouds 5 1001 96 523 15.06 285 22:47 24.02.2022
5178 Rain 5 999 97 245 16.56 293 21:51 24.02.2022
5179 Rain 5 999 97 245 16.56 293 21:31 24.02.2022
5180 Rain 7 997 84 10000 13.14 221 20:47 24.02.2022
5181 Clouds 9 998 81 10000 11.89 210 19:32 24.02.2022
5182 Clouds 9 998 78 10000 11.35 203 18:36 24.02.2022
5183 Clouds 9 1000 79 10000 9.5 200 18:18 24.02.2022
5184 Clouds 9 1000 79 10000 9.5 200 17:33 24.02.2022
5185 Clouds 9 1002 77 10000 9.98 198 16:28 24.02.2022
5186 Clouds 9 1002 77 10000 9.98 198 15:46 24.02.2022
5187 Clouds 10 1003 77 10000 9.54 200 14:52 24.02.2022
5188 Clouds 9 1005 77 10000 9.24 204 14:20 24.02.2022
5189 Clouds 9 1005 77 10000 9.24 204 13:39 24.02.2022
5190 Clouds 8 1007 78 10000 9.98 202 12:27 24.02.2022
5191 Clouds 8 1008 78 10000 10.16 206 10:40 24.02.2022
5192 Clouds 7 1010 78 10000 9.66 202 08:56 24.02.2022
5193 Clouds 7 1010 78 10000 9.66 202 08:38 24.02.2022
5194 Clouds 6 1011 81 10000 9.85 206 05:52 24.02.2022
5195 Clear 6 1014 80 10000 10.28 197 01:56 24.02.2022
5196 Clouds 6 1017 81 10000 9.63 213 22:38 23.02.2022
5197 Clouds 6 1017 81 10000 9.63 213 22:38 23.02.2022
5198 Clouds 6 1017 82 10000 9.07 212 21:37 23.02.2022
5199 Clouds 7 1018 83 10000 8.53 213 20:31 23.02.2022
5200 Clouds 7 1019 84 10000 7.45 210 19:44 23.02.2022
5201 Clouds 7 1019 83 10000 7.03 221 18:32 23.02.2022
5202 Clear 8 1019 81 10000 8.03 238 17:36 23.02.2022
5203 Clear 7 1019 86 10000 8.24 265 14:42 23.02.2022
5204 Clear 8 1019 86 10000 10.69 274 12:42 23.02.2022
5205 Clear 8 1018 87 10000 11.56 275 11:34 23.02.2022
5206 Clear 7 1017 85 10000 12.08 279 10:31 23.02.2022
5207 Clear 7 1016 85 10000 13.56 281 08:59 23.02.2022
5208 Clear 7 1014 83 10000 13.77 281 08:23 23.02.2022
5209 Clouds 6 1011 79 10000 14.71 288 05:49 23.02.2022
5210 Clouds 7 1005 79 10000 16.14 286 00:40 23.02.2022
5211 Clouds 7 1004 84 10000 15.06 291 23:38 22.02.2022
5212 Rain 7 1002 93 10000 12.27 251 22:41 22.02.2022
5213 Rain 6 1003 95 6410 9.56 199 21:49 22.02.2022
5214 Rain 6 1003 95 6410 9.56 199 21:31 22.02.2022
5215 Rain 6 1004 94 10000 9.39 186 20:57 22.02.2022
5216 Clouds 6 1004 94 10000 9.39 186 20:30 22.02.2022
5217 Rain 6 1006 94 10000 8.5 194 19:47 22.02.2022
5218 Clouds 6 1007 83 10000 8.42 212 19:28 22.02.2022
5219 Clouds 7 1007 81 10000 6.17 210 18:21 22.02.2022
5220 Clouds 7 1008 82 10000 5.95 227 17:24 22.02.2022
5221 Clouds 7 1008 82 10000 5.95 227 16:41 22.02.2022
5222 Clouds 7 1008 82 10000 5.95 227 16:41 22.02.2022
5223 Clouds 7 1009 80 10000 6.14 236 15:59 22.02.2022
5224 Clouds 7 1010 74 10000 6.76 252 14:48 22.02.2022
5225 Clouds 7 1011 69 10000 6.64 281 12:48 22.02.2022
5226 Clouds 5 1009 67 10000 6.76 304 10:53 22.02.2022
5227 Clouds 5 1008 71 10000 7.93 319 08:53 22.02.2022
5228 Clouds 5 1006 80 10000 9.45 313 07:27 22.02.2022
5229 Clouds 5 1006 86 10000 9.12 306 06:52 22.02.2022
5230 Clouds 6 1001 79 10000 8.89 312 02:47 22.02.2022
5231 Clouds 6 996 86 10000 10.99 297 23:18 21.02.2022
5232 Clouds 6 994 85 10000 11.97 291 21:56 21.02.2022
5233 Clouds 5 992 83 10000 12.36 282 20:38 21.02.2022
5234 Clouds 5 992 83 10000 12.36 282 20:38 21.02.2022
5235 Clouds 5 991 86 10000 13.92 265 18:47 21.02.2022
5236 Clouds 5 990 90 10000 14.06 257 17:41 21.02.2022
5237 Clouds 5 990 90 10000 14.06 257 17:41 21.02.2022
5238 Clouds 6 989 93 10000 15.31 256 15:36 21.02.2022
5239 Clouds 5 988 92 10000 14.82 247 14:22 21.02.2022
5240 Clouds 5 988 92 10000 14.82 247 13:30 21.02.2022
5241 Clouds 6 986 80 10000 16.85 251 12:24 21.02.2022
5242 Clouds 6 986 80 10000 16.85 251 11:31 21.02.2022
5243 Clouds 6 984 78 10000 18.81 255 10:23 21.02.2022
5244 Rain 6 979 75 10000 20.55 247 05:40 21.02.2022
5245 Rain 10 980 89 10000 15.49 214 00:30 21.02.2022
5246 Rain 10 985 92 10000 13.68 214 22:30 20.02.2022
5247 Rain 10 987 93 10000 12.58 214 21:43 20.02.2022
5248 Clouds 10 988 92 10000 12.43 223 21:19 20.02.2022
5249 Clouds 10 988 92 10000 12.43 223 20:42 20.02.2022
5250 Clouds 10 990 91 10000 12.3 230 19:42 20.02.2022
5251 Clouds 9 991 93 10000 12.39 234 18:54 20.02.2022
5252 Clouds 9 991 93 10000 12.39 234 18:34 20.02.2022
5253 Rain 8 992 94 10000 11.64 222 17:55 20.02.2022
5254 Rain 6 995 97 864 11.25 193 16:18 20.02.2022
5255 Rain 5 997 98 62 10.27 177 14:53 20.02.2022
5256 Rain 5 999 87 10000 10.33 198 13:58 20.02.2022
5257 Clouds 6 1001 83 10000 9.52 214 12:35 20.02.2022
5258 Clouds 5 1003 83 10000 8.15 241 10:52 20.02.2022
5259 Clouds 5 1004 81 10000 9.15 255 10:20 20.02.2022
5260 Clouds 4 1004 83 10000 9.53 262 08:58 20.02.2022
5261 Rain 4 1003 99 44 7.56 237 02:54 20.02.2022
5262 Clouds 5 1004 81 10000 10.16 226 00:31 20.02.2022
5263 Clouds 5 1004 80 10000 10.89 230 23:30 19.02.2022
5264 Clouds 5 1005 80 10000 11.97 236 22:23 19.02.2022
5265 Clouds 5 1005 80 10000 11.97 236 21:45 19.02.2022
5266 -273 0 0 0 0 0 20:25 19.02.2022
5267 -273 0 0 0 0 0 20:25 19.02.2022
5268 Clouds 5 1005 80 10000 13.21 248 20:24 19.02.2022
5269 Clouds 5 1005 80 10000 13.21 248 19:34 19.02.2022
5270 Clouds 5 1005 82 10000 13.96 249 18:38 19.02.2022
5271 Clouds 5 1004 81 10000 13.75 251 17:54 19.02.2022
5272 Clouds 6 1004 80 10000 13.18 256 16:47 19.02.2022
5273 Clouds 7 1003 81 10000 14.77 266 15:20 19.02.2022
5274 Clouds 7 1003 81 10000 14.77 266 14:53 19.02.2022
5275 Clouds 8 1002 78 10000 16.12 272 13:55 19.02.2022
5276 Clouds 7 999 77 10000 17.95 279 11:42 19.02.2022
5277 Clouds 7 997 77 10000 18.69 280 10:45 19.02.2022
5278 Clouds 6 992 78 10000 19.98 274 08:54 19.02.2022
5279 Rain 6 987 80 10000 21.2 278 06:45 19.02.2022
5280 Rain 6 980 87 10000 23.3 244 00:23 19.02.2022
5281 Clouds 8 979 80 10000 20.72 230 22:24 18.02.2022
5282 Clouds 8 980 74 10000 17.93 228 21:21 18.02.2022
5283 Clouds 9 980 71 10000 14.79 233 19:56 18.02.2022
5284 Rain 9 980 90 7347 15.18 197 18:51 18.02.2022
5285 Rain 8 983 91 10000 14.18 187 18:28 18.02.2022
5286 Rain 8 983 91 10000 14.18 187 17:56 18.02.2022
5287 Rain 6 989 97 572 11.76 161 15:57 18.02.2022
5288 Rain 6 995 86 10000 8.67 194 13:56 18.02.2022
5289 Rain 6 995 86 10000 8.67 194 13:32 18.02.2022
5290 Clouds 7 998 74 10000 7.46 205 12:48 18.02.2022
5291 Clouds 6 1000 79 10000 8.07 221 11:56 18.02.2022
5292 Clouds 6 1001 84 10000 8.68 238 10:42 18.02.2022
5293 Clouds 5 1002 79 10000 12.53 263 07:20 18.02.2022
5294 Clouds 5 1002 77 10000 13.19 271 05:43 18.02.2022
5295 Clouds 6 1001 76 10000 14.74 277 03:47 18.02.2022
5296 Clouds 6 995 81 10000 17.54 281 21:59 17.02.2022
5297 Clouds 6 995 81 10000 17.54 281 21:33 17.02.2022
5298 Rain 6 994 90 10000 18.13 280 20:42 17.02.2022
5299 Clouds 6 994 83 10000 16.82 274 19:55 17.02.2022
5300 Clouds 6 993 80 10000 16.81 272 18:57 17.02.2022
5301 Clouds 7 992 77 10000 15.85 275 18:29 17.02.2022
5302 Clouds 7 992 77 10000 15.85 275 17:30 17.02.2022
5303 Clouds 7 990 87 10000 14.95 281 15:50 17.02.2022
5304 Rain 7 988 76 10000 11.86 282 14:29 17.02.2022
5305 Clouds 7 988 76 10000 11.86 282 13:31 17.02.2022
5306 Clouds 7 985 78 10000 15.14 299 11:48 17.02.2022
5307 Clouds 7 979 88 10000 15.04 296 09:58 17.02.2022
5308 Clouds 7 976 92 10000 15.76 262 07:45 17.02.2022
5309 Rain 11 976 90 10000 15.56 225 23:23 16.02.2022
5310 Rain 11 978 92 9060 13.6 222 22:28 16.02.2022
5311 Rain 12 982 90 10000 12.16 239 20:22 16.02.2022
5312 Clouds 12 984 89 10000 14.33 252 18:56 16.02.2022
5313 Clouds 12 985 87 10000 14.89 249 18:27 16.02.2022
5314 Clouds 12 985 87 10000 14.4 246 17:22 16.02.2022
5315 Clouds 11 985 91 10000 14.04 224 15:23 16.02.2022
5316 Rain 8 986 89 10000 14.57 207 13:46 16.02.2022
5317 Rain 7 991 92 9018 11.78 202 12:26 16.02.2022
5318 Rain 7 991 92 9018 11.78 202 11:46 16.02.2022
5319 Rain 7 992 94 8051 8.9 193 10:34 16.02.2022
5320 Rain 7 994 96 7371 5.05 174 09:39 16.02.2022
5321 Clouds 6 998 88 10000 7.03 209 06:44 16.02.2022
5322 Clouds 6 1000 93 10000 13.25 227 02:47 16.02.2022
5323 Clouds 7 1003 79 10000 11.53 200 22:34 15.02.2022
5324 Clouds 7 1004 84 10000 10.62 196 21:51 15.02.2022
5325 Clouds 7 1004 84 10000 10.62 196 21:30 15.02.2022
5326 Clouds 7 1005 84 10000 9.84 196 20:58 15.02.2022
5327 Clouds 7 1005 83 10000 9.45 198 20:26 15.02.2022
5328 Clouds 8 1005 83 10000 9.45 198 19:46 15.02.2022
5329 Clouds 8 1006 84 10000 7.19 197 18:27 15.02.2022
5330 Clouds 8 1006 84 10000 7.19 197 17:55 15.02.2022
5331 Clouds 8 1006 84 10000 7.19 197 17:37 15.02.2022
5332 Clouds 9 1006 87 10000 6.39 233 15:44 15.02.2022
5333 Clouds 10 1007 88 10000 6.93 240 14:31 15.02.2022
5334 Clouds 8 1007 87 10000 9.28 251 13:26 15.02.2022
5335 Clouds 8 1006 86 10000 9.81 253 11:41 15.02.2022
5336 Clouds 8 1006 86 10000 10.71 249 10:32 15.02.2022
5337 Clouds 7 1004 89 10000 12.14 246 08:56 15.02.2022
5338 Clouds 8 1003 83 10000 10.95 216 06:47 15.02.2022
5339 Clouds 8 1003 90 10000 7.41 207 00:26 15.02.2022
5340 Clouds 9 1003 87 10000 7.72 217 21:59 14.02.2022
5341 Clouds 10 1002 84 10000 7.59 219 21:19 14.02.2022
5342 Clouds 10 1002 84 10000 7.15 213 20:19 14.02.2022
5343 Clouds 11 1002 84 10000 7.15 213 19:30 14.02.2022
5344 Clouds 11 1001 82 10000 8.01 200 18:24 14.02.2022
5345 Clouds 11 1001 82 10000 8.01 200 17:37 14.02.2022
5346 Clouds 11 1001 80 10000 8.15 207 17:18 14.02.2022
5347 Clouds 12 1001 78 10000 8.5 206 15:58 14.02.2022
5348 Clouds 12 1001 74 10000 9.49 204 13:37 14.02.2022
5349 Clouds 12 1001 72 10000 10.01 197 13:18 14.02.2022
5350 Clouds 10 1001 71 10000 9.9 198 12:32 14.02.2022
5351 Clouds 10 1001 71 10000 10.38 194 11:43 14.02.2022
5352 Clouds 8 1001 74 10000 10.65 186 10:22 14.02.2022
5353 Clouds 6 1001 75 10000 10.68 188 08:34 14.02.2022
5354 Clouds 5 1001 78 10000 10.75 185 07:26 14.02.2022
5355 Clouds 5 1006 83 10000 9.71 191 23:37 13.02.2022
5356 Clouds 5 1007 80 10000 9.26 192 22:41 13.02.2022
5357 Clouds 5 1007 75 10000 9.05 193 22:23 13.02.2022
5358 Clouds 5 1008 73 10000 9.14 196 21:27 13.02.2022
5359 Clouds 4 1008 73 10000 9.14 196 20:30 13.02.2022
5360 Clouds 4 1009 70 10000 8.99 196 19:24 13.02.2022
5361 Clouds 5 1009 70 10000 8.75 197 18:42 13.02.2022
5362 Clouds 5 1010 69 10000 8.78 195 17:54 13.02.2022
5363 Clouds 7 1010 64 10000 8.88 199 15:54 13.02.2022
5364 Clouds 7 1010 64 10000 8.88 199 15:54 13.02.2022
5365 Clouds 8 1011 63 10000 8.91 203 14:58 13.02.2022
5366 Clouds 7 1012 62 10000 8.73 211 13:59 13.02.2022
5367 Clouds 7 1012 62 10000 9.11 207 12:50 13.02.2022
5368 Clouds 5 1013 69 10000 10.07 203 11:26 13.02.2022
5369 Clouds 4 1013 69 10000 10.07 203 10:30 13.02.2022
5370 Clouds 3 1014 72 10000 10.2 205 09:45 13.02.2022
5371 Clouds 2 1015 79 10000 10.14 199 07:21 13.02.2022
5372 Clouds 1 1020 72 10000 9.46 200 00:35 13.02.2022
5373 Clouds 2 1020 72 10000 10.02 200 23:42 12.02.2022
5374 Clouds 2 1021 73 10000 10.19 199 22:33 12.02.2022
5375 Clouds 2 1023 75 10000 10.06 199 21:27 12.02.2022
5376 Clouds 2 1023 75 10000 10.06 199 20:34 12.02.2022
5377 Clouds 3 1023 72 10000 9.59 201 19:30 12.02.2022
5378 Clouds 3 1024 71 10000 9.43 202 18:53 12.02.2022
5379 Clouds 3 1024 71 10000 9.43 202 18:35 12.02.2022
5380 Clouds 4 1025 69 10000 8.55 209 17:19 12.02.2022
5381 Clouds 5 1026 67 10000 8.49 213 16:26 12.02.2022
5382 Clouds 6 1026 67 10000 8.49 213 15:51 12.02.2022
5383 Clouds 6 1026 67 10000 8.49 213 15:51 12.02.2022
5384 Clouds 6 1026 66 10000 8.37 215 14:31 12.02.2022
5385 Clouds 6 1028 67 10000 8.79 222 13:22 12.02.2022
5386 Clouds 5 1029 76 10000 7.97 223 11:18 12.02.2022
5387 Clouds 2 1030 77 10000 7.44 223 09:51 12.02.2022
5388 Clouds 1 1030 79 10000 6.98 227 09:27 12.02.2022
5389 Clouds 0 1030 79 10000 6.98 227 08:45 12.02.2022
5390 Clear 0 1030 72 10000 6.17 244 05:40 12.02.2022
5391 Clear 0 1030 69 10000 5.61 257 04:33 12.02.2022
5392 Clear 0 1030 67 10000 6.05 288 02:18 12.02.2022
5393 Clear 3 1030 65 10000 6.7 307 22:57 11.02.2022
5394 Clear 3 1029 64 10000 7.26 313 22:20 11.02.2022
5395 Clear 3 1028 63 10000 7.86 318 20:52 11.02.2022
5396 Clear 4 1027 61 10000 8.82 326 19:50 11.02.2022
5397 Clouds 4 1026 64 10000 9.76 331 19:27 11.02.2022
5398 Clouds 5 1024 64 10000 10.42 325 18:29 11.02.2022
5399 Clouds 5 1023 67 10000 10.45 325 17:26 11.02.2022
5400 Clouds 6 1022 77 10000 9.15 313 16:26 11.02.2022
5401 Clouds 6 1021 93 10000 9.58 320 14:59 11.02.2022
5402 Clouds 6 1021 93 10000 9.58 320 14:37 11.02.2022
5403 Clouds 7 1020 93 6030 9.17 296 14:18 11.02.2022
5404 Clouds 7 1020 93 6030 9.17 296 13:40 11.02.2022
5405 Clouds 4 1020 89 10000 8.83 285 12:37 11.02.2022
5406 Clouds 4 1018 84 10000 8.01 286 10:31 11.02.2022
5407 Clouds 4 1017 87 10000 7.9 276 09:22 11.02.2022
5408 Clouds 3 1017 87 10000 7.9 276 08:31 11.02.2022
5409 Clouds 3 1016 85 10000 8.84 272 07:40 11.02.2022
5410 Clouds 3 1015 87 10000 8.56 263 02:40 11.02.2022
5411 Clouds 3 1015 85 10000 9.01 269 02:20 11.02.2022
5412 Clouds 5 1015 85 10000 9.57 267 23:41 10.02.2022
5413 Clouds 5 1015 85 10000 9.98 269 21:55 10.02.2022
5414 Clouds 5 1015 85 10000 9.98 269 21:35 10.02.2022
5415 Clouds 5 1015 84 10000 9.9 271 20:48 10.02.2022
5416 Clouds 6 1015 83 10000 9.84 272 19:49 10.02.2022
5417 Clouds 6 1014 82 10000 9.52 271 19:21 10.02.2022
5418 Clouds 7 1014 85 10000 8.41 265 17:53 10.02.2022
5419 Clouds 7 1014 86 10000 8.19 261 17:21 10.02.2022
5420 Clouds 7 1014 86 10000 8.19 261 16:31 10.02.2022
5421 Clouds 8 1014 88 10000 8.04 261 15:37 10.02.2022
5422 Clouds 8 1014 89 10000 7.9 260 15:18 10.02.2022
5423 Clouds 9 1014 89 10000 7.9 260 14:33 10.02.2022
5424 Clouds 7 1014 88 10000 7.79 256 13:37 10.02.2022
5425 Clouds 7 1014 88 10000 6.86 246 13:18 10.02.2022
5426 Rain 7 1014 89 10000 7.25 247 11:50 10.02.2022
5427 Rain 6 1015 87 10000 6.39 234 11:28 10.02.2022
5428 Rain 6 1015 87 10000 6.09 224 10:22 10.02.2022
5429 Clouds 6 1015 87 10000 6.09 224 09:37 10.02.2022
5430 Clouds 6 1016 91 10000 6.57 229 08:25 10.02.2022
5431 Clouds 6 1016 92 10000 6.32 233 06:32 10.02.2022
5432 Clouds 6 1018 92 10000 7.57 257 02:43 10.02.2022
5433 Clouds 6 1019 93 10000 8.34 258 00:52 10.02.2022
5434 Clouds 7 1019 93 10000 8.34 258 00:30 10.02.2022
5435 Clouds 7 1019 93 10000 8.34 258 00:30 10.02.2022
5436 Clouds 7 1019 92 10000 8.75 262 23:58 09.02.2022
5437 Clouds 7 1019 93 10000 9.02 263 22:54 09.02.2022
5438 Clouds 7 1019 93 10000 9.02 263 22:30 09.02.2022
5439 Clouds 7 1018 92 10000 9.4 264 21:46 09.02.2022
5440 Clouds 7 1018 90 10000 9.97 267 21:26 09.02.2022
5441 Clouds 8 1018 90 10000 9.97 267 20:42 09.02.2022
5442 Clouds 8 1018 90 10000 10.42 266 20:22 09.02.2022
5443 Clouds 8 1018 90 10000 10.42 266 19:41 09.02.2022
5444 Clouds 9 1017 94 10000 10.81 264 18:38 09.02.2022
5445 Clouds 9 1017 95 10000 10.96 256 16:55 09.02.2022
5446 Clouds 10 1017 93 10000 11.76 257 15:59 09.02.2022
5447 Clouds 10 1016 91 10000 12.26 256 15:23 09.02.2022
5448 Clouds 10 1016 89 10000 13 248 12:53 09.02.2022
5449 Clouds 10 1016 89 10000 13.32 247 11:29 09.02.2022
5450 Clouds 10 1016 89 10000 13.32 247 10:33 09.02.2022
5451 Clouds 10 1016 90 10000 12.76 242 09:50 09.02.2022
5452 Clouds 10 1016 92 10000 12.6 240 09:22 09.02.2022
5453 Clouds 10 1016 92 10000 12.6 240 08:44 09.02.2022
5454 Clouds 10 1017 96 10000 10.02 243 05:57 09.02.2022
5455 Clouds 8 1018 97 10000 9.22 252 03:51 09.02.2022
5456 Clouds 8 1019 97 10000 9.05 247 03:25 09.02.2022
5457 Clouds 8 1019 93 10000 9.58 261 23:45 08.02.2022
5458 Clouds 8 1019 94 10000 10.63 261 23:19 08.02.2022
5459 Clouds 8 1019 94 10000 10.63 261 23:19 08.02.2022
5460 Clouds 8 1019 94 10000 10.63 261 22:38 08.02.2022
5461 Clouds 8 1019 94 10000 10.9 262 22:19 08.02.2022
5462 Clouds 8 1019 92 10000 10.7 265 21:22 08.02.2022
5463 Clouds 8 1019 92 10000 10.7 265 20:58 08.02.2022
5464 Clouds 8 1019 92 10000 10.7 265 20:37 08.02.2022
5465 Clouds 8 1019 92 10000 10.7 265 20:37 08.02.2022
5466 Clouds 8 1017 89 10000 10.32 270 19:27 08.02.2022
5467 Clouds 8 1017 94 10000 10.87 268 18:24 08.02.2022
5468 Clouds 8 1017 94 10000 10.87 268 17:30 08.02.2022
5469 Clouds 9 1016 96 10000 12.18 272 15:47 08.02.2022
5470 Clouds 9 1015 96 10000 13.37 268 15:27 08.02.2022
5471 Clouds 9 1015 95 10000 13.54 267 13:50 08.02.2022
5472 Clouds 9 1014 95 10000 14.28 265 12:24 08.02.2022
5473 Clouds 8 1014 95 10000 14.34 260 10:52 08.02.2022
5474 Clouds 7 1014 94 10000 14.25 251 09:49 08.02.2022
5475 Clouds 6 1014 91 10000 13.81 244 08:53 08.02.2022
5476 Clouds 6 1014 91 10000 13.81 244 08:53 08.02.2022
5477 Clouds 5 1015 90 10000 12.21 241 06:49 08.02.2022
5478 Clouds 5 1016 87 10000 10.69 232 04:40 08.02.2022
5479 Clouds 5 1017 90 10000 10.78 240 04:22 08.02.2022
5480 Clouds 5 1017 90 10000 10.78 240 03:36 08.02.2022
5481 Clouds 5 1018 92 10000 10.34 248 03:18 08.02.2022
5482 Clouds 5 1018 92 10000 10.34 248 02:59 08.02.2022
5483 Clouds 5 1018 92 10000 10.34 248 02:36 08.02.2022
5484 Clouds 5 1018 91 10000 10.13 259 02:18 08.02.2022
5485 Clouds 5 1018 91 10000 10.13 259 01:45 08.02.2022
5486 Clouds 5 1018 88 10000 9.49 268 01:25 08.02.2022
5487 Clouds 5 1018 88 10000 9.49 268 00:55 08.02.2022
5488 Clouds 5 1018 88 10000 9.74 268 00:32 08.02.2022
5489 Clouds 6 1018 82 10000 9.85 277 23:45 07.02.2022
5490 Clouds 6 1018 82 10000 10.63 286 23:18 07.02.2022
5491 Clouds 6 1018 82 10000 10.63 286 22:59 07.02.2022
5492 Clouds 6 1018 82 10000 10.63 286 22:59 07.02.2022
5493 Clouds 6 1017 82 10000 11.56 287 22:19 07.02.2022
5494 Clouds 6 1017 82 10000 11.56 287 21:51 07.02.2022
5495 Clouds 6 1016 81 10000 11.53 290 21:27 07.02.2022
5496 Clouds 6 1016 81 10000 11.53 290 20:47 07.02.2022
5497 Clouds 6 1015 81 10000 11.86 292 20:29 07.02.2022
5498 Clouds 7 1015 81 10000 11.86 292 19:47 07.02.2022
5499 Clouds 7 1014 79 10000 13.14 296 18:40 07.02.2022
5500 Clouds 7 1013 78 10000 12.52 294 17:38 07.02.2022
5501 Clouds 7 1012 74 10000 13.95 298 16:52 07.02.2022
5502 Clouds 7 1011 76 10000 13.68 297 15:48 07.02.2022
5503 Clear 8 1010 74 10000 13.52 299 14:30 07.02.2022
5504 Clouds 6 1008 73 10000 14.57 299 13:27 07.02.2022
5505 Clouds 5 1008 73 10000 14.57 299 12:36 07.02.2022
5506 Clouds 5 1007 74 10000 14.26 300 11:52 07.02.2022
5507 Clouds 5 1005 75 10000 13.19 302 11:24 07.02.2022
5508 Clouds 4 1005 75 10000 13.19 302 10:43 07.02.2022
5509 Clouds 7 1004 75 10000 12.87 304 10:24 07.02.2022
5510 Clouds 6 1004 75 10000 12.87 304 09:52 07.02.2022
5511 Clouds 6 1002 77 10000 12.47 307 09:18 07.02.2022
5512 Clear 5 1001 81 10000 12.42 296 07:58 07.02.2022
5513 Clouds 4 999 78 10000 12.35 295 06:35 07.02.2022
5514 Clouds 4 996 83 10000 11.27 302 05:26 07.02.2022
5515 Clouds 4 993 84 10000 10.92 303 02:56 07.02.2022
5516 Clouds 4 990 83 10000 8.72 288 00:29 07.02.2022
5517 Clouds 4 990 83 10000 8.72 288 23:40 06.02.2022
5518 Clouds 4 989 83 10000 10 276 22:46 06.02.2022
5519 Clouds 5 989 83 10000 10.52 273 21:51 06.02.2022
5520 Clouds 5 988 83 10000 10.87 274 21:21 06.02.2022
5521 Clouds 5 988 83 10000 10.87 274 20:52 06.02.2022
5522 Clouds 5 988 85 10000 11.37 273 20:24 06.02.2022
5523 Clouds 5 988 85 10000 11.37 273 19:30 06.02.2022
5524 Clouds 4 987 90 10000 8.33 274 18:35 06.02.2022
5525 Clouds 3 987 94 10000 9.54 271 17:54 06.02.2022
5526 Rain 5 987 95 10000 6.71 241 16:53 06.02.2022
5527 Rain 5 987 95 10000 6.71 241 16:32 06.02.2022
5528 Rain 6 988 95 10000 7.68 229 15:47 06.02.2022
5529 Rain 6 989 93 10000 9.6 230 15:26 06.02.2022
5530 Rain 6 990 94 10000 7.95 226 14:27 06.02.2022
5531 Rain 7 992 91 10000 10.44 238 13:24 06.02.2022
5532 Rain 8 992 92 10000 9.73 238 12:49 06.02.2022
5533 Clouds 8 994 93 10000 8.76 251 11:23 06.02.2022
5534 Clouds 7 994 94 10000 11.1 256 09:56 06.02.2022
5535 Clouds 7 994 93 10000 13.14 258 08:47 06.02.2022
5536 Rain 7 994 94 9301 11.19 240 07:36 06.02.2022
5537 Clouds 7 997 93 9316 14.72 233 05:29 06.02.2022
5538 Clouds 6 1001 96 310 15.24 228 02:26 06.02.2022
5539 Clouds 6 1001 96 310 15.24 228 01:32 06.02.2022
5540 Clouds 6 1003 97 89 14.22 222 00:24 06.02.2022
5541 Clouds 6 1006 97 2194 13.45 223 22:20 05.02.2022
5542 Clouds 6 1007 92 10000 13.03 228 20:59 05.02.2022
5543 Clouds 6 1008 81 10000 13.49 238 20:24 05.02.2022
5544 Clouds 6 1008 81 10000 13.49 238 19:45 05.02.2022
5545 Clouds 6 1008 80 10000 12.74 238 18:52 05.02.2022
5546 Clouds 6 1009 81 10000 12.82 243 17:38 05.02.2022
5547 Clouds 6 1009 81 10000 13.17 249 16:48 05.02.2022
5548 Clouds 6 1009 81 10000 13.36 252 15:34 05.02.2022
5549 Clouds 7 1009 81 10000 13.38 258 14:53 05.02.2022
5550 Clouds 8 1009 82 10000 13.67 261 12:47 05.02.2022
5551 Clouds 7 1009 82 10000 13.65 265 11:49 05.02.2022
5552 Clouds 6 1009 82 10000 13.84 266 10:47 05.02.2022
5553 Clouds 6 1008 81 10000 13.44 270 09:53 05.02.2022
5554 Clouds 5 1007 78 10000 12.92 274 09:29 05.02.2022
5555 Clouds 3 1007 78 10000 12.93 275 07:38 05.02.2022
5556 Clouds 4 1006 78 10000 12.74 267 06:56 05.02.2022
5557 Clouds 5 1004 83 10000 13.2 260 04:28 05.02.2022
5558 Clouds 5 1002 80 10000 11.95 283 01:19 05.02.2022
5559 Clouds 5 1002 80 10000 11.95 283 00:52 05.02.2022
5560 Clouds 5 1001 85 10000 11.68 283 23:39 04.02.2022
5561 Clouds 5 1000 93 10000 11.27 297 23:21 04.02.2022
5562 Rain 5 999 97 62 11.82 299 21:54 04.02.2022
5563 Rain 5 999 97 62 11.82 299 21:36 04.02.2022
5564 Rain 5 997 97 1177 11.01 282 21:18 04.02.2022
5565 Clouds 8 997 87 10000 13.12 226 19:39 04.02.2022
5566 Clouds 8 998 84 10000 11.99 216 17:40 04.02.2022
5567 Clouds 8 1000 83 10000 10.69 214 15:39 04.02.2022
5568 Clouds 8 1001 83 10000 10.46 218 14:52 04.02.2022
5569 Clouds 8 1002 85 10000 9.99 217 13:31 04.02.2022
5570 Clouds 8 1003 87 10000 9.8 215 12:43 04.02.2022
5571 Clouds 7 1004 88 10000 9.95 215 11:41 04.02.2022
5572 Clouds 7 1004 88 10000 9.33 212 10:36 04.02.2022
5573 Clouds 7 1005 91 10000 8.13 208 08:34 04.02.2022
5574 Clouds 7 1006 94 10000 7.27 227 06:18 04.02.2022
5575 Clouds 7 1007 94 10000 7.52 236 02:42 04.02.2022
5576 Clouds 7 1007 95 10000 7.26 232 01:48 04.02.2022
5577 Rain 7 1008 95 10000 7.6 236 23:29 03.02.2022
5578 Clouds 7 1008 95 10000 7.6 236 22:33 03.02.2022
5579 Clouds 7 1008 95 10000 7.42 234 21:49 03.02.2022
5580 Clouds 8 1008 95 10000 7.46 235 20:38 03.02.2022
5581 Clouds 8 1008 95 10000 7.46 235 20:38 03.02.2022
5582 Clouds 8 1008 97 10000 7.42 232 20:18 03.02.2022
5583 Clouds 8 1008 97 10000 7.42 232 19:30 03.02.2022
5584 Clouds 8 1008 97 10000 7.34 232 18:35 03.02.2022
5585 Clouds 8 1008 98 10000 6.87 227 17:32 03.02.2022
5586 Clouds 8 1009 98 10000 7.92 219 16:25 03.02.2022
5587 Rain 7 1010 97 10000 8.38 219 14:45 03.02.2022
5588 Rain 6 1011 96 10000 6.85 195 12:52 03.02.2022
5589 Rain 6 1012 93 10000 6.47 205 10:58 03.02.2022
5590 Clouds 5 1013 90 10000 5.89 215 08:36 03.02.2022
5591 Clouds 6 1014 92 10000 8.82 248 05:26 03.02.2022
5592 Rain 5 1016 97 286 7.88 272 00:32 03.02.2022
5593 Clouds 4 1015 82 10000 8.15 273 23:39 02.02.2022
5594 Clouds 5 1015 80 10000 7.7 283 21:55 02.02.2022
5595 Clouds 5 1015 80 10000 7.7 283 21:31 02.02.2022
5596 Clouds 5 1015 76 10000 7.87 304 20:40 02.02.2022
5597 Clouds 5 1014 77 10000 7.58 302 19:58 02.02.2022
5598 Clouds 5 1014 78 10000 5.6 311 19:27 02.02.2022
5599 Clouds 5 1013 78 10000 6.42 304 18:45 02.02.2022
5600 Clouds 5 1013 77 10000 6.54 318 17:56 02.02.2022
5601 Clouds 6 1012 75 10000 7.83 328 17:19 02.02.2022
5602 Clouds 6 1012 75 10000 7.83 328 16:42 02.02.2022
5603 Clouds 6 1007 82 10000 10.74 326 13:28 02.02.2022
5604 Clouds 6 1005 96 1286 12.57 331 12:20 02.02.2022
5605 Clouds 6 1005 96 1286 12.57 331 11:34 02.02.2022
5606 Clouds 6 1002 93 5580 10.26 314 10:22 02.02.2022
5607 Clouds 6 999 78 10000 10.19 310 07:35 02.02.2022
5608 Clouds 7 994 80 10000 15.17 295 22:52 01.02.2022
5609 Clouds 7 993 81 10000 14.13 300 21:51 01.02.2022
5610 Clouds 7 992 80 10000 14.75 298 20:35 01.02.2022
5611 Clouds 7 991 82 10000 13.94 286 17:44 01.02.2022
5612 Rain 7 991 90 10000 12.07 281 16:40 01.02.2022
5613 Clouds 5 994 96 10000 14.86 234 14:47 01.02.2022
5614 Rain 5 999 97 66 11.49 221 12:45 01.02.2022
5615 Rain 5 1002 97 101 10.76 238 11:34 01.02.2022
5616 Rain 3 1007 95 2760 10.36 285 04:53 01.02.2022
5617 Clouds 5 1009 72 10000 5.89 297 23:42 31.01.2022
5618 Clouds 5 1009 72 10000 5.89 297 23:42 31.01.2022
5619 Clouds 5 1010 70 10000 5.73 300 23:21 31.01.2022
5620 Clouds 5 1009 63 10000 4.91 308 21:59 31.01.2022
5621 Rain 5 1009 63 10000 4.91 308 21:32 31.01.2022
5622 Clouds 5 1009 61 10000 4.17 323 20:33 31.01.2022
5623 Clouds 5 1008 60 10000 2.7 345 19:45 31.01.2022
5624 Clouds 5 1007 68 10000 4.36 33 18:26 31.01.2022
5625 Clouds 5 1007 68 10000 4.36 33 17:43 31.01.2022
5626 Clouds 3 1006 74 10000 4.21 28 16:43 31.01.2022
5627 Clouds 5 1006 84 9803 3.38 9 15:43 31.01.2022
5628 Clouds 6 1004 92 4542 1.22 336 14:22 31.01.2022
5629 Clouds 5 1004 89 9673 0.17 66 12:39 31.01.2022
5630 Clouds 5 1003 83 10000 0.75 165 11:58 31.01.2022
5631 Clouds 4 1004 83 10000 0.56 203 10:50 31.01.2022
5632 Clouds 4 1004 83 10000 0.56 203 10:32 31.01.2022
5633 Clouds 3 1004 87 10000 2.6 204 09:27 31.01.2022
5634 Clouds 3 1004 87 10000 2.6 204 08:51 31.01.2022
5635 Clouds 3 1004 85 10000 2.91 208 08:20 31.01.2022
5636 Clouds 4 1006 79 10000 2.35 259 06:18 31.01.2022
5637 Clouds 5 1008 80 10000 4.95 285 03:33 31.01.2022
5638 Clouds 5 1014 76 10000 9.23 300 23:19 30.01.2022
5639 Clouds 5 1014 75 10000 9.56 305 22:29 30.01.2022
5640 Clouds 5 1014 75 10000 9.56 305 21:42 30.01.2022
5641 Clear 5 1015 78 10000 10.02 303 21:20 30.01.2022
5642 Clear 5 1015 78 10000 10.02 303 20:50 30.01.2022
5643 Clear 5 1015 77 10000 10.81 304 20:29 30.01.2022
5644 Clear 5 1015 77 10000 10.81 304 19:52 30.01.2022
5645 Clear 6 1014 75 10000 11.7 307 18:44 30.01.2022
5646 Clear 6 1014 73 10000 13.03 309 18:20 30.01.2022
5647 Clear 7 1013 69 10000 13.94 313 17:28 30.01.2022
5648 Clear 6 1013 69 10000 13.94 313 16:41 30.01.2022
5649 Clear 6 1012 66 10000 14.42 316 16:22 30.01.2022
5650 Clear 5 1012 66 10000 14.42 316 15:52 30.01.2022
5651 Clear 5 1012 66 10000 14.42 316 15:32 30.01.2022
5652 Clear 6 1012 64 10000 15.05 317 14:46 30.01.2022
5653 Clear 6 1011 65 10000 15.47 316 13:36 30.01.2022
5654 Clear 5 1009 66 10000 16.98 313 12:40 30.01.2022
5655 Clear 5 1007 67 10000 18.53 312 10:38 30.01.2022
5656 Clear 7 1005 66 10000 19.22 311 09:56 30.01.2022
5657 Clear 7 1003 67 10000 20.41 309 09:21 30.01.2022
5658 Clear 7 1001 69 10000 20.65 307 07:56 30.01.2022
5659 Clouds 7 997 74 10000 22.89 284 02:43 30.01.2022
5660 Clouds 7 997 71 10000 23.44 285 01:50 30.01.2022
5661 Clouds 7 998 77 10000 22.1 283 23:30 29.01.2022
5662 Clouds 7 998 72 10000 22.87 283 22:37 29.01.2022
5663 Clouds 7 997 72 10000 22.47 280 21:27 29.01.2022
5664 Clouds 8 997 72 10000 22.47 280 20:48 29.01.2022
5665 Clouds 8 997 76 10000 22.48 280 19:47 29.01.2022
5666 Clouds 9 996 81 10000 23.29 263 19:25 29.01.2022
5667 Clouds 10 998 82 10000 23.28 267 18:39 29.01.2022
5668 Clouds 10 997 80 10000 20.86 263 17:42 29.01.2022
5669 Clouds 10 999 90 10000 18.98 252 16:42 29.01.2022
5670 Clouds 10 1003 89 10000 18.38 254 15:20 29.01.2022
5671 Clouds 9 1005 95 10000 17.27 255 13:47 29.01.2022
5672 Clouds 9 1006 96 10000 15.28 251 13:26 29.01.2022
5673 Clouds 9 1006 96 10000 15.28 251 12:42 29.01.2022
5674 Clouds 8 1008 96 10000 14.09 251 11:38 29.01.2022
5675 Clouds 8 1009 95 10000 13.33 248 10:31 29.01.2022
5676 Rain 6 1012 94 10000 12.25 226 07:57 29.01.2022
5677 Clouds 5 1021 85 10000 8.69 227 01:37 29.01.2022
5678 Clouds 5 1023 87 10000 9.09 240 00:31 29.01.2022
5679 Clouds 5 1023 87 10000 9.09 240 00:31 29.01.2022
5680 Clouds 5 1024 85 10000 8.64 260 23:29 28.01.2022
5681 Clouds 5 1024 85 10000 8.64 260 22:46 28.01.2022
5682 Clouds 5 1025 84 10000 8.05 269 22:18 28.01.2022
5683 Clouds 4 1026 82 10000 7.67 269 20:40 28.01.2022
5684 Clouds 5 1026 82 10000 6.58 266 19:53 28.01.2022
5685 Clouds 6 1026 81 10000 6.36 281 18:51 28.01.2022
5686 Clouds 6 1026 79 10000 6.9 289 17:52 28.01.2022
5687 Clouds 7 1026 62 10000 7.42 319 15:50 28.01.2022
5688 Clouds 6 1025 57 10000 9.34 330 14:46 28.01.2022
5689 Clear 6 1023 64 10000 10.66 324 12:40 28.01.2022
5690 Clear 6 1022 66 10000 11.16 330 11:43 28.01.2022
5691 Clear 4 1020 77 10000 12.14 330 10:26 28.01.2022
5692 Clear 7 1020 77 10000 12.14 330 09:46 28.01.2022
5693 Clear 5 1016 78 10000 13.14 318 07:41 28.01.2022
5694 Clouds 5 1013 75 10000 13.81 314 05:31 28.01.2022
5695 Clouds 6 1010 75 10000 14.79 306 03:50 28.01.2022
5696 Clouds 6 1008 76 10000 16.39 303 02:24 28.01.2022
5697 Clouds 6 1008 76 10000 16.39 303 01:37 28.01.2022
5698 Clouds 6 1006 77 10000 17.54 303 00:39 28.01.2022
5699 Clouds 6 1003 91 5652 19.05 288 22:18 27.01.2022
5700 Clouds 7 1003 91 5652 19.05 288 21:34 27.01.2022
5701 Clouds 6 1003 78 10000 18.9 277 20:59 27.01.2022
5702 Clouds 6 1003 79 10000 19.11 277 19:37 27.01.2022
5703 Clouds 7 1004 78 10000 18.31 272 18:18 27.01.2022
5704 Clouds 7 1004 77 10000 17.38 275 16:45 27.01.2022
5705 Clouds 10 1005 78 10000 14.85 270 13:57 27.01.2022
5706 Clouds 8 1006 82 10000 14.18 271 12:48 27.01.2022
5707 Clouds 7 1006 94 10000 15.45 251 11:24 27.01.2022
5708 Clouds 6 1007 93 10000 15.88 249 09:47 27.01.2022
5709 Clouds 6 1008 92 10000 16.01 250 08:40 27.01.2022
5710 Clouds 6 1008 91 10000 16.01 251 07:31 27.01.2022
5711 Clouds 6 1013 91 10000 14.79 242 03:19 27.01.2022
5712 Clouds 6 1017 92 10000 12.18 250 00:23 27.01.2022
5713 Clouds 6 1018 92 10000 11.97 260 22:27 26.01.2022
5714 Clouds 6 1018 92 10000 11.97 260 21:44 26.01.2022
5715 Clouds 6 1019 91 10000 11.94 262 20:49 26.01.2022
5716 Clouds 6 1019 91 10000 11.94 262 20:31 26.01.2022
5717 Clouds 6 1019 92 10000 12.31 264 19:38 26.01.2022
5718 Clouds 5 1019 93 10000 12.53 262 18:47 26.01.2022
5719 Clouds 5 1020 93 10000 12.89 261 18:18 26.01.2022
5720 Clouds 5 1020 93 10000 12.89 261 17:33 26.01.2022
5721 Clouds 5 1020 91 10000 13.17 260 16:47 26.01.2022
5722 Clouds 5 1020 90 10000 13.69 260 16:22 26.01.2022
5723 Clouds 5 1021 90 10000 13.74 258 14:40 26.01.2022
5724 Clouds 5 1023 89 10000 12.47 260 12:20 26.01.2022
5725 Clouds 5 1024 89 10000 12.37 262 10:52 26.01.2022
5726 Clouds 5 1024 89 10000 11.37 260 09:52 26.01.2022
5727 Clouds 5 1024 90 10000 10.97 260 08:49 26.01.2022
5728 Clouds 6 1024 92 10000 9.78 267 06:42 26.01.2022
5729 Clouds 6 1027 96 10000 7.79 275 00:24 26.01.2022
5730 Clouds 6 1027 96 10000 7.79 275 23:41 25.01.2022
5731 Clouds 7 1027 97 10000 6.91 272 22:48 25.01.2022
5732 Clouds 7 1028 98 10000 6.19 269 22:18 25.01.2022
5733 Clouds 7 1028 97 10000 6.11 271 21:27 25.01.2022
5734 Clouds 7 1028 97 10000 6.11 271 20:45 25.01.2022
5735 Clouds 7 1028 95 10000 5.97 276 19:57 25.01.2022
5736 Clouds 7 1028 93 10000 6.15 282 19:28 25.01.2022
5737 Clouds 7 1028 90 10000 6.9 286 17:56 25.01.2022
5738 Clouds 7 1028 94 10000 6.88 281 17:20 25.01.2022
5739 Clouds 7 1028 94 10000 6.88 281 16:34 25.01.2022
5740 Clouds 7 1028 94 10000 6.75 277 15:39 25.01.2022
5741 Clouds 7 1028 94 10000 6.87 274 15:19 25.01.2022
5742 Clouds 7 1028 94 10000 6.87 274 14:51 25.01.2022
5743 Clouds 7 1029 94 10000 6.82 269 12:20 25.01.2022
5744 Clouds 6 1029 95 10000 6.67 277 09:35 25.01.2022
5745 Clouds 6 1028 93 10000 8.14 291 07:52 25.01.2022
5746 Clouds 6 1028 93 10000 8.86 276 07:21 25.01.2022
5747 Clouds 6 1029 87 10000 9.03 269 05:26 25.01.2022
5748 Clouds 6 1030 87 10000 8.23 263 00:35 25.01.2022
5749 Clouds 6 1030 89 10000 8.45 263 23:36 24.01.2022
5750 Clouds 6 1030 90 10000 7.77 268 23:18 24.01.2022
5751 Clouds 6 1030 90 10000 7.77 268 22:42 24.01.2022
5752 Clouds 6 1031 89 10000 7.93 272 22:23 24.01.2022
5753 Clouds 6 1031 89 10000 7.93 272 21:42 24.01.2022
5754 Clouds 6 1031 89 10000 8.29 266 21:24 24.01.2022
5755 Clouds 6 1030 89 10000 8.53 262 20:27 24.01.2022
5756 Clouds 6 1030 89 10000 8.53 262 19:38 24.01.2022
5757 Clouds 5 1031 88 10000 8.55 262 18:50 24.01.2022
5758 Clouds 5 1031 89 10000 8.47 261 18:50 24.01.2022
5759 Clouds 5 1031 88 10000 8.16 257 17:42 24.01.2022
5760 Clouds 5 1031 89 10000 7.98 254 17:22 24.01.2022
5761 Clouds 6 1031 89 10000 7.98 254 16:31 24.01.2022
5762 Clouds 6 1031 90 10000 7.99 252 15:35 24.01.2022
5763 Clouds 6 1031 91 10000 7.43 252 13:59 24.01.2022
5764 Clouds 6 1031 91 10000 7.76 252 12:34 24.01.2022
5765 Clouds 6 1032 92 10000 7.86 250 11:42 24.01.2022
5766 Clouds 6 1032 93 10000 7.03 246 10:19 24.01.2022
5767 Clouds 6 1032 93 10000 7.03 246 09:45 24.01.2022
5768 Clouds 5 1032 93 10000 6.47 262 08:18 24.01.2022
5769 Clouds 6 1032 94 10000 6.62 263 02:26 24.01.2022
5770 Clouds 7 1032 94 10000 6.28 266 01:26 24.01.2022
5771 Clouds 7 1033 93 10000 6.26 270 00:32 24.01.2022
5772 Clouds 7 1032 95 10000 5.88 267 23:46 23.01.2022
5773 Clouds 7 1032 97 10000 5.64 263 22:21 23.01.2022
5774 Clouds 7 1032 97 10000 5.64 263 21:41 23.01.2022
5775 Clouds 7 1032 96 10000 4.87 255 21:23 23.01.2022
5776 Clouds 7 1032 96 10000 4.17 260 20:28 23.01.2022
5777 Clouds 7 1032 96 10000 3.64 268 19:19 23.01.2022
5778 Clouds 7 1032 92 10000 4.56 272 18:41 23.01.2022
5779 Clouds 7 1032 93 10000 4.09 274 17:25 23.01.2022
5780 Clouds 7 1031 93 10000 4.08 276 16:18 23.01.2022
5781 Clouds 7 1031 94 10000 4.41 285 14:54 23.01.2022
5782 Clouds 7 1031 94 10000 4.78 292 14:19 23.01.2022
5783 Clouds 8 1031 95 10000 4.73 301 12:47 23.01.2022
5784 Clouds 8 1031 95 10000 4.97 290 12:21 23.01.2022
5785 Clouds 7 1031 95 10000 4.8 298 11:27 23.01.2022
5786 Clouds 7 1031 95 10000 4.8 298 10:59 23.01.2022
5787 Clouds 7 1030 96 10000 4.89 300 10:25 23.01.2022
5788 Clouds 7 1030 96 10000 4.89 300 09:33 23.01.2022
5789 Clouds 7 1030 97 10000 4.97 298 08:51 23.01.2022
5790 Clouds 6 1028 96 10000 5.81 292 04:41 23.01.2022
5791 Clouds 6 1028 95 10000 5.09 290 01:43 23.01.2022
5792 Clouds 6 1027 95 10000 4.89 282 00:56 23.01.2022
5793 Clouds 6 1027 94 10000 4.58 277 00:22 23.01.2022
5794 Clouds 6 1027 94 10000 4.89 254 23:19 22.01.2022
5795 Clouds 6 1027 94 10000 4.89 254 22:34 22.01.2022
5796 Clouds 6 1027 94 10000 4.89 254 22:34 22.01.2022
5797 Clouds 6 1028 88 10000 4.53 220 21:18 22.01.2022
5798 Clouds 5 1028 79 10000 4.29 211 19:49 22.01.2022
5799 Clouds 5 1028 65 10000 4.05 211 18:45 22.01.2022
5800 Clouds 5 1028 61 10000 3.6 208 17:56 22.01.2022
5801 Clouds 5 1028 61 10000 3.6 208 17:35 22.01.2022
5802 Clouds 5 1028 59 10000 2.87 215 16:55 22.01.2022
5803 Clouds 3 1028 57 10000 3.04 229 15:49 22.01.2022
5804 Clouds 6 1027 56 10000 2.48 235 14:57 22.01.2022
5805 Clouds 3 1028 54 10000 2.2 256 13:39 22.01.2022
5806 Clouds 3 1028 50 10000 1.48 254 12:48 22.01.2022
5807 Clouds 2 1028 49 10000 0.3 348 12:28 22.01.2022
5808 Clouds 3 1028 51 10000 1.73 30 10:56 22.01.2022
5809 Clouds 2 1027 54 10000 2.63 11 10:28 22.01.2022
5810 Clouds 2 1027 54 10000 2.63 11 09:58 22.01.2022
5811 Clouds 2 1027 57 10000 3.52 12 08:51 22.01.2022
5812 Clouds 2 1026 59 10000 4.47 21 07:34 22.01.2022
5813 Clouds 3 1024 62 10000 5.47 14 04:52 22.01.2022
5814 Clouds 3 1024 62 10000 5.47 14 04:52 22.01.2022
5815 Clouds 5 1022 77 10000 7.01 17 01:34 22.01.2022
5816 Clouds 6 1021 82 10000 7.07 349 23:38 21.01.2022
5817 Clouds 6 1021 82 10000 8.69 346 22:28 21.01.2022
5818 Clouds 5 1020 93 10000 8.13 307 20:22 21.01.2022
5819 Rain 6 1019 92 10000 9.82 303 18:39 21.01.2022
5820 Clouds 5 1020 88 10000 11.07 293 17:28 21.01.2022
5821 Clouds 4 1020 83 10000 10.36 296 15:42 21.01.2022
5822 Clear 4 1021 68 10000 11.03 300 13:37 21.01.2022
5823 Clouds 3 1021 68 10000 11.34 306 12:38 21.01.2022
5824 Clouds 3 1022 63 10000 11.21 313 11:28 21.01.2022
5825 Clouds 4 1022 62 10000 11.92 316 10:19 21.01.2022
5826 Clear 2 1021 64 10000 13.15 319 08:24 21.01.2022
5827 Clouds 2 1021 64 10000 12.68 319 06:57 21.01.2022
5828 Clouds 2 1018 64 10000 14.86 321 23:40 20.01.2022
5829 Clouds 3 1018 63 10000 14.82 324 22:41 20.01.2022
5830 Clouds 2 1017 63 10000 14.62 325 21:43 20.01.2022
5831 Clouds 2 1017 61 10000 14.64 332 20:53 20.01.2022
5832 Clouds 2 1016 50 10000 15.21 340 19:20 20.01.2022
5833 Clouds 2 1016 50 10000 15.21 340 18:51 20.01.2022
5834 Clouds 2 1014 45 10000 14.99 339 17:30 20.01.2022
5835 Clouds 3 1012 55 10000 13.21 334 15:45 20.01.2022
5836 Clouds 3 1012 57 10000 12.79 334 15:24 20.01.2022
5837 Rain 5 1011 62 10000 12.65 323 13:42 20.01.2022
5838 Snow 2 1011 60 10000 14.51 325 12:35 20.01.2022
5839 Clouds 5 1011 64 10000 14.95 319 11:57 20.01.2022
5840 Clouds 5 1010 63 10000 15.51 325 10:47 20.01.2022
5841 Clouds 3 1010 64 10000 16.12 326 09:42 20.01.2022
5842 Clouds 2 1008 63 10000 17.01 319 08:35 20.01.2022
5843 Clouds 2 1008 63 10000 17.01 319 08:35 20.01.2022
5844 Clouds 2 1006 57 10000 17.22 313 05:38 20.01.2022
5845 Clouds 5 1006 65 10000 16.81 290 23:42 19.01.2022
5846 Clouds 6 1006 69 10000 16.88 290 22:37 19.01.2022
5847 Rain 6 1004 90 10000 15.91 245 21:24 19.01.2022
5848 Clouds 5 1004 90 10000 15.91 245 20:53 19.01.2022
5849 Clouds 5 1005 89 10000 14.57 230 20:22 19.01.2022
5850 Clouds 5 1007 88 10000 13.43 233 18:49 19.01.2022
5851 Clouds 5 1008 86 10000 12.61 235 17:50 19.01.2022
5852 Clouds 4 1009 84 10000 11.52 229 16:59 19.01.2022
5853 Clouds 5 1013 85 10000 9.72 224 14:43 19.01.2022
5854 Clouds 5 1017 88 10000 9.51 231 13:20 19.01.2022
5855 Clouds 5 1018 86 10000 10.12 228 11:54 19.01.2022
5856 Clouds 3 1019 88 10000 9.79 227 10:52 19.01.2022
5857 Clouds 3 1021 90 10000 9.09 230 09:35 19.01.2022
5858 Clouds 3 1022 92 10000 8.9 238 08:20 19.01.2022
5859 Clouds 4 1025 91 10000 9.74 246 05:19 19.01.2022
5860 Clouds 5 1029 92 10000 10.46 255 23:53 18.01.2022
5861 Clouds 5 1030 92 10000 10.67 255 23:18 18.01.2022
5862 Clouds 6 1030 93 10000 10.43 253 21:43 18.01.2022
5863 Clouds 6 1031 94 10000 9.08 249 20:22 18.01.2022
5864 Clouds 6 1030 93 10000 9.33 253 19:45 18.01.2022
5865 Clouds 6 1031 94 10000 8.42 255 19:25 18.01.2022
5866 Clouds 6 1031 95 10000 7.82 258 18:18 18.01.2022
5867 Clouds 6 1031 95 10000 7.82 258 17:31 18.01.2022
5868 Clouds 6 1032 95 10000 7.96 266 16:18 18.01.2022
5869 Clouds 7 1032 94 10000 7.96 266 15:25 18.01.2022
5870 Clouds 7 1033 91 10000 6.34 264 14:22 18.01.2022
5871 Clouds 6 1032 93 10000 4.48 249 11:31 18.01.2022
5872 Clouds 5 1032 87 10000 4.02 282 09:59 18.01.2022
5873 Clouds 3 1032 85 10000 4.13 308 08:29 18.01.2022
5874 Clouds 3 1032 85 10000 4.13 308 07:42 18.01.2022
5875 Clear 3 1030 81 10000 7.26 303 00:38 18.01.2022
5876 Clear 4 1028 78 10000 7.59 305 22:40 17.01.2022
5877 Clear 4 1028 77 10000 7.64 311 21:42 17.01.2022
5878 Clear 4 1027 75 10000 7.84 318 20:44 17.01.2022
5879 Clear 5 1025 71 10000 9.65 328 18:46 17.01.2022
5880 Clear 5 1024 70 10000 10.42 330 18:24 17.01.2022
5881 Clear 6 1023 68 10000 11.57 326 17:22 17.01.2022
5882 Clear 5 1022 66 10000 12.25 323 15:54 17.01.2022
5883 Clear 5 1021 65 10000 12.65 325 14:58 17.01.2022
5884 Clear 6 1021 65 10000 12.65 325 14:31 17.01.2022
5885 Clouds 5 1019 68 10000 13.6 323 13:18 17.01.2022
5886 Clouds 7 1017 68 10000 13.51 321 11:53 17.01.2022
5887 Clouds 5 1016 68 10000 13.62 323 10:52 17.01.2022
5888 Clouds 4 1014 68 10000 14.83 329 09:46 17.01.2022
5889 Clouds 7 1013 78 9422 15.57 323 08:43 17.01.2022
5890 Clouds 7 1009 81 10000 19.02 305 07:20 17.01.2022
5891 Clouds 6 1013 81 10000 16.41 275 00:59 17.01.2022
5892 Clouds 6 1014 82 10000 14.29 279 23:27 16.01.2022
5893 Clouds 6 1013 90 10000 13.95 274 20:51 16.01.2022
5894 Clouds 6 1013 87 10000 14.27 272 19:56 16.01.2022
5895 Clouds 6 1013 88 10000 14.27 267 18:45 16.01.2022
5896 Clouds 6 1013 90 10000 13.28 259 17:47 16.01.2022
5897 Rain 5 1013 92 10000 12.64 258 16:53 16.01.2022
5898 Clouds 5 1014 93 10000 12.65 259 15:40 16.01.2022
5899 Clouds 5 1014 92 10000 11.59 255 14:29 16.01.2022
5900 Clouds 4 1014 92 10000 10.6 253 13:21 16.01.2022
5901 Clouds 3 1015 90 10000 10.39 252 11:56 16.01.2022
5902 Clouds 3 1015 89 10000 9.88 252 11:27 16.01.2022
5903 Clouds 2 1016 90 10000 9.14 244 10:27 16.01.2022
5904 Clouds 2 1016 90 10000 9.14 244 09:57 16.01.2022
5905 Clouds 2 1016 93 10000 7.78 228 09:23 16.01.2022
5906 Clouds 2 1016 93 10000 7.78 228 08:53 16.01.2022
5907 Clouds 2 1018 90 10000 6.67 225 05:52 16.01.2022
5908 Clouds 2 1023 89 10000 5.54 230 00:19 16.01.2022
5909 Clouds 2 1024 89 10000 5.52 231 22:49 15.01.2022
5910 Clouds 3 1025 88 10000 5.51 235 21:21 15.01.2022
5911 Clouds 3 1025 88 10000 5.51 235 20:44 15.01.2022
5912 Clouds 3 1025 88 10000 5.28 242 20:18 15.01.2022
5913 Clouds 4 1026 88 10000 4.92 248 19:25 15.01.2022
5914 Clouds 3 1026 88 10000 4.31 249 17:52 15.01.2022
5915 Clouds 4 1026 86 10000 3.95 260 16:43 15.01.2022
5916 Clouds 3 1027 83 10000 4.05 276 14:32 15.01.2022
5917 Clouds 3 1027 83 10000 4.05 276 14:32 15.01.2022
5918 Clouds 3 1027 82 10000 4.32 281 12:38 15.01.2022
5919 Clouds 5 1028 82 10000 3.97 296 11:20 15.01.2022
5920 Clouds 2 1028 83 10000 4.42 306 09:35 15.01.2022
5921 Clear 3 1028 81 10000 6.14 301 01:25 15.01.2022
5922 Clear 5 1028 83 10000 6.05 301 22:40 14.01.2022
5923 Clear 5 1028 81 10000 6.93 308 20:54 14.01.2022
5924 Clear 5 1028 79 10000 7.39 309 20:23 14.01.2022
5925 Clear 5 1028 79 10000 7.39 309 19:49 14.01.2022
5926 Clouds 6 1027 79 10000 7.7 310 18:33 14.01.2022
5927 Clouds 7 1027 75 10000 8.89 319 16:56 14.01.2022
5928 Clouds 7 1027 75 10000 8.89 319 16:38 14.01.2022
5929 Clouds 7 1025 74 10000 10.85 320 14:50 14.01.2022
5930 Clear 7 1025 75 10000 11.7 316 14:20 14.01.2022
5931 Clouds 8 1025 78 10000 11.97 311 12:37 14.01.2022
5932 Clouds 8 1024 83 10000 12.83 304 11:34 14.01.2022
5933 Clouds 8 1024 94 10000 13.92 283 10:22 14.01.2022
5934 Clouds 7 1024 94 10000 14.45 280 08:52 14.01.2022
5935 Clouds 7 1023 93 10000 15.49 273 07:29 14.01.2022
5936 Clouds 7 1025 93 10000 14.98 272 01:43 14.01.2022
5937 Clouds 7 1026 92 10000 15.3 269 23:40 13.01.2022
5938 Clouds 8 1026 91 10000 14.31 265 21:46 13.01.2022
5939 Clouds 7 1027 89 10000 13.31 265 21:27 13.01.2022
5940 Clouds 8 1027 88 10000 13.28 271 19:44 13.01.2022
5941 Clouds 8 1027 89 10000 13.28 274 19:23 13.01.2022
5942 Clouds 8 1027 90 10000 13.04 273 18:36 13.01.2022
5943 Clouds 8 1028 91 10000 13.18 274 16:48 13.01.2022
5944 Clouds 8 1028 92 10000 12.93 275 15:38 13.01.2022
5945 Clouds 8 1028 91 10000 13.12 275 15:18 13.01.2022
5946 Clouds 7 1028 89 10000 14.07 277 13:22 13.01.2022
5947 Clouds 8 1029 92 10000 13.23 279 10:39 13.01.2022
5948 Clouds 7 1029 93 10000 12.9 277 09:23 13.01.2022
5949 Clouds 7 1029 94 10000 12.9 275 08:28 13.01.2022
5950 Clouds 7 1029 94 10000 12.9 275 07:58 13.01.2022
5951 Clouds 7 1029 94 10000 13.21 273 07:18 13.01.2022
5952 Clouds 7 1029 94 10000 13.64 269 05:20 13.01.2022
5953 Clouds 7 1029 95 10000 13.26 264 03:34 13.01.2022
5954 Clouds 7 1030 95 10000 12.75 261 01:38 13.01.2022
5955 Clouds 6 1031 93 10000 11.86 256 23:53 12.01.2022
5956 Clouds 6 1031 93 10000 11.86 256 23:33 12.01.2022
5957 Clouds 6 1032 93 10000 11.2 256 22:22 12.01.2022
5958 Clouds 6 1032 93 10000 11.2 256 21:43 12.01.2022
5959 Clouds 6 1032 92 10000 10.8 257 21:18 12.01.2022
5960 Clouds 6 1032 92 10000 10.8 257 20:44 12.01.2022
5961 Clouds 5 1032 91 10000 9.48 253 18:52 12.01.2022
5962 Clouds 5 1032 90 10000 9.05 253 18:18 12.01.2022
5963 Clouds 5 1033 90 10000 8.3 254 16:57 12.01.2022
5964 Clouds 5 1033 91 10000 8.05 251 15:38 12.01.2022
5965 Clouds 5 1034 90 10000 7.26 265 14:39 12.01.2022
5966 Clouds 7 1034 91 10000 5.5 265 12:57 12.01.2022
5967 Clouds 3 1033 93 10000 5.68 281 09:57 12.01.2022
5968 Clouds 3 1033 94 10000 5.91 257 07:58 12.01.2022
5969 Clouds 3 1033 94 10000 5.91 257 07:33 12.01.2022
5970 Clouds 2 1033 88 10000 6.71 220 02:38 12.01.2022
5971 Snow 1 1034 87 10000 6.84 207 23:27 11.01.2022
5972 Snow 1 1034 87 10000 6.84 207 22:40 11.01.2022
5973 Clouds 1 1034 86 10000 6.83 209 22:18 11.01.2022
5974 Clouds 1 1034 85 10000 6.92 204 20:40 11.01.2022
5975 Clouds 0 1034 85 10000 7.13 199 19:40 11.01.2022
5976 Clouds 1 1034 84 10000 6.34 192 17:55 11.01.2022
5977 Clouds 0 1034 84 10000 6.03 188 16:59 11.01.2022
5978 Clouds 0 1034 84 10000 6.03 188 16:35 11.01.2022
5979 Clear 0 1034 80 10000 5.44 189 14:57 11.01.2022
5980 Clear 0 1034 80 10000 5.44 189 14:39 11.01.2022
5981 Clear 0 1034 79 10000 5.78 187 13:53 11.01.2022
5982 Clear 0 1034 79 10000 5.78 187 13:31 11.01.2022
5983 Clear -1 1034 77 10000 5.93 184 12:37 11.01.2022
5984 Clear -1 1035 79 10000 6.43 182 10:45 11.01.2022
5985 Clear -3 1034 78 10000 6.44 170 08:27 11.01.2022
5986 Clear -2 1033 77 10000 6.48 166 06:22 11.01.2022
5987 Clear -1 1032 80 10000 5.88 145 00:28 11.01.2022
5988 Clear 0 1032 80 10000 5.88 145 23:40 10.01.2022
5989 Clear 0 1032 79 10000 5.38 146 22:43 10.01.2022
5990 Clear 0 1031 79 10000 5.88 140 22:18 10.01.2022
5991 Clear 0 1031 79 10000 5.88 140 21:42 10.01.2022
5992 Clear 0 1031 78 10000 6.12 135 21:18 10.01.2022
5993 Clear 1 1031 78 10000 6.12 135 20:55 10.01.2022
5994 Clear 1 1030 78 10000 6.25 134 20:24 10.01.2022
5995 Clear 1 1030 78 10000 6.25 134 19:41 10.01.2022
5996 Clear 1 1029 79 10000 6.41 127 19:19 10.01.2022
5997 Clear 1 1029 79 10000 6.41 127 18:48 10.01.2022
5998 Clouds 1 1027 77 10000 7.34 115 17:24 10.01.2022
5999 Clouds 2 1027 77 10000 7.34 115 16:41 10.01.2022
6000 Clouds 2 1025 77 10000 7.94 110 15:20 10.01.2022
6001 Clouds 3 1024 75 10000 7.51 111 13:39 10.01.2022
6002 Clouds 3 1022 76 10000 7.81 111 11:58 10.01.2022
6003 Clouds 3 1021 76 10000 8.02 113 11:24 10.01.2022
6004 Clouds 3 1020 78 10000 8.17 111 09:46 10.01.2022
6005 Clouds 2 1015 81 10000 8.07 111 06:47 10.01.2022
6006 Clouds 2 1014 82 10000 8.26 110 05:49 10.01.2022
6007 Clouds 2 1009 88 10000 8.49 116 01:30 10.01.2022
6008 Clouds 2 1007 89 10000 6.82 124 00:24 10.01.2022
6009 Clouds 2 1006 88 10000 6.83 128 23:29 09.01.2022
6010 Clouds 2 1006 88 10000 6.83 128 22:37 09.01.2022
6011 Clouds 2 1005 84 10000 6.89 128 21:46 09.01.2022
6012 Clouds 2 1004 79 10000 7.04 133 21:23 09.01.2022
6013 Clouds 2 1004 79 10000 7.04 133 20:51 09.01.2022
6014 Clouds 2 1004 79 10000 7.04 133 20:33 09.01.2022
6015 Clouds 2 1003 77 10000 7.13 136 19:44 09.01.2022
6016 Clouds 2 1002 76 10000 7.3 133 19:23 09.01.2022
6017 Clouds 2 1002 76 10000 7.3 133 18:52 09.01.2022
6018 Clouds 2 1002 76 10000 7.3 133 18:33 09.01.2022
6019 Clouds 2 1001 75 10000 7.24 136 17:40 09.01.2022
6020 Clouds 2 1000 75 10000 6.98 140 17:20 09.01.2022
6021 Clouds 2 999 74 10000 7.08 145 15:58 09.01.2022
6022 Clouds 2 999 74 10000 7.08 145 15:35 09.01.2022
6023 Clouds 2 998 73 10000 7.89 150 14:40 09.01.2022
6024 Clouds 3 998 73 10000 8.62 150 13:51 09.01.2022
6025 Clouds 3 998 73 10000 8.62 150 13:51 09.01.2022
6026 Clouds 2 997 74 10000 9.13 150 13:25 09.01.2022
6027 Clouds 2 997 76 10000 9.63 146 11:55 09.01.2022
6028 Clouds 2 997 77 10000 9.81 146 10:53 09.01.2022
6029 Clouds 1 996 78 10000 10.11 148 09:50 09.01.2022
6030 Clouds 1 996 77 10000 10.59 151 08:52 09.01.2022
6031 Clouds 1 995 78 10000 10.83 158 05:54 09.01.2022
6032 Clouds 2 998 81 10000 10.11 161 01:25 09.01.2022
6033 Clouds 2 998 82 10000 9.73 161 00:37 09.01.2022
6034 Clouds 2 1000 86 10000 8.79 171 23:27 08.01.2022
6035 Clouds 2 1000 86 10000 8.79 171 22:35 08.01.2022
6036 Clouds 2 1002 89 10000 8.09 190 21:26 08.01.2022
6037 Clouds 2 1002 89 10000 8.09 190 20:43 08.01.2022
6038 Clouds 2 1002 89 10000 8.12 204 20:21 08.01.2022
6039 Clouds 3 1002 89 10000 8.57 210 18:45 08.01.2022
6040 Clouds 3 1004 85 10000 9.96 232 17:24 08.01.2022
6041 Clouds 3 1004 85 10000 9.96 232 16:40 08.01.2022
6042 Clouds 4 1004 88 10000 9.77 239 14:50 08.01.2022
6043 Clouds 3 1004 91 10000 10.69 241 13:41 08.01.2022
6044 Clouds 3 1004 96 2807 9.23 221 11:30 08.01.2022
6045 Clouds 3 1005 91 10000 9.55 228 10:33 08.01.2022
6046 Clouds 2 1005 88 10000 8.9 221 09:57 08.01.2022
6047 Clouds 2 1005 88 10000 8.9 221 09:30 08.01.2022
6048 Clouds 3 1006 93 10000 8.01 228 05:39 08.01.2022
6049 Clouds 3 1007 88 10000 6.46 196 00:59 08.01.2022
6050 Clouds 3 1007 89 10000 6.97 207 23:30 07.01.2022
6051 Clouds 2 1008 90 10000 7.4 215 21:46 07.01.2022
6052 Clouds 3 1008 91 10000 8.17 220 20:26 07.01.2022
6053 Clouds 2 1008 94 10000 8 224 19:26 07.01.2022
6054 Clouds 3 1008 95 4835 7.83 220 18:46 07.01.2022
6055 Clouds 2 1008 98 90 7.96 216 18:18 07.01.2022
6056 Clouds 2 1008 98 56 8.27 216 17:23 07.01.2022
6057 Snow 2 1008 99 40 8.96 210 14:55 07.01.2022
6058 Snow 2 1008 98 44 9.15 206 13:52 07.01.2022
6059 Clouds 2 1009 97 60 9.33 204 12:51 07.01.2022
6060 Snow 2 1009 97 178 9.51 196 11:22 07.01.2022
6061 Clouds 2 1013 86 10000 8.89 216 04:25 07.01.2022
6062 Clouds 2 1013 86 10000 8.39 217 02:46 07.01.2022
6063 Clouds 1 1014 86 10000 7.9 220 01:48 07.01.2022
6064 Clouds 1 1014 86 10000 7.9 220 01:48 07.01.2022
6065 Clouds 1 1015 86 10000 7.49 221 01:25 07.01.2022
6066 Clouds 2 1014 85 10000 7.43 219 00:30 07.01.2022
6067 Clouds 2 1014 85 10000 7.43 219 00:30 07.01.2022
6068 Clouds 2 1015 84 10000 6.84 225 22:33 06.01.2022
6069 Clouds 2 1015 77 10000 6.75 221 20:51 06.01.2022
6070 Clear 2 1015 75 10000 6.51 226 20:18 06.01.2022
6071 Clear 1 1015 75 10000 6.51 226 19:38 06.01.2022
6072 Clear 2 1016 66 10000 5.42 239 17:51 06.01.2022
6073 Clear 2 1016 63 10000 4.66 258 17:27 06.01.2022
6074 Clear 3 1016 63 10000 4.66 258 16:38 06.01.2022
6075 Clear 4 1015 64 10000 5.25 281 15:44 06.01.2022
6076 Clear 4 1015 63 10000 5.31 296 15:22 06.01.2022
6077 Clear 3 1014 60 10000 5.51 319 14:20 06.01.2022
6078 Clear 3 1014 60 10000 5.51 319 13:41 06.01.2022
6079 Clear 2 1013 49 10000 8.94 343 12:28 06.01.2022
6080 Clear 2 1013 49 10000 8.94 343 11:31 06.01.2022
6081 Clear 2 1013 47 10000 9.88 344 10:59 06.01.2022
6082 Clouds 2 1008 52 10000 12.53 344 06:59 06.01.2022
6083 Clouds 3 1002 67 10000 12.37 340 00:35 06.01.2022
6084 Clouds 3 1001 75 10000 11.41 332 23:34 05.01.2022
6085 Clouds 4 999 74 10000 11.2 323 22:48 05.01.2022
6086 Clouds 4 998 72 10000 11.53 318 22:29 05.01.2022
6087 Clouds 4 998 72 10000 11.53 318 21:44 05.01.2022
6088 Clouds 5 997 76 10000 11.91 317 20:44 05.01.2022
6089 Clouds 5 995 78 10000 11.26 316 19:53 05.01.2022
6090 Clouds 5 993 86 10000 11.37 302 18:27 05.01.2022
6091 Clouds 5 992 85 10000 9.86 285 16:59 05.01.2022
6092 Clouds 4 991 94 4881 11.2 250 16:22 05.01.2022
6093 Clouds 5 991 95 6327 12.03 227 15:20 05.01.2022
6094 Clouds 5 991 89 10000 12.92 236 13:38 05.01.2022
6095 Clouds 5 992 86 10000 13.56 246 12:49 05.01.2022
6096 Clouds 3 992 84 10000 13.08 233 08:58 05.01.2022
6097 Clouds 3 991 84 10000 12.96 231 07:34 05.01.2022
6098 Clouds 2 992 84 10000 11.76 240 03:33 05.01.2022
6099 Clouds 3 992 83 10000 10.53 242 00:33 05.01.2022
6100 Clouds 3 992 84 10000 10.03 249 23:26 04.01.2022
6101 Clouds 3 992 84 10000 10.03 249 22:40 04.01.2022
6102 Clouds 3 992 86 10000 9.51 252 21:18 04.01.2022
6103 Clouds 4 991 87 10000 7.61 274 19:19 04.01.2022
6104 Clouds 6 991 88 10000 7.24 281 17:39 04.01.2022
6105 Clouds 6 991 95 10000 7.52 316 16:41 04.01.2022
6106 Clouds 6 990 97 3246 7.92 310 16:22 04.01.2022
6107 Rain 8 989 93 8643 7.92 245 14:53 04.01.2022
6108 Rain 8 989 93 8643 7.92 245 14:34 04.01.2022
6109 Clouds 8 991 88 10000 7.23 227 13:27 04.01.2022
6110 Clouds 8 993 90 10000 7.45 229 10:41 04.01.2022
6111 Clouds 8 994 91 10000 8.5 231 09:20 04.01.2022
6112 Clouds 8 994 89 10000 9.23 234 08:28 04.01.2022
6113 Clouds 8 997 81 10000 10.47 231 02:28 04.01.2022
6114 Clouds 8 997 81 10000 10.66 233 00:40 04.01.2022
6115 Clouds 8 998 83 10000 11.57 240 23:18 03.01.2022
6116 Clouds 8 999 85 10000 11.45 240 21:50 03.01.2022
6117 Clouds 8 999 85 10000 11.45 240 21:32 03.01.2022
6118 Clouds 8 1000 85 10000 11.46 248 19:47 03.01.2022
6119 Clouds 9 1000 84 10000 11.04 244 18:48 03.01.2022
6120 Clouds 8 1000 86 10000 10.88 244 18:27 03.01.2022
6121 Clouds 9 1001 85 10000 11.41 246 16:58 03.01.2022
6122 Clouds 10 1001 85 10000 12.81 245 14:56 03.01.2022
6123 Clouds 10 1001 85 10000 12.81 245 14:30 03.01.2022
6124 Clouds 10 1002 86 10000 13.03 248 12:46 03.01.2022
6125 Clouds 10 1002 87 10000 13.04 247 11:35 03.01.2022
6126 Clouds 9 1002 91 10000 10.66 252 10:27 03.01.2022
6127 Clouds 8 1002 93 10000 10.96 255 08:47 03.01.2022
6128 Clouds 8 1002 96 10000 10.13 262 07:34 03.01.2022
6129 Clouds 8 1002 96 10000 10.13 262 07:34 03.01.2022
6130 Clouds 9 1003 91 10000 11.18 260 23:56 02.01.2022
6131 Clouds 9 1003 91 10000 12.72 265 23:22 02.01.2022
6132 Clouds 10 1003 91 10000 12.72 265 22:53 02.01.2022
6133 Clouds 10 1003 93 10000 14.35 269 21:42 02.01.2022
6134 Clouds 10 1002 93 10000 13.83 268 20:38 02.01.2022
6135 Clouds 10 1001 92 10000 15.84 254 20:18 02.01.2022
6136 Clouds 11 1001 92 10000 15.84 254 19:30 02.01.2022
6137 Rain 11 1001 89 10000 14.66 246 18:46 02.01.2022
6138 Rain 11 1001 89 10000 14.66 246 18:46 02.01.2022
6139 Rain 12 1001 92 10000 12.74 245 17:54 02.01.2022
6140 Rain 12 1001 92 10000 12.74 245 17:36 02.01.2022
6141 Rain 12 1002 93 10000 11.12 247 17:18 02.01.2022
6142 Rain 12 1003 97 2897 10.74 248 16:26 02.01.2022
6143 Clouds 13 1003 97 2639 8.88 239 14:32 02.01.2022
6144 Rain 12 1006 99 2523 5.77 228 12:54 02.01.2022
6145 Clouds 12 1007 98 10000 7.65 234 12:22 02.01.2022
6146 Clouds 11 1007 98 10000 7.65 234 11:32 02.01.2022
6147 Clouds 11 1008 99 10000 7.95 241 10:46 02.01.2022
6148 Clouds 11 1008 99 8293 7.08 240 09:45 02.01.2022
6149 Rain 11 1011 96 10000 7.61 218 05:51 02.01.2022
6150 Clouds 11 1015 94 10000 7.93 205 01:48 02.01.2022
6151 Clouds 12 1017 97 10000 7.47 192 23:40 01.01.2022
6152 Clouds 12 1017 97 10000 6.85 180 22:58 01.01.2022
6153 Clouds 12 1019 97 10000 6.29 180 22:23 01.01.2022
6154 Clouds 12 1019 97 10000 6.29 180 21:44 01.01.2022
6155 Rain 12 1019 98 10000 5.79 172 20:56 01.01.2022
6156 Clouds 11 1020 99 10000 4.89 174 19:58 01.01.2022
6157 Rain 11 1020 99 10000 4.89 174 19:30 01.01.2022
6158 Rain 11 1020 98 10000 2.36 222 18:20 01.01.2022
6159 Clouds 11 1021 98 10000 3.74 255 16:43 01.01.2022
6160 Clouds 11 1021 98 10000 4.64 262 16:20 01.01.2022
6161 Clouds 11 1021 98 10000 4.64 262 15:30 01.01.2022
6162 Clouds 11 1020 99 10000 6.03 264 14:21 01.01.2022
6163 Clouds 11 1020 98 10000 6.84 269 12:50 01.01.2022
6164 Clouds 11 1020 98 10000 8.1 267 11:59 01.01.2022
6165 Clouds 11 1019 97 10000 8.72 267 11:24 01.01.2022
6166 Clouds 11 1019 97 10000 8.72 267 10:42 01.01.2022
6167 Clouds 11 1019 97 10000 9.14 268 09:47 01.01.2022
6168 Clouds 11 1017 99 6675 9.39 266 08:26 01.01.2022
6169 Clouds 11 1017 99 6675 9.39 266 07:56 01.01.2022
6170 Clouds 10 1017 99 6675 9.39 266 07:37 01.01.2022
6171 Clouds 11 1016 98 10000 9.08 266 06:42 01.01.2022
6172 Clouds 11 1015 99 4641 8.66 266 04:38 01.01.2022
6173 Clouds 11 1015 98 4514 8.36 272 03:38 01.01.2022
6174 Clouds 11 1012 99 440 9.92 267 23:52 31.12.2021
6175 Clouds 11 1012 99 420 8.95 271 21:55 31.12.2021
6176 Clouds 11 1011 99 825 8.94 270 20:49 31.12.2021
6177 Clouds 11 1010 99 1148 9.62 273 19:31 31.12.2021
6178 Clouds 7 1010 99 4473 9.31 269 18:46 31.12.2021
6179 Clouds 12 1009 98 5040 10.4 269 17:49 31.12.2021
6180 Clouds 12 1008 98 10000 10.88 267 17:22 31.12.2021
6181 Clouds 12 1008 98 10000 10.88 267 16:46 31.12.2021
6182 Clouds 12 1008 98 10000 11.51 262 16:18 31.12.2021
6183 Clouds 12 1008 98 10000 11.51 262 15:42 31.12.2021
6184 Clouds 12 1008 97 10000 12.22 262 15:20 31.12.2021
6185 Clouds 13 1008 97 10000 12.22 262 14:37 31.12.2021
6186 Rain 13 1007 97 10000 12.42 256 13:45 31.12.2021
6187 Rain 13 1007 97 10000 12.42 256 13:45 31.12.2021
6188 Clouds 13 1008 96 10000 13.21 255 12:50 31.12.2021
6189 Clouds 13 1008 92 10000 13.86 250 12:19 31.12.2021
6190 Clouds 13 1008 92 10000 13.86 250 11:41 31.12.2021
6191 Clouds 13 1008 91 10000 13.97 250 10:50 31.12.2021
6192 Clouds 13 1008 92 10000 13.82 248 10:28 31.12.2021
6193 Clouds 12 1008 92 10000 13.82 248 09:34 31.12.2021
6194 Clouds 12 1008 94 10000 13.37 249 08:50 31.12.2021
6195 Clouds 12 1008 96 10000 12.94 250 07:53 31.12.2021
6196 Rain 12 1009 99 403 9.06 251 02:36 31.12.2021
6197 Clouds 12 1009 98 10000 10.95 259 23:18 30.12.2021
6198 Clouds 11 1009 98 10000 10.95 259 22:31 30.12.2021
6199 Clouds 11 1009 98 10000 11.21 260 21:39 30.12.2021
6200 Clouds 11 1008 99 5503 11.05 256 21:19 30.12.2021
6201 Clouds 11 1008 99 5503 11.05 256 20:39 30.12.2021
6202 Clouds 11 1008 99 536 9.77 254 19:55 30.12.2021
6203 Clouds 11 1008 99 536 9.77 254 19:31 30.12.2021
6204 Clouds 11 1007 99 397 8.29 240 18:26 30.12.2021
6205 Clouds 10 1007 99 442 6.9 221 16:53 30.12.2021
6206 Clouds 10 1006 99 638 6.35 219 15:54 30.12.2021
6207 Clouds 9 1007 99 2336 6.68 224 15:21 30.12.2021
6208 Clouds 8 1007 99 2336 6.68 224 14:36 30.12.2021
6209 Rain 8 1007 98 988 9.11 229 13:26 30.12.2021
6210 Clouds 8 1007 96 10000 8.72 227 11:58 30.12.2021
6211 Clouds 7 1008 95 10000 8.86 236 10:40 30.12.2021
6212 Clouds 7 1007 96 10000 8.6 237 09:49 30.12.2021
6213 Clouds 6 1006 98 1145 8.14 234 07:25 30.12.2021
6214 Clouds 6 1006 98 1291 8.78 239 06:32 30.12.2021
6215 Clouds 3 1006 97 10000 7.4 181 03:41 30.12.2021
6216 Clouds 3 1006 97 10000 7.21 177 02:35 30.12.2021
6217 Rain 2 1007 99 77 5.66 171 23:40 29.12.2021
6218 Clouds 2 1007 99 240 5.23 159 22:59 29.12.2021
6219 Clouds 2 1008 98 2818 5.37 195 22:18 29.12.2021
6220 Clouds 2 1007 96 10000 4.14 171 21:19 29.12.2021
6221 Clouds 2 1007 96 10000 4.14 171 20:31 29.12.2021
6222 Clouds 2 1007 94 10000 3.49 177 19:44 29.12.2021
6223 Clouds 2 1007 91 10000 2.74 202 18:45 29.12.2021
6224 Clouds 2 1007 89 10000 3.22 215 17:53 29.12.2021
6225 Clouds 2 1007 88 10000 2.4 202 17:27 29.12.2021
6226 Clouds 2 1007 88 10000 2.4 202 17:27 29.12.2021
6227 Clouds 2 1005 88 10000 2.87 95 16:24 29.12.2021
6228 Clouds 2 1005 88 10000 2.87 95 15:45 29.12.2021
6229 Clouds 3 1005 87 10000 1.19 2 13:55 29.12.2021
6230 Clouds 3 1005 88 10000 0.86 286 12:37 29.12.2021
6231 Clouds 2 1004 88 10000 0.25 31 11:35 29.12.2021
6232 Clouds 2 1003 90 10000 0.65 66 09:58 29.12.2021
6233 Clouds 2 1002 91 10000 2.13 127 07:52 29.12.2021
6234 Clouds 2 1000 92 10000 2.28 122 06:39 29.12.2021
6235 Clouds 2 1000 93 10000 2.92 123 06:18 29.12.2021
6236 Clouds 1 1000 93 10000 2.92 123 05:39 29.12.2021
6237 Clouds 1 999 93 10000 3.15 140 02:48 29.12.2021
6238 Clouds 1 997 92 10000 5.82 139 00:23 29.12.2021
6239 Clouds 1 997 92 10000 5.82 139 23:35 28.12.2021
6240 Clouds 1 997 91 10000 6.25 140 22:42 28.12.2021
6241 Clouds 1 997 90 10000 6.63 136 22:24 28.12.2021
6242 Clouds 1 997 90 10000 6.63 136 21:52 28.12.2021
6243 Clouds 1 997 89 10000 7.38 141 20:40 28.12.2021
6244 Snow 0 997 90 10000 7.83 143 19:31 28.12.2021
6245 Clouds 0 997 91 10000 8.33 141 18:44 28.12.2021
6246 Clouds 0 997 91 10000 8.29 141 18:19 28.12.2021
6247 Clouds -1 997 90 10000 8.67 145 16:35 28.12.2021
6248 Clouds -1 997 90 10000 9.06 148 15:51 28.12.2021
6249 Snow -1 998 91 10000 9.49 147 15:23 28.12.2021
6250 Snow -1 998 91 10000 9.49 147 14:50 28.12.2021
6251 Snow -1 998 90 10000 9.7 146 14:21 28.12.2021
6252 Snow -1 998 90 10000 9.7 146 14:21 28.12.2021
6253 Snow -2 998 90 10000 9.7 146 13:51 28.12.2021
6254 Snow -2 998 90 10000 9.7 146 13:51 28.12.2021
6255 Clouds -2 999 88 10000 9.82 147 13:28 28.12.2021
6256 Clouds -2 999 88 10000 9.82 147 12:49 28.12.2021
6257 Clouds -2 1000 88 10000 9.53 147 11:51 28.12.2021
6258 Clouds -3 1001 87 10000 10.36 150 09:27 28.12.2021
6259 Clouds -3 1001 86 10000 10.59 145 07:31 28.12.2021
6260 Clouds -2 1006 87 10000 10.06 142 02:22 28.12.2021
6261 Snow -2 1006 86 10000 10.85 142 23:26 27.12.2021
6262 Snow -2 1007 87 10000 10.72 143 21:54 27.12.2021
6263 Snow -2 1007 86 7522 10.81 142 21:29 27.12.2021
6264 Clouds -2 1008 77 10000 10.33 140 20:24 27.12.2021
6265 Clouds -2 1008 77 10000 10.33 140 20:24 27.12.2021
6266 Clouds -3 1008 77 10000 10.33 140 19:45 27.12.2021
6267 Clouds -3 1008 74 10000 10.49 138 18:56 27.12.2021
6268 Clouds -2 1008 71 10000 10.47 136 17:50 27.12.2021
6269 Clouds -3 1008 69 10000 10.4 133 17:27 27.12.2021
6270 Clouds -3 1008 66 10000 9.94 137 15:53 27.12.2021
6271 Clouds -3 1008 65 10000 9.82 137 14:35 27.12.2021
6272 Clouds -3 1008 64 10000 10.1 138 13:59 27.12.2021
6273 Clear -3 1009 61 10000 10.36 140 12:49 27.12.2021
6274 Clear -4 1010 61 10000 10.91 138 10:37 27.12.2021
6275 Clear -4 1011 61 10000 10.73 138 10:18 27.12.2021
6276 Clear -6 1011 61 10000 10.69 138 08:42 27.12.2021
6277 Clear -6 1011 61 10000 10.69 138 08:42 27.12.2021
6278 Clear -6 1011 61 10000 10.59 138 07:34 27.12.2021
6279 Clear -7 1013 61 10000 8.08 142 02:29 27.12.2021
6280 Clear -7 1014 62 10000 7.43 145 00:57 27.12.2021
6281 Clear -6 1014 61 10000 6.76 147 23:43 26.12.2021
6282 Clear -6 1014 61 10000 6.44 151 23:19 26.12.2021
6283 Clear -6 1015 61 10000 6.27 156 21:33 26.12.2021
6284 Clear -7 1015 67 10000 5.23 159 19:55 26.12.2021
6285 Clouds -6 1015 70 10000 4.57 157 18:45 26.12.2021
6286 Clouds -6 1015 72 10000 3.59 163 18:21 26.12.2021
6287 Clouds -4 1015 75 10000 3.2 193 15:53 26.12.2021
6288 Clouds 0 1015 77 10000 4.56 220 13:51 26.12.2021
6289 Clouds 0 1015 77 10000 4.56 220 13:32 26.12.2021
6290 Clouds -2 1015 80 10000 4.47 228 12:37 26.12.2021
6291 Clouds -2 1014 81 10000 4.68 233 11:24 26.12.2021
6292 Clouds -4 1014 79 10000 4.2 243 09:42 26.12.2021
6293 Clouds -6 1014 77 10000 4.28 253 08:50 26.12.2021
6294 Clouds -6 1013 76 10000 4.56 265 08:27 26.12.2021
6295 Clouds -5 1013 74 10000 4.82 265 05:59 26.12.2021
6296 Clear -4 1013 75 10000 6.9 255 00:45 26.12.2021
6297 Clear -4 1014 74 10000 6.68 251 23:49 25.12.2021
6298 Clear -4 1014 69 10000 6.02 255 23:25 25.12.2021
6299 Clear -4 1014 64 10000 5.35 259 22:21 25.12.2021
6300 Clear -4 1013 62 10000 4.77 267 20:48 25.12.2021
6301 Clear -3 1013 62 10000 4.66 285 19:21 25.12.2021
6302 Clear -3 1013 62 10000 4.66 285 18:54 25.12.2021
6303 Clear -2 1013 64 10000 4.79 287 16:58 25.12.2021
6304 Clear -1 1013 65 10000 4.99 292 15:54 25.12.2021
6305 Clear -1 1012 66 10000 5.06 294 14:38 25.12.2021
6306 Clear -1 1012 65 10000 7.54 294 12:48 25.12.2021
6307 Clear 0 1012 62 10000 8.06 293 11:37 25.12.2021
6308 Clear -3 1012 58 10000 7.7 288 09:49 25.12.2021
6309 Clear -5 1011 57 10000 6.84 288 08:19 25.12.2021
6310 Clear -4 1009 53 10000 6.96 360 02:22 25.12.2021
6311 Clear -2 1009 51 10000 7.19 357 00:33 25.12.2021
6312 Clear -2 1008 54 10000 7.78 356 23:38 24.12.2021
6313 Clear -2 1006 60 10000 8.91 5 19:40 24.12.2021
6314 Clouds -2 1005 62 10000 9.71 13 19:22 24.12.2021
6315 Clouds -1 1003 56 10000 10.91 4 16:50 24.12.2021
6316 Clouds -1 1001 74 10000 11.72 5 16:21 24.12.2021
6317 Clouds 0 1001 74 10000 11.72 5 15:46 24.12.2021
6318 Rain 2 1000 83 7541 12.47 7 14:47 24.12.2021
6319 Clouds 2 998 90 5784 13.02 6 14:24 24.12.2021
6320 Clouds 3 998 90 5784 13.02 6 13:39 24.12.2021
6321 Clouds 3 995 91 5718 11.46 289 12:48 24.12.2021
6322 Clouds 3 996 84 10000 8.88 277 11:58 24.12.2021
6323 Clouds 3 996 84 10000 8.06 282 11:27 24.12.2021
6324 Clouds 3 996 84 10000 8.06 282 10:53 24.12.2021
6325 Clouds 2 996 84 10000 6.98 289 10:22 24.12.2021
6326 Clouds 2 996 81 10000 4.43 302 08:26 24.12.2021
6327 Snow 2 996 81 10000 4.43 302 07:50 24.12.2021
6328 Clouds 1 997 83 10000 3.6 317 03:21 24.12.2021
6329 Clouds 1 998 93 8525 4.03 255 00:19 24.12.2021
6330 Clouds 0 999 94 3675 4.6 245 23:23 23.12.2021
6331 Clouds 0 999 94 3675 4.6 245 23:23 23.12.2021
6332 Clouds 0 999 94 3675 4.6 245 22:40 23.12.2021
6333 Snow 0 999 94 7973 5.04 241 22:20 23.12.2021
6334 Snow 0 999 94 7973 5.04 241 21:34 23.12.2021
6335 Snow 0 1001 96 166 5.01 217 20:21 23.12.2021
6336 Clouds 0 1002 97 144 5.62 209 19:27 23.12.2021
6337 Snow 0 1003 97 149 6.16 207 17:57 23.12.2021
6338 Snow 0 1004 97 146 5.66 203 16:58 23.12.2021
6339 Snow 0 1005 94 584 4.63 202 16:26 23.12.2021
6340 Snow 0 1005 94 584 4.63 202 15:32 23.12.2021
6341 Snow 0 1006 82 10000 5.01 211 14:56 23.12.2021
6342 Snow 0 1006 82 10000 5.01 211 14:38 23.12.2021
6343 Snow 0 1009 70 10000 6.06 201 13:23 23.12.2021
6344 Snow 0 1010 81 10000 5.76 199 11:19 23.12.2021
6345 Clouds -1 1012 71 10000 6.14 205 09:53 23.12.2021
6346 Clouds -1 1012 71 10000 6.14 205 09:33 23.12.2021
6347 Clouds -1 1013 68 10000 5.78 196 08:25 23.12.2021
6348 Clouds -1 1016 67 10000 4.89 201 05:23 23.12.2021
6349 Clouds -1 1019 69 10000 5.57 221 00:40 23.12.2021
6350 Clouds 0 1021 71 10000 5.59 221 22:50 22.12.2021
6351 Clouds 0 1021 73 10000 5.55 224 21:59 22.12.2021
6352 Clouds 0 1021 73 10000 5.55 224 21:30 22.12.2021
6353 Clouds 0 1022 77 10000 5.84 228 20:59 22.12.2021
6354 Clouds 0 1022 77 10000 5.84 228 20:40 22.12.2021
6355 Clouds 0 1022 79 10000 5.82 230 19:50 22.12.2021
6356 Clouds 0 1023 77 10000 5.19 230 18:55 22.12.2021
6357 Clouds 0 1023 77 10000 5.23 231 17:38 22.12.2021
6358 Snow 0 1024 76 10000 5.97 235 15:56 22.12.2021
6359 Clouds 0 1024 74 10000 6.9 245 14:23 22.12.2021
6360 Clouds 0 1024 75 10000 6.7 242 12:53 22.12.2021
6361 Clouds -1 1025 76 10000 6.62 236 11:42 22.12.2021
6362 Clouds -1 1025 79 10000 6.73 235 09:52 22.12.2021
6363 Clouds -1 1025 82 10000 6.81 238 08:23 22.12.2021
6364 Clouds 1 1025 89 10000 6.84 232 05:54 22.12.2021
6365 Clouds 1 1025 89 10000 6.84 232 05:36 22.12.2021
6366 Clouds 1 1026 84 10000 6.64 230 05:18 22.12.2021
6367 Snow 1 1026 84 10000 6.64 230 04:37 22.12.2021
6368 Clouds 1 1026 86 10000 6.42 219 03:52 22.12.2021
6369 Clouds 1 1026 86 10000 6.42 219 03:31 22.12.2021
6370 Clouds 1 1027 83 10000 4.8 189 23:48 21.12.2021
6371 Snow 0 1027 80 10000 4.35 187 22:41 21.12.2021
6372 Snow 0 1026 76 10000 3.84 181 21:57 21.12.2021
6373 Clouds 0 1026 76 10000 3.84 181 21:33 21.12.2021
6374 Clouds 0 1026 73 10000 3.38 173 20:42 21.12.2021
6375 Clouds 0 1026 70 10000 3.07 169 20:18 21.12.2021
6376 Clouds 0 1026 70 10000 3.07 169 19:34 21.12.2021
6377 Clouds 0 1026 66 10000 2.72 158 18:33 21.12.2021
6378 Clouds 1 1026 65 10000 2.51 146 17:59 21.12.2021
6379 Clouds 1 1026 65 10000 2.51 146 17:40 21.12.2021
6380 Clouds 1 1026 64 10000 1.8 120 15:46 21.12.2021
6381 Clouds 3 1026 65 10000 1.94 94 14:29 21.12.2021
6382 Clouds 3 1026 65 10000 1.94 94 13:42 21.12.2021
6383 Clouds 4 1026 68 10000 1.51 105 12:39 21.12.2021
6384 Clouds 2 1026 70 10000 2.27 75 10:52 21.12.2021
6385 Clouds 2 1026 71 10000 2.59 60 09:56 21.12.2021
6386 Clouds 0 1026 71 10000 2.74 51 08:57 21.12.2021
6387 Clouds 0 1026 71 10000 2.55 45 07:45 21.12.2021
6388 Clouds 0 1026 71 10000 2.39 39 07:24 21.12.2021
6389 Clouds 1 1026 69 10000 1.26 57 04:37 21.12.2021
6390 Clouds 2 1026 71 10000 1.81 71 02:31 21.12.2021
6391 Clouds 3 1026 79 10000 3.3 46 23:57 20.12.2021
6392 Clouds 3 1026 80 10000 3.53 40 22:48 20.12.2021
6393 Clouds 5 1026 79 6956 3.59 28 22:27 20.12.2021
6394 Clouds 5 1026 77 9082 3.45 13 21:28 20.12.2021
6395 Clouds 5 1026 77 9082 3.45 13 20:57 20.12.2021
6396 Clouds 5 1026 77 9082 3.45 13 20:32 20.12.2021
6397 Rain 5 1026 74 7024 3.62 4 19:38 20.12.2021
6398 Clouds 5 1026 73 10000 3.71 2 19:20 20.12.2021
6399 Clouds 5 1026 72 10000 3.99 3 18:35 20.12.2021
6400 Clouds 5 1026 72 10000 4.43 5 17:51 20.12.2021
6401 Clouds 4 1026 71 10000 4.82 7 16:53 20.12.2021
6402 Clouds 3 1026 71 10000 4.82 7 16:35 20.12.2021
6403 Clouds 5 1026 71 10000 5.4 10 15:43 20.12.2021
6404 Clear 3 1026 71 10000 5.64 10 14:40 20.12.2021
6405 Clear 7 1025 71 10000 5.55 13 12:44 20.12.2021
6406 Clear 3 1025 72 10000 6.73 20 10:55 20.12.2021
6407 Clear 5 1024 73 10000 7.26 17 09:47 20.12.2021
6408 Clear 3 1024 73 10000 7.65 14 08:57 20.12.2021
6409 Clear 3 1024 73 10000 7.65 14 08:38 20.12.2021
6410 Clear 3 1023 72 10000 8.2 9 07:46 20.12.2021
6411 Clear 4 1023 69 10000 8.93 4 06:40 20.12.2021
6412 Clear 5 1022 66 10000 10.08 357 03:41 20.12.2021
6413 Clear 4 1021 62 10000 11.95 352 23:50 19.12.2021
6414 Clear 5 1021 61 10000 12.21 348 22:44 19.12.2021
6415 Clear 5 1021 62 10000 11.83 346 21:49 19.12.2021
6416 Clear 5 1020 62 10000 11.13 345 21:26 19.12.2021
6417 Clear 5 1020 62 10000 11.13 345 20:30 19.12.2021
6418 Clear 5 1020 61 10000 11.06 353 19:46 19.12.2021
6419 Clouds 5 1020 60 10000 10.42 358 18:57 19.12.2021
6420 Clouds 6 1019 57 10000 10.04 353 18:24 19.12.2021
6421 Clouds 6 1019 57 10000 10.04 353 17:46 19.12.2021
6422 Clouds 6 1019 62 10000 10.97 354 17:18 19.12.2021
6423 Clouds 7 1018 72 10000 10.17 347 16:24 19.12.2021
6424 Clouds 8 1017 70 10000 6.64 340 15:28 19.12.2021
6425 Clouds 8 1017 70 10000 6.64 340 14:57 19.12.2021
6426 Clouds 8 1017 70 10000 6.64 340 14:36 19.12.2021
6427 Clear 8 1017 86 10000 10.39 345 13:22 19.12.2021
6428 Clear 8 1017 86 10000 10.39 345 12:33 19.12.2021
6429 Clear 8 1017 86 10000 11.03 317 11:42 19.12.2021
6430 Clear 8 1017 86 10000 11.3 310 10:53 19.12.2021
6431 Clear 8 1018 87 10000 11.35 307 10:23 19.12.2021
6432 Clear 8 1018 87 10000 11.35 307 10:23 19.12.2021
6433 Clear 8 1018 86 10000 11.28 305 09:26 19.12.2021
6434 Clear 8 1018 86 10000 11.44 305 07:50 19.12.2021
6435 Clouds 8 1019 84 10000 12.26 309 04:44 19.12.2021
6436 Clear 7 1021 89 10000 12.47 288 00:55 19.12.2021
6437 Clear 8 1022 88 10000 12 288 23:52 18.12.2021
6438 Clear 8 1023 88 10000 11.74 287 22:32 18.12.2021
6439 Clear 8 1024 88 10000 11.39 283 21:54 18.12.2021
6440 Clear 8 1024 88 10000 11.39 283 21:34 18.12.2021
6441 Clear 7 1025 88 10000 10.61 285 20:44 18.12.2021
6442 Clear 8 1026 88 10000 10.08 290 19:51 18.12.2021
6443 Clouds 8 1026 88 10000 9.14 289 19:19 18.12.2021
6444 Clouds 8 1026 90 10000 9.19 281 18:20 18.12.2021
6445 Clouds 8 1026 90 10000 9.19 281 17:47 18.12.2021
6446 Clouds 8 1028 88 10000 9.34 289 16:25 18.12.2021
6447 Clouds 8 1029 89 10000 9.18 285 15:26 18.12.2021
6448 Clouds 8 1029 89 10000 9.18 285 14:32 18.12.2021
6449 Clouds 7 1030 87 10000 8.35 284 13:20 18.12.2021
6450 Clouds 7 1032 87 10000 6.71 271 11:21 18.12.2021
6451 Clouds 7 1032 84 10000 6.91 273 09:39 18.12.2021
6452 Clouds 7 1033 83 10000 6.97 271 08:46 18.12.2021
6453 Clouds 7 1033 86 10000 6.48 268 08:19 18.12.2021
6454 Clouds 8 1035 86 10000 4.37 287 02:20 18.12.2021
6455 Clouds 8 1036 88 10000 3.58 301 00:27 18.12.2021
6456 Clouds 7 1036 88 10000 3.58 301 23:39 17.12.2021
6457 Clouds 7 1036 90 10000 4.16 319 21:56 17.12.2021
6458 Clouds 7 1036 90 10000 4.16 319 21:56 17.12.2021
6459 Clouds 7 1036 93 10000 4.42 318 20:58 17.12.2021
6460 Clouds 7 1036 93 10000 4.42 318 20:38 17.12.2021
6461 Clouds 7 1035 93 10000 4.61 310 19:18 17.12.2021
6462 Clear 7 1035 90 10000 3.44 303 18:38 17.12.2021
6463 Clear 7 1035 89 10000 3.22 311 17:31 17.12.2021
6464 Clear 7 1035 89 10000 3.63 320 16:46 17.12.2021
6465 Clear 7 1035 89 10000 4.46 313 16:22 17.12.2021
6466 Clear 7 1035 89 10000 4.19 305 15:21 17.12.2021
6467 Clear 7 1035 89 10000 4.19 305 15:21 17.12.2021
6468 Clear 7 1035 89 10000 4.19 305 14:39 17.12.2021
6469 Clear 8 1034 90 10000 4.12 316 12:46 17.12.2021
6470 Clear 7 1034 89 10000 4.71 316 11:34 17.12.2021
6471 Clear 7 1035 89 10000 5.63 320 10:37 17.12.2021
6472 Clear 7 1034 90 10000 5.95 310 09:31 17.12.2021
6473 Clear 7 1034 90 10000 6.21 306 08:30 17.12.2021
6474 Clouds 7 1034 88 10000 6.84 314 05:58 17.12.2021
6475 Clear 7 1034 86 10000 8.08 312 02:53 17.12.2021
6476 Clear 7 1033 85 10000 8.8 304 23:25 16.12.2021
6477 Clear 7 1033 85 10000 8.94 298 22:24 16.12.2021
6478 Clear 7 1033 85 10000 8.94 298 21:50 16.12.2021
6479 Clear 7 1033 84 10000 8.71 299 21:25 16.12.2021
6480 Clear 7 1033 84 10000 8.71 299 20:30 16.12.2021
6481 Clear 7 1033 84 10000 8.39 300 19:44 16.12.2021
6482 Clear 8 1033 84 10000 9.1 306 18:39 16.12.2021
6483 Clear 8 1032 83 10000 9.89 298 17:56 16.12.2021
6484 Clear 8 1032 83 10000 9.89 298 17:30 16.12.2021
6485 Clear 9 1032 83 10000 9.84 295 16:21 16.12.2021
6486 Clear 10 1032 82 10000 9.75 292 14:50 16.12.2021
6487 Clouds 8 1032 82 10000 8.95 291 13:29 16.12.2021
6488 Clouds 8 1031 86 10000 8.42 292 11:20 16.12.2021
6489 Clouds 11 1031 86 10000 8.42 292 10:59 16.12.2021
6490 Clouds 10 1030 89 10000 8.5 288 10:20 16.12.2021
6491 Clouds 9 1029 91 10000 8.74 287 08:25 16.12.2021
6492 Clouds 9 1028 95 10000 8.62 280 06:22 16.12.2021
6493 Clouds 10 1026 92 10000 9.54 275 01:25 16.12.2021
6494 Clouds 10 1026 91 10000 10.73 276 23:33 15.12.2021
6495 Clouds 10 1026 93 10000 10.61 266 22:43 15.12.2021
6496 Clouds 10 1026 93 10000 10.28 260 21:56 15.12.2021
6497 Clouds 10 1025 91 10000 9.97 257 21:27 15.12.2021
6498 Clouds 10 1025 89 10000 10.05 255 20:18 15.12.2021
6499 Clouds 10 1025 89 10000 10.05 255 19:50 15.12.2021
6500 Clouds 10 1025 89 10000 10.19 256 18:38 15.12.2021
6501 Clouds 11 1025 89 10000 10.32 253 17:55 15.12.2021
6502 Clouds 11 1025 89 10000 10.32 253 17:36 15.12.2021
6503 Clouds 11 1025 81 10000 9.8 255 16:28 15.12.2021
6504 Clouds 11 1025 81 10000 9.8 255 15:47 15.12.2021
6505 Clouds 11 1024 83 10000 10.23 254 15:27 15.12.2021
6506 Clouds 11 1024 88 10000 9.92 255 14:42 15.12.2021
6507 Clouds 11 1024 88 10000 10.45 253 12:46 15.12.2021
6508 Clouds 11 1024 88 10000 10.45 253 12:46 15.12.2021
6509 Clouds 11 1025 89 10000 10.14 254 10:44 15.12.2021
6510 Clouds 10 1024 91 10000 9.71 245 08:55 15.12.2021
6511 Clouds 10 1023 92 10000 9.42 238 07:43 15.12.2021
6512 Clouds 8 1024 93 10000 6.8 231 01:39 15.12.2021
6513 Clouds 6 1025 94 10000 6.34 232 23:42 14.12.2021
6514 Clouds 5 1024 92 10000 6.43 223 22:49 14.12.2021
6515 Clouds 5 1025 90 10000 5.13 233 22:25 14.12.2021
6516 Clouds 6 1024 90 10000 4.65 241 20:57 14.12.2021
6517 Clouds 6 1024 90 10000 4.59 249 19:44 14.12.2021
6518 Clouds 6 1024 90 10000 4.59 249 19:44 14.12.2021
6519 Clouds 6 1024 91 10000 3.68 246 19:20 14.12.2021
6520 Clouds 6 1024 91 10000 3.83 257 18:29 14.12.2021
6521 Clouds 6 1024 91 10000 3.83 257 17:34 14.12.2021
6522 Clouds 6 1024 91 10000 3.99 268 16:43 14.12.2021
6523 Clouds 8 1024 89 10000 3.69 287 15:41 14.12.2021
6524 Clouds 9 1023 90 10000 4.15 323 13:32 14.12.2021
6525 Clouds 9 1022 95 10000 6.7 288 12:27 14.12.2021
6526 Clouds 9 1021 94 10000 9.32 264 11:24 14.12.2021
6527 Clouds 9 1021 93 10000 9.99 247 10:25 14.12.2021
6528 Clouds 9 1021 93 10000 9.99 247 09:53 14.12.2021
6529 Clouds 8 1021 90 10000 8.65 238 08:29 14.12.2021
6530 Clouds 9 1021 90 10000 8.65 238 07:59 14.12.2021
6531 Clouds 9 1021 92 10000 7.99 229 05:52 14.12.2021
6532 Clouds 10 1024 92 10000 6.62 229 23:39 13.12.2021
6533 Clouds 10 1024 93 10000 6.57 232 21:57 13.12.2021
6534 Clouds 10 1024 93 10000 6.57 232 21:34 13.12.2021
6535 Clouds 10 1024 94 10000 6.15 233 20:50 13.12.2021
6536 Clouds 10 1024 94 10000 5.74 230 19:59 13.12.2021
6537 Clouds 10 1024 94 10000 5.27 227 19:27 13.12.2021
6538 Clouds 10 1024 96 10000 4.98 241 17:27 13.12.2021
6539 Clouds 10 1024 96 10000 4.98 241 17:27 13.12.2021
6540 Clouds 10 1024 98 10000 4.87 247 16:23 13.12.2021
6541 Clouds 10 1024 98 10000 4.87 247 15:43 13.12.2021
6542 Clouds 10 1024 98 10000 4.87 247 15:43 13.12.2021
6543 Clouds 10 1024 99 264 4.54 239 13:52 13.12.2021
6544 Clouds 10 1024 99 264 4.54 239 13:31 13.12.2021
6545 Clouds 9 1023 99 595 4.92 238 12:36 13.12.2021
6546 Clouds 8 1023 98 10000 4.22 230 11:43 13.12.2021
6547 Clouds 8 1023 97 10000 3.72 223 11:24 13.12.2021
6548 Clouds 8 1023 97 10000 3.58 234 10:21 13.12.2021
6549 Clouds 7 1023 98 4936 3.83 243 08:31 13.12.2021
6550 Clouds 7 1022 98 4812 5.52 252 05:38 13.12.2021
6551 Clouds 7 1021 96 10000 5.63 262 03:57 13.12.2021
6552 Clouds 7 1020 98 5036 5.91 240 23:43 12.12.2021
6553 Clouds 6 1019 98 2742 5.59 220 21:57 12.12.2021
6554 Clouds 5 1019 97 10000 5.62 215 20:48 12.12.2021
6555 Clouds 5 1019 96 10000 5.49 211 19:34 12.12.2021
6556 Clouds 4 1019 95 10000 6.93 200 17:58 12.12.2021
6557 Clouds 3 1019 95 10000 7.98 196 16:29 12.12.2021
6558 Clouds 3 1019 95 10000 7.98 196 15:54 12.12.2021
6559 Rain 3 1019 96 10000 8.11 190 15:28 12.12.2021
6560 Clouds 3 1019 96 10000 8.11 190 14:42 12.12.2021
6561 Clouds 3 1020 97 2097 7.45 189 13:47 12.12.2021
6562 Rain 3 1020 96 5713 7.57 189 12:48 12.12.2021
6563 Rain 3 1020 95 8324 6.69 195 11:45 12.12.2021
6564 Rain 3 1020 93 10000 6.58 211 11:25 12.12.2021
6565 Rain 3 1020 93 10000 6.58 211 10:43 12.12.2021
6566 Rain 3 1020 91 10000 6.59 222 09:58 12.12.2021
6567 Clouds 3 1020 91 10000 7.12 229 08:44 12.12.2021
6568 Clouds 3 1020 91 10000 5.75 220 06:55 12.12.2021
6569 Clouds 3 1020 88 10000 5.97 235 05:29 12.12.2021
6570 Clouds 3 1019 85 10000 4.77 235 04:19 12.12.2021
6571 Clouds 3 1018 83 10000 5.22 254 00:54 12.12.2021
6572 Clouds 3 1017 84 10000 6.12 258 22:56 11.12.2021
6573 Clouds 2 1017 88 10000 6.8 255 22:20 11.12.2021
6574 Clouds 3 1017 88 10000 6.8 255 21:35 11.12.2021
6575 Clouds 3 1015 93 10000 8.38 248 20:18 11.12.2021
6576 Clouds 3 1015 91 9852 8.23 248 19:21 11.12.2021
6577 Clouds 3 1015 96 2229 7.65 232 18:45 11.12.2021
6578 Clouds 3 1014 98 1216 7.14 223 17:54 11.12.2021
6579 Clouds 3 1013 87 10000 7.63 233 15:59 11.12.2021
6580 Clouds 3 1013 87 10000 7.63 233 15:40 11.12.2021
6581 Clouds 2 1012 82 10000 7.12 235 14:35 11.12.2021
6582 Clouds 3 1011 78 10000 7.46 243 12:31 11.12.2021
6583 Clouds 2 1010 87 10000 6.95 231 10:50 11.12.2021
6584 Snow 2 1009 90 10000 6.03 230 09:43 11.12.2021
6585 Clouds 1 1005 97 237 4.8 216 03:58 11.12.2021
6586 Snow 1 1003 98 56 3.75 210 00:48 11.12.2021
6587 Snow 1 1003 98 62 3.96 201 23:44 10.12.2021
6588 Snow 1 1002 97 159 3.49 204 22:47 10.12.2021
6589 Clouds 1 1002 95 834 3.49 207 21:41 10.12.2021
6590 Snow 1 1000 97 94 3.57 195 20:28 10.12.2021
6591 Rain 1 1000 98 64 3.45 186 19:19 10.12.2021
6592 Snow 1 999 98 55 3.35 171 17:50 10.12.2021
6593 Rain 1 999 98 61 2.92 166 16:39 10.12.2021
6594 Rain 1 999 98 62 2.69 172 15:45 10.12.2021
6595 Rain 2 999 97 88 2.71 167 15:27 10.12.2021
6596 Rain 2 999 97 88 2.71 167 14:49 10.12.2021
6597 Snow 1 998 97 66 2.73 159 13:50 10.12.2021
6598 Snow 1 998 98 54 2.72 153 13:18 10.12.2021
6599 Rain 1 999 98 52 2.21 146 11:43 10.12.2021
6600 Rain 1 999 97 75 2.01 139 11:19 10.12.2021
6601 Snow 1 1000 97 122 2.18 143 09:53 10.12.2021
6602 Snow 1 1000 97 234 2.77 160 08:23 10.12.2021
6603 Snow 0 1001 96 221 4.12 144 05:46 10.12.2021
6604 Clouds 0 1002 89 10000 4.17 160 02:47 10.12.2021
6605 Clouds -1 1004 87 10000 4.24 161 23:43 09.12.2021
6606 Clouds -1 1005 87 10000 4.23 179 22:49 09.12.2021
6607 Clouds -1 1005 87 10000 4.5 172 22:23 09.12.2021
6608 Clouds -1 1005 87 10000 4.5 172 22:23 09.12.2021
6609 Clouds -1 1005 87 10000 4.5 172 21:40 09.12.2021
6610 Clouds -1 1006 88 10000 4.91 170 20:40 09.12.2021
6611 Clouds -1 1006 87 10000 5.04 184 19:46 09.12.2021
6612 Clouds -2 1006 87 10000 5.21 169 19:21 09.12.2021
6613 Clouds -2 1006 86 10000 5.1 166 18:25 09.12.2021
6614 Clouds -1 1006 86 10000 5.1 166 17:51 09.12.2021
6615 Clouds -1 1006 88 10000 5.63 160 17:25 09.12.2021
6616 Clouds -1 1006 88 10000 5.63 160 16:51 09.12.2021
6617 Clouds 0 1006 90 7487 4.95 153 15:31 09.12.2021
6618 Clouds 0 1006 92 2711 4.9 138 14:44 09.12.2021
6619 Snow 0 1007 77 10000 4.62 147 13:19 09.12.2021
6620 Snow 0 1007 77 10000 4.62 147 12:35 09.12.2021
6621 Snow -1 1007 78 10000 5.34 145 10:58 09.12.2021
6622 Clouds -1 1007 80 10000 6.77 135 08:54 09.12.2021
6623 Clouds -1 1007 81 10000 7.9 135 06:21 09.12.2021
6624 Clouds -1 1007 81 10000 8 137 02:58 09.12.2021
6625 Clouds -1 1008 80 10000 8.34 135 23:43 08.12.2021
6626 Clouds -1 1008 79 10000 7.59 138 23:21 08.12.2021
6627 Snow -1 1008 79 10000 7.59 138 22:47 08.12.2021
6628 Clouds -1 1008 80 10000 8.5 145 21:40 08.12.2021
6629 Clouds -1 1007 80 10000 8.52 139 20:59 08.12.2021
6630 Clouds 0 1007 79 10000 9.16 140 19:58 08.12.2021
6631 Clouds 0 1007 79 10000 9.16 140 19:34 08.12.2021
6632 Clouds 1 1007 79 10000 9.83 140 18:45 08.12.2021
6633 Clouds 1 1006 78 10000 10.34 142 17:36 08.12.2021
6634 Clouds 1 1006 78 10000 10.34 142 17:36 08.12.2021
6635 Clouds 1 1006 77</